<?xml version="1.0" encoding="UTF-8" standalone="no" ?>
<gpx xmlns="http://www.topografix.com/GPX/1/1" xmlns:xsi="http://www.w3.org/2001/XMLSchema-instance" xsi:schemaLocation="http://www.topografix.com/GPX/1/1 http://www.topografix.com/GPX/1/1/gpx.xsd" version="1.1" creator="VisuGPX - https://www.visugpx.com">
  <metadata>
    <name>tour-des-voirons-jambaz</name>
    <desc><![CDATA[
bons orcier vally jambaz habere-poche boege saxel bons]]></desc>
  </metadata>
  <trk>
    <name><![CDATA[Annemasse Cyclisme]]></name>
    <desc><![CDATA[bons orcier vally jambaz habere-poche boege saxel bons]]></desc>
    <trkseg>
      <trkpt lat="46.1998" lon="6.23915">
        <ele>436.20001220703</ele>
        <time>2021-03-24T09:39:02.000Z</time>
      </trkpt>
      <trkpt lat="46.20007" lon="6.23889">
        <ele>435</ele>
        <time>2021-03-24T09:39:06.000Z</time>
      </trkpt>
      <trkpt lat="46.20014" lon="6.2389">
        <ele>435</ele>
        <time>2021-03-24T09:39:08.000Z</time>
      </trkpt>
      <trkpt lat="46.20014" lon="6.2389">
        <ele>435</ele>
        <time>2021-03-24T09:39:09.000Z</time>
      </trkpt>
      <trkpt lat="46.20014" lon="6.2389">
        <ele>435</ele>
        <time>2021-03-24T09:39:10.000Z</time>
      </trkpt>
      <trkpt lat="46.20033" lon="6.23939">
        <ele>435.60000610352</ele>
        <time>2021-03-24T09:39:15.000Z</time>
      </trkpt>
      <trkpt lat="46.20051" lon="6.23969">
        <ele>436</ele>
        <time>2021-03-24T09:39:21.000Z</time>
      </trkpt>
      <trkpt lat="46.20068" lon="6.23999">
        <ele>436.79998779297</ele>
        <time>2021-03-24T09:39:27.000Z</time>
      </trkpt>
      <trkpt lat="46.2007" lon="6.24004">
        <ele>436.79998779297</ele>
        <time>2021-03-24T09:39:28.000Z</time>
      </trkpt>
      <trkpt lat="46.20074" lon="6.24015">
        <ele>436.79998779297</ele>
        <time>2021-03-24T09:39:30.000Z</time>
      </trkpt>
      <trkpt lat="46.20078" lon="6.24026">
        <ele>436.79998779297</ele>
        <time>2021-03-24T09:39:32.000Z</time>
      </trkpt>
      <trkpt lat="46.20081" lon="6.2405">
        <ele>436.79998779297</ele>
        <time>2021-03-24T09:39:34.000Z</time>
      </trkpt>
      <trkpt lat="46.20086" lon="6.24065">
        <ele>436.60000610352</ele>
        <time>2021-03-24T09:39:38.000Z</time>
      </trkpt>
      <trkpt lat="46.2012" lon="6.24085">
        <ele>436.39999389648</ele>
        <time>2021-03-24T09:39:44.000Z</time>
      </trkpt>
      <trkpt lat="46.20125" lon="6.24094">
        <ele>436.60000610352</ele>
        <time>2021-03-24T09:39:46.000Z</time>
      </trkpt>
      <trkpt lat="46.20128" lon="6.24105">
        <ele>437</ele>
        <time>2021-03-24T09:39:48.000Z</time>
      </trkpt>
      <trkpt lat="46.20134" lon="6.24115">
        <ele>437.20001220703</ele>
        <time>2021-03-24T09:39:50.000Z</time>
      </trkpt>
      <trkpt lat="46.20137" lon="6.24117">
        <ele>437.20001220703</ele>
        <time>2021-03-24T09:39:51.000Z</time>
      </trkpt>
      <trkpt lat="46.20146" lon="6.24125">
        <ele>437.20001220703</ele>
        <time>2021-03-24T09:39:53.000Z</time>
      </trkpt>
      <trkpt lat="46.20156" lon="6.24143">
        <ele>437</ele>
        <time>2021-03-24T09:39:56.000Z</time>
      </trkpt>
      <trkpt lat="46.20188" lon="6.242">
        <ele>437</ele>
        <time>2021-03-24T09:40:06.000Z</time>
      </trkpt>
      <trkpt lat="46.20214" lon="6.24244">
        <ele>437</ele>
        <time>2021-03-24T09:40:14.000Z</time>
      </trkpt>
      <trkpt lat="46.20222" lon="6.24252">
        <ele>437.39999389648</ele>
        <time>2021-03-24T09:40:16.000Z</time>
      </trkpt>
      <trkpt lat="46.2023" lon="6.24261">
        <ele>437.60000610352</ele>
        <time>2021-03-24T09:40:18.000Z</time>
      </trkpt>
      <trkpt lat="46.20234" lon="6.24263">
        <ele>437.79998779297</ele>
        <time>2021-03-24T09:40:19.000Z</time>
      </trkpt>
      <trkpt lat="46.20277" lon="6.24281">
        <ele>438.39999389648</ele>
        <time>2021-03-24T09:40:28.000Z</time>
      </trkpt>
      <trkpt lat="46.20299" lon="6.24295">
        <ele>438.60000610352</ele>
        <time>2021-03-24T09:40:33.000Z</time>
      </trkpt>
      <trkpt lat="46.20306" lon="6.24305">
        <ele>439</ele>
        <time>2021-03-24T09:40:35.000Z</time>
      </trkpt>
      <trkpt lat="46.20309" lon="6.2431">
        <ele>439</ele>
        <time>2021-03-24T09:40:36.000Z</time>
      </trkpt>
      <trkpt lat="46.20316" lon="6.2432">
        <ele>439</ele>
        <time>2021-03-24T09:40:38.000Z</time>
      </trkpt>
      <trkpt lat="46.2032" lon="6.2433">
        <ele>438.79998779297</ele>
        <time>2021-03-24T09:40:40.000Z</time>
      </trkpt>
      <trkpt lat="46.20333" lon="6.24372">
        <ele>438.60000610352</ele>
        <time>2021-03-24T09:40:48.000Z</time>
      </trkpt>
      <trkpt lat="46.20344" lon="6.24409">
        <ele>439.60000610352</ele>
        <time>2021-03-24T09:40:55.000Z</time>
      </trkpt>
      <trkpt lat="46.20356" lon="6.24442">
        <ele>439</ele>
        <time>2021-03-24T09:41:02.000Z</time>
      </trkpt>
      <trkpt lat="46.20367" lon="6.24456">
        <ele>439.20001220703</ele>
        <time>2021-03-24T09:41:07.000Z</time>
      </trkpt>
      <trkpt lat="46.2037" lon="6.24459">
        <ele>439.20001220703</ele>
        <time>2021-03-24T09:41:08.000Z</time>
      </trkpt>
      <trkpt lat="46.2037" lon="6.24459">
        <ele>439.20001220703</ele>
        <time>2021-03-24T09:41:09.000Z</time>
      </trkpt>
      <trkpt lat="46.20375" lon="6.24451">
        <ele>439</ele>
        <time>2021-03-24T09:41:11.000Z</time>
      </trkpt>
      <trkpt lat="46.20393" lon="6.2442">
        <ele>439.60000610352</ele>
        <time>2021-03-24T09:41:18.000Z</time>
      </trkpt>
      <trkpt lat="46.20398" lon="6.24404">
        <ele>439.79998779297</ele>
        <time>2021-03-24T09:41:21.000Z</time>
      </trkpt>
      <trkpt lat="46.20398" lon="6.24396">
        <ele>439.79998779297</ele>
        <time>2021-03-24T09:41:22.000Z</time>
      </trkpt>
      <trkpt lat="46.20399" lon="6.24388">
        <ele>440</ele>
        <time>2021-03-24T09:41:23.000Z</time>
      </trkpt>
      <trkpt lat="46.204" lon="6.24371">
        <ele>440.39999389648</ele>
        <time>2021-03-24T09:41:25.000Z</time>
      </trkpt>
      <trkpt lat="46.20404" lon="6.24311">
        <ele>441.39999389648</ele>
        <time>2021-03-24T09:41:31.000Z</time>
      </trkpt>
      <trkpt lat="46.20409" lon="6.24247">
        <ele>440.20001220703</ele>
        <time>2021-03-24T09:41:37.000Z</time>
      </trkpt>
      <trkpt lat="46.20415" lon="6.24168">
        <ele>440.39999389648</ele>
        <time>2021-03-24T09:41:44.000Z</time>
      </trkpt>
      <trkpt lat="46.20421" lon="6.24108">
        <ele>438.79998779297</ele>
        <time>2021-03-24T09:41:50.000Z</time>
      </trkpt>
      <trkpt lat="46.20421" lon="6.24091">
        <ele>439.39999389648</ele>
        <time>2021-03-24T09:41:52.000Z</time>
      </trkpt>
      <trkpt lat="46.20421" lon="6.24084">
        <ele>439.20001220703</ele>
        <time>2021-03-24T09:41:53.000Z</time>
      </trkpt>
      <trkpt lat="46.20422" lon="6.24077">
        <ele>439</ele>
        <time>2021-03-24T09:41:54.000Z</time>
      </trkpt>
      <trkpt lat="46.20427" lon="6.24062">
        <ele>438.39999389648</ele>
        <time>2021-03-24T09:41:56.000Z</time>
      </trkpt>
      <trkpt lat="46.2043" lon="6.24054">
        <ele>438.20001220703</ele>
        <time>2021-03-24T09:41:57.000Z</time>
      </trkpt>
      <trkpt lat="46.20444" lon="6.24003">
        <ele>438</ele>
        <time>2021-03-24T09:42:04.000Z</time>
      </trkpt>
      <trkpt lat="46.20461" lon="6.23945">
        <ele>438.39999389648</ele>
        <time>2021-03-24T09:42:12.000Z</time>
      </trkpt>
      <trkpt lat="46.20462" lon="6.23939">
        <ele>438.20001220703</ele>
        <time>2021-03-24T09:42:13.000Z</time>
      </trkpt>
      <trkpt lat="46.20472" lon="6.2393">
        <ele>437.79998779297</ele>
        <time>2021-03-24T09:42:15.000Z</time>
      </trkpt>
      <trkpt lat="46.20481" lon="6.23933">
        <ele>437.79998779297</ele>
        <time>2021-03-24T09:42:17.000Z</time>
      </trkpt>
      <trkpt lat="46.20491" lon="6.23937">
        <ele>438</ele>
        <time>2021-03-24T09:42:19.000Z</time>
      </trkpt>
      <trkpt lat="46.20518" lon="6.23945">
        <ele>439</ele>
        <time>2021-03-24T09:42:25.000Z</time>
      </trkpt>
      <trkpt lat="46.20522" lon="6.23948">
        <ele>438.79998779297</ele>
        <time>2021-03-24T09:42:26.000Z</time>
      </trkpt>
      <trkpt lat="46.20528" lon="6.23951">
        <ele>438.79998779297</ele>
        <time>2021-03-24T09:42:27.000Z</time>
      </trkpt>
      <trkpt lat="46.20544" lon="6.23959">
        <ele>438</ele>
        <time>2021-03-24T09:42:30.000Z</time>
      </trkpt>
      <trkpt lat="46.2055" lon="6.23962">
        <ele>437.79998779297</ele>
        <time>2021-03-24T09:42:31.000Z</time>
      </trkpt>
      <trkpt lat="46.20582" lon="6.23977">
        <ele>436</ele>
        <time>2021-03-24T09:42:37.000Z</time>
      </trkpt>
      <trkpt lat="46.20626" lon="6.23992">
        <ele>436.79998779297</ele>
        <time>2021-03-24T09:42:45.000Z</time>
      </trkpt>
      <trkpt lat="46.20667" lon="6.24004">
        <ele>436</ele>
        <time>2021-03-24T09:42:53.000Z</time>
      </trkpt>
      <trkpt lat="46.20709" lon="6.24013">
        <ele>437</ele>
        <time>2021-03-24T09:43:01.000Z</time>
      </trkpt>
      <trkpt lat="46.20748" lon="6.24028">
        <ele>438.20001220703</ele>
        <time>2021-03-24T09:43:09.000Z</time>
      </trkpt>
      <trkpt lat="46.20792" lon="6.24048">
        <ele>439</ele>
        <time>2021-03-24T09:43:18.000Z</time>
      </trkpt>
      <trkpt lat="46.20803" lon="6.24049">
        <ele>439</ele>
        <time>2021-03-24T09:43:20.000Z</time>
      </trkpt>
      <trkpt lat="46.20823" lon="6.24055">
        <ele>438.79998779297</ele>
        <time>2021-03-24T09:43:24.000Z</time>
      </trkpt>
      <trkpt lat="46.2083" lon="6.24058">
        <ele>438.79998779297</ele>
        <time>2021-03-24T09:43:26.000Z</time>
      </trkpt>
      <trkpt lat="46.20839" lon="6.24062">
        <ele>439</ele>
        <time>2021-03-24T09:43:28.000Z</time>
      </trkpt>
      <trkpt lat="46.20862" lon="6.24096">
        <ele>439</ele>
        <time>2021-03-24T09:43:35.000Z</time>
      </trkpt>
      <trkpt lat="46.20866" lon="6.241">
        <ele>439</ele>
        <time>2021-03-24T09:43:36.000Z</time>
      </trkpt>
      <trkpt lat="46.20882" lon="6.24106">
        <ele>439</ele>
        <time>2021-03-24T09:43:39.000Z</time>
      </trkpt>
      <trkpt lat="46.20888" lon="6.24109">
        <ele>439</ele>
        <time>2021-03-24T09:43:40.000Z</time>
      </trkpt>
      <trkpt lat="46.20922" lon="6.24112">
        <ele>438.79998779297</ele>
        <time>2021-03-24T09:43:46.000Z</time>
      </trkpt>
      <trkpt lat="46.20961" lon="6.24117">
        <ele>438.60000610352</ele>
        <time>2021-03-24T09:43:53.000Z</time>
      </trkpt>
      <trkpt lat="46.20981" lon="6.2413">
        <ele>439.39999389648</ele>
        <time>2021-03-24T09:43:57.000Z</time>
      </trkpt>
      <trkpt lat="46.21005" lon="6.24166">
        <ele>439</ele>
        <time>2021-03-24T09:44:03.000Z</time>
      </trkpt>
      <trkpt lat="46.21044" lon="6.24225">
        <ele>438.79998779297</ele>
        <time>2021-03-24T09:44:13.000Z</time>
      </trkpt>
      <trkpt lat="46.2107" lon="6.24264">
        <ele>438.20001220703</ele>
        <time>2021-03-24T09:44:20.000Z</time>
      </trkpt>
      <trkpt lat="46.21108" lon="6.24321">
        <ele>437.60000610352</ele>
        <time>2021-03-24T09:44:30.000Z</time>
      </trkpt>
      <trkpt lat="46.2114" lon="6.2437">
        <ele>439</ele>
        <time>2021-03-24T09:44:39.000Z</time>
      </trkpt>
      <trkpt lat="46.21167" lon="6.24411">
        <ele>441</ele>
        <time>2021-03-24T09:44:46.000Z</time>
      </trkpt>
      <trkpt lat="46.21198" lon="6.24457">
        <ele>441.39999389648</ele>
        <time>2021-03-24T09:44:54.000Z</time>
      </trkpt>
      <trkpt lat="46.21237" lon="6.24515">
        <ele>440.20001220703</ele>
        <time>2021-03-24T09:45:04.000Z</time>
      </trkpt>
      <trkpt lat="46.2126" lon="6.24545">
        <ele>439.60000610352</ele>
        <time>2021-03-24T09:45:10.000Z</time>
      </trkpt>
      <trkpt lat="46.21269" lon="6.24554">
        <ele>439</ele>
        <time>2021-03-24T09:45:12.000Z</time>
      </trkpt>
      <trkpt lat="46.21313" lon="6.24587">
        <ele>439.20001220703</ele>
        <time>2021-03-24T09:45:21.000Z</time>
      </trkpt>
      <trkpt lat="46.21364" lon="6.24625">
        <ele>440.39999389648</ele>
        <time>2021-03-24T09:45:31.000Z</time>
      </trkpt>
      <trkpt lat="46.21375" lon="6.24632">
        <ele>440.79998779297</ele>
        <time>2021-03-24T09:45:33.000Z</time>
      </trkpt>
      <trkpt lat="46.21404" lon="6.24653">
        <ele>443.20001220703</ele>
        <time>2021-03-24T09:45:39.000Z</time>
      </trkpt>
      <trkpt lat="46.21408" lon="6.24656">
        <ele>443.60000610352</ele>
        <time>2021-03-24T09:45:40.000Z</time>
      </trkpt>
      <trkpt lat="46.21423" lon="6.24666">
        <ele>444.20001220703</ele>
        <time>2021-03-24T09:45:43.000Z</time>
      </trkpt>
      <trkpt lat="46.21433" lon="6.24673">
        <ele>444.39999389648</ele>
        <time>2021-03-24T09:45:45.000Z</time>
      </trkpt>
      <trkpt lat="46.21443" lon="6.2468">
        <ele>444.60000610352</ele>
        <time>2021-03-24T09:45:47.000Z</time>
      </trkpt>
      <trkpt lat="46.21452" lon="6.24687">
        <ele>444.39999389648</ele>
        <time>2021-03-24T09:45:49.000Z</time>
      </trkpt>
      <trkpt lat="46.21462" lon="6.24694">
        <ele>444</ele>
        <time>2021-03-24T09:45:51.000Z</time>
      </trkpt>
      <trkpt lat="46.21474" lon="6.24702">
        <ele>443.60000610352</ele>
        <time>2021-03-24T09:45:53.000Z</time>
      </trkpt>
      <trkpt lat="46.21512" lon="6.24729">
        <ele>441.20001220703</ele>
        <time>2021-03-24T09:46:00.000Z</time>
      </trkpt>
      <trkpt lat="46.2156" lon="6.24766">
        <ele>439.79998779297</ele>
        <time>2021-03-24T09:46:09.000Z</time>
      </trkpt>
      <trkpt lat="46.21568" lon="6.24779">
        <ele>440.39999389648</ele>
        <time>2021-03-24T09:46:11.000Z</time>
      </trkpt>
      <trkpt lat="46.21568" lon="6.24787">
        <ele>440.60000610352</ele>
        <time>2021-03-24T09:46:12.000Z</time>
      </trkpt>
      <trkpt lat="46.21568" lon="6.24796">
        <ele>440.79998779297</ele>
        <time>2021-03-24T09:46:13.000Z</time>
      </trkpt>
      <trkpt lat="46.21567" lon="6.24813">
        <ele>441.20001220703</ele>
        <time>2021-03-24T09:46:15.000Z</time>
      </trkpt>
      <trkpt lat="46.21553" lon="6.24848">
        <ele>441.79998779297</ele>
        <time>2021-03-24T09:46:20.000Z</time>
      </trkpt>
      <trkpt lat="46.21529" lon="6.24901">
        <ele>443.39999389648</ele>
        <time>2021-03-24T09:46:29.000Z</time>
      </trkpt>
      <trkpt lat="46.21512" lon="6.2494">
        <ele>445.39999389648</ele>
        <time>2021-03-24T09:46:36.000Z</time>
      </trkpt>
      <trkpt lat="46.21509" lon="6.24945">
        <ele>445.60000610352</ele>
        <time>2021-03-24T09:46:37.000Z</time>
      </trkpt>
      <trkpt lat="46.21507" lon="6.2495">
        <ele>446</ele>
        <time>2021-03-24T09:46:38.000Z</time>
      </trkpt>
      <trkpt lat="46.21495" lon="6.24986">
        <ele>446.60000610352</ele>
        <time>2021-03-24T09:46:44.000Z</time>
      </trkpt>
      <trkpt lat="46.21489" lon="6.25027">
        <ele>448</ele>
        <time>2021-03-24T09:46:50.000Z</time>
      </trkpt>
      <trkpt lat="46.2149" lon="6.25043">
        <ele>448</ele>
        <time>2021-03-24T09:46:52.000Z</time>
      </trkpt>
      <trkpt lat="46.21493" lon="6.25047">
        <ele>448</ele>
        <time>2021-03-24T09:46:53.000Z</time>
      </trkpt>
      <trkpt lat="46.21509" lon="6.25062">
        <ele>448</ele>
        <time>2021-03-24T09:46:57.000Z</time>
      </trkpt>
      <trkpt lat="46.21513" lon="6.25066">
        <ele>448</ele>
        <time>2021-03-24T09:46:58.000Z</time>
      </trkpt>
      <trkpt lat="46.21517" lon="6.2507">
        <ele>448</ele>
        <time>2021-03-24T09:46:59.000Z</time>
      </trkpt>
      <trkpt lat="46.21531" lon="6.25084">
        <ele>447.79998779297</ele>
        <time>2021-03-24T09:47:02.000Z</time>
      </trkpt>
      <trkpt lat="46.21536" lon="6.25089">
        <ele>447.79998779297</ele>
        <time>2021-03-24T09:47:03.000Z</time>
      </trkpt>
      <trkpt lat="46.2154" lon="6.25093">
        <ele>447.79998779297</ele>
        <time>2021-03-24T09:47:04.000Z</time>
      </trkpt>
      <trkpt lat="46.21549" lon="6.25102">
        <ele>447.79998779297</ele>
        <time>2021-03-24T09:47:06.000Z</time>
      </trkpt>
      <trkpt lat="46.21554" lon="6.25107">
        <ele>447.79998779297</ele>
        <time>2021-03-24T09:47:07.000Z</time>
      </trkpt>
      <trkpt lat="46.21568" lon="6.25121">
        <ele>447.79998779297</ele>
        <time>2021-03-24T09:47:10.000Z</time>
      </trkpt>
      <trkpt lat="46.21578" lon="6.2513">
        <ele>448</ele>
        <time>2021-03-24T09:47:12.000Z</time>
      </trkpt>
      <trkpt lat="46.21587" lon="6.2514">
        <ele>448.20001220703</ele>
        <time>2021-03-24T09:47:14.000Z</time>
      </trkpt>
      <trkpt lat="46.21596" lon="6.25149">
        <ele>448.60000610352</ele>
        <time>2021-03-24T09:47:16.000Z</time>
      </trkpt>
      <trkpt lat="46.21599" lon="6.25154">
        <ele>448.79998779297</ele>
        <time>2021-03-24T09:47:17.000Z</time>
      </trkpt>
      <trkpt lat="46.21603" lon="6.25159">
        <ele>449</ele>
        <time>2021-03-24T09:47:18.000Z</time>
      </trkpt>
      <trkpt lat="46.21611" lon="6.25168">
        <ele>449.20001220703</ele>
        <time>2021-03-24T09:47:20.000Z</time>
      </trkpt>
      <trkpt lat="46.21633" lon="6.25195">
        <ele>450.20001220703</ele>
        <time>2021-03-24T09:47:25.000Z</time>
      </trkpt>
      <trkpt lat="46.21637" lon="6.252">
        <ele>450.39999389648</ele>
        <time>2021-03-24T09:47:26.000Z</time>
      </trkpt>
      <trkpt lat="46.21649" lon="6.25215">
        <ele>451</ele>
        <time>2021-03-24T09:47:29.000Z</time>
      </trkpt>
      <trkpt lat="46.21661" lon="6.25229">
        <ele>451</ele>
        <time>2021-03-24T09:47:32.000Z</time>
      </trkpt>
      <trkpt lat="46.21665" lon="6.25233">
        <ele>451</ele>
        <time>2021-03-24T09:47:33.000Z</time>
      </trkpt>
      <trkpt lat="46.2168" lon="6.2525">
        <ele>451.20001220703</ele>
        <time>2021-03-24T09:47:37.000Z</time>
      </trkpt>
      <trkpt lat="46.21698" lon="6.25271">
        <ele>452.39999389648</ele>
        <time>2021-03-24T09:47:41.000Z</time>
      </trkpt>
      <trkpt lat="46.21707" lon="6.25281">
        <ele>453.39999389648</ele>
        <time>2021-03-24T09:47:43.000Z</time>
      </trkpt>
      <trkpt lat="46.21723" lon="6.2529">
        <ele>454</ele>
        <time>2021-03-24T09:47:46.000Z</time>
      </trkpt>
      <trkpt lat="46.21743" lon="6.25301">
        <ele>454.20001220703</ele>
        <time>2021-03-24T09:47:50.000Z</time>
      </trkpt>
      <trkpt lat="46.21748" lon="6.25304">
        <ele>454.20001220703</ele>
        <time>2021-03-24T09:47:51.000Z</time>
      </trkpt>
      <trkpt lat="46.21753" lon="6.25307">
        <ele>454.20001220703</ele>
        <time>2021-03-24T09:47:52.000Z</time>
      </trkpt>
      <trkpt lat="46.21762" lon="6.25311">
        <ele>454.20001220703</ele>
        <time>2021-03-24T09:47:54.000Z</time>
      </trkpt>
      <trkpt lat="46.21771" lon="6.25317">
        <ele>454.20001220703</ele>
        <time>2021-03-24T09:47:56.000Z</time>
      </trkpt>
      <trkpt lat="46.21785" lon="6.25324">
        <ele>454.79998779297</ele>
        <time>2021-03-24T09:47:59.000Z</time>
      </trkpt>
      <trkpt lat="46.2182" lon="6.25338">
        <ele>457</ele>
        <time>2021-03-24T09:48:06.000Z</time>
      </trkpt>
      <trkpt lat="46.21844" lon="6.25347">
        <ele>458.20001220703</ele>
        <time>2021-03-24T09:48:11.000Z</time>
      </trkpt>
      <trkpt lat="46.21853" lon="6.2535">
        <ele>458.60000610352</ele>
        <time>2021-03-24T09:48:13.000Z</time>
      </trkpt>
      <trkpt lat="46.21864" lon="6.25354">
        <ele>458.20001220703</ele>
        <time>2021-03-24T09:48:15.000Z</time>
      </trkpt>
      <trkpt lat="46.21892" lon="6.25353">
        <ele>456.20001220703</ele>
        <time>2021-03-24T09:48:21.000Z</time>
      </trkpt>
      <trkpt lat="46.21909" lon="6.25347">
        <ele>454.39999389648</ele>
        <time>2021-03-24T09:48:25.000Z</time>
      </trkpt>
      <trkpt lat="46.21917" lon="6.25343">
        <ele>453.60000610352</ele>
        <time>2021-03-24T09:48:27.000Z</time>
      </trkpt>
      <trkpt lat="46.2192" lon="6.25342">
        <ele>453.39999389648</ele>
        <time>2021-03-24T09:48:28.000Z</time>
      </trkpt>
      <trkpt lat="46.21928" lon="6.25355">
        <ele>453.60000610352</ele>
        <time>2021-03-24T09:48:30.000Z</time>
      </trkpt>
      <trkpt lat="46.21923" lon="6.25369">
        <ele>454.60000610352</ele>
        <time>2021-03-24T09:48:33.000Z</time>
      </trkpt>
      <trkpt lat="46.21918" lon="6.25383">
        <ele>455.39999389648</ele>
        <time>2021-03-24T09:48:36.000Z</time>
      </trkpt>
      <trkpt lat="46.21915" lon="6.25394">
        <ele>455.79998779297</ele>
        <time>2021-03-24T09:48:38.000Z</time>
      </trkpt>
      <trkpt lat="46.21916" lon="6.25412">
        <ele>455.79998779297</ele>
        <time>2021-03-24T09:48:41.000Z</time>
      </trkpt>
      <trkpt lat="46.21918" lon="6.2543">
        <ele>457.20001220703</ele>
        <time>2021-03-24T09:48:44.000Z</time>
      </trkpt>
      <trkpt lat="46.21918" lon="6.25442">
        <ele>458</ele>
        <time>2021-03-24T09:48:46.000Z</time>
      </trkpt>
      <trkpt lat="46.21919" lon="6.25453">
        <ele>458.79998779297</ele>
        <time>2021-03-24T09:48:48.000Z</time>
      </trkpt>
      <trkpt lat="46.21925" lon="6.25481">
        <ele>461</ele>
        <time>2021-03-24T09:48:53.000Z</time>
      </trkpt>
      <trkpt lat="46.21926" lon="6.25486">
        <ele>461.60000610352</ele>
        <time>2021-03-24T09:48:54.000Z</time>
      </trkpt>
      <trkpt lat="46.21932" lon="6.25487">
        <ele>461.60000610352</ele>
        <time>2021-03-24T09:48:55.000Z</time>
      </trkpt>
      <trkpt lat="46.21942" lon="6.25501">
        <ele>462</ele>
        <time>2021-03-24T09:48:58.000Z</time>
      </trkpt>
      <trkpt lat="46.21962" lon="6.2552">
        <ele>461.20001220703</ele>
        <time>2021-03-24T09:49:03.000Z</time>
      </trkpt>
      <trkpt lat="46.21983" lon="6.2552">
        <ele>460.39999389648</ele>
        <time>2021-03-24T09:49:08.000Z</time>
      </trkpt>
      <trkpt lat="46.22026" lon="6.25522">
        <ele>460</ele>
        <time>2021-03-24T09:49:17.000Z</time>
      </trkpt>
      <trkpt lat="46.2204" lon="6.25526">
        <ele>460</ele>
        <time>2021-03-24T09:49:20.000Z</time>
      </trkpt>
      <trkpt lat="46.22047" lon="6.2553">
        <ele>460</ele>
        <time>2021-03-24T09:49:22.000Z</time>
      </trkpt>
      <trkpt lat="46.22055" lon="6.25558">
        <ele>460</ele>
        <time>2021-03-24T09:49:27.000Z</time>
      </trkpt>
      <trkpt lat="46.22057" lon="6.25569">
        <ele>460</ele>
        <time>2021-03-24T09:49:29.000Z</time>
      </trkpt>
      <trkpt lat="46.22066" lon="6.25589">
        <ele>460.39999389648</ele>
        <time>2021-03-24T09:49:33.000Z</time>
      </trkpt>
      <trkpt lat="46.22077" lon="6.2561">
        <ele>461.20001220703</ele>
        <time>2021-03-24T09:49:37.000Z</time>
      </trkpt>
      <trkpt lat="46.22081" lon="6.25614">
        <ele>461.39999389648</ele>
        <time>2021-03-24T09:49:38.000Z</time>
      </trkpt>
      <trkpt lat="46.22088" lon="6.25617">
        <ele>461.39999389648</ele>
        <time>2021-03-24T09:49:40.000Z</time>
      </trkpt>
      <trkpt lat="46.22097" lon="6.25616">
        <ele>461.39999389648</ele>
        <time>2021-03-24T09:49:42.000Z</time>
      </trkpt>
      <trkpt lat="46.22105" lon="6.25616">
        <ele>461.39999389648</ele>
        <time>2021-03-24T09:49:44.000Z</time>
      </trkpt>
      <trkpt lat="46.22121" lon="6.25616">
        <ele>461.79998779297</ele>
        <time>2021-03-24T09:49:48.000Z</time>
      </trkpt>
      <trkpt lat="46.22125" lon="6.25616">
        <ele>461.79998779297</ele>
        <time>2021-03-24T09:49:49.000Z</time>
      </trkpt>
      <trkpt lat="46.22129" lon="6.25616">
        <ele>461.79998779297</ele>
        <time>2021-03-24T09:49:50.000Z</time>
      </trkpt>
      <trkpt lat="46.22142" lon="6.25626">
        <ele>462.60000610352</ele>
        <time>2021-03-24T09:49:54.000Z</time>
      </trkpt>
      <trkpt lat="46.22168" lon="6.25651">
        <ele>464</ele>
        <time>2021-03-24T09:50:02.000Z</time>
      </trkpt>
      <trkpt lat="46.22194" lon="6.25684">
        <ele>464.39999389648</ele>
        <time>2021-03-24T09:50:11.000Z</time>
      </trkpt>
      <trkpt lat="46.22217" lon="6.25717">
        <ele>464</ele>
        <time>2021-03-24T09:50:18.000Z</time>
      </trkpt>
      <trkpt lat="46.22223" lon="6.25727">
        <ele>463.79998779297</ele>
        <time>2021-03-24T09:50:20.000Z</time>
      </trkpt>
      <trkpt lat="46.2223" lon="6.25737">
        <ele>463.60000610352</ele>
        <time>2021-03-24T09:50:22.000Z</time>
      </trkpt>
      <trkpt lat="46.22237" lon="6.25748">
        <ele>463.60000610352</ele>
        <time>2021-03-24T09:50:24.000Z</time>
      </trkpt>
      <trkpt lat="46.22245" lon="6.25761">
        <ele>463.60000610352</ele>
        <time>2021-03-24T09:50:26.000Z</time>
      </trkpt>
      <trkpt lat="46.22273" lon="6.25819">
        <ele>464.79998779297</ele>
        <time>2021-03-24T09:50:34.000Z</time>
      </trkpt>
      <trkpt lat="46.22291" lon="6.2586">
        <ele>466</ele>
        <time>2021-03-24T09:50:40.000Z</time>
      </trkpt>
      <trkpt lat="46.22296" lon="6.25874">
        <ele>466</ele>
        <time>2021-03-24T09:50:42.000Z</time>
      </trkpt>
      <trkpt lat="46.22324" lon="6.25939">
        <ele>466</ele>
        <time>2021-03-24T09:50:52.000Z</time>
      </trkpt>
      <trkpt lat="46.22333" lon="6.25979">
        <ele>467</ele>
        <time>2021-03-24T09:50:58.000Z</time>
      </trkpt>
      <trkpt lat="46.22332" lon="6.26018">
        <ele>467.60000610352</ele>
        <time>2021-03-24T09:51:04.000Z</time>
      </trkpt>
      <trkpt lat="46.22324" lon="6.26056">
        <ele>469</ele>
        <time>2021-03-24T09:51:10.000Z</time>
      </trkpt>
      <trkpt lat="46.22323" lon="6.26062">
        <ele>469</ele>
        <time>2021-03-24T09:51:11.000Z</time>
      </trkpt>
      <trkpt lat="46.22322" lon="6.26068">
        <ele>469</ele>
        <time>2021-03-24T09:51:12.000Z</time>
      </trkpt>
      <trkpt lat="46.22326" lon="6.26081">
        <ele>469.20001220703</ele>
        <time>2021-03-24T09:51:14.000Z</time>
      </trkpt>
      <trkpt lat="46.22328" lon="6.26088">
        <ele>469.20001220703</ele>
        <time>2021-03-24T09:51:15.000Z</time>
      </trkpt>
      <trkpt lat="46.22344" lon="6.26136">
        <ele>468.60000610352</ele>
        <time>2021-03-24T09:51:22.000Z</time>
      </trkpt>
      <trkpt lat="46.2236" lon="6.26184">
        <ele>470.60000610352</ele>
        <time>2021-03-24T09:51:29.000Z</time>
      </trkpt>
      <trkpt lat="46.22364" lon="6.26196">
        <ele>471.20001220703</ele>
        <time>2021-03-24T09:51:31.000Z</time>
      </trkpt>
      <trkpt lat="46.22368" lon="6.26208">
        <ele>471.79998779297</ele>
        <time>2021-03-24T09:51:33.000Z</time>
      </trkpt>
      <trkpt lat="46.2237" lon="6.26213">
        <ele>472</ele>
        <time>2021-03-24T09:51:34.000Z</time>
      </trkpt>
      <trkpt lat="46.22372" lon="6.26219">
        <ele>472</ele>
        <time>2021-03-24T09:51:35.000Z</time>
      </trkpt>
      <trkpt lat="46.22373" lon="6.26231">
        <ele>472</ele>
        <time>2021-03-24T09:51:37.000Z</time>
      </trkpt>
      <trkpt lat="46.22373" lon="6.26237">
        <ele>472</ele>
        <time>2021-03-24T09:51:38.000Z</time>
      </trkpt>
      <trkpt lat="46.22373" lon="6.26269">
        <ele>471</ele>
        <time>2021-03-24T09:51:43.000Z</time>
      </trkpt>
      <trkpt lat="46.22373" lon="6.26275">
        <ele>471</ele>
        <time>2021-03-24T09:51:44.000Z</time>
      </trkpt>
      <trkpt lat="46.22373" lon="6.263">
        <ele>470.60000610352</ele>
        <time>2021-03-24T09:51:48.000Z</time>
      </trkpt>
      <trkpt lat="46.22374" lon="6.26315">
        <ele>470.20001220703</ele>
        <time>2021-03-24T09:51:50.000Z</time>
      </trkpt>
      <trkpt lat="46.22386" lon="6.26354">
        <ele>471</ele>
        <time>2021-03-24T09:51:56.000Z</time>
      </trkpt>
      <trkpt lat="46.2239" lon="6.26367">
        <ele>471</ele>
        <time>2021-03-24T09:51:58.000Z</time>
      </trkpt>
      <trkpt lat="46.22394" lon="6.2638">
        <ele>471</ele>
        <time>2021-03-24T09:52:00.000Z</time>
      </trkpt>
      <trkpt lat="46.22395" lon="6.26386">
        <ele>471</ele>
        <time>2021-03-24T09:52:01.000Z</time>
      </trkpt>
      <trkpt lat="46.22399" lon="6.26397">
        <ele>471</ele>
        <time>2021-03-24T09:52:03.000Z</time>
      </trkpt>
      <trkpt lat="46.22396" lon="6.26414">
        <ele>471.39999389648</ele>
        <time>2021-03-24T09:52:06.000Z</time>
      </trkpt>
      <trkpt lat="46.22391" lon="6.26439">
        <ele>472.20001220703</ele>
        <time>2021-03-24T09:52:11.000Z</time>
      </trkpt>
      <trkpt lat="46.22388" lon="6.2647">
        <ele>473</ele>
        <time>2021-03-24T09:52:18.000Z</time>
      </trkpt>
      <trkpt lat="46.2239" lon="6.26472">
        <ele>473</ele>
        <time>2021-03-24T09:52:19.000Z</time>
      </trkpt>
      <trkpt lat="46.22396" lon="6.26478">
        <ele>473</ele>
        <time>2021-03-24T09:52:21.000Z</time>
      </trkpt>
      <trkpt lat="46.22405" lon="6.26487">
        <ele>473</ele>
        <time>2021-03-24T09:52:24.000Z</time>
      </trkpt>
      <trkpt lat="46.22408" lon="6.2649">
        <ele>473</ele>
        <time>2021-03-24T09:52:25.000Z</time>
      </trkpt>
      <trkpt lat="46.22411" lon="6.26494">
        <ele>473</ele>
        <time>2021-03-24T09:52:26.000Z</time>
      </trkpt>
      <trkpt lat="46.22425" lon="6.2652">
        <ele>473</ele>
        <time>2021-03-24T09:52:30.000Z</time>
      </trkpt>
      <trkpt lat="46.22431" lon="6.26531">
        <ele>473</ele>
        <time>2021-03-24T09:52:32.000Z</time>
      </trkpt>
      <trkpt lat="46.22433" lon="6.26537">
        <ele>473</ele>
        <time>2021-03-24T09:52:33.000Z</time>
      </trkpt>
      <trkpt lat="46.22437" lon="6.2654">
        <ele>473</ele>
        <time>2021-03-24T09:52:34.000Z</time>
      </trkpt>
      <trkpt lat="46.22447" lon="6.26541">
        <ele>473</ele>
        <time>2021-03-24T09:52:36.000Z</time>
      </trkpt>
      <trkpt lat="46.22451" lon="6.26542">
        <ele>473</ele>
        <time>2021-03-24T09:52:37.000Z</time>
      </trkpt>
      <trkpt lat="46.2247" lon="6.26536">
        <ele>472.79998779297</ele>
        <time>2021-03-24T09:52:41.000Z</time>
      </trkpt>
      <trkpt lat="46.22475" lon="6.26535">
        <ele>472.60000610352</ele>
        <time>2021-03-24T09:52:42.000Z</time>
      </trkpt>
      <trkpt lat="46.22516" lon="6.26523">
        <ele>472</ele>
        <time>2021-03-24T09:52:50.000Z</time>
      </trkpt>
      <trkpt lat="46.22563" lon="6.2651">
        <ele>473.60000610352</ele>
        <time>2021-03-24T09:52:59.000Z</time>
      </trkpt>
      <trkpt lat="46.22605" lon="6.26498">
        <ele>472.20001220703</ele>
        <time>2021-03-24T09:53:08.000Z</time>
      </trkpt>
      <trkpt lat="46.22612" lon="6.26496">
        <ele>471.79998779297</ele>
        <time>2021-03-24T09:53:10.000Z</time>
      </trkpt>
      <trkpt lat="46.22623" lon="6.26493">
        <ele>471.20001220703</ele>
        <time>2021-03-24T09:53:13.000Z</time>
      </trkpt>
      <trkpt lat="46.22628" lon="6.26506">
        <ele>471.60000610352</ele>
        <time>2021-03-24T09:53:15.000Z</time>
      </trkpt>
      <trkpt lat="46.22629" lon="6.26512">
        <ele>471.79998779297</ele>
        <time>2021-03-24T09:53:16.000Z</time>
      </trkpt>
      <trkpt lat="46.22635" lon="6.26564">
        <ele>473</ele>
        <time>2021-03-24T09:53:24.000Z</time>
      </trkpt>
      <trkpt lat="46.22642" lon="6.26627">
        <ele>472.60000610352</ele>
        <time>2021-03-24T09:53:33.000Z</time>
      </trkpt>
      <trkpt lat="46.22651" lon="6.26703">
        <ele>473.60000610352</ele>
        <time>2021-03-24T09:53:43.000Z</time>
      </trkpt>
      <trkpt lat="46.22661" lon="6.26785">
        <ele>475</ele>
        <time>2021-03-24T09:53:54.000Z</time>
      </trkpt>
      <trkpt lat="46.22667" lon="6.26831">
        <ele>474.79998779297</ele>
        <time>2021-03-24T09:54:01.000Z</time>
      </trkpt>
      <trkpt lat="46.22669" lon="6.26854">
        <ele>475.60000610352</ele>
        <time>2021-03-24T09:54:06.000Z</time>
      </trkpt>
      <trkpt lat="46.22675" lon="6.26899">
        <ele>475.39999389648</ele>
        <time>2021-03-24T09:54:13.000Z</time>
      </trkpt>
      <trkpt lat="46.22682" lon="6.26961">
        <ele>476</ele>
        <time>2021-03-24T09:54:22.000Z</time>
      </trkpt>
      <trkpt lat="46.22691" lon="6.2703">
        <ele>477.39999389648</ele>
        <time>2021-03-24T09:54:32.000Z</time>
      </trkpt>
      <trkpt lat="46.22703" lon="6.27104">
        <ele>478</ele>
        <time>2021-03-24T09:54:43.000Z</time>
      </trkpt>
      <trkpt lat="46.2272" lon="6.27164">
        <ele>478</ele>
        <time>2021-03-24T09:54:52.000Z</time>
      </trkpt>
      <trkpt lat="46.22743" lon="6.2722">
        <ele>478.20001220703</ele>
        <time>2021-03-24T09:55:01.000Z</time>
      </trkpt>
      <trkpt lat="46.22768" lon="6.27264">
        <ele>479.79998779297</ele>
        <time>2021-03-24T09:55:09.000Z</time>
      </trkpt>
      <trkpt lat="46.228" lon="6.27303">
        <ele>481</ele>
        <time>2021-03-24T09:55:18.000Z</time>
      </trkpt>
      <trkpt lat="46.22826" lon="6.27334">
        <ele>482.20001220703</ele>
        <time>2021-03-24T09:55:26.000Z</time>
      </trkpt>
      <trkpt lat="46.22845" lon="6.27355">
        <ele>483</ele>
        <time>2021-03-24T09:55:33.000Z</time>
      </trkpt>
      <trkpt lat="46.22856" lon="6.27367">
        <ele>483.20001220703</ele>
        <time>2021-03-24T09:55:38.000Z</time>
      </trkpt>
      <trkpt lat="46.22868" lon="6.27379">
        <ele>482.79998779297</ele>
        <time>2021-03-24T09:55:42.000Z</time>
      </trkpt>
      <trkpt lat="46.22889" lon="6.27404">
        <ele>482</ele>
        <time>2021-03-24T09:55:48.000Z</time>
      </trkpt>
      <trkpt lat="46.22922" lon="6.27441">
        <ele>481.79998779297</ele>
        <time>2021-03-24T09:55:56.000Z</time>
      </trkpt>
      <trkpt lat="46.22967" lon="6.27492">
        <ele>486</ele>
        <time>2021-03-24T09:56:07.000Z</time>
      </trkpt>
      <trkpt lat="46.23012" lon="6.27543">
        <ele>486</ele>
        <time>2021-03-24T09:56:18.000Z</time>
      </trkpt>
      <trkpt lat="46.23016" lon="6.27547">
        <ele>486</ele>
        <time>2021-03-24T09:56:19.000Z</time>
      </trkpt>
      <trkpt lat="46.23055" lon="6.27591">
        <ele>485.60000610352</ele>
        <time>2021-03-24T09:56:28.000Z</time>
      </trkpt>
      <trkpt lat="46.23091" lon="6.2763">
        <ele>485</ele>
        <time>2021-03-24T09:56:36.000Z</time>
      </trkpt>
      <trkpt lat="46.23138" lon="6.27682">
        <ele>484</ele>
        <time>2021-03-24T09:56:46.000Z</time>
      </trkpt>
      <trkpt lat="46.23142" lon="6.27687">
        <ele>484</ele>
        <time>2021-03-24T09:56:47.000Z</time>
      </trkpt>
      <trkpt lat="46.23188" lon="6.27738">
        <ele>485</ele>
        <time>2021-03-24T09:56:57.000Z</time>
      </trkpt>
      <trkpt lat="46.23229" lon="6.27783">
        <ele>484.39999389648</ele>
        <time>2021-03-24T09:57:06.000Z</time>
      </trkpt>
      <trkpt lat="46.23262" lon="6.27819">
        <ele>483.39999389648</ele>
        <time>2021-03-24T09:57:13.000Z</time>
      </trkpt>
      <trkpt lat="46.23299" lon="6.27861">
        <ele>484</ele>
        <time>2021-03-24T09:57:21.000Z</time>
      </trkpt>
      <trkpt lat="46.23342" lon="6.2791">
        <ele>485.60000610352</ele>
        <time>2021-03-24T09:57:31.000Z</time>
      </trkpt>
      <trkpt lat="46.23385" lon="6.27957">
        <ele>485.79998779297</ele>
        <time>2021-03-24T09:57:41.000Z</time>
      </trkpt>
      <trkpt lat="46.23389" lon="6.27962">
        <ele>486.20001220703</ele>
        <time>2021-03-24T09:57:42.000Z</time>
      </trkpt>
      <trkpt lat="46.23396" lon="6.2797">
        <ele>486.79998779297</ele>
        <time>2021-03-24T09:57:44.000Z</time>
      </trkpt>
      <trkpt lat="46.23405" lon="6.27969">
        <ele>487</ele>
        <time>2021-03-24T09:57:46.000Z</time>
      </trkpt>
      <trkpt lat="46.23409" lon="6.27957">
        <ele>486.39999389648</ele>
        <time>2021-03-24T09:57:49.000Z</time>
      </trkpt>
      <trkpt lat="46.23414" lon="6.27941">
        <ele>485.20001220703</ele>
        <time>2021-03-24T09:57:55.000Z</time>
      </trkpt>
      <trkpt lat="46.23422" lon="6.27916">
        <ele>484.39999389648</ele>
        <time>2021-03-24T09:58:00.000Z</time>
      </trkpt>
      <trkpt lat="46.23424" lon="6.27911">
        <ele>484.60000610352</ele>
        <time>2021-03-24T09:58:01.000Z</time>
      </trkpt>
      <trkpt lat="46.23432" lon="6.27902">
        <ele>484.60000610352</ele>
        <time>2021-03-24T09:58:03.000Z</time>
      </trkpt>
      <trkpt lat="46.23439" lon="6.27909">
        <ele>485</ele>
        <time>2021-03-24T09:58:05.000Z</time>
      </trkpt>
      <trkpt lat="46.23443" lon="6.27912">
        <ele>485</ele>
        <time>2021-03-24T09:58:06.000Z</time>
      </trkpt>
      <trkpt lat="46.23482" lon="6.27947">
        <ele>485</ele>
        <time>2021-03-24T09:58:15.000Z</time>
      </trkpt>
      <trkpt lat="46.23503" lon="6.27967">
        <ele>484.60000610352</ele>
        <time>2021-03-24T09:58:20.000Z</time>
      </trkpt>
      <trkpt lat="46.23516" lon="6.27978">
        <ele>484.20001220703</ele>
        <time>2021-03-24T09:58:23.000Z</time>
      </trkpt>
      <trkpt lat="46.23556" lon="6.28015">
        <ele>484.20001220703</ele>
        <time>2021-03-24T09:58:32.000Z</time>
      </trkpt>
      <trkpt lat="46.23586" lon="6.28059">
        <ele>485.39999389648</ele>
        <time>2021-03-24T09:58:40.000Z</time>
      </trkpt>
      <trkpt lat="46.23622" lon="6.28116">
        <ele>486.39999389648</ele>
        <time>2021-03-24T09:58:50.000Z</time>
      </trkpt>
      <trkpt lat="46.23653" lon="6.28164">
        <ele>487</ele>
        <time>2021-03-24T09:58:58.000Z</time>
      </trkpt>
      <trkpt lat="46.23663" lon="6.2818">
        <ele>487.20001220703</ele>
        <time>2021-03-24T09:59:01.000Z</time>
      </trkpt>
      <trkpt lat="46.2367" lon="6.28181">
        <ele>487.39999389648</ele>
        <time>2021-03-24T09:59:02.000Z</time>
      </trkpt>
      <trkpt lat="46.23672" lon="6.28176">
        <ele>487.39999389648</ele>
        <time>2021-03-24T09:59:03.000Z</time>
      </trkpt>
      <trkpt lat="46.23678" lon="6.28165">
        <ele>487.20001220703</ele>
        <time>2021-03-24T09:59:05.000Z</time>
      </trkpt>
      <trkpt lat="46.23703" lon="6.28116">
        <ele>486</ele>
        <time>2021-03-24T09:59:13.000Z</time>
      </trkpt>
      <trkpt lat="46.23733" lon="6.28058">
        <ele>485.60000610352</ele>
        <time>2021-03-24T09:59:22.000Z</time>
      </trkpt>
      <trkpt lat="46.23761" lon="6.28005">
        <ele>484.39999389648</ele>
        <time>2021-03-24T09:59:30.000Z</time>
      </trkpt>
      <trkpt lat="46.23791" lon="6.27947">
        <ele>484</ele>
        <time>2021-03-24T09:59:39.000Z</time>
      </trkpt>
      <trkpt lat="46.2381" lon="6.27911">
        <ele>484</ele>
        <time>2021-03-24T09:59:46.000Z</time>
      </trkpt>
      <trkpt lat="46.2382" lon="6.2791">
        <ele>484</ele>
        <time>2021-03-24T09:59:48.000Z</time>
      </trkpt>
      <trkpt lat="46.23822" lon="6.27915">
        <ele>484</ele>
        <time>2021-03-24T09:59:49.000Z</time>
      </trkpt>
      <trkpt lat="46.23826" lon="6.27928">
        <ele>484</ele>
        <time>2021-03-24T09:59:51.000Z</time>
      </trkpt>
      <trkpt lat="46.23845" lon="6.27982">
        <ele>483</ele>
        <time>2021-03-24T09:59:59.000Z</time>
      </trkpt>
      <trkpt lat="46.23866" lon="6.28048">
        <ele>484.60000610352</ele>
        <time>2021-03-24T10:00:08.000Z</time>
      </trkpt>
      <trkpt lat="46.23888" lon="6.28126">
        <ele>485.79998779297</ele>
        <time>2021-03-24T10:00:18.000Z</time>
      </trkpt>
      <trkpt lat="46.2391" lon="6.28204">
        <ele>486</ele>
        <time>2021-03-24T10:00:28.000Z</time>
      </trkpt>
      <trkpt lat="46.23913" lon="6.28212">
        <ele>485.79998779297</ele>
        <time>2021-03-24T10:00:29.000Z</time>
      </trkpt>
      <trkpt lat="46.23921" lon="6.28241">
        <ele>486.39999389648</ele>
        <time>2021-03-24T10:00:33.000Z</time>
      </trkpt>
      <trkpt lat="46.23927" lon="6.28263">
        <ele>487</ele>
        <time>2021-03-24T10:00:36.000Z</time>
      </trkpt>
      <trkpt lat="46.23949" lon="6.28341">
        <ele>486.60000610352</ele>
        <time>2021-03-24T10:00:46.000Z</time>
      </trkpt>
      <trkpt lat="46.2397" lon="6.28421">
        <ele>487</ele>
        <time>2021-03-24T10:00:56.000Z</time>
      </trkpt>
      <trkpt lat="46.23972" lon="6.28429">
        <ele>487</ele>
        <time>2021-03-24T10:00:57.000Z</time>
      </trkpt>
      <trkpt lat="46.23978" lon="6.28481">
        <ele>489</ele>
        <time>2021-03-24T10:01:03.000Z</time>
      </trkpt>
      <trkpt lat="46.2398" lon="6.28558">
        <ele>492.39999389648</ele>
        <time>2021-03-24T10:01:12.000Z</time>
      </trkpt>
      <trkpt lat="46.23981" lon="6.28625">
        <ele>495.20001220703</ele>
        <time>2021-03-24T10:01:20.000Z</time>
      </trkpt>
      <trkpt lat="46.2398" lon="6.28684">
        <ele>496</ele>
        <time>2021-03-24T10:01:27.000Z</time>
      </trkpt>
      <trkpt lat="46.23974" lon="6.28735">
        <ele>496.60000610352</ele>
        <time>2021-03-24T10:01:33.000Z</time>
      </trkpt>
      <trkpt lat="46.23974" lon="6.28742">
        <ele>496.60000610352</ele>
        <time>2021-03-24T10:01:34.000Z</time>
      </trkpt>
      <trkpt lat="46.23973" lon="6.2875">
        <ele>496.79998779297</ele>
        <time>2021-03-24T10:01:35.000Z</time>
      </trkpt>
      <trkpt lat="46.2397" lon="6.28779">
        <ele>499.39999389648</ele>
        <time>2021-03-24T10:01:39.000Z</time>
      </trkpt>
      <trkpt lat="46.23966" lon="6.28808">
        <ele>500.20001220703</ele>
        <time>2021-03-24T10:01:43.000Z</time>
      </trkpt>
      <trkpt lat="46.23965" lon="6.28816">
        <ele>500.60000610352</ele>
        <time>2021-03-24T10:01:44.000Z</time>
      </trkpt>
      <trkpt lat="46.23964" lon="6.28824">
        <ele>501</ele>
        <time>2021-03-24T10:01:45.000Z</time>
      </trkpt>
      <trkpt lat="46.2396" lon="6.28855">
        <ele>500.39999389648</ele>
        <time>2021-03-24T10:01:49.000Z</time>
      </trkpt>
      <trkpt lat="46.23955" lon="6.28898">
        <ele>499.79998779297</ele>
        <time>2021-03-24T10:01:55.000Z</time>
      </trkpt>
      <trkpt lat="46.23952" lon="6.28922">
        <ele>499.39999389648</ele>
        <time>2021-03-24T10:01:58.000Z</time>
      </trkpt>
      <trkpt lat="46.23954" lon="6.28949">
        <ele>499</ele>
        <time>2021-03-24T10:02:01.000Z</time>
      </trkpt>
      <trkpt lat="46.23963" lon="6.29009">
        <ele>497.39999389648</ele>
        <time>2021-03-24T10:02:08.000Z</time>
      </trkpt>
      <trkpt lat="46.23981" lon="6.29048">
        <ele>495.39999389648</ele>
        <time>2021-03-24T10:02:13.000Z</time>
      </trkpt>
      <trkpt lat="46.23999" lon="6.29088">
        <ele>494.60000610352</ele>
        <time>2021-03-24T10:02:18.000Z</time>
      </trkpt>
      <trkpt lat="46.24002" lon="6.29096">
        <ele>494.60000610352</ele>
        <time>2021-03-24T10:02:19.000Z</time>
      </trkpt>
      <trkpt lat="46.24009" lon="6.29114">
        <ele>494.39999389648</ele>
        <time>2021-03-24T10:02:21.000Z</time>
      </trkpt>
      <trkpt lat="46.24019" lon="6.29149">
        <ele>493.79998779297</ele>
        <time>2021-03-24T10:02:25.000Z</time>
      </trkpt>
      <trkpt lat="46.24032" lon="6.29203">
        <ele>495.79998779297</ele>
        <time>2021-03-24T10:02:31.000Z</time>
      </trkpt>
      <trkpt lat="46.24034" lon="6.29213">
        <ele>496.20001220703</ele>
        <time>2021-03-24T10:02:32.000Z</time>
      </trkpt>
      <trkpt lat="46.24047" lon="6.29268">
        <ele>498.79998779297</ele>
        <time>2021-03-24T10:02:38.000Z</time>
      </trkpt>
      <trkpt lat="46.24049" lon="6.29277">
        <ele>499</ele>
        <time>2021-03-24T10:02:39.000Z</time>
      </trkpt>
      <trkpt lat="46.24058" lon="6.29314">
        <ele>499.39999389648</ele>
        <time>2021-03-24T10:02:43.000Z</time>
      </trkpt>
      <trkpt lat="46.24062" lon="6.29342">
        <ele>499.60000610352</ele>
        <time>2021-03-24T10:02:46.000Z</time>
      </trkpt>
      <trkpt lat="46.24065" lon="6.29361">
        <ele>499.60000610352</ele>
        <time>2021-03-24T10:02:48.000Z</time>
      </trkpt>
      <trkpt lat="46.24072" lon="6.29407">
        <ele>500</ele>
        <time>2021-03-24T10:02:53.000Z</time>
      </trkpt>
      <trkpt lat="46.24079" lon="6.29453">
        <ele>499.39999389648</ele>
        <time>2021-03-24T10:02:58.000Z</time>
      </trkpt>
      <trkpt lat="46.24087" lon="6.29504">
        <ele>499.79998779297</ele>
        <time>2021-03-24T10:03:04.000Z</time>
      </trkpt>
      <trkpt lat="46.24091" lon="6.29515">
        <ele>500.20001220703</ele>
        <time>2021-03-24T10:03:05.000Z</time>
      </trkpt>
      <trkpt lat="46.24102" lon="6.29537">
        <ele>501.39999389648</ele>
        <time>2021-03-24T10:03:08.000Z</time>
      </trkpt>
      <trkpt lat="46.24121" lon="6.29572">
        <ele>502</ele>
        <time>2021-03-24T10:03:13.000Z</time>
      </trkpt>
      <trkpt lat="46.24128" lon="6.29587">
        <ele>502</ele>
        <time>2021-03-24T10:03:15.000Z</time>
      </trkpt>
      <trkpt lat="46.2414" lon="6.29608">
        <ele>501.39999389648</ele>
        <time>2021-03-24T10:03:18.000Z</time>
      </trkpt>
      <trkpt lat="46.24164" lon="6.29647">
        <ele>498</ele>
        <time>2021-03-24T10:03:24.000Z</time>
      </trkpt>
      <trkpt lat="46.24195" lon="6.29693">
        <ele>495.60000610352</ele>
        <time>2021-03-24T10:03:31.000Z</time>
      </trkpt>
      <trkpt lat="46.2423" lon="6.29744">
        <ele>501</ele>
        <time>2021-03-24T10:03:39.000Z</time>
      </trkpt>
      <trkpt lat="46.24236" lon="6.29757">
        <ele>501.39999389648</ele>
        <time>2021-03-24T10:03:41.000Z</time>
      </trkpt>
      <trkpt lat="46.24241" lon="6.2978">
        <ele>502</ele>
        <time>2021-03-24T10:03:44.000Z</time>
      </trkpt>
      <trkpt lat="46.24247" lon="6.29814">
        <ele>501.20001220703</ele>
        <time>2021-03-24T10:03:49.000Z</time>
      </trkpt>
      <trkpt lat="46.24248" lon="6.29843">
        <ele>500.79998779297</ele>
        <time>2021-03-24T10:03:53.000Z</time>
      </trkpt>
      <trkpt lat="46.24248" lon="6.2985">
        <ele>501</ele>
        <time>2021-03-24T10:03:54.000Z</time>
      </trkpt>
      <trkpt lat="46.2425" lon="6.29901">
        <ele>502.39999389648</ele>
        <time>2021-03-24T10:04:01.000Z</time>
      </trkpt>
      <trkpt lat="46.2425" lon="6.29946">
        <ele>503.60000610352</ele>
        <time>2021-03-24T10:04:08.000Z</time>
      </trkpt>
      <trkpt lat="46.2425" lon="6.2997">
        <ele>502.60000610352</ele>
        <time>2021-03-24T10:04:12.000Z</time>
      </trkpt>
      <trkpt lat="46.2425" lon="6.29983">
        <ele>501.79998779297</ele>
        <time>2021-03-24T10:04:14.000Z</time>
      </trkpt>
      <trkpt lat="46.2425" lon="6.30049">
        <ele>499</ele>
        <time>2021-03-24T10:04:24.000Z</time>
      </trkpt>
      <trkpt lat="46.2425" lon="6.30073">
        <ele>498.60000610352</ele>
        <time>2021-03-24T10:04:28.000Z</time>
      </trkpt>
      <trkpt lat="46.2425" lon="6.30087">
        <ele>498.79998779297</ele>
        <time>2021-03-24T10:04:30.000Z</time>
      </trkpt>
      <trkpt lat="46.24251" lon="6.30134">
        <ele>502.20001220703</ele>
        <time>2021-03-24T10:04:38.000Z</time>
      </trkpt>
      <trkpt lat="46.24251" lon="6.30159">
        <ele>504</ele>
        <time>2021-03-24T10:04:42.000Z</time>
      </trkpt>
      <trkpt lat="46.24251" lon="6.3017">
        <ele>504.20001220703</ele>
        <time>2021-03-24T10:04:44.000Z</time>
      </trkpt>
      <trkpt lat="46.24251" lon="6.30183">
        <ele>504.20001220703</ele>
        <time>2021-03-24T10:04:46.000Z</time>
      </trkpt>
      <trkpt lat="46.24249" lon="6.30207">
        <ele>504</ele>
        <time>2021-03-24T10:04:50.000Z</time>
      </trkpt>
      <trkpt lat="46.24244" lon="6.30265">
        <ele>504.60000610352</ele>
        <time>2021-03-24T10:04:59.000Z</time>
      </trkpt>
      <trkpt lat="46.2424" lon="6.30315">
        <ele>507.39999389648</ele>
        <time>2021-03-24T10:05:07.000Z</time>
      </trkpt>
      <trkpt lat="46.24236" lon="6.30368">
        <ele>508</ele>
        <time>2021-03-24T10:05:16.000Z</time>
      </trkpt>
      <trkpt lat="46.24233" lon="6.30415">
        <ele>508.20001220703</ele>
        <time>2021-03-24T10:05:24.000Z</time>
      </trkpt>
      <trkpt lat="46.24227" lon="6.30482">
        <ele>509.39999389648</ele>
        <time>2021-03-24T10:05:35.000Z</time>
      </trkpt>
      <trkpt lat="46.24223" lon="6.30507">
        <ele>509.20001220703</ele>
        <time>2021-03-24T10:05:39.000Z</time>
      </trkpt>
      <trkpt lat="46.24221" lon="6.30519">
        <ele>509.20001220703</ele>
        <time>2021-03-24T10:05:41.000Z</time>
      </trkpt>
      <trkpt lat="46.24214" lon="6.30556">
        <ele>508.20001220703</ele>
        <time>2021-03-24T10:05:47.000Z</time>
      </trkpt>
      <trkpt lat="46.24207" lon="6.30598">
        <ele>509.79998779297</ele>
        <time>2021-03-24T10:05:54.000Z</time>
      </trkpt>
      <trkpt lat="46.24196" lon="6.30642">
        <ele>511.39999389648</ele>
        <time>2021-03-24T10:06:01.000Z</time>
      </trkpt>
      <trkpt lat="46.2418" lon="6.30688">
        <ele>513.20001220703</ele>
        <time>2021-03-24T10:06:09.000Z</time>
      </trkpt>
      <trkpt lat="46.2416" lon="6.30741">
        <ele>513.79998779297</ele>
        <time>2021-03-24T10:06:18.000Z</time>
      </trkpt>
      <trkpt lat="46.24147" lon="6.30775">
        <ele>515</ele>
        <time>2021-03-24T10:06:24.000Z</time>
      </trkpt>
      <trkpt lat="46.24143" lon="6.30786">
        <ele>515.40002441406</ele>
        <time>2021-03-24T10:06:26.000Z</time>
      </trkpt>
      <trkpt lat="46.2414" lon="6.30803">
        <ele>516.20001220703</ele>
        <time>2021-03-24T10:06:29.000Z</time>
      </trkpt>
      <trkpt lat="46.24138" lon="6.30813">
        <ele>516.40002441406</ele>
        <time>2021-03-24T10:06:31.000Z</time>
      </trkpt>
      <trkpt lat="46.24143" lon="6.30819">
        <ele>516.79998779297</ele>
        <time>2021-03-24T10:06:33.000Z</time>
      </trkpt>
      <trkpt lat="46.24148" lon="6.30827">
        <ele>517.20001220703</ele>
        <time>2021-03-24T10:06:35.000Z</time>
      </trkpt>
      <trkpt lat="46.24151" lon="6.30831">
        <ele>517.40002441406</ele>
        <time>2021-03-24T10:06:36.000Z</time>
      </trkpt>
      <trkpt lat="46.24162" lon="6.30846">
        <ele>518.59997558594</ele>
        <time>2021-03-24T10:06:40.000Z</time>
      </trkpt>
      <trkpt lat="46.24174" lon="6.30863">
        <ele>518.40002441406</ele>
        <time>2021-03-24T10:06:45.000Z</time>
      </trkpt>
      <trkpt lat="46.24186" lon="6.30874">
        <ele>518</ele>
        <time>2021-03-24T10:06:49.000Z</time>
      </trkpt>
      <trkpt lat="46.24216" lon="6.30898">
        <ele>517</ele>
        <time>2021-03-24T10:06:56.000Z</time>
      </trkpt>
      <trkpt lat="46.24233" lon="6.30912">
        <ele>517</ele>
        <time>2021-03-24T10:07:00.000Z</time>
      </trkpt>
      <trkpt lat="46.24243" lon="6.30921">
        <ele>517</ele>
        <time>2021-03-24T10:07:02.000Z</time>
      </trkpt>
      <trkpt lat="46.24265" lon="6.30941">
        <ele>517</ele>
        <time>2021-03-24T10:07:07.000Z</time>
      </trkpt>
      <trkpt lat="46.24269" lon="6.30945">
        <ele>517</ele>
        <time>2021-03-24T10:07:08.000Z</time>
      </trkpt>
      <trkpt lat="46.24297" lon="6.30965">
        <ele>516</ele>
        <time>2021-03-24T10:07:14.000Z</time>
      </trkpt>
      <trkpt lat="46.24326" lon="6.30983">
        <ele>513.40002441406</ele>
        <time>2021-03-24T10:07:19.000Z</time>
      </trkpt>
      <trkpt lat="46.24332" lon="6.30988">
        <ele>513</ele>
        <time>2021-03-24T10:07:20.000Z</time>
      </trkpt>
      <trkpt lat="46.24371" lon="6.31021">
        <ele>511</ele>
        <time>2021-03-24T10:07:27.000Z</time>
      </trkpt>
      <trkpt lat="46.24395" lon="6.3105">
        <ele>512</ele>
        <time>2021-03-24T10:07:32.000Z</time>
      </trkpt>
      <trkpt lat="46.24412" lon="6.31079">
        <ele>514.20001220703</ele>
        <time>2021-03-24T10:07:37.000Z</time>
      </trkpt>
      <trkpt lat="46.24416" lon="6.31085">
        <ele>514.40002441406</ele>
        <time>2021-03-24T10:07:38.000Z</time>
      </trkpt>
      <trkpt lat="46.24435" lon="6.31116">
        <ele>516.20001220703</ele>
        <time>2021-03-24T10:07:44.000Z</time>
      </trkpt>
      <trkpt lat="46.2445" lon="6.31142">
        <ele>516.59997558594</ele>
        <time>2021-03-24T10:07:49.000Z</time>
      </trkpt>
      <trkpt lat="46.24456" lon="6.31151">
        <ele>516.40002441406</ele>
        <time>2021-03-24T10:07:51.000Z</time>
      </trkpt>
      <trkpt lat="46.24466" lon="6.31166">
        <ele>515.79998779297</ele>
        <time>2021-03-24T10:07:54.000Z</time>
      </trkpt>
      <trkpt lat="46.24472" lon="6.31177">
        <ele>515.40002441406</ele>
        <time>2021-03-24T10:07:56.000Z</time>
      </trkpt>
      <trkpt lat="46.24475" lon="6.31181">
        <ele>515.20001220703</ele>
        <time>2021-03-24T10:07:57.000Z</time>
      </trkpt>
      <trkpt lat="46.24482" lon="6.31192">
        <ele>515</ele>
        <time>2021-03-24T10:07:59.000Z</time>
      </trkpt>
      <trkpt lat="46.24485" lon="6.31197">
        <ele>515</ele>
        <time>2021-03-24T10:08:00.000Z</time>
      </trkpt>
      <trkpt lat="46.2451" lon="6.31238">
        <ele>515.59997558594</ele>
        <time>2021-03-24T10:08:08.000Z</time>
      </trkpt>
      <trkpt lat="46.24512" lon="6.31242">
        <ele>515.79998779297</ele>
        <time>2021-03-24T10:08:09.000Z</time>
      </trkpt>
      <trkpt lat="46.24525" lon="6.31251">
        <ele>516</ele>
        <time>2021-03-24T10:08:12.000Z</time>
      </trkpt>
      <trkpt lat="46.24566" lon="6.31282">
        <ele>517.20001220703</ele>
        <time>2021-03-24T10:08:21.000Z</time>
      </trkpt>
      <trkpt lat="46.24599" lon="6.3131">
        <ele>517.40002441406</ele>
        <time>2021-03-24T10:08:28.000Z</time>
      </trkpt>
      <trkpt lat="46.24602" lon="6.31316">
        <ele>517.40002441406</ele>
        <time>2021-03-24T10:08:29.000Z</time>
      </trkpt>
      <trkpt lat="46.24631" lon="6.31361">
        <ele>516.59997558594</ele>
        <time>2021-03-24T10:08:36.000Z</time>
      </trkpt>
      <trkpt lat="46.24667" lon="6.31418">
        <ele>517.79998779297</ele>
        <time>2021-03-24T10:08:45.000Z</time>
      </trkpt>
      <trkpt lat="46.24682" lon="6.31442">
        <ele>519.20001220703</ele>
        <time>2021-03-24T10:08:49.000Z</time>
      </trkpt>
      <trkpt lat="46.24689" lon="6.31453">
        <ele>519.59997558594</ele>
        <time>2021-03-24T10:08:51.000Z</time>
      </trkpt>
      <trkpt lat="46.24714" lon="6.31493">
        <ele>519</ele>
        <time>2021-03-24T10:08:58.000Z</time>
      </trkpt>
      <trkpt lat="46.24739" lon="6.31533">
        <ele>519.40002441406</ele>
        <time>2021-03-24T10:09:05.000Z</time>
      </trkpt>
      <trkpt lat="46.24759" lon="6.31576">
        <ele>519.40002441406</ele>
        <time>2021-03-24T10:09:12.000Z</time>
      </trkpt>
      <trkpt lat="46.24776" lon="6.31621">
        <ele>521.59997558594</ele>
        <time>2021-03-24T10:09:20.000Z</time>
      </trkpt>
      <trkpt lat="46.24792" lon="6.31667">
        <ele>524</ele>
        <time>2021-03-24T10:09:29.000Z</time>
      </trkpt>
      <trkpt lat="46.24808" lon="6.31715">
        <ele>524.79998779297</ele>
        <time>2021-03-24T10:09:38.000Z</time>
      </trkpt>
      <trkpt lat="46.24828" lon="6.3177">
        <ele>527.20001220703</ele>
        <time>2021-03-24T10:09:48.000Z</time>
      </trkpt>
      <trkpt lat="46.24844" lon="6.31815">
        <ele>528</ele>
        <time>2021-03-24T10:09:56.000Z</time>
      </trkpt>
      <trkpt lat="46.24859" lon="6.31864">
        <ele>528.20001220703</ele>
        <time>2021-03-24T10:10:04.000Z</time>
      </trkpt>
      <trkpt lat="46.24876" lon="6.31925">
        <ele>528.20001220703</ele>
        <time>2021-03-24T10:10:14.000Z</time>
      </trkpt>
      <trkpt lat="46.24889" lon="6.31971">
        <ele>528.79998779297</ele>
        <time>2021-03-24T10:10:21.000Z</time>
      </trkpt>
      <trkpt lat="46.24911" lon="6.3205">
        <ele>530.20001220703</ele>
        <time>2021-03-24T10:10:32.000Z</time>
      </trkpt>
      <trkpt lat="46.24918" lon="6.32106">
        <ele>529.79998779297</ele>
        <time>2021-03-24T10:10:39.000Z</time>
      </trkpt>
      <trkpt lat="46.2492" lon="6.32175">
        <ele>529.20001220703</ele>
        <time>2021-03-24T10:10:47.000Z</time>
      </trkpt>
      <trkpt lat="46.24923" lon="6.32241">
        <ele>530.40002441406</ele>
        <time>2021-03-24T10:10:55.000Z</time>
      </trkpt>
      <trkpt lat="46.24924" lon="6.32247">
        <ele>530.59997558594</ele>
        <time>2021-03-24T10:10:56.000Z</time>
      </trkpt>
      <trkpt lat="46.24928" lon="6.32274">
        <ele>531.40002441406</ele>
        <time>2021-03-24T10:11:00.000Z</time>
      </trkpt>
      <trkpt lat="46.24944" lon="6.32321">
        <ele>533.79998779297</ele>
        <time>2021-03-24T10:11:08.000Z</time>
      </trkpt>
      <trkpt lat="46.24962" lon="6.32371">
        <ele>535.59997558594</ele>
        <time>2021-03-24T10:11:16.000Z</time>
      </trkpt>
      <trkpt lat="46.2498" lon="6.32425">
        <ele>534.59997558594</ele>
        <time>2021-03-24T10:11:24.000Z</time>
      </trkpt>
      <trkpt lat="46.24989" lon="6.32469">
        <ele>532.59997558594</ele>
        <time>2021-03-24T10:11:29.000Z</time>
      </trkpt>
      <trkpt lat="46.24991" lon="6.32492">
        <ele>531</ele>
        <time>2021-03-24T10:11:31.000Z</time>
      </trkpt>
      <trkpt lat="46.2499" lon="6.32515">
        <ele>530.20001220703</ele>
        <time>2021-03-24T10:11:33.000Z</time>
      </trkpt>
      <trkpt lat="46.24987" lon="6.32527">
        <ele>529.20001220703</ele>
        <time>2021-03-24T10:11:34.000Z</time>
      </trkpt>
      <trkpt lat="46.2498" lon="6.32561">
        <ele>526.79998779297</ele>
        <time>2021-03-24T10:11:37.000Z</time>
      </trkpt>
      <trkpt lat="46.24974" lon="6.32593">
        <ele>525.59997558594</ele>
        <time>2021-03-24T10:11:40.000Z</time>
      </trkpt>
      <trkpt lat="46.24973" lon="6.32625">
        <ele>525.40002441406</ele>
        <time>2021-03-24T10:11:43.000Z</time>
      </trkpt>
      <trkpt lat="46.24973" lon="6.32636">
        <ele>525.79998779297</ele>
        <time>2021-03-24T10:11:44.000Z</time>
      </trkpt>
      <trkpt lat="46.24984" lon="6.32672">
        <ele>525.79998779297</ele>
        <time>2021-03-24T10:11:49.000Z</time>
      </trkpt>
      <trkpt lat="46.2499" lon="6.32685">
        <ele>525.79998779297</ele>
        <time>2021-03-24T10:11:51.000Z</time>
      </trkpt>
      <trkpt lat="46.24997" lon="6.32703">
        <ele>526</ele>
        <time>2021-03-24T10:11:54.000Z</time>
      </trkpt>
      <trkpt lat="46.2502" lon="6.3272">
        <ele>527.79998779297</ele>
        <time>2021-03-24T10:11:59.000Z</time>
      </trkpt>
      <trkpt lat="46.25025" lon="6.32724">
        <ele>528</ele>
        <time>2021-03-24T10:12:00.000Z</time>
      </trkpt>
      <trkpt lat="46.25062" lon="6.32752">
        <ele>529.40002441406</ele>
        <time>2021-03-24T10:12:07.000Z</time>
      </trkpt>
      <trkpt lat="46.25096" lon="6.32768">
        <ele>529.40002441406</ele>
        <time>2021-03-24T10:12:13.000Z</time>
      </trkpt>
      <trkpt lat="46.25128" lon="6.32781">
        <ele>528.20001220703</ele>
        <time>2021-03-24T10:12:19.000Z</time>
      </trkpt>
      <trkpt lat="46.25151" lon="6.32785">
        <ele>527.79998779297</ele>
        <time>2021-03-24T10:12:24.000Z</time>
      </trkpt>
      <trkpt lat="46.25156" lon="6.32783">
        <ele>528</ele>
        <time>2021-03-24T10:12:25.000Z</time>
      </trkpt>
      <trkpt lat="46.2516" lon="6.3278">
        <ele>528.20001220703</ele>
        <time>2021-03-24T10:12:26.000Z</time>
      </trkpt>
      <trkpt lat="46.25174" lon="6.32772">
        <ele>529</ele>
        <time>2021-03-24T10:12:29.000Z</time>
      </trkpt>
      <trkpt lat="46.25196" lon="6.32761">
        <ele>530.79998779297</ele>
        <time>2021-03-24T10:12:34.000Z</time>
      </trkpt>
      <trkpt lat="46.25224" lon="6.32744">
        <ele>531.59997558594</ele>
        <time>2021-03-24T10:12:40.000Z</time>
      </trkpt>
      <trkpt lat="46.25256" lon="6.32717">
        <ele>530</ele>
        <time>2021-03-24T10:12:48.000Z</time>
      </trkpt>
      <trkpt lat="46.2529" lon="6.3269">
        <ele>531</ele>
        <time>2021-03-24T10:12:56.000Z</time>
      </trkpt>
      <trkpt lat="46.25318" lon="6.32667">
        <ele>532</ele>
        <time>2021-03-24T10:13:03.000Z</time>
      </trkpt>
      <trkpt lat="46.2535" lon="6.32641">
        <ele>532.59997558594</ele>
        <time>2021-03-24T10:13:11.000Z</time>
      </trkpt>
      <trkpt lat="46.25376" lon="6.32618">
        <ele>533.20001220703</ele>
        <time>2021-03-24T10:13:18.000Z</time>
      </trkpt>
      <trkpt lat="46.25395" lon="6.32584">
        <ele>535</ele>
        <time>2021-03-24T10:13:25.000Z</time>
      </trkpt>
      <trkpt lat="46.25413" lon="6.32539">
        <ele>534.79998779297</ele>
        <time>2021-03-24T10:13:33.000Z</time>
      </trkpt>
      <trkpt lat="46.25426" lon="6.32507">
        <ele>535</ele>
        <time>2021-03-24T10:13:40.000Z</time>
      </trkpt>
      <trkpt lat="46.25429" lon="6.32501">
        <ele>535</ele>
        <time>2021-03-24T10:13:41.000Z</time>
      </trkpt>
      <trkpt lat="46.25431" lon="6.32496">
        <ele>535.20001220703</ele>
        <time>2021-03-24T10:13:42.000Z</time>
      </trkpt>
      <trkpt lat="46.25447" lon="6.32488">
        <ele>535.59997558594</ele>
        <time>2021-03-24T10:13:45.000Z</time>
      </trkpt>
      <trkpt lat="46.25475" lon="6.32481">
        <ele>536.40002441406</ele>
        <time>2021-03-24T10:13:51.000Z</time>
      </trkpt>
      <trkpt lat="46.25505" lon="6.32472">
        <ele>537.20001220703</ele>
        <time>2021-03-24T10:13:57.000Z</time>
      </trkpt>
      <trkpt lat="46.25509" lon="6.3247">
        <ele>537.20001220703</ele>
        <time>2021-03-24T10:13:58.000Z</time>
      </trkpt>
      <trkpt lat="46.25533" lon="6.32461">
        <ele>537.20001220703</ele>
        <time>2021-03-24T10:14:03.000Z</time>
      </trkpt>
      <trkpt lat="46.25547" lon="6.32456">
        <ele>537.40002441406</ele>
        <time>2021-03-24T10:14:06.000Z</time>
      </trkpt>
      <trkpt lat="46.25575" lon="6.3245">
        <ele>539.20001220703</ele>
        <time>2021-03-24T10:14:12.000Z</time>
      </trkpt>
      <trkpt lat="46.25602" lon="6.3245">
        <ele>540</ele>
        <time>2021-03-24T10:14:18.000Z</time>
      </trkpt>
      <trkpt lat="46.25616" lon="6.32451">
        <ele>540.40002441406</ele>
        <time>2021-03-24T10:14:21.000Z</time>
      </trkpt>
      <trkpt lat="46.25633" lon="6.32453">
        <ele>540</ele>
        <time>2021-03-24T10:14:25.000Z</time>
      </trkpt>
      <trkpt lat="46.25663" lon="6.32466">
        <ele>540.79998779297</ele>
        <time>2021-03-24T10:14:32.000Z</time>
      </trkpt>
      <trkpt lat="46.25667" lon="6.32469">
        <ele>540.79998779297</ele>
        <time>2021-03-24T10:14:33.000Z</time>
      </trkpt>
      <trkpt lat="46.25682" lon="6.32482">
        <ele>541.20001220703</ele>
        <time>2021-03-24T10:14:37.000Z</time>
      </trkpt>
      <trkpt lat="46.25702" lon="6.32503">
        <ele>542.59997558594</ele>
        <time>2021-03-24T10:14:43.000Z</time>
      </trkpt>
      <trkpt lat="46.25711" lon="6.32514">
        <ele>543.40002441406</ele>
        <time>2021-03-24T10:14:46.000Z</time>
      </trkpt>
      <trkpt lat="46.25721" lon="6.32526">
        <ele>544</ele>
        <time>2021-03-24T10:14:49.000Z</time>
      </trkpt>
      <trkpt lat="46.25731" lon="6.32537">
        <ele>544.59997558594</ele>
        <time>2021-03-24T10:14:52.000Z</time>
      </trkpt>
      <trkpt lat="46.25736" lon="6.32546">
        <ele>544.79998779297</ele>
        <time>2021-03-24T10:14:54.000Z</time>
      </trkpt>
      <trkpt lat="46.25744" lon="6.32559">
        <ele>544.40002441406</ele>
        <time>2021-03-24T10:14:57.000Z</time>
      </trkpt>
      <trkpt lat="46.25753" lon="6.32575">
        <ele>543.20001220703</ele>
        <time>2021-03-24T10:15:00.000Z</time>
      </trkpt>
      <trkpt lat="46.25753" lon="6.32581">
        <ele>543</ele>
        <time>2021-03-24T10:15:01.000Z</time>
      </trkpt>
      <trkpt lat="46.25756" lon="6.32591">
        <ele>543.40002441406</ele>
        <time>2021-03-24T10:15:03.000Z</time>
      </trkpt>
      <trkpt lat="46.25762" lon="6.32599">
        <ele>543.79998779297</ele>
        <time>2021-03-24T10:15:05.000Z</time>
      </trkpt>
      <trkpt lat="46.25766" lon="6.32603">
        <ele>543.79998779297</ele>
        <time>2021-03-24T10:15:06.000Z</time>
      </trkpt>
      <trkpt lat="46.25795" lon="6.32632">
        <ele>548.40002441406</ele>
        <time>2021-03-24T10:15:14.000Z</time>
      </trkpt>
      <trkpt lat="46.25824" lon="6.3266">
        <ele>550.79998779297</ele>
        <time>2021-03-24T10:15:23.000Z</time>
      </trkpt>
      <trkpt lat="46.25848" lon="6.3268">
        <ele>550.20001220703</ele>
        <time>2021-03-24T10:15:30.000Z</time>
      </trkpt>
      <trkpt lat="46.25871" lon="6.32697">
        <ele>549.40002441406</ele>
        <time>2021-03-24T10:15:36.000Z</time>
      </trkpt>
      <trkpt lat="46.25888" lon="6.32709">
        <ele>549.20001220703</ele>
        <time>2021-03-24T10:15:40.000Z</time>
      </trkpt>
      <trkpt lat="46.25892" lon="6.32712">
        <ele>549.40002441406</ele>
        <time>2021-03-24T10:15:41.000Z</time>
      </trkpt>
      <trkpt lat="46.25911" lon="6.32727">
        <ele>550</ele>
        <time>2021-03-24T10:15:46.000Z</time>
      </trkpt>
      <trkpt lat="46.2592" lon="6.32733">
        <ele>550.40002441406</ele>
        <time>2021-03-24T10:15:48.000Z</time>
      </trkpt>
      <trkpt lat="46.25944" lon="6.32752">
        <ele>551.20001220703</ele>
        <time>2021-03-24T10:15:54.000Z</time>
      </trkpt>
      <trkpt lat="46.25947" lon="6.32763">
        <ele>551</ele>
        <time>2021-03-24T10:15:56.000Z</time>
      </trkpt>
      <trkpt lat="46.25948" lon="6.32769">
        <ele>550.79998779297</ele>
        <time>2021-03-24T10:15:57.000Z</time>
      </trkpt>
      <trkpt lat="46.25959" lon="6.32815">
        <ele>551.79998779297</ele>
        <time>2021-03-24T10:16:05.000Z</time>
      </trkpt>
      <trkpt lat="46.25962" lon="6.3282">
        <ele>551.79998779297</ele>
        <time>2021-03-24T10:16:06.000Z</time>
      </trkpt>
      <trkpt lat="46.25982" lon="6.32859">
        <ele>553.79998779297</ele>
        <time>2021-03-24T10:16:14.000Z</time>
      </trkpt>
      <trkpt lat="46.2599" lon="6.32872">
        <ele>554.59997558594</ele>
        <time>2021-03-24T10:16:17.000Z</time>
      </trkpt>
      <trkpt lat="46.26003" lon="6.32888">
        <ele>555.79998779297</ele>
        <time>2021-03-24T10:16:21.000Z</time>
      </trkpt>
      <trkpt lat="46.26019" lon="6.32904">
        <ele>556.79998779297</ele>
        <time>2021-03-24T10:16:26.000Z</time>
      </trkpt>
      <trkpt lat="46.26049" lon="6.3293">
        <ele>557</ele>
        <time>2021-03-24T10:16:35.000Z</time>
      </trkpt>
      <trkpt lat="46.26082" lon="6.32958">
        <ele>558.40002441406</ele>
        <time>2021-03-24T10:16:45.000Z</time>
      </trkpt>
      <trkpt lat="46.26117" lon="6.32978">
        <ele>557.59997558594</ele>
        <time>2021-03-24T10:16:55.000Z</time>
      </trkpt>
      <trkpt lat="46.26154" lon="6.32997">
        <ele>559.20001220703</ele>
        <time>2021-03-24T10:17:05.000Z</time>
      </trkpt>
      <trkpt lat="46.26185" lon="6.33012">
        <ele>560.20001220703</ele>
        <time>2021-03-24T10:17:13.000Z</time>
      </trkpt>
      <trkpt lat="46.2622" lon="6.33029">
        <ele>565</ele>
        <time>2021-03-24T10:17:23.000Z</time>
      </trkpt>
      <trkpt lat="46.26236" lon="6.33038">
        <ele>566</ele>
        <time>2021-03-24T10:17:29.000Z</time>
      </trkpt>
      <trkpt lat="46.26262" lon="6.33056">
        <ele>567</ele>
        <time>2021-03-24T10:17:36.000Z</time>
      </trkpt>
      <trkpt lat="46.26293" lon="6.33083">
        <ele>567.40002441406</ele>
        <time>2021-03-24T10:17:46.000Z</time>
      </trkpt>
      <trkpt lat="46.2632" lon="6.3312">
        <ele>567.79998779297</ele>
        <time>2021-03-24T10:17:55.000Z</time>
      </trkpt>
      <trkpt lat="46.26354" lon="6.33165">
        <ele>566.59997558594</ele>
        <time>2021-03-24T10:18:06.000Z</time>
      </trkpt>
      <trkpt lat="46.26384" lon="6.33205">
        <ele>565.79998779297</ele>
        <time>2021-03-24T10:18:15.000Z</time>
      </trkpt>
      <trkpt lat="46.26412" lon="6.33243">
        <ele>568.40002441406</ele>
        <time>2021-03-24T10:18:23.000Z</time>
      </trkpt>
      <trkpt lat="46.26436" lon="6.33292">
        <ele>568.79998779297</ele>
        <time>2021-03-24T10:18:31.000Z</time>
      </trkpt>
      <trkpt lat="46.26456" lon="6.33342">
        <ele>570</ele>
        <time>2021-03-24T10:18:39.000Z</time>
      </trkpt>
      <trkpt lat="46.26469" lon="6.33385">
        <ele>571.20001220703</ele>
        <time>2021-03-24T10:18:46.000Z</time>
      </trkpt>
      <trkpt lat="46.26468" lon="6.3339">
        <ele>571</ele>
        <time>2021-03-24T10:18:47.000Z</time>
      </trkpt>
      <trkpt lat="46.26467" lon="6.33397">
        <ele>570.79998779297</ele>
        <time>2021-03-24T10:18:48.000Z</time>
      </trkpt>
      <trkpt lat="46.26464" lon="6.33418">
        <ele>569.79998779297</ele>
        <time>2021-03-24T10:18:51.000Z</time>
      </trkpt>
      <trkpt lat="46.26452" lon="6.33489">
        <ele>570.79998779297</ele>
        <time>2021-03-24T10:19:01.000Z</time>
      </trkpt>
      <trkpt lat="46.26441" lon="6.33554">
        <ele>571.20001220703</ele>
        <time>2021-03-24T10:19:10.000Z</time>
      </trkpt>
      <trkpt lat="46.26428" lon="6.33632">
        <ele>569.20001220703</ele>
        <time>2021-03-24T10:19:20.000Z</time>
      </trkpt>
      <trkpt lat="46.26414" lon="6.33712">
        <ele>571</ele>
        <time>2021-03-24T10:19:30.000Z</time>
      </trkpt>
      <trkpt lat="46.26412" lon="6.33729">
        <ele>571.79998779297</ele>
        <time>2021-03-24T10:19:32.000Z</time>
      </trkpt>
      <trkpt lat="46.26398" lon="6.33813">
        <ele>572.59997558594</ele>
        <time>2021-03-24T10:19:42.000Z</time>
      </trkpt>
      <trkpt lat="46.26396" lon="6.33821">
        <ele>572.40002441406</ele>
        <time>2021-03-24T10:19:43.000Z</time>
      </trkpt>
      <trkpt lat="46.26384" lon="6.33905">
        <ele>571.79998779297</ele>
        <time>2021-03-24T10:19:53.000Z</time>
      </trkpt>
      <trkpt lat="46.26382" lon="6.33929">
        <ele>572.59997558594</ele>
        <time>2021-03-24T10:19:56.000Z</time>
      </trkpt>
      <trkpt lat="46.26384" lon="6.33945">
        <ele>573.20001220703</ele>
        <time>2021-03-24T10:19:58.000Z</time>
      </trkpt>
      <trkpt lat="46.26386" lon="6.33952">
        <ele>573.20001220703</ele>
        <time>2021-03-24T10:19:59.000Z</time>
      </trkpt>
      <trkpt lat="46.26388" lon="6.33959">
        <ele>573.40002441406</ele>
        <time>2021-03-24T10:20:00.000Z</time>
      </trkpt>
      <trkpt lat="46.26392" lon="6.33973">
        <ele>573.79998779297</ele>
        <time>2021-03-24T10:20:02.000Z</time>
      </trkpt>
      <trkpt lat="46.26399" lon="6.33985">
        <ele>574.20001220703</ele>
        <time>2021-03-24T10:20:04.000Z</time>
      </trkpt>
      <trkpt lat="46.26426" lon="6.34026">
        <ele>574</ele>
        <time>2021-03-24T10:20:12.000Z</time>
      </trkpt>
      <trkpt lat="46.26457" lon="6.34073">
        <ele>575.59997558594</ele>
        <time>2021-03-24T10:20:21.000Z</time>
      </trkpt>
      <trkpt lat="46.26475" lon="6.34104">
        <ele>576</ele>
        <time>2021-03-24T10:20:26.000Z</time>
      </trkpt>
      <trkpt lat="46.26482" lon="6.34116">
        <ele>576</ele>
        <time>2021-03-24T10:20:28.000Z</time>
      </trkpt>
      <trkpt lat="46.265" lon="6.34151">
        <ele>575.20001220703</ele>
        <time>2021-03-24T10:20:33.000Z</time>
      </trkpt>
      <trkpt lat="46.26503" lon="6.34158">
        <ele>574.79998779297</ele>
        <time>2021-03-24T10:20:34.000Z</time>
      </trkpt>
      <trkpt lat="46.26517" lon="6.34186">
        <ele>574.20001220703</ele>
        <time>2021-03-24T10:20:38.000Z</time>
      </trkpt>
      <trkpt lat="46.2652" lon="6.34192">
        <ele>574.20001220703</ele>
        <time>2021-03-24T10:20:39.000Z</time>
      </trkpt>
      <trkpt lat="46.26526" lon="6.34216">
        <ele>575</ele>
        <time>2021-03-24T10:20:42.000Z</time>
      </trkpt>
      <trkpt lat="46.26528" lon="6.34224">
        <ele>574.79998779297</ele>
        <time>2021-03-24T10:20:43.000Z</time>
      </trkpt>
      <trkpt lat="46.26545" lon="6.34284">
        <ele>574</ele>
        <time>2021-03-24T10:20:51.000Z</time>
      </trkpt>
      <trkpt lat="46.26547" lon="6.34291">
        <ele>574</ele>
        <time>2021-03-24T10:20:52.000Z</time>
      </trkpt>
      <trkpt lat="46.26551" lon="6.34297">
        <ele>574</ele>
        <time>2021-03-24T10:20:53.000Z</time>
      </trkpt>
      <trkpt lat="46.26566" lon="6.3432">
        <ele>574</ele>
        <time>2021-03-24T10:20:57.000Z</time>
      </trkpt>
      <trkpt lat="46.26594" lon="6.34355">
        <ele>573.40002441406</ele>
        <time>2021-03-24T10:21:04.000Z</time>
      </trkpt>
      <trkpt lat="46.26607" lon="6.3437">
        <ele>573</ele>
        <time>2021-03-24T10:21:07.000Z</time>
      </trkpt>
      <trkpt lat="46.26619" lon="6.34391">
        <ele>572.40002441406</ele>
        <time>2021-03-24T10:21:10.000Z</time>
      </trkpt>
      <trkpt lat="46.26644" lon="6.34442">
        <ele>570.20001220703</ele>
        <time>2021-03-24T10:21:16.000Z</time>
      </trkpt>
      <trkpt lat="46.26665" lon="6.34497">
        <ele>566</ele>
        <time>2021-03-24T10:21:22.000Z</time>
      </trkpt>
      <trkpt lat="46.26668" lon="6.34504">
        <ele>566</ele>
        <time>2021-03-24T10:21:23.000Z</time>
      </trkpt>
      <trkpt lat="46.26679" lon="6.34513">
        <ele>566</ele>
        <time>2021-03-24T10:21:25.000Z</time>
      </trkpt>
      <trkpt lat="46.26692" lon="6.34516">
        <ele>565.79998779297</ele>
        <time>2021-03-24T10:21:27.000Z</time>
      </trkpt>
      <trkpt lat="46.26708" lon="6.34518">
        <ele>565.20001220703</ele>
        <time>2021-03-24T10:21:29.000Z</time>
      </trkpt>
      <trkpt lat="46.26735" lon="6.34528">
        <ele>564.20001220703</ele>
        <time>2021-03-24T10:21:33.000Z</time>
      </trkpt>
      <trkpt lat="46.26742" lon="6.34533">
        <ele>563.79998779297</ele>
        <time>2021-03-24T10:21:34.000Z</time>
      </trkpt>
      <trkpt lat="46.26749" lon="6.34537">
        <ele>563.20001220703</ele>
        <time>2021-03-24T10:21:35.000Z</time>
      </trkpt>
      <trkpt lat="46.26775" lon="6.34562">
        <ele>559.79998779297</ele>
        <time>2021-03-24T10:21:39.000Z</time>
      </trkpt>
      <trkpt lat="46.26785" lon="6.34579">
        <ele>557.59997558594</ele>
        <time>2021-03-24T10:21:41.000Z</time>
      </trkpt>
      <trkpt lat="46.26789" lon="6.34588">
        <ele>556.59997558594</ele>
        <time>2021-03-24T10:21:42.000Z</time>
      </trkpt>
      <trkpt lat="46.26789" lon="6.34596">
        <ele>555.79998779297</ele>
        <time>2021-03-24T10:21:43.000Z</time>
      </trkpt>
      <trkpt lat="46.26787" lon="6.34615">
        <ele>554</ele>
        <time>2021-03-24T10:21:45.000Z</time>
      </trkpt>
      <trkpt lat="46.26775" lon="6.3464">
        <ele>553.20001220703</ele>
        <time>2021-03-24T10:21:48.000Z</time>
      </trkpt>
      <trkpt lat="46.26733" lon="6.347">
        <ele>552.20001220703</ele>
        <time>2021-03-24T10:21:56.000Z</time>
      </trkpt>
      <trkpt lat="46.26728" lon="6.34708">
        <ele>552</ele>
        <time>2021-03-24T10:21:57.000Z</time>
      </trkpt>
      <trkpt lat="46.26722" lon="6.34716">
        <ele>551.79998779297</ele>
        <time>2021-03-24T10:21:58.000Z</time>
      </trkpt>
      <trkpt lat="46.26708" lon="6.34723">
        <ele>551.79998779297</ele>
        <time>2021-03-24T10:22:00.000Z</time>
      </trkpt>
      <trkpt lat="46.26693" lon="6.34722">
        <ele>551.79998779297</ele>
        <time>2021-03-24T10:22:02.000Z</time>
      </trkpt>
      <trkpt lat="46.26685" lon="6.34721">
        <ele>551.59997558594</ele>
        <time>2021-03-24T10:22:03.000Z</time>
      </trkpt>
      <trkpt lat="46.26631" lon="6.34698">
        <ele>547.59997558594</ele>
        <time>2021-03-24T10:22:10.000Z</time>
      </trkpt>
      <trkpt lat="46.26618" lon="6.34693">
        <ele>546.40002441406</ele>
        <time>2021-03-24T10:22:12.000Z</time>
      </trkpt>
      <trkpt lat="46.26605" lon="6.34694">
        <ele>545</ele>
        <time>2021-03-24T10:22:14.000Z</time>
      </trkpt>
      <trkpt lat="46.26594" lon="6.347">
        <ele>543.79998779297</ele>
        <time>2021-03-24T10:22:16.000Z</time>
      </trkpt>
      <trkpt lat="46.26589" lon="6.34707">
        <ele>543.20001220703</ele>
        <time>2021-03-24T10:22:17.000Z</time>
      </trkpt>
      <trkpt lat="46.26585" lon="6.34714">
        <ele>542.79998779297</ele>
        <time>2021-03-24T10:22:18.000Z</time>
      </trkpt>
      <trkpt lat="46.26574" lon="6.34742">
        <ele>541.79998779297</ele>
        <time>2021-03-24T10:22:21.000Z</time>
      </trkpt>
      <trkpt lat="46.2656" lon="6.34791">
        <ele>542.40002441406</ele>
        <time>2021-03-24T10:22:26.000Z</time>
      </trkpt>
      <trkpt lat="46.26559" lon="6.34802">
        <ele>542.79998779297</ele>
        <time>2021-03-24T10:22:27.000Z</time>
      </trkpt>
      <trkpt lat="46.26558" lon="6.34824">
        <ele>542.59997558594</ele>
        <time>2021-03-24T10:22:29.000Z</time>
      </trkpt>
      <trkpt lat="46.26557" lon="6.34855">
        <ele>541.59997558594</ele>
        <time>2021-03-24T10:22:32.000Z</time>
      </trkpt>
      <trkpt lat="46.26551" lon="6.34891">
        <ele>541</ele>
        <time>2021-03-24T10:22:36.000Z</time>
      </trkpt>
      <trkpt lat="46.26534" lon="6.3495">
        <ele>541.40002441406</ele>
        <time>2021-03-24T10:22:44.000Z</time>
      </trkpt>
      <trkpt lat="46.26516" lon="6.35011">
        <ele>545</ele>
        <time>2021-03-24T10:22:53.000Z</time>
      </trkpt>
      <trkpt lat="46.26501" lon="6.35062">
        <ele>549</ele>
        <time>2021-03-24T10:23:01.000Z</time>
      </trkpt>
      <trkpt lat="46.26488" lon="6.35099">
        <ele>549.40002441406</ele>
        <time>2021-03-24T10:23:08.000Z</time>
      </trkpt>
      <trkpt lat="46.26486" lon="6.35105">
        <ele>549.59997558594</ele>
        <time>2021-03-24T10:23:10.000Z</time>
      </trkpt>
      <trkpt lat="46.26485" lon="6.3511">
        <ele>549.79998779297</ele>
        <time>2021-03-24T10:23:12.000Z</time>
      </trkpt>
      <trkpt lat="46.2648" lon="6.35123">
        <ele>551</ele>
        <time>2021-03-24T10:23:14.000Z</time>
      </trkpt>
      <trkpt lat="46.26465" lon="6.35156">
        <ele>554.20001220703</ele>
        <time>2021-03-24T10:23:20.000Z</time>
      </trkpt>
      <trkpt lat="46.26447" lon="6.35179">
        <ele>556.59997558594</ele>
        <time>2021-03-24T10:23:26.000Z</time>
      </trkpt>
      <trkpt lat="46.26421" lon="6.35203">
        <ele>557.59997558594</ele>
        <time>2021-03-24T10:23:35.000Z</time>
      </trkpt>
      <trkpt lat="46.26393" lon="6.35226">
        <ele>559.79998779297</ele>
        <time>2021-03-24T10:23:45.000Z</time>
      </trkpt>
      <trkpt lat="46.26377" lon="6.35239">
        <ele>562.20001220703</ele>
        <time>2021-03-24T10:23:51.000Z</time>
      </trkpt>
      <trkpt lat="46.26366" lon="6.35252">
        <ele>562.79998779297</ele>
        <time>2021-03-24T10:23:56.000Z</time>
      </trkpt>
      <trkpt lat="46.26353" lon="6.35265">
        <ele>562.59997558594</ele>
        <time>2021-03-24T10:24:01.000Z</time>
      </trkpt>
      <trkpt lat="46.26335" lon="6.35287">
        <ele>562.59997558594</ele>
        <time>2021-03-24T10:24:09.000Z</time>
      </trkpt>
      <trkpt lat="46.26316" lon="6.35314">
        <ele>562.40002441406</ele>
        <time>2021-03-24T10:24:18.000Z</time>
      </trkpt>
      <trkpt lat="46.26295" lon="6.35343">
        <ele>563</ele>
        <time>2021-03-24T10:24:28.000Z</time>
      </trkpt>
      <trkpt lat="46.26275" lon="6.3537">
        <ele>566</ele>
        <time>2021-03-24T10:24:38.000Z</time>
      </trkpt>
      <trkpt lat="46.26262" lon="6.35398">
        <ele>569.20001220703</ele>
        <time>2021-03-24T10:24:46.000Z</time>
      </trkpt>
      <trkpt lat="46.26252" lon="6.3543">
        <ele>572.59997558594</ele>
        <time>2021-03-24T10:24:54.000Z</time>
      </trkpt>
      <trkpt lat="46.26241" lon="6.35467">
        <ele>573</ele>
        <time>2021-03-24T10:25:03.000Z</time>
      </trkpt>
      <trkpt lat="46.2623" lon="6.35504">
        <ele>571.79998779297</ele>
        <time>2021-03-24T10:25:12.000Z</time>
      </trkpt>
      <trkpt lat="46.2622" lon="6.35541">
        <ele>571.79998779297</ele>
        <time>2021-03-24T10:25:20.000Z</time>
      </trkpt>
      <trkpt lat="46.26207" lon="6.35582">
        <ele>572.79998779297</ele>
        <time>2021-03-24T10:25:29.000Z</time>
      </trkpt>
      <trkpt lat="46.262" lon="6.35608">
        <ele>573.20001220703</ele>
        <time>2021-03-24T10:25:35.000Z</time>
      </trkpt>
      <trkpt lat="46.2619" lon="6.3565">
        <ele>574.79998779297</ele>
        <time>2021-03-24T10:25:45.000Z</time>
      </trkpt>
      <trkpt lat="46.26187" lon="6.35664">
        <ele>575.20001220703</ele>
        <time>2021-03-24T10:25:50.000Z</time>
      </trkpt>
      <trkpt lat="46.26183" lon="6.35679">
        <ele>575.59997558594</ele>
        <time>2021-03-24T10:25:53.000Z</time>
      </trkpt>
      <trkpt lat="46.26184" lon="6.35682">
        <ele>575.40002441406</ele>
        <time>2021-03-24T10:25:54.000Z</time>
      </trkpt>
      <trkpt lat="46.26177" lon="6.35689">
        <ele>575.79998779297</ele>
        <time>2021-03-24T10:25:55.000Z</time>
      </trkpt>
      <trkpt lat="46.26171" lon="6.35699">
        <ele>576.20001220703</ele>
        <time>2021-03-24T10:25:57.000Z</time>
      </trkpt>
      <trkpt lat="46.26169" lon="6.35704">
        <ele>576.20001220703</ele>
        <time>2021-03-24T10:25:58.000Z</time>
      </trkpt>
      <trkpt lat="46.26148" lon="6.3573">
        <ele>576.79998779297</ele>
        <time>2021-03-24T10:26:05.000Z</time>
      </trkpt>
      <trkpt lat="46.26128" lon="6.35749">
        <ele>577.20001220703</ele>
        <time>2021-03-24T10:26:12.000Z</time>
      </trkpt>
      <trkpt lat="46.26108" lon="6.35768">
        <ele>578.59997558594</ele>
        <time>2021-03-24T10:26:19.000Z</time>
      </trkpt>
      <trkpt lat="46.26094" lon="6.3578">
        <ele>579.40002441406</ele>
        <time>2021-03-24T10:26:24.000Z</time>
      </trkpt>
      <trkpt lat="46.2608" lon="6.35799">
        <ele>580.59997558594</ele>
        <time>2021-03-24T10:26:29.000Z</time>
      </trkpt>
      <trkpt lat="46.26057" lon="6.35829">
        <ele>582.59997558594</ele>
        <time>2021-03-24T10:26:38.000Z</time>
      </trkpt>
      <trkpt lat="46.26042" lon="6.35839">
        <ele>583.59997558594</ele>
        <time>2021-03-24T10:26:43.000Z</time>
      </trkpt>
      <trkpt lat="46.26023" lon="6.35852">
        <ele>584</ele>
        <time>2021-03-24T10:26:49.000Z</time>
      </trkpt>
      <trkpt lat="46.25999" lon="6.35868">
        <ele>586.59997558594</ele>
        <time>2021-03-24T10:26:57.000Z</time>
      </trkpt>
      <trkpt lat="46.25981" lon="6.3588">
        <ele>587.79998779297</ele>
        <time>2021-03-24T10:27:04.000Z</time>
      </trkpt>
      <trkpt lat="46.25962" lon="6.35893">
        <ele>590</ele>
        <time>2021-03-24T10:27:12.000Z</time>
      </trkpt>
      <trkpt lat="46.25964" lon="6.35899">
        <ele>589.59997558594</ele>
        <time>2021-03-24T10:27:13.000Z</time>
      </trkpt>
      <trkpt lat="46.25968" lon="6.35908">
        <ele>589.20001220703</ele>
        <time>2021-03-24T10:27:15.000Z</time>
      </trkpt>
      <trkpt lat="46.25977" lon="6.35936">
        <ele>588.59997558594</ele>
        <time>2021-03-24T10:27:21.000Z</time>
      </trkpt>
      <trkpt lat="46.25992" lon="6.3598">
        <ele>586.79998779297</ele>
        <time>2021-03-24T10:27:29.000Z</time>
      </trkpt>
      <trkpt lat="46.2601" lon="6.36036">
        <ele>585.79998779297</ele>
        <time>2021-03-24T10:27:38.000Z</time>
      </trkpt>
      <trkpt lat="46.26025" lon="6.36083">
        <ele>588</ele>
        <time>2021-03-24T10:27:45.000Z</time>
      </trkpt>
      <trkpt lat="46.26032" lon="6.36104">
        <ele>589</ele>
        <time>2021-03-24T10:27:48.000Z</time>
      </trkpt>
      <trkpt lat="46.2604" lon="6.36131">
        <ele>589.40002441406</ele>
        <time>2021-03-24T10:27:52.000Z</time>
      </trkpt>
      <trkpt lat="46.26064" lon="6.36187">
        <ele>588.20001220703</ele>
        <time>2021-03-24T10:28:01.000Z</time>
      </trkpt>
      <trkpt lat="46.26085" lon="6.3623">
        <ele>588</ele>
        <time>2021-03-24T10:28:08.000Z</time>
      </trkpt>
      <trkpt lat="46.26113" lon="6.3628">
        <ele>589</ele>
        <time>2021-03-24T10:28:16.000Z</time>
      </trkpt>
      <trkpt lat="46.26132" lon="6.36316">
        <ele>589</ele>
        <time>2021-03-24T10:28:22.000Z</time>
      </trkpt>
      <trkpt lat="46.26145" lon="6.36352">
        <ele>587.20001220703</ele>
        <time>2021-03-24T10:28:27.000Z</time>
      </trkpt>
      <trkpt lat="46.26148" lon="6.36359">
        <ele>586.79998779297</ele>
        <time>2021-03-24T10:28:28.000Z</time>
      </trkpt>
      <trkpt lat="46.26166" lon="6.36411">
        <ele>585.59997558594</ele>
        <time>2021-03-24T10:28:36.000Z</time>
      </trkpt>
      <trkpt lat="46.26176" lon="6.36461">
        <ele>585.40002441406</ele>
        <time>2021-03-24T10:28:43.000Z</time>
      </trkpt>
      <trkpt lat="46.26176" lon="6.36469">
        <ele>585.20001220703</ele>
        <time>2021-03-24T10:28:44.000Z</time>
      </trkpt>
      <trkpt lat="46.26176" lon="6.3648">
        <ele>585.40002441406</ele>
        <time>2021-03-24T10:28:46.000Z</time>
      </trkpt>
      <trkpt lat="46.26175" lon="6.36486">
        <ele>585.40002441406</ele>
        <time>2021-03-24T10:28:47.000Z</time>
      </trkpt>
      <trkpt lat="46.2617" lon="6.36521">
        <ele>585</ele>
        <time>2021-03-24T10:28:53.000Z</time>
      </trkpt>
      <trkpt lat="46.26155" lon="6.36562">
        <ele>584.20001220703</ele>
        <time>2021-03-24T10:29:00.000Z</time>
      </trkpt>
      <trkpt lat="46.26154" lon="6.36567">
        <ele>584.20001220703</ele>
        <time>2021-03-24T10:29:01.000Z</time>
      </trkpt>
      <trkpt lat="46.2615" lon="6.36578">
        <ele>584.40002441406</ele>
        <time>2021-03-24T10:29:03.000Z</time>
      </trkpt>
      <trkpt lat="46.26145" lon="6.36593">
        <ele>584.79998779297</ele>
        <time>2021-03-24T10:29:06.000Z</time>
      </trkpt>
      <trkpt lat="46.26135" lon="6.36622">
        <ele>585.40002441406</ele>
        <time>2021-03-24T10:29:12.000Z</time>
      </trkpt>
      <trkpt lat="46.26135" lon="6.3663">
        <ele>585</ele>
        <time>2021-03-24T10:29:13.000Z</time>
      </trkpt>
      <trkpt lat="46.2614" lon="6.36642">
        <ele>584.40002441406</ele>
        <time>2021-03-24T10:29:15.000Z</time>
      </trkpt>
      <trkpt lat="46.26142" lon="6.3665">
        <ele>584.20001220703</ele>
        <time>2021-03-24T10:29:16.000Z</time>
      </trkpt>
      <trkpt lat="46.26147" lon="6.36665">
        <ele>583.59997558594</ele>
        <time>2021-03-24T10:29:18.000Z</time>
      </trkpt>
      <trkpt lat="46.26154" lon="6.36675">
        <ele>583.59997558594</ele>
        <time>2021-03-24T10:29:20.000Z</time>
      </trkpt>
      <trkpt lat="46.26159" lon="6.36679">
        <ele>583.59997558594</ele>
        <time>2021-03-24T10:29:21.000Z</time>
      </trkpt>
      <trkpt lat="46.26186" lon="6.36702">
        <ele>582.20001220703</ele>
        <time>2021-03-24T10:29:26.000Z</time>
      </trkpt>
      <trkpt lat="46.26195" lon="6.36717">
        <ele>581</ele>
        <time>2021-03-24T10:29:28.000Z</time>
      </trkpt>
      <trkpt lat="46.26199" lon="6.36726">
        <ele>580</ele>
        <time>2021-03-24T10:29:29.000Z</time>
      </trkpt>
      <trkpt lat="46.26201" lon="6.36736">
        <ele>579</ele>
        <time>2021-03-24T10:29:30.000Z</time>
      </trkpt>
      <trkpt lat="46.26203" lon="6.36757">
        <ele>577.79998779297</ele>
        <time>2021-03-24T10:29:32.000Z</time>
      </trkpt>
      <trkpt lat="46.26203" lon="6.36824">
        <ele>577.20001220703</ele>
        <time>2021-03-24T10:29:38.000Z</time>
      </trkpt>
      <trkpt lat="46.26203" lon="6.36833">
        <ele>576.59997558594</ele>
        <time>2021-03-24T10:29:39.000Z</time>
      </trkpt>
      <trkpt lat="46.26208" lon="6.36844">
        <ele>575.59997558594</ele>
        <time>2021-03-24T10:29:41.000Z</time>
      </trkpt>
      <trkpt lat="46.26215" lon="6.36852">
        <ele>574.20001220703</ele>
        <time>2021-03-24T10:29:43.000Z</time>
      </trkpt>
      <trkpt lat="46.26221" lon="6.36854">
        <ele>573.79998779297</ele>
        <time>2021-03-24T10:29:44.000Z</time>
      </trkpt>
      <trkpt lat="46.26228" lon="6.36857">
        <ele>573.20001220703</ele>
        <time>2021-03-24T10:29:45.000Z</time>
      </trkpt>
      <trkpt lat="46.26247" lon="6.36866">
        <ele>571.79998779297</ele>
        <time>2021-03-24T10:29:48.000Z</time>
      </trkpt>
      <trkpt lat="46.26251" lon="6.36871">
        <ele>571.40002441406</ele>
        <time>2021-03-24T10:29:49.000Z</time>
      </trkpt>
      <trkpt lat="46.26255" lon="6.36883">
        <ele>571.20001220703</ele>
        <time>2021-03-24T10:29:51.000Z</time>
      </trkpt>
      <trkpt lat="46.26255" lon="6.36899">
        <ele>571.20001220703</ele>
        <time>2021-03-24T10:29:53.000Z</time>
      </trkpt>
      <trkpt lat="46.26256" lon="6.36907">
        <ele>571.20001220703</ele>
        <time>2021-03-24T10:29:54.000Z</time>
      </trkpt>
      <trkpt lat="46.26257" lon="6.36939">
        <ele>571</ele>
        <time>2021-03-24T10:29:59.000Z</time>
      </trkpt>
      <trkpt lat="46.26253" lon="6.36962">
        <ele>571.59997558594</ele>
        <time>2021-03-24T10:30:04.000Z</time>
      </trkpt>
      <trkpt lat="46.26244" lon="6.36989">
        <ele>572.59997558594</ele>
        <time>2021-03-24T10:30:10.000Z</time>
      </trkpt>
      <trkpt lat="46.26239" lon="6.37021">
        <ele>574.20001220703</ele>
        <time>2021-03-24T10:30:16.000Z</time>
      </trkpt>
      <trkpt lat="46.2624" lon="6.37032">
        <ele>574.20001220703</ele>
        <time>2021-03-24T10:30:18.000Z</time>
      </trkpt>
      <trkpt lat="46.26244" lon="6.3705">
        <ele>574</ele>
        <time>2021-03-24T10:30:21.000Z</time>
      </trkpt>
      <trkpt lat="46.2625" lon="6.37086">
        <ele>573.40002441406</ele>
        <time>2021-03-24T10:30:28.000Z</time>
      </trkpt>
      <trkpt lat="46.26255" lon="6.37111">
        <ele>572.79998779297</ele>
        <time>2021-03-24T10:30:35.000Z</time>
      </trkpt>
      <trkpt lat="46.26263" lon="6.37132">
        <ele>573</ele>
        <time>2021-03-24T10:30:40.000Z</time>
      </trkpt>
      <trkpt lat="46.26274" lon="6.37158">
        <ele>573.79998779297</ele>
        <time>2021-03-24T10:30:44.000Z</time>
      </trkpt>
      <trkpt lat="46.26276" lon="6.37165">
        <ele>573.79998779297</ele>
        <time>2021-03-24T10:30:45.000Z</time>
      </trkpt>
      <trkpt lat="46.26282" lon="6.37179">
        <ele>574.20001220703</ele>
        <time>2021-03-24T10:30:47.000Z</time>
      </trkpt>
      <trkpt lat="46.26287" lon="6.37192">
        <ele>574.40002441406</ele>
        <time>2021-03-24T10:30:49.000Z</time>
      </trkpt>
      <trkpt lat="46.2629" lon="6.37198">
        <ele>574.40002441406</ele>
        <time>2021-03-24T10:30:50.000Z</time>
      </trkpt>
      <trkpt lat="46.26299" lon="6.37221">
        <ele>574</ele>
        <time>2021-03-24T10:30:54.000Z</time>
      </trkpt>
      <trkpt lat="46.26305" lon="6.37238">
        <ele>573.59997558594</ele>
        <time>2021-03-24T10:30:57.000Z</time>
      </trkpt>
      <trkpt lat="46.2632" lon="6.37283">
        <ele>572.20001220703</ele>
        <time>2021-03-24T10:31:05.000Z</time>
      </trkpt>
      <trkpt lat="46.26324" lon="6.37295">
        <ele>571.40002441406</ele>
        <time>2021-03-24T10:31:07.000Z</time>
      </trkpt>
      <trkpt lat="46.26333" lon="6.37314">
        <ele>571</ele>
        <time>2021-03-24T10:31:10.000Z</time>
      </trkpt>
      <trkpt lat="46.26351" lon="6.37354">
        <ele>571.20001220703</ele>
        <time>2021-03-24T10:31:16.000Z</time>
      </trkpt>
      <trkpt lat="46.26354" lon="6.3736">
        <ele>571.20001220703</ele>
        <time>2021-03-24T10:31:17.000Z</time>
      </trkpt>
      <trkpt lat="46.26362" lon="6.37381">
        <ele>572.59997558594</ele>
        <time>2021-03-24T10:31:21.000Z</time>
      </trkpt>
      <trkpt lat="46.26364" lon="6.37387">
        <ele>573</ele>
        <time>2021-03-24T10:31:22.000Z</time>
      </trkpt>
      <trkpt lat="46.2637" lon="6.37418">
        <ele>573.40002441406</ele>
        <time>2021-03-24T10:31:27.000Z</time>
      </trkpt>
      <trkpt lat="46.26382" lon="6.37473">
        <ele>573</ele>
        <time>2021-03-24T10:31:35.000Z</time>
      </trkpt>
      <trkpt lat="46.26392" lon="6.37518">
        <ele>574.20001220703</ele>
        <time>2021-03-24T10:31:42.000Z</time>
      </trkpt>
      <trkpt lat="46.26402" lon="6.37566">
        <ele>575.20001220703</ele>
        <time>2021-03-24T10:31:49.000Z</time>
      </trkpt>
      <trkpt lat="46.26413" lon="6.37628">
        <ele>574.20001220703</ele>
        <time>2021-03-24T10:31:57.000Z</time>
      </trkpt>
      <trkpt lat="46.26419" lon="6.37696">
        <ele>573.59997558594</ele>
        <time>2021-03-24T10:32:05.000Z</time>
      </trkpt>
      <trkpt lat="46.26424" lon="6.37748">
        <ele>573.40002441406</ele>
        <time>2021-03-24T10:32:11.000Z</time>
      </trkpt>
      <trkpt lat="46.2643" lon="6.37808">
        <ele>571.79998779297</ele>
        <time>2021-03-24T10:32:18.000Z</time>
      </trkpt>
      <trkpt lat="46.26434" lon="6.37869">
        <ele>569.79998779297</ele>
        <time>2021-03-24T10:32:25.000Z</time>
      </trkpt>
      <trkpt lat="46.26437" lon="6.37952">
        <ele>570.59997558594</ele>
        <time>2021-03-24T10:32:34.000Z</time>
      </trkpt>
      <trkpt lat="46.26437" lon="6.37961">
        <ele>570.79998779297</ele>
        <time>2021-03-24T10:32:35.000Z</time>
      </trkpt>
      <trkpt lat="46.26442" lon="6.38043">
        <ele>570.20001220703</ele>
        <time>2021-03-24T10:32:44.000Z</time>
      </trkpt>
      <trkpt lat="46.26445" lon="6.38052">
        <ele>569.79998779297</ele>
        <time>2021-03-24T10:32:45.000Z</time>
      </trkpt>
      <trkpt lat="46.26458" lon="6.38108">
        <ele>569.20001220703</ele>
        <time>2021-03-24T10:32:51.000Z</time>
      </trkpt>
      <trkpt lat="46.26461" lon="6.38126">
        <ele>568.59997558594</ele>
        <time>2021-03-24T10:32:53.000Z</time>
      </trkpt>
      <trkpt lat="46.26457" lon="6.38142">
        <ele>568.20001220703</ele>
        <time>2021-03-24T10:32:55.000Z</time>
      </trkpt>
      <trkpt lat="46.26444" lon="6.3818">
        <ele>567.79998779297</ele>
        <time>2021-03-24T10:33:00.000Z</time>
      </trkpt>
      <trkpt lat="46.26414" lon="6.38251">
        <ele>569.79998779297</ele>
        <time>2021-03-24T10:33:10.000Z</time>
      </trkpt>
      <trkpt lat="46.26411" lon="6.38257">
        <ele>570</ele>
        <time>2021-03-24T10:33:11.000Z</time>
      </trkpt>
      <trkpt lat="46.26394" lon="6.38304">
        <ele>573.40002441406</ele>
        <time>2021-03-24T10:33:18.000Z</time>
      </trkpt>
      <trkpt lat="46.26393" lon="6.38311">
        <ele>573.79998779297</ele>
        <time>2021-03-24T10:33:19.000Z</time>
      </trkpt>
      <trkpt lat="46.26388" lon="6.38338">
        <ele>574</ele>
        <time>2021-03-24T10:33:23.000Z</time>
      </trkpt>
      <trkpt lat="46.26381" lon="6.38364">
        <ele>574</ele>
        <time>2021-03-24T10:33:27.000Z</time>
      </trkpt>
      <trkpt lat="46.26375" lon="6.38375">
        <ele>574.59997558594</ele>
        <time>2021-03-24T10:33:29.000Z</time>
      </trkpt>
      <trkpt lat="46.26368" lon="6.38383">
        <ele>575</ele>
        <time>2021-03-24T10:33:31.000Z</time>
      </trkpt>
      <trkpt lat="46.26359" lon="6.38388">
        <ele>575.59997558594</ele>
        <time>2021-03-24T10:33:33.000Z</time>
      </trkpt>
      <trkpt lat="46.26345" lon="6.38396">
        <ele>577</ele>
        <time>2021-03-24T10:33:37.000Z</time>
      </trkpt>
      <trkpt lat="46.26333" lon="6.38403">
        <ele>578.20001220703</ele>
        <time>2021-03-24T10:33:41.000Z</time>
      </trkpt>
      <trkpt lat="46.26321" lon="6.3841">
        <ele>579</ele>
        <time>2021-03-24T10:33:46.000Z</time>
      </trkpt>
      <trkpt lat="46.26308" lon="6.38417">
        <ele>579.79998779297</ele>
        <time>2021-03-24T10:33:51.000Z</time>
      </trkpt>
      <trkpt lat="46.26292" lon="6.38429">
        <ele>580.79998779297</ele>
        <time>2021-03-24T10:33:57.000Z</time>
      </trkpt>
      <trkpt lat="46.26276" lon="6.38446">
        <ele>582</ele>
        <time>2021-03-24T10:34:03.000Z</time>
      </trkpt>
      <trkpt lat="46.26267" lon="6.38457">
        <ele>582.79998779297</ele>
        <time>2021-03-24T10:34:07.000Z</time>
      </trkpt>
      <trkpt lat="46.2625" lon="6.38475">
        <ele>584</ele>
        <time>2021-03-24T10:34:13.000Z</time>
      </trkpt>
      <trkpt lat="46.26247" lon="6.38495">
        <ele>584.79998779297</ele>
        <time>2021-03-24T10:34:17.000Z</time>
      </trkpt>
      <trkpt lat="46.26249" lon="6.38532">
        <ele>585</ele>
        <time>2021-03-24T10:34:23.000Z</time>
      </trkpt>
      <trkpt lat="46.26254" lon="6.38575">
        <ele>584.59997558594</ele>
        <time>2021-03-24T10:34:31.000Z</time>
      </trkpt>
      <trkpt lat="46.2625" lon="6.38584">
        <ele>584.79998779297</ele>
        <time>2021-03-24T10:34:33.000Z</time>
      </trkpt>
      <trkpt lat="46.26246" lon="6.38595">
        <ele>585</ele>
        <time>2021-03-24T10:34:35.000Z</time>
      </trkpt>
      <trkpt lat="46.26244" lon="6.386">
        <ele>585</ele>
        <time>2021-03-24T10:34:36.000Z</time>
      </trkpt>
      <trkpt lat="46.26241" lon="6.38606">
        <ele>585.20001220703</ele>
        <time>2021-03-24T10:34:37.000Z</time>
      </trkpt>
      <trkpt lat="46.26235" lon="6.38623">
        <ele>585.59997558594</ele>
        <time>2021-03-24T10:34:40.000Z</time>
      </trkpt>
      <trkpt lat="46.26233" lon="6.38629">
        <ele>586</ele>
        <time>2021-03-24T10:34:41.000Z</time>
      </trkpt>
      <trkpt lat="46.26222" lon="6.38666">
        <ele>588.59997558594</ele>
        <time>2021-03-24T10:34:48.000Z</time>
      </trkpt>
      <trkpt lat="46.2621" lon="6.38693">
        <ele>590.40002441406</ele>
        <time>2021-03-24T10:34:54.000Z</time>
      </trkpt>
      <trkpt lat="46.26194" lon="6.38728">
        <ele>592</ele>
        <time>2021-03-24T10:35:02.000Z</time>
      </trkpt>
      <trkpt lat="46.26188" lon="6.38741">
        <ele>592.79998779297</ele>
        <time>2021-03-24T10:35:06.000Z</time>
      </trkpt>
      <trkpt lat="46.2618" lon="6.38757">
        <ele>593.59997558594</ele>
        <time>2021-03-24T10:35:11.000Z</time>
      </trkpt>
      <trkpt lat="46.26179" lon="6.38764">
        <ele>593.59997558594</ele>
        <time>2021-03-24T10:35:13.000Z</time>
      </trkpt>
      <trkpt lat="46.2618" lon="6.38773">
        <ele>593.79998779297</ele>
        <time>2021-03-24T10:35:15.000Z</time>
      </trkpt>
      <trkpt lat="46.26184" lon="6.38802">
        <ele>594.59997558594</ele>
        <time>2021-03-24T10:35:21.000Z</time>
      </trkpt>
      <trkpt lat="46.26187" lon="6.3883">
        <ele>596</ele>
        <time>2021-03-24T10:35:27.000Z</time>
      </trkpt>
      <trkpt lat="46.26188" lon="6.38837">
        <ele>596</ele>
        <time>2021-03-24T10:35:29.000Z</time>
      </trkpt>
      <trkpt lat="46.26189" lon="6.3884">
        <ele>596</ele>
        <time>2021-03-24T10:35:31.000Z</time>
      </trkpt>
      <trkpt lat="46.26208" lon="6.38851">
        <ele>595.20001220703</ele>
        <time>2021-03-24T10:35:35.000Z</time>
      </trkpt>
      <trkpt lat="46.26225" lon="6.38865">
        <ele>594.20001220703</ele>
        <time>2021-03-24T10:35:39.000Z</time>
      </trkpt>
      <trkpt lat="46.26236" lon="6.38866">
        <ele>593.20001220703</ele>
        <time>2021-03-24T10:35:41.000Z</time>
      </trkpt>
      <trkpt lat="46.26261" lon="6.38862">
        <ele>590.20001220703</ele>
        <time>2021-03-24T10:35:45.000Z</time>
      </trkpt>
      <trkpt lat="46.26267" lon="6.38861">
        <ele>589.59997558594</ele>
        <time>2021-03-24T10:35:46.000Z</time>
      </trkpt>
      <trkpt lat="46.26274" lon="6.38863">
        <ele>589</ele>
        <time>2021-03-24T10:35:47.000Z</time>
      </trkpt>
      <trkpt lat="46.26283" lon="6.38876">
        <ele>588.79998779297</ele>
        <time>2021-03-24T10:35:49.000Z</time>
      </trkpt>
      <trkpt lat="46.26314" lon="6.3892">
        <ele>589.40002441406</ele>
        <time>2021-03-24T10:35:55.000Z</time>
      </trkpt>
      <trkpt lat="46.26343" lon="6.38964">
        <ele>588.79998779297</ele>
        <time>2021-03-24T10:36:01.000Z</time>
      </trkpt>
      <trkpt lat="46.26346" lon="6.38973">
        <ele>588.59997558594</ele>
        <time>2021-03-24T10:36:02.000Z</time>
      </trkpt>
      <trkpt lat="46.26352" lon="6.3899">
        <ele>588.20001220703</ele>
        <time>2021-03-24T10:36:04.000Z</time>
      </trkpt>
      <trkpt lat="46.26356" lon="6.3901">
        <ele>588.40002441406</ele>
        <time>2021-03-24T10:36:06.000Z</time>
      </trkpt>
      <trkpt lat="46.26361" lon="6.3905">
        <ele>589.40002441406</ele>
        <time>2021-03-24T10:36:10.000Z</time>
      </trkpt>
      <trkpt lat="46.26365" lon="6.39066">
        <ele>589.79998779297</ele>
        <time>2021-03-24T10:36:12.000Z</time>
      </trkpt>
      <trkpt lat="46.26368" lon="6.39072">
        <ele>589.79998779297</ele>
        <time>2021-03-24T10:36:13.000Z</time>
      </trkpt>
      <trkpt lat="46.26375" lon="6.39084">
        <ele>589.59997558594</ele>
        <time>2021-03-24T10:36:15.000Z</time>
      </trkpt>
      <trkpt lat="46.26378" lon="6.39089">
        <ele>589.59997558594</ele>
        <time>2021-03-24T10:36:16.000Z</time>
      </trkpt>
      <trkpt lat="46.26384" lon="6.39099">
        <ele>589.59997558594</ele>
        <time>2021-03-24T10:36:18.000Z</time>
      </trkpt>
      <trkpt lat="46.26389" lon="6.39109">
        <ele>589.59997558594</ele>
        <time>2021-03-24T10:36:20.000Z</time>
      </trkpt>
      <trkpt lat="46.26392" lon="6.39113">
        <ele>589.59997558594</ele>
        <time>2021-03-24T10:36:21.000Z</time>
      </trkpt>
      <trkpt lat="46.26396" lon="6.39115">
        <ele>589.20001220703</ele>
        <time>2021-03-24T10:36:22.000Z</time>
      </trkpt>
      <trkpt lat="46.26406" lon="6.39111">
        <ele>588.40002441406</ele>
        <time>2021-03-24T10:36:24.000Z</time>
      </trkpt>
      <trkpt lat="46.26416" lon="6.39105">
        <ele>587.59997558594</ele>
        <time>2021-03-24T10:36:26.000Z</time>
      </trkpt>
      <trkpt lat="46.26421" lon="6.39099">
        <ele>587.20001220703</ele>
        <time>2021-03-24T10:36:27.000Z</time>
      </trkpt>
      <trkpt lat="46.2645" lon="6.39061">
        <ele>586</ele>
        <time>2021-03-24T10:36:32.000Z</time>
      </trkpt>
      <trkpt lat="46.26476" lon="6.39028">
        <ele>583.40002441406</ele>
        <time>2021-03-24T10:36:37.000Z</time>
      </trkpt>
      <trkpt lat="46.26478" lon="6.39026">
        <ele>583.20001220703</ele>
        <time>2021-03-24T10:36:38.000Z</time>
      </trkpt>
      <trkpt lat="46.26482" lon="6.39029">
        <ele>583</ele>
        <time>2021-03-24T10:36:39.000Z</time>
      </trkpt>
      <trkpt lat="46.26487" lon="6.39033">
        <ele>582.79998779297</ele>
        <time>2021-03-24T10:36:40.000Z</time>
      </trkpt>
      <trkpt lat="46.26497" lon="6.39042">
        <ele>582.40002441406</ele>
        <time>2021-03-24T10:36:42.000Z</time>
      </trkpt>
      <trkpt lat="46.26534" lon="6.39074">
        <ele>580.79998779297</ele>
        <time>2021-03-24T10:36:50.000Z</time>
      </trkpt>
      <trkpt lat="46.26542" lon="6.39075">
        <ele>580.40002441406</ele>
        <time>2021-03-24T10:36:52.000Z</time>
      </trkpt>
      <trkpt lat="46.26552" lon="6.39072">
        <ele>580</ele>
        <time>2021-03-24T10:36:54.000Z</time>
      </trkpt>
      <trkpt lat="46.26569" lon="6.39066">
        <ele>579.79998779297</ele>
        <time>2021-03-24T10:36:57.000Z</time>
      </trkpt>
      <trkpt lat="46.26576" lon="6.39064">
        <ele>579.40002441406</ele>
        <time>2021-03-24T10:36:58.000Z</time>
      </trkpt>
      <trkpt lat="46.26581" lon="6.39062">
        <ele>579.40002441406</ele>
        <time>2021-03-24T10:36:59.000Z</time>
      </trkpt>
      <trkpt lat="46.26589" lon="6.39077">
        <ele>580.40002441406</ele>
        <time>2021-03-24T10:37:01.000Z</time>
      </trkpt>
      <trkpt lat="46.26613" lon="6.39113">
        <ele>581.79998779297</ele>
        <time>2021-03-24T10:37:08.000Z</time>
      </trkpt>
      <trkpt lat="46.26644" lon="6.39159">
        <ele>582.79998779297</ele>
        <time>2021-03-24T10:37:17.000Z</time>
      </trkpt>
      <trkpt lat="46.26672" lon="6.39206">
        <ele>582.59997558594</ele>
        <time>2021-03-24T10:37:25.000Z</time>
      </trkpt>
      <trkpt lat="46.26692" lon="6.39258">
        <ele>582.20001220703</ele>
        <time>2021-03-24T10:37:32.000Z</time>
      </trkpt>
      <trkpt lat="46.26714" lon="6.39325">
        <ele>580.40002441406</ele>
        <time>2021-03-24T10:37:39.000Z</time>
      </trkpt>
      <trkpt lat="46.26741" lon="6.39402">
        <ele>578.59997558594</ele>
        <time>2021-03-24T10:37:47.000Z</time>
      </trkpt>
      <trkpt lat="46.26764" lon="6.39462">
        <ele>578.20001220703</ele>
        <time>2021-03-24T10:37:54.000Z</time>
      </trkpt>
      <trkpt lat="46.2678" lon="6.39531">
        <ele>579</ele>
        <time>2021-03-24T10:38:02.000Z</time>
      </trkpt>
      <trkpt lat="46.26794" lon="6.39589">
        <ele>580.59997558594</ele>
        <time>2021-03-24T10:38:09.000Z</time>
      </trkpt>
      <trkpt lat="46.26816" lon="6.39655">
        <ele>579.79998779297</ele>
        <time>2021-03-24T10:38:17.000Z</time>
      </trkpt>
      <trkpt lat="46.26844" lon="6.3973">
        <ele>578.59997558594</ele>
        <time>2021-03-24T10:38:27.000Z</time>
      </trkpt>
      <trkpt lat="46.26873" lon="6.39793">
        <ele>579.40002441406</ele>
        <time>2021-03-24T10:38:36.000Z</time>
      </trkpt>
      <trkpt lat="46.26888" lon="6.3981">
        <ele>579.40002441406</ele>
        <time>2021-03-24T10:38:39.000Z</time>
      </trkpt>
      <trkpt lat="46.26899" lon="6.39822">
        <ele>579.79998779297</ele>
        <time>2021-03-24T10:38:41.000Z</time>
      </trkpt>
      <trkpt lat="46.26906" lon="6.39825">
        <ele>579.79998779297</ele>
        <time>2021-03-24T10:38:42.000Z</time>
      </trkpt>
      <trkpt lat="46.26932" lon="6.39842">
        <ele>579.59997558594</ele>
        <time>2021-03-24T10:38:46.000Z</time>
      </trkpt>
      <trkpt lat="46.26943" lon="6.39853">
        <ele>579.40002441406</ele>
        <time>2021-03-24T10:38:48.000Z</time>
      </trkpt>
      <trkpt lat="46.26954" lon="6.39866">
        <ele>578.79998779297</ele>
        <time>2021-03-24T10:38:50.000Z</time>
      </trkpt>
      <trkpt lat="46.26972" lon="6.39908">
        <ele>577.59997558594</ele>
        <time>2021-03-24T10:38:55.000Z</time>
      </trkpt>
      <trkpt lat="46.27003" lon="6.39983">
        <ele>575.79998779297</ele>
        <time>2021-03-24T10:39:04.000Z</time>
      </trkpt>
      <trkpt lat="46.2701" lon="6.39999">
        <ele>576</ele>
        <time>2021-03-24T10:39:06.000Z</time>
      </trkpt>
      <trkpt lat="46.27036" lon="6.40067">
        <ele>577</ele>
        <time>2021-03-24T10:39:14.000Z</time>
      </trkpt>
      <trkpt lat="46.27062" lon="6.40133">
        <ele>576</ele>
        <time>2021-03-24T10:39:22.000Z</time>
      </trkpt>
      <trkpt lat="46.27088" lon="6.40199">
        <ele>576.59997558594</ele>
        <time>2021-03-24T10:39:30.000Z</time>
      </trkpt>
      <trkpt lat="46.27117" lon="6.40272">
        <ele>576.59997558594</ele>
        <time>2021-03-24T10:39:39.000Z</time>
      </trkpt>
      <trkpt lat="46.2712" lon="6.4028">
        <ele>576.59997558594</ele>
        <time>2021-03-24T10:39:40.000Z</time>
      </trkpt>
      <trkpt lat="46.27154" lon="6.40354">
        <ele>578</ele>
        <time>2021-03-24T10:39:49.000Z</time>
      </trkpt>
      <trkpt lat="46.27189" lon="6.40424">
        <ele>577</ele>
        <time>2021-03-24T10:39:57.000Z</time>
      </trkpt>
      <trkpt lat="46.27219" lon="6.40482">
        <ele>576.79998779297</ele>
        <time>2021-03-24T10:40:04.000Z</time>
      </trkpt>
      <trkpt lat="46.2724" lon="6.40538">
        <ele>575.79998779297</ele>
        <time>2021-03-24T10:40:11.000Z</time>
      </trkpt>
      <trkpt lat="46.27266" lon="6.40597">
        <ele>575.79998779297</ele>
        <time>2021-03-24T10:40:19.000Z</time>
      </trkpt>
      <trkpt lat="46.27298" lon="6.40657">
        <ele>577</ele>
        <time>2021-03-24T10:40:28.000Z</time>
      </trkpt>
      <trkpt lat="46.27319" lon="6.40702">
        <ele>577.40002441406</ele>
        <time>2021-03-24T10:40:35.000Z</time>
      </trkpt>
      <trkpt lat="46.27321" lon="6.40709">
        <ele>577.20001220703</ele>
        <time>2021-03-24T10:40:36.000Z</time>
      </trkpt>
      <trkpt lat="46.27337" lon="6.40769">
        <ele>577.40002441406</ele>
        <time>2021-03-24T10:40:45.000Z</time>
      </trkpt>
      <trkpt lat="46.27352" lon="6.40825">
        <ele>580.59997558594</ele>
        <time>2021-03-24T10:40:53.000Z</time>
      </trkpt>
      <trkpt lat="46.27354" lon="6.40832">
        <ele>581</ele>
        <time>2021-03-24T10:40:54.000Z</time>
      </trkpt>
      <trkpt lat="46.27366" lon="6.40866">
        <ele>582.20001220703</ele>
        <time>2021-03-24T10:40:59.000Z</time>
      </trkpt>
      <trkpt lat="46.27391" lon="6.40933">
        <ele>584.20001220703</ele>
        <time>2021-03-24T10:41:09.000Z</time>
      </trkpt>
      <trkpt lat="46.27411" lon="6.40984">
        <ele>584</ele>
        <time>2021-03-24T10:41:16.000Z</time>
      </trkpt>
      <trkpt lat="46.27438" lon="6.41055">
        <ele>585</ele>
        <time>2021-03-24T10:41:26.000Z</time>
      </trkpt>
      <trkpt lat="46.27458" lon="6.41106">
        <ele>583.20001220703</ele>
        <time>2021-03-24T10:41:33.000Z</time>
      </trkpt>
      <trkpt lat="46.2746" lon="6.41112">
        <ele>583.20001220703</ele>
        <time>2021-03-24T10:41:34.000Z</time>
      </trkpt>
      <trkpt lat="46.27471" lon="6.41134">
        <ele>583.79998779297</ele>
        <time>2021-03-24T10:41:38.000Z</time>
      </trkpt>
      <trkpt lat="46.27478" lon="6.4114">
        <ele>583.79998779297</ele>
        <time>2021-03-24T10:41:40.000Z</time>
      </trkpt>
      <trkpt lat="46.27481" lon="6.41138">
        <ele>583.59997558594</ele>
        <time>2021-03-24T10:41:41.000Z</time>
      </trkpt>
      <trkpt lat="46.27506" lon="6.41128">
        <ele>582.59997558594</ele>
        <time>2021-03-24T10:41:46.000Z</time>
      </trkpt>
      <trkpt lat="46.27513" lon="6.41125">
        <ele>582.40002441406</ele>
        <time>2021-03-24T10:41:47.000Z</time>
      </trkpt>
      <trkpt lat="46.27519" lon="6.41123">
        <ele>582</ele>
        <time>2021-03-24T10:41:48.000Z</time>
      </trkpt>
      <trkpt lat="46.27528" lon="6.41119">
        <ele>581.79998779297</ele>
        <time>2021-03-24T10:41:50.000Z</time>
      </trkpt>
      <trkpt lat="46.27537" lon="6.41123">
        <ele>581.40002441406</ele>
        <time>2021-03-24T10:41:51.000Z</time>
      </trkpt>
      <trkpt lat="46.27555" lon="6.41157">
        <ele>580.79998779297</ele>
        <time>2021-03-24T10:41:57.000Z</time>
      </trkpt>
      <trkpt lat="46.27581" lon="6.41204">
        <ele>580.79998779297</ele>
        <time>2021-03-24T10:42:05.000Z</time>
      </trkpt>
      <trkpt lat="46.27601" lon="6.41241">
        <ele>580.20001220703</ele>
        <time>2021-03-24T10:42:11.000Z</time>
      </trkpt>
      <trkpt lat="46.27614" lon="6.41267">
        <ele>580.40002441406</ele>
        <time>2021-03-24T10:42:15.000Z</time>
      </trkpt>
      <trkpt lat="46.27617" lon="6.41271">
        <ele>580.40002441406</ele>
        <time>2021-03-24T10:42:16.000Z</time>
      </trkpt>
      <trkpt lat="46.2762" lon="6.4128">
        <ele>580.40002441406</ele>
        <time>2021-03-24T10:42:17.000Z</time>
      </trkpt>
      <trkpt lat="46.27623" lon="6.41304">
        <ele>580</ele>
        <time>2021-03-24T10:42:20.000Z</time>
      </trkpt>
      <trkpt lat="46.27629" lon="6.41355">
        <ele>577.20001220703</ele>
        <time>2021-03-24T10:42:25.000Z</time>
      </trkpt>
      <trkpt lat="46.2763" lon="6.41361">
        <ele>576.79998779297</ele>
        <time>2021-03-24T10:42:26.000Z</time>
      </trkpt>
      <trkpt lat="46.27643" lon="6.41379">
        <ele>575.59997558594</ele>
        <time>2021-03-24T10:42:28.000Z</time>
      </trkpt>
      <trkpt lat="46.27654" lon="6.4139">
        <ele>574.79998779297</ele>
        <time>2021-03-24T10:42:30.000Z</time>
      </trkpt>
      <trkpt lat="46.27661" lon="6.41391">
        <ele>574.59997558594</ele>
        <time>2021-03-24T10:42:31.000Z</time>
      </trkpt>
      <trkpt lat="46.27668" lon="6.41392">
        <ele>574.79998779297</ele>
        <time>2021-03-24T10:42:32.000Z</time>
      </trkpt>
      <trkpt lat="46.27688" lon="6.41394">
        <ele>574.79998779297</ele>
        <time>2021-03-24T10:42:35.000Z</time>
      </trkpt>
      <trkpt lat="46.27694" lon="6.41395">
        <ele>575</ele>
        <time>2021-03-24T10:42:36.000Z</time>
      </trkpt>
      <trkpt lat="46.27705" lon="6.41396">
        <ele>575</ele>
        <time>2021-03-24T10:42:38.000Z</time>
      </trkpt>
      <trkpt lat="46.27711" lon="6.41397">
        <ele>575</ele>
        <time>2021-03-24T10:42:39.000Z</time>
      </trkpt>
      <trkpt lat="46.27724" lon="6.41403">
        <ele>574.79998779297</ele>
        <time>2021-03-24T10:42:41.000Z</time>
      </trkpt>
      <trkpt lat="46.2773" lon="6.41406">
        <ele>574.59997558594</ele>
        <time>2021-03-24T10:42:42.000Z</time>
      </trkpt>
      <trkpt lat="46.27734" lon="6.41413">
        <ele>574.40002441406</ele>
        <time>2021-03-24T10:42:43.000Z</time>
      </trkpt>
      <trkpt lat="46.27739" lon="6.4143">
        <ele>574.79998779297</ele>
        <time>2021-03-24T10:42:45.000Z</time>
      </trkpt>
      <trkpt lat="46.27751" lon="6.41469">
        <ele>576.20001220703</ele>
        <time>2021-03-24T10:42:51.000Z</time>
      </trkpt>
      <trkpt lat="46.27761" lon="6.41499">
        <ele>578</ele>
        <time>2021-03-24T10:42:57.000Z</time>
      </trkpt>
      <trkpt lat="46.27773" lon="6.41535">
        <ele>580.20001220703</ele>
        <time>2021-03-24T10:43:04.000Z</time>
      </trkpt>
      <trkpt lat="46.27778" lon="6.4155">
        <ele>580.59997558594</ele>
        <time>2021-03-24T10:43:07.000Z</time>
      </trkpt>
      <trkpt lat="46.27786" lon="6.41564">
        <ele>580.79998779297</ele>
        <time>2021-03-24T10:43:10.000Z</time>
      </trkpt>
      <trkpt lat="46.27798" lon="6.41584">
        <ele>581.20001220703</ele>
        <time>2021-03-24T10:43:14.000Z</time>
      </trkpt>
      <trkpt lat="46.27805" lon="6.41595">
        <ele>581.40002441406</ele>
        <time>2021-03-24T10:43:16.000Z</time>
      </trkpt>
      <trkpt lat="46.27808" lon="6.41601">
        <ele>581.79998779297</ele>
        <time>2021-03-24T10:43:17.000Z</time>
      </trkpt>
      <trkpt lat="46.27814" lon="6.41611">
        <ele>582</ele>
        <time>2021-03-24T10:43:19.000Z</time>
      </trkpt>
      <trkpt lat="46.27821" lon="6.41622">
        <ele>582.40002441406</ele>
        <time>2021-03-24T10:43:21.000Z</time>
      </trkpt>
      <trkpt lat="46.27842" lon="6.41658">
        <ele>583.59997558594</ele>
        <time>2021-03-24T10:43:28.000Z</time>
      </trkpt>
      <trkpt lat="46.27846" lon="6.41665">
        <ele>583.59997558594</ele>
        <time>2021-03-24T10:43:29.000Z</time>
      </trkpt>
      <trkpt lat="46.27848" lon="6.41669">
        <ele>584</ele>
        <time>2021-03-24T10:43:30.000Z</time>
      </trkpt>
      <trkpt lat="46.2785" lon="6.41686">
        <ele>584.59997558594</ele>
        <time>2021-03-24T10:43:32.000Z</time>
      </trkpt>
      <trkpt lat="46.2785" lon="6.41691">
        <ele>584.79998779297</ele>
        <time>2021-03-24T10:43:33.000Z</time>
      </trkpt>
      <trkpt lat="46.2785" lon="6.41699">
        <ele>584.79998779297</ele>
        <time>2021-03-24T10:43:34.000Z</time>
      </trkpt>
      <trkpt lat="46.27844" lon="6.41724">
        <ele>584.40002441406</ele>
        <time>2021-03-24T10:43:37.000Z</time>
      </trkpt>
      <trkpt lat="46.27826" lon="6.41784">
        <ele>581.40002441406</ele>
        <time>2021-03-24T10:43:44.000Z</time>
      </trkpt>
      <trkpt lat="46.27803" lon="6.41856">
        <ele>581.20001220703</ele>
        <time>2021-03-24T10:43:52.000Z</time>
      </trkpt>
      <trkpt lat="46.27801" lon="6.41865">
        <ele>581.40002441406</ele>
        <time>2021-03-24T10:43:53.000Z</time>
      </trkpt>
      <trkpt lat="46.27777" lon="6.4194">
        <ele>585.40002441406</ele>
        <time>2021-03-24T10:44:01.000Z</time>
      </trkpt>
      <trkpt lat="46.27765" lon="6.42002">
        <ele>587.20001220703</ele>
        <time>2021-03-24T10:44:08.000Z</time>
      </trkpt>
      <trkpt lat="46.27759" lon="6.4204">
        <ele>588.59997558594</ele>
        <time>2021-03-24T10:44:13.000Z</time>
      </trkpt>
      <trkpt lat="46.27764" lon="6.42096">
        <ele>585</ele>
        <time>2021-03-24T10:44:20.000Z</time>
      </trkpt>
      <trkpt lat="46.2777" lon="6.42151">
        <ele>582.59997558594</ele>
        <time>2021-03-24T10:44:28.000Z</time>
      </trkpt>
      <trkpt lat="46.2778" lon="6.42192">
        <ele>582</ele>
        <time>2021-03-24T10:44:34.000Z</time>
      </trkpt>
      <trkpt lat="46.27798" lon="6.42234">
        <ele>583.40002441406</ele>
        <time>2021-03-24T10:44:41.000Z</time>
      </trkpt>
      <trkpt lat="46.27816" lon="6.42277">
        <ele>586.20001220703</ele>
        <time>2021-03-24T10:44:49.000Z</time>
      </trkpt>
      <trkpt lat="46.27839" lon="6.42328">
        <ele>588.59997558594</ele>
        <time>2021-03-24T10:45:00.000Z</time>
      </trkpt>
      <trkpt lat="46.2786" lon="6.42374">
        <ele>591.59997558594</ele>
        <time>2021-03-24T10:45:10.000Z</time>
      </trkpt>
      <trkpt lat="46.27871" lon="6.42413">
        <ele>593.20001220703</ele>
        <time>2021-03-24T10:45:18.000Z</time>
      </trkpt>
      <trkpt lat="46.2788" lon="6.4246">
        <ele>594.59997558594</ele>
        <time>2021-03-24T10:45:28.000Z</time>
      </trkpt>
      <trkpt lat="46.27891" lon="6.42517">
        <ele>596.20001220703</ele>
        <time>2021-03-24T10:45:40.000Z</time>
      </trkpt>
      <trkpt lat="46.279" lon="6.42559">
        <ele>597.40002441406</ele>
        <time>2021-03-24T10:45:49.000Z</time>
      </trkpt>
      <trkpt lat="46.27911" lon="6.426">
        <ele>599.59997558594</ele>
        <time>2021-03-24T10:45:58.000Z</time>
      </trkpt>
      <trkpt lat="46.27927" lon="6.42644">
        <ele>602.40002441406</ele>
        <time>2021-03-24T10:46:08.000Z</time>
      </trkpt>
      <trkpt lat="46.2794" lon="6.42679">
        <ele>604.20001220703</ele>
        <time>2021-03-24T10:46:16.000Z</time>
      </trkpt>
      <trkpt lat="46.27956" lon="6.42722">
        <ele>606.59997558594</ele>
        <time>2021-03-24T10:46:26.000Z</time>
      </trkpt>
      <trkpt lat="46.27966" lon="6.4275">
        <ele>608</ele>
        <time>2021-03-24T10:46:34.000Z</time>
      </trkpt>
      <trkpt lat="46.27978" lon="6.42774">
        <ele>608.79998779297</ele>
        <time>2021-03-24T10:46:41.000Z</time>
      </trkpt>
      <trkpt lat="46.27995" lon="6.42789">
        <ele>610</ele>
        <time>2021-03-24T10:46:48.000Z</time>
      </trkpt>
      <trkpt lat="46.28017" lon="6.42809">
        <ele>610.40002441406</ele>
        <time>2021-03-24T10:46:56.000Z</time>
      </trkpt>
      <trkpt lat="46.28037" lon="6.42828">
        <ele>611.20001220703</ele>
        <time>2021-03-24T10:47:03.000Z</time>
      </trkpt>
      <trkpt lat="46.2806" lon="6.4285">
        <ele>612.20001220703</ele>
        <time>2021-03-24T10:47:09.000Z</time>
      </trkpt>
      <trkpt lat="46.28069" lon="6.42859">
        <ele>612.59997558594</ele>
        <time>2021-03-24T10:47:11.000Z</time>
      </trkpt>
      <trkpt lat="46.28076" lon="6.4287">
        <ele>612.79998779297</ele>
        <time>2021-03-24T10:47:13.000Z</time>
      </trkpt>
      <trkpt lat="46.28079" lon="6.42876">
        <ele>613</ele>
        <time>2021-03-24T10:47:14.000Z</time>
      </trkpt>
      <trkpt lat="46.28091" lon="6.42899">
        <ele>612.59997558594</ele>
        <time>2021-03-24T10:47:18.000Z</time>
      </trkpt>
      <trkpt lat="46.28097" lon="6.42911">
        <ele>611.79998779297</ele>
        <time>2021-03-24T10:47:20.000Z</time>
      </trkpt>
      <trkpt lat="46.28118" lon="6.42956">
        <ele>611</ele>
        <time>2021-03-24T10:47:28.000Z</time>
      </trkpt>
      <trkpt lat="46.28141" lon="6.4301">
        <ele>610.59997558594</ele>
        <time>2021-03-24T10:47:37.000Z</time>
      </trkpt>
      <trkpt lat="46.28159" lon="6.43047">
        <ele>610.79998779297</ele>
        <time>2021-03-24T10:47:43.000Z</time>
      </trkpt>
      <trkpt lat="46.28167" lon="6.4306">
        <ele>610.79998779297</ele>
        <time>2021-03-24T10:47:45.000Z</time>
      </trkpt>
      <trkpt lat="46.28192" lon="6.43104">
        <ele>609</ele>
        <time>2021-03-24T10:47:51.000Z</time>
      </trkpt>
      <trkpt lat="46.28217" lon="6.43154">
        <ele>607</ele>
        <time>2021-03-24T10:47:57.000Z</time>
      </trkpt>
      <trkpt lat="46.28248" lon="6.43223">
        <ele>605.79998779297</ele>
        <time>2021-03-24T10:48:05.000Z</time>
      </trkpt>
      <trkpt lat="46.28264" lon="6.43259">
        <ele>606</ele>
        <time>2021-03-24T10:48:10.000Z</time>
      </trkpt>
      <trkpt lat="46.28272" lon="6.43302">
        <ele>607</ele>
        <time>2021-03-24T10:48:15.000Z</time>
      </trkpt>
      <trkpt lat="46.28274" lon="6.43318">
        <ele>607.20001220703</ele>
        <time>2021-03-24T10:48:17.000Z</time>
      </trkpt>
      <trkpt lat="46.28277" lon="6.43333">
        <ele>607.40002441406</ele>
        <time>2021-03-24T10:48:19.000Z</time>
      </trkpt>
      <trkpt lat="46.28278" lon="6.43366">
        <ele>607.40002441406</ele>
        <time>2021-03-24T10:48:23.000Z</time>
      </trkpt>
      <trkpt lat="46.28279" lon="6.43397">
        <ele>607</ele>
        <time>2021-03-24T10:48:27.000Z</time>
      </trkpt>
      <trkpt lat="46.28282" lon="6.4341">
        <ele>606.59997558594</ele>
        <time>2021-03-24T10:48:29.000Z</time>
      </trkpt>
      <trkpt lat="46.28284" lon="6.43417">
        <ele>606.40002441406</ele>
        <time>2021-03-24T10:48:30.000Z</time>
      </trkpt>
      <trkpt lat="46.28294" lon="6.43452">
        <ele>606.59997558594</ele>
        <time>2021-03-24T10:48:35.000Z</time>
      </trkpt>
      <trkpt lat="46.2831" lon="6.43513">
        <ele>609.20001220703</ele>
        <time>2021-03-24T10:48:43.000Z</time>
      </trkpt>
      <trkpt lat="46.28314" lon="6.43528">
        <ele>610</ele>
        <time>2021-03-24T10:48:45.000Z</time>
      </trkpt>
      <trkpt lat="46.28318" lon="6.43543">
        <ele>610.40002441406</ele>
        <time>2021-03-24T10:48:47.000Z</time>
      </trkpt>
      <trkpt lat="46.28321" lon="6.43554">
        <ele>610.40002441406</ele>
        <time>2021-03-24T10:48:48.000Z</time>
      </trkpt>
      <trkpt lat="46.28324" lon="6.43567">
        <ele>610.20001220703</ele>
        <time>2021-03-24T10:48:50.000Z</time>
      </trkpt>
      <trkpt lat="46.28331" lon="6.43592">
        <ele>610</ele>
        <time>2021-03-24T10:48:53.000Z</time>
      </trkpt>
      <trkpt lat="46.28346" lon="6.43654">
        <ele>608.40002441406</ele>
        <time>2021-03-24T10:49:01.000Z</time>
      </trkpt>
      <trkpt lat="46.28354" lon="6.43685">
        <ele>607.79998779297</ele>
        <time>2021-03-24T10:49:05.000Z</time>
      </trkpt>
      <trkpt lat="46.28362" lon="6.43712">
        <ele>608.20001220703</ele>
        <time>2021-03-24T10:49:08.000Z</time>
      </trkpt>
      <trkpt lat="46.28379" lon="6.43765">
        <ele>610.59997558594</ele>
        <time>2021-03-24T10:49:16.000Z</time>
      </trkpt>
      <trkpt lat="46.28396" lon="6.4382">
        <ele>612.59997558594</ele>
        <time>2021-03-24T10:49:25.000Z</time>
      </trkpt>
      <trkpt lat="46.28416" lon="6.43878">
        <ele>613.59997558594</ele>
        <time>2021-03-24T10:49:35.000Z</time>
      </trkpt>
      <trkpt lat="46.28433" lon="6.43928">
        <ele>614.40002441406</ele>
        <time>2021-03-24T10:49:43.000Z</time>
      </trkpt>
      <trkpt lat="46.28449" lon="6.43968">
        <ele>615.79998779297</ele>
        <time>2021-03-24T10:49:50.000Z</time>
      </trkpt>
      <trkpt lat="46.28462" lon="6.43996">
        <ele>616.59997558594</ele>
        <time>2021-03-24T10:49:55.000Z</time>
      </trkpt>
      <trkpt lat="46.28464" lon="6.44001">
        <ele>616.79998779297</ele>
        <time>2021-03-24T10:49:56.000Z</time>
      </trkpt>
      <trkpt lat="46.28472" lon="6.44019">
        <ele>616.59997558594</ele>
        <time>2021-03-24T10:49:59.000Z</time>
      </trkpt>
      <trkpt lat="46.28494" lon="6.44074">
        <ele>617</ele>
        <time>2021-03-24T10:50:08.000Z</time>
      </trkpt>
      <trkpt lat="46.28502" lon="6.44115">
        <ele>617</ele>
        <time>2021-03-24T10:50:14.000Z</time>
      </trkpt>
      <trkpt lat="46.28506" lon="6.44142">
        <ele>616.79998779297</ele>
        <time>2021-03-24T10:50:18.000Z</time>
      </trkpt>
      <trkpt lat="46.28506" lon="6.44157">
        <ele>616.40002441406</ele>
        <time>2021-03-24T10:50:20.000Z</time>
      </trkpt>
      <trkpt lat="46.28505" lon="6.44173">
        <ele>615.79998779297</ele>
        <time>2021-03-24T10:50:22.000Z</time>
      </trkpt>
      <trkpt lat="46.28505" lon="6.44186">
        <ele>615.59997558594</ele>
        <time>2021-03-24T10:50:24.000Z</time>
      </trkpt>
      <trkpt lat="46.28506" lon="6.44194">
        <ele>615.59997558594</ele>
        <time>2021-03-24T10:50:25.000Z</time>
      </trkpt>
      <trkpt lat="46.28514" lon="6.44227">
        <ele>614.20001220703</ele>
        <time>2021-03-24T10:50:29.000Z</time>
      </trkpt>
      <trkpt lat="46.2852" lon="6.44246">
        <ele>614</ele>
        <time>2021-03-24T10:50:31.000Z</time>
      </trkpt>
      <trkpt lat="46.2854" lon="6.44305">
        <ele>612.59997558594</ele>
        <time>2021-03-24T10:50:39.000Z</time>
      </trkpt>
      <trkpt lat="46.28562" lon="6.44368">
        <ele>612.40002441406</ele>
        <time>2021-03-24T10:50:47.000Z</time>
      </trkpt>
      <trkpt lat="46.28597" lon="6.44427">
        <ele>612.20001220703</ele>
        <time>2021-03-24T10:50:56.000Z</time>
      </trkpt>
      <trkpt lat="46.28633" lon="6.4449">
        <ele>611.40002441406</ele>
        <time>2021-03-24T10:51:06.000Z</time>
      </trkpt>
      <trkpt lat="46.28671" lon="6.44553">
        <ele>611.40002441406</ele>
        <time>2021-03-24T10:51:16.000Z</time>
      </trkpt>
      <trkpt lat="46.28702" lon="6.44617">
        <ele>616</ele>
        <time>2021-03-24T10:51:25.000Z</time>
      </trkpt>
      <trkpt lat="46.28713" lon="6.44626">
        <ele>616.40002441406</ele>
        <time>2021-03-24T10:51:27.000Z</time>
      </trkpt>
      <trkpt lat="46.28732" lon="6.44643">
        <ele>616.20001220703</ele>
        <time>2021-03-24T10:51:31.000Z</time>
      </trkpt>
      <trkpt lat="46.28742" lon="6.44651">
        <ele>616.20001220703</ele>
        <time>2021-03-24T10:51:33.000Z</time>
      </trkpt>
      <trkpt lat="46.28763" lon="6.44668">
        <ele>615</ele>
        <time>2021-03-24T10:51:37.000Z</time>
      </trkpt>
      <trkpt lat="46.28769" lon="6.44673">
        <ele>614.59997558594</ele>
        <time>2021-03-24T10:51:38.000Z</time>
      </trkpt>
      <trkpt lat="46.28774" lon="6.44676">
        <ele>614.20001220703</ele>
        <time>2021-03-24T10:51:39.000Z</time>
      </trkpt>
      <trkpt lat="46.28793" lon="6.44689">
        <ele>613.40002441406</ele>
        <time>2021-03-24T10:51:42.000Z</time>
      </trkpt>
      <trkpt lat="46.28812" lon="6.447">
        <ele>612.79998779297</ele>
        <time>2021-03-24T10:51:45.000Z</time>
      </trkpt>
      <trkpt lat="46.28824" lon="6.44702">
        <ele>612.40002441406</ele>
        <time>2021-03-24T10:51:47.000Z</time>
      </trkpt>
      <trkpt lat="46.28831" lon="6.44705">
        <ele>612.40002441406</ele>
        <time>2021-03-24T10:51:48.000Z</time>
      </trkpt>
      <trkpt lat="46.28859" lon="6.44703">
        <ele>612.40002441406</ele>
        <time>2021-03-24T10:51:52.000Z</time>
      </trkpt>
      <trkpt lat="46.28892" lon="6.44696">
        <ele>612.20001220703</ele>
        <time>2021-03-24T10:51:58.000Z</time>
      </trkpt>
      <trkpt lat="46.28932" lon="6.44688">
        <ele>611.59997558594</ele>
        <time>2021-03-24T10:52:05.000Z</time>
      </trkpt>
      <trkpt lat="46.28962" lon="6.44685">
        <ele>611.79998779297</ele>
        <time>2021-03-24T10:52:10.000Z</time>
      </trkpt>
      <trkpt lat="46.28994" lon="6.44693">
        <ele>611</ele>
        <time>2021-03-24T10:52:15.000Z</time>
      </trkpt>
      <trkpt lat="46.2905" lon="6.44719">
        <ele>612</ele>
        <time>2021-03-24T10:52:23.000Z</time>
      </trkpt>
      <trkpt lat="46.29057" lon="6.44722">
        <ele>611.79998779297</ele>
        <time>2021-03-24T10:52:24.000Z</time>
      </trkpt>
      <trkpt lat="46.29103" lon="6.44744">
        <ele>610</ele>
        <time>2021-03-24T10:52:31.000Z</time>
      </trkpt>
      <trkpt lat="46.29155" lon="6.44768">
        <ele>606.40002441406</ele>
        <time>2021-03-24T10:52:39.000Z</time>
      </trkpt>
      <trkpt lat="46.29161" lon="6.44771">
        <ele>606</ele>
        <time>2021-03-24T10:52:40.000Z</time>
      </trkpt>
      <trkpt lat="46.29216" lon="6.44796">
        <ele>605</ele>
        <time>2021-03-24T10:52:49.000Z</time>
      </trkpt>
      <trkpt lat="46.29272" lon="6.44821">
        <ele>605</ele>
        <time>2021-03-24T10:52:59.000Z</time>
      </trkpt>
      <trkpt lat="46.29322" lon="6.44845">
        <ele>605</ele>
        <time>2021-03-24T10:53:08.000Z</time>
      </trkpt>
      <trkpt lat="46.2938" lon="6.44872">
        <ele>605.59997558594</ele>
        <time>2021-03-24T10:53:18.000Z</time>
      </trkpt>
      <trkpt lat="46.29431" lon="6.44896">
        <ele>605.79998779297</ele>
        <time>2021-03-24T10:53:27.000Z</time>
      </trkpt>
      <trkpt lat="46.29441" lon="6.449">
        <ele>606</ele>
        <time>2021-03-24T10:53:29.000Z</time>
      </trkpt>
      <trkpt lat="46.29494" lon="6.44933">
        <ele>605</ele>
        <time>2021-03-24T10:53:38.000Z</time>
      </trkpt>
      <trkpt lat="46.29532" lon="6.4497">
        <ele>605</ele>
        <time>2021-03-24T10:53:45.000Z</time>
      </trkpt>
      <trkpt lat="46.29575" lon="6.45031">
        <ele>605.20001220703</ele>
        <time>2021-03-24T10:53:54.000Z</time>
      </trkpt>
      <trkpt lat="46.2961" lon="6.4509">
        <ele>600.59997558594</ele>
        <time>2021-03-24T10:54:02.000Z</time>
      </trkpt>
      <trkpt lat="46.29614" lon="6.45097">
        <ele>599.40002441406</ele>
        <time>2021-03-24T10:54:03.000Z</time>
      </trkpt>
      <trkpt lat="46.29635" lon="6.45148">
        <ele>596.79998779297</ele>
        <time>2021-03-24T10:54:09.000Z</time>
      </trkpt>
      <trkpt lat="46.29652" lon="6.45198">
        <ele>599.59997558594</ele>
        <time>2021-03-24T10:54:15.000Z</time>
      </trkpt>
      <trkpt lat="46.2967" lon="6.45254">
        <ele>601.40002441406</ele>
        <time>2021-03-24T10:54:22.000Z</time>
      </trkpt>
      <trkpt lat="46.2969" lon="6.45297">
        <ele>603.20001220703</ele>
        <time>2021-03-24T10:54:29.000Z</time>
      </trkpt>
      <trkpt lat="46.29711" lon="6.45319">
        <ele>604.20001220703</ele>
        <time>2021-03-24T10:54:36.000Z</time>
      </trkpt>
      <trkpt lat="46.29731" lon="6.45334">
        <ele>604.20001220703</ele>
        <time>2021-03-24T10:54:42.000Z</time>
      </trkpt>
      <trkpt lat="46.29754" lon="6.45352">
        <ele>604.40002441406</ele>
        <time>2021-03-24T10:54:49.000Z</time>
      </trkpt>
      <trkpt lat="46.29778" lon="6.45373">
        <ele>606.79998779297</ele>
        <time>2021-03-24T10:54:57.000Z</time>
      </trkpt>
      <trkpt lat="46.29803" lon="6.45395">
        <ele>608.79998779297</ele>
        <time>2021-03-24T10:55:05.000Z</time>
      </trkpt>
      <trkpt lat="46.2982" lon="6.45416">
        <ele>610.79998779297</ele>
        <time>2021-03-24T10:55:12.000Z</time>
      </trkpt>
      <trkpt lat="46.29839" lon="6.45446">
        <ele>614.79998779297</ele>
        <time>2021-03-24T10:55:20.000Z</time>
      </trkpt>
      <trkpt lat="46.29859" lon="6.45481">
        <ele>616.59997558594</ele>
        <time>2021-03-24T10:55:30.000Z</time>
      </trkpt>
      <trkpt lat="46.29878" lon="6.45513">
        <ele>617.59997558594</ele>
        <time>2021-03-24T10:55:39.000Z</time>
      </trkpt>
      <trkpt lat="46.299" lon="6.45549">
        <ele>618.20001220703</ele>
        <time>2021-03-24T10:55:49.000Z</time>
      </trkpt>
      <trkpt lat="46.29923" lon="6.4558">
        <ele>619.40002441406</ele>
        <time>2021-03-24T10:55:59.000Z</time>
      </trkpt>
      <trkpt lat="46.29946" lon="6.456">
        <ele>620.79998779297</ele>
        <time>2021-03-24T10:56:07.000Z</time>
      </trkpt>
      <trkpt lat="46.29969" lon="6.45619">
        <ele>622.20001220703</ele>
        <time>2021-03-24T10:56:14.000Z</time>
      </trkpt>
      <trkpt lat="46.29998" lon="6.45645">
        <ele>625.40002441406</ele>
        <time>2021-03-24T10:56:23.000Z</time>
      </trkpt>
      <trkpt lat="46.30026" lon="6.45676">
        <ele>629</ele>
        <time>2021-03-24T10:56:33.000Z</time>
      </trkpt>
      <trkpt lat="46.30047" lon="6.45691">
        <ele>630.79998779297</ele>
        <time>2021-03-24T10:56:40.000Z</time>
      </trkpt>
      <trkpt lat="46.30078" lon="6.45714">
        <ele>629.59997558594</ele>
        <time>2021-03-24T10:56:49.000Z</time>
      </trkpt>
      <trkpt lat="46.30107" lon="6.45727">
        <ele>628.79998779297</ele>
        <time>2021-03-24T10:56:57.000Z</time>
      </trkpt>
      <trkpt lat="46.30137" lon="6.45726">
        <ele>629.79998779297</ele>
        <time>2021-03-24T10:57:05.000Z</time>
      </trkpt>
      <trkpt lat="46.30168" lon="6.45729">
        <ele>632</ele>
        <time>2021-03-24T10:57:13.000Z</time>
      </trkpt>
      <trkpt lat="46.30191" lon="6.4573">
        <ele>633.40002441406</ele>
        <time>2021-03-24T10:57:19.000Z</time>
      </trkpt>
      <trkpt lat="46.30236" lon="6.45734">
        <ele>634.20001220703</ele>
        <time>2021-03-24T10:57:31.000Z</time>
      </trkpt>
      <trkpt lat="46.30261" lon="6.45738">
        <ele>635.59997558594</ele>
        <time>2021-03-24T10:57:38.000Z</time>
      </trkpt>
      <trkpt lat="46.30296" lon="6.45743">
        <ele>635</ele>
        <time>2021-03-24T10:57:46.000Z</time>
      </trkpt>
      <trkpt lat="46.30306" lon="6.45746">
        <ele>634.79998779297</ele>
        <time>2021-03-24T10:57:48.000Z</time>
      </trkpt>
      <trkpt lat="46.30319" lon="6.45751">
        <ele>634.20001220703</ele>
        <time>2021-03-24T10:57:51.000Z</time>
      </trkpt>
      <trkpt lat="46.30324" lon="6.45752">
        <ele>634</ele>
        <time>2021-03-24T10:57:52.000Z</time>
      </trkpt>
      <trkpt lat="46.30358" lon="6.45767">
        <ele>631.40002441406</ele>
        <time>2021-03-24T10:57:57.000Z</time>
      </trkpt>
      <trkpt lat="46.3041" lon="6.45785">
        <ele>630.40002441406</ele>
        <time>2021-03-24T10:58:04.000Z</time>
      </trkpt>
      <trkpt lat="46.30445" lon="6.45799">
        <ele>628.79998779297</ele>
        <time>2021-03-24T10:58:09.000Z</time>
      </trkpt>
      <trkpt lat="46.30454" lon="6.45804">
        <ele>628</ele>
        <time>2021-03-24T10:58:10.000Z</time>
      </trkpt>
      <trkpt lat="46.30459" lon="6.4581">
        <ele>627.59997558594</ele>
        <time>2021-03-24T10:58:11.000Z</time>
      </trkpt>
      <trkpt lat="46.30469" lon="6.45825">
        <ele>626.79998779297</ele>
        <time>2021-03-24T10:58:13.000Z</time>
      </trkpt>
      <trkpt lat="46.30495" lon="6.45868">
        <ele>626.59997558594</ele>
        <time>2021-03-24T10:58:19.000Z</time>
      </trkpt>
      <trkpt lat="46.30499" lon="6.45875">
        <ele>627</ele>
        <time>2021-03-24T10:58:20.000Z</time>
      </trkpt>
      <trkpt lat="46.30508" lon="6.45892">
        <ele>628.40002441406</ele>
        <time>2021-03-24T10:58:23.000Z</time>
      </trkpt>
      <trkpt lat="46.30511" lon="6.45898">
        <ele>628.79998779297</ele>
        <time>2021-03-24T10:58:24.000Z</time>
      </trkpt>
      <trkpt lat="46.30515" lon="6.45905">
        <ele>629.20001220703</ele>
        <time>2021-03-24T10:58:25.000Z</time>
      </trkpt>
      <trkpt lat="46.30529" lon="6.45932">
        <ele>630</ele>
        <time>2021-03-24T10:58:30.000Z</time>
      </trkpt>
      <trkpt lat="46.30538" lon="6.45948">
        <ele>630</ele>
        <time>2021-03-24T10:58:33.000Z</time>
      </trkpt>
      <trkpt lat="46.30543" lon="6.45958">
        <ele>630</ele>
        <time>2021-03-24T10:58:35.000Z</time>
      </trkpt>
      <trkpt lat="46.30546" lon="6.45963">
        <ele>630</ele>
        <time>2021-03-24T10:58:36.000Z</time>
      </trkpt>
      <trkpt lat="46.30566" lon="6.46006">
        <ele>631.20001220703</ele>
        <time>2021-03-24T10:58:44.000Z</time>
      </trkpt>
      <trkpt lat="46.30576" lon="6.46049">
        <ele>631.79998779297</ele>
        <time>2021-03-24T10:58:51.000Z</time>
      </trkpt>
      <trkpt lat="46.30577" lon="6.46069">
        <ele>632.40002441406</ele>
        <time>2021-03-24T10:58:54.000Z</time>
      </trkpt>
      <trkpt lat="46.30578" lon="6.46087">
        <ele>633</ele>
        <time>2021-03-24T10:58:57.000Z</time>
      </trkpt>
      <trkpt lat="46.30578" lon="6.46122">
        <ele>633.40002441406</ele>
        <time>2021-03-24T10:59:04.000Z</time>
      </trkpt>
      <trkpt lat="46.30578" lon="6.46173">
        <ele>635.20001220703</ele>
        <time>2021-03-24T10:59:15.000Z</time>
      </trkpt>
      <trkpt lat="46.30579" lon="6.46197">
        <ele>636.20001220703</ele>
        <time>2021-03-24T10:59:22.000Z</time>
      </trkpt>
      <trkpt lat="46.3058" lon="6.46213">
        <ele>636.79998779297</ele>
        <time>2021-03-24T10:59:30.000Z</time>
      </trkpt>
      <trkpt lat="46.3058" lon="6.4622">
        <ele>637</ele>
        <time>2021-03-24T10:59:36.000Z</time>
      </trkpt>
      <trkpt lat="46.3058" lon="6.4622">
        <ele>637</ele>
        <time>2021-03-24T10:59:48.000Z</time>
      </trkpt>
      <trkpt lat="46.3058" lon="6.46221">
        <ele>637</ele>
        <time>2021-03-24T10:59:49.000Z</time>
      </trkpt>
      <trkpt lat="46.30581" lon="6.46227">
        <ele>637.20001220703</ele>
        <time>2021-03-24T10:59:50.000Z</time>
      </trkpt>
      <trkpt lat="46.30581" lon="6.4624">
        <ele>637.79998779297</ele>
        <time>2021-03-24T10:59:53.000Z</time>
      </trkpt>
      <trkpt lat="46.30583" lon="6.46274">
        <ele>640</ele>
        <time>2021-03-24T10:59:59.000Z</time>
      </trkpt>
      <trkpt lat="46.30586" lon="6.46306">
        <ele>641.40002441406</ele>
        <time>2021-03-24T11:00:05.000Z</time>
      </trkpt>
      <trkpt lat="46.30588" lon="6.46331">
        <ele>642.59997558594</ele>
        <time>2021-03-24T11:00:10.000Z</time>
      </trkpt>
      <trkpt lat="46.30592" lon="6.46372">
        <ele>645</ele>
        <time>2021-03-24T11:00:18.000Z</time>
      </trkpt>
      <trkpt lat="46.30599" lon="6.46418">
        <ele>646.59997558594</ele>
        <time>2021-03-24T11:00:27.000Z</time>
      </trkpt>
      <trkpt lat="46.30605" lon="6.46457">
        <ele>647.40002441406</ele>
        <time>2021-03-24T11:00:35.000Z</time>
      </trkpt>
      <trkpt lat="46.30612" lon="6.46512">
        <ele>649</ele>
        <time>2021-03-24T11:00:45.000Z</time>
      </trkpt>
      <trkpt lat="46.30618" lon="6.46545">
        <ele>649.59997558594</ele>
        <time>2021-03-24T11:00:51.000Z</time>
      </trkpt>
      <trkpt lat="46.30626" lon="6.46596">
        <ele>650</ele>
        <time>2021-03-24T11:00:59.000Z</time>
      </trkpt>
      <trkpt lat="46.30635" lon="6.46657">
        <ele>648.20001220703</ele>
        <time>2021-03-24T11:01:08.000Z</time>
      </trkpt>
      <trkpt lat="46.30639" lon="6.46706">
        <ele>647</ele>
        <time>2021-03-24T11:01:14.000Z</time>
      </trkpt>
      <trkpt lat="46.30645" lon="6.46769">
        <ele>647.40002441406</ele>
        <time>2021-03-24T11:01:21.000Z</time>
      </trkpt>
      <trkpt lat="46.30651" lon="6.4684">
        <ele>647</ele>
        <time>2021-03-24T11:01:29.000Z</time>
      </trkpt>
      <trkpt lat="46.30656" lon="6.46865">
        <ele>646.40002441406</ele>
        <time>2021-03-24T11:01:32.000Z</time>
      </trkpt>
      <trkpt lat="46.30663" lon="6.46897">
        <ele>645.59997558594</ele>
        <time>2021-03-24T11:01:36.000Z</time>
      </trkpt>
      <trkpt lat="46.30673" lon="6.46957">
        <ele>643.20001220703</ele>
        <time>2021-03-24T11:01:43.000Z</time>
      </trkpt>
      <trkpt lat="46.30682" lon="6.4703">
        <ele>642</ele>
        <time>2021-03-24T11:01:51.000Z</time>
      </trkpt>
      <trkpt lat="46.30683" lon="6.47039">
        <ele>642.20001220703</ele>
        <time>2021-03-24T11:01:52.000Z</time>
      </trkpt>
      <trkpt lat="46.30692" lon="6.47061">
        <ele>641.79998779297</ele>
        <time>2021-03-24T11:01:55.000Z</time>
      </trkpt>
      <trkpt lat="46.30716" lon="6.47104">
        <ele>640</ele>
        <time>2021-03-24T11:02:01.000Z</time>
      </trkpt>
      <trkpt lat="46.30738" lon="6.47148">
        <ele>638.59997558594</ele>
        <time>2021-03-24T11:02:07.000Z</time>
      </trkpt>
      <trkpt lat="46.30744" lon="6.47164">
        <ele>638</ele>
        <time>2021-03-24T11:02:09.000Z</time>
      </trkpt>
      <trkpt lat="46.30746" lon="6.47192">
        <ele>638.79998779297</ele>
        <time>2021-03-24T11:02:12.000Z</time>
      </trkpt>
      <trkpt lat="46.30744" lon="6.47229">
        <ele>639.40002441406</ele>
        <time>2021-03-24T11:02:16.000Z</time>
      </trkpt>
      <trkpt lat="46.30742" lon="6.47236">
        <ele>639.59997558594</ele>
        <time>2021-03-24T11:02:17.000Z</time>
      </trkpt>
      <trkpt lat="46.30738" lon="6.47256">
        <ele>640.20001220703</ele>
        <time>2021-03-24T11:02:21.000Z</time>
      </trkpt>
      <trkpt lat="46.30736" lon="6.47265">
        <ele>640.40002441406</ele>
        <time>2021-03-24T11:02:23.000Z</time>
      </trkpt>
      <trkpt lat="46.30735" lon="6.47278">
        <ele>640.79998779297</ele>
        <time>2021-03-24T11:02:25.000Z</time>
      </trkpt>
      <trkpt lat="46.30734" lon="6.47284">
        <ele>641</ele>
        <time>2021-03-24T11:02:26.000Z</time>
      </trkpt>
      <trkpt lat="46.30733" lon="6.4731">
        <ele>641.59997558594</ele>
        <time>2021-03-24T11:02:30.000Z</time>
      </trkpt>
      <trkpt lat="46.30739" lon="6.4737">
        <ele>643.59997558594</ele>
        <time>2021-03-24T11:02:39.000Z</time>
      </trkpt>
      <trkpt lat="46.3074" lon="6.47384">
        <ele>644</ele>
        <time>2021-03-24T11:02:41.000Z</time>
      </trkpt>
      <trkpt lat="46.30742" lon="6.47403">
        <ele>644.20001220703</ele>
        <time>2021-03-24T11:02:44.000Z</time>
      </trkpt>
      <trkpt lat="46.3074" lon="6.47416">
        <ele>644.40002441406</ele>
        <time>2021-03-24T11:02:46.000Z</time>
      </trkpt>
      <trkpt lat="46.30739" lon="6.4743">
        <ele>644.79998779297</ele>
        <time>2021-03-24T11:02:48.000Z</time>
      </trkpt>
      <trkpt lat="46.30738" lon="6.47437">
        <ele>645.20001220703</ele>
        <time>2021-03-24T11:02:49.000Z</time>
      </trkpt>
      <trkpt lat="46.30733" lon="6.47496">
        <ele>645.20001220703</ele>
        <time>2021-03-24T11:02:58.000Z</time>
      </trkpt>
      <trkpt lat="46.30739" lon="6.47544">
        <ele>645.20001220703</ele>
        <time>2021-03-24T11:03:05.000Z</time>
      </trkpt>
      <trkpt lat="46.30751" lon="6.4759">
        <ele>646</ele>
        <time>2021-03-24T11:03:12.000Z</time>
      </trkpt>
      <trkpt lat="46.30778" lon="6.47665">
        <ele>647.59997558594</ele>
        <time>2021-03-24T11:03:23.000Z</time>
      </trkpt>
      <trkpt lat="46.30785" lon="6.47684">
        <ele>647.79998779297</ele>
        <time>2021-03-24T11:03:26.000Z</time>
      </trkpt>
      <trkpt lat="46.30787" lon="6.47689">
        <ele>647.79998779297</ele>
        <time>2021-03-24T11:03:27.000Z</time>
      </trkpt>
      <trkpt lat="46.30802" lon="6.47726">
        <ele>648</ele>
        <time>2021-03-24T11:03:33.000Z</time>
      </trkpt>
      <trkpt lat="46.3081" lon="6.47749">
        <ele>648</ele>
        <time>2021-03-24T11:03:36.000Z</time>
      </trkpt>
      <trkpt lat="46.30815" lon="6.47762">
        <ele>647.79998779297</ele>
        <time>2021-03-24T11:03:38.000Z</time>
      </trkpt>
      <trkpt lat="46.30822" lon="6.47812">
        <ele>648.59997558594</ele>
        <time>2021-03-24T11:03:44.000Z</time>
      </trkpt>
      <trkpt lat="46.3083" lon="6.47867">
        <ele>649.20001220703</ele>
        <time>2021-03-24T11:03:51.000Z</time>
      </trkpt>
      <trkpt lat="46.30839" lon="6.47917">
        <ele>649.59997558594</ele>
        <time>2021-03-24T11:03:57.000Z</time>
      </trkpt>
      <trkpt lat="46.30842" lon="6.47932">
        <ele>649.59997558594</ele>
        <time>2021-03-24T11:03:59.000Z</time>
      </trkpt>
      <trkpt lat="46.3085" lon="6.47964">
        <ele>649.40002441406</ele>
        <time>2021-03-24T11:04:03.000Z</time>
      </trkpt>
      <trkpt lat="46.30857" lon="6.47987">
        <ele>648.40002441406</ele>
        <time>2021-03-24T11:04:08.000Z</time>
      </trkpt>
      <trkpt lat="46.30859" lon="6.47992">
        <ele>648.20001220703</ele>
        <time>2021-03-24T11:04:10.000Z</time>
      </trkpt>
      <trkpt lat="46.30866" lon="6.47992">
        <ele>648</ele>
        <time>2021-03-24T11:04:12.000Z</time>
      </trkpt>
      <trkpt lat="46.3087" lon="6.47991">
        <ele>647.79998779297</ele>
        <time>2021-03-24T11:04:13.000Z</time>
      </trkpt>
      <trkpt lat="46.30881" lon="6.47989">
        <ele>647.20001220703</ele>
        <time>2021-03-24T11:04:16.000Z</time>
      </trkpt>
      <trkpt lat="46.30905" lon="6.47985">
        <ele>645.40002441406</ele>
        <time>2021-03-24T11:04:20.000Z</time>
      </trkpt>
      <trkpt lat="46.30943" lon="6.47978">
        <ele>642.59997558594</ele>
        <time>2021-03-24T11:04:25.000Z</time>
      </trkpt>
      <trkpt lat="46.30983" lon="6.47968">
        <ele>639</ele>
        <time>2021-03-24T11:04:30.000Z</time>
      </trkpt>
      <trkpt lat="46.30998" lon="6.47965">
        <ele>637.79998779297</ele>
        <time>2021-03-24T11:04:32.000Z</time>
      </trkpt>
      <trkpt lat="46.31022" lon="6.4797">
        <ele>636</ele>
        <time>2021-03-24T11:04:35.000Z</time>
      </trkpt>
      <trkpt lat="46.31053" lon="6.47978">
        <ele>634.79998779297</ele>
        <time>2021-03-24T11:04:40.000Z</time>
      </trkpt>
      <trkpt lat="46.31064" lon="6.47982">
        <ele>634</ele>
        <time>2021-03-24T11:04:43.000Z</time>
      </trkpt>
      <trkpt lat="46.31069" lon="6.47995">
        <ele>633.59997558594</ele>
        <time>2021-03-24T11:04:45.000Z</time>
      </trkpt>
      <trkpt lat="46.31069" lon="6.48008">
        <ele>633.59997558594</ele>
        <time>2021-03-24T11:04:47.000Z</time>
      </trkpt>
      <trkpt lat="46.31069" lon="6.48035">
        <ele>633</ele>
        <time>2021-03-24T11:04:51.000Z</time>
      </trkpt>
      <trkpt lat="46.3107" lon="6.48042">
        <ele>632.79998779297</ele>
        <time>2021-03-24T11:04:52.000Z</time>
      </trkpt>
      <trkpt lat="46.31074" lon="6.48085">
        <ele>633.40002441406</ele>
        <time>2021-03-24T11:04:58.000Z</time>
      </trkpt>
      <trkpt lat="46.31075" lon="6.48095">
        <ele>633.59997558594</ele>
        <time>2021-03-24T11:04:59.000Z</time>
      </trkpt>
      <trkpt lat="46.31074" lon="6.48145">
        <ele>634.40002441406</ele>
        <time>2021-03-24T11:05:06.000Z</time>
      </trkpt>
      <trkpt lat="46.31067" lon="6.48226">
        <ele>635.79998779297</ele>
        <time>2021-03-24T11:05:17.000Z</time>
      </trkpt>
      <trkpt lat="46.31064" lon="6.48271">
        <ele>633.79998779297</ele>
        <time>2021-03-24T11:05:23.000Z</time>
      </trkpt>
      <trkpt lat="46.31062" lon="6.48292">
        <ele>632.59997558594</ele>
        <time>2021-03-24T11:05:26.000Z</time>
      </trkpt>
      <trkpt lat="46.31061" lon="6.48314">
        <ele>632.59997558594</ele>
        <time>2021-03-24T11:05:29.000Z</time>
      </trkpt>
      <trkpt lat="46.3106" lon="6.48331">
        <ele>632.59997558594</ele>
        <time>2021-03-24T11:05:31.000Z</time>
      </trkpt>
      <trkpt lat="46.31063" lon="6.48344">
        <ele>633.40002441406</ele>
        <time>2021-03-24T11:05:33.000Z</time>
      </trkpt>
      <trkpt lat="46.31066" lon="6.4836">
        <ele>634.79998779297</ele>
        <time>2021-03-24T11:05:35.000Z</time>
      </trkpt>
      <trkpt lat="46.31089" lon="6.48412">
        <ele>636.20001220703</ele>
        <time>2021-03-24T11:05:43.000Z</time>
      </trkpt>
      <trkpt lat="46.31115" lon="6.48476">
        <ele>638.20001220703</ele>
        <time>2021-03-24T11:05:53.000Z</time>
      </trkpt>
      <trkpt lat="46.3112" lon="6.4849">
        <ele>638.40002441406</ele>
        <time>2021-03-24T11:05:55.000Z</time>
      </trkpt>
      <trkpt lat="46.31128" lon="6.48511">
        <ele>639</ele>
        <time>2021-03-24T11:05:58.000Z</time>
      </trkpt>
      <trkpt lat="46.31129" lon="6.48519">
        <ele>639.20001220703</ele>
        <time>2021-03-24T11:05:59.000Z</time>
      </trkpt>
      <trkpt lat="46.31134" lon="6.48548">
        <ele>640.59997558594</ele>
        <time>2021-03-24T11:06:03.000Z</time>
      </trkpt>
      <trkpt lat="46.31137" lon="6.48568">
        <ele>641.20001220703</ele>
        <time>2021-03-24T11:06:06.000Z</time>
      </trkpt>
      <trkpt lat="46.31141" lon="6.48593">
        <ele>641.79998779297</ele>
        <time>2021-03-24T11:06:09.000Z</time>
      </trkpt>
      <trkpt lat="46.31143" lon="6.48606">
        <ele>642.59997558594</ele>
        <time>2021-03-24T11:06:11.000Z</time>
      </trkpt>
      <trkpt lat="46.31146" lon="6.48622">
        <ele>642.59997558594</ele>
        <time>2021-03-24T11:06:13.000Z</time>
      </trkpt>
      <trkpt lat="46.31148" lon="6.4863">
        <ele>642.59997558594</ele>
        <time>2021-03-24T11:06:14.000Z</time>
      </trkpt>
      <trkpt lat="46.31165" lon="6.48705">
        <ele>642.79998779297</ele>
        <time>2021-03-24T11:06:24.000Z</time>
      </trkpt>
      <trkpt lat="46.31166" lon="6.48711">
        <ele>642.79998779297</ele>
        <time>2021-03-24T11:06:25.000Z</time>
      </trkpt>
      <trkpt lat="46.31169" lon="6.48727">
        <ele>642.79998779297</ele>
        <time>2021-03-24T11:06:27.000Z</time>
      </trkpt>
      <trkpt lat="46.31174" lon="6.48752">
        <ele>642.79998779297</ele>
        <time>2021-03-24T11:06:31.000Z</time>
      </trkpt>
      <trkpt lat="46.31184" lon="6.48801">
        <ele>642.79998779297</ele>
        <time>2021-03-24T11:06:39.000Z</time>
      </trkpt>
      <trkpt lat="46.31191" lon="6.48844">
        <ele>644.59997558594</ele>
        <time>2021-03-24T11:06:47.000Z</time>
      </trkpt>
      <trkpt lat="46.31196" lon="6.48877">
        <ele>647.20001220703</ele>
        <time>2021-03-24T11:06:54.000Z</time>
      </trkpt>
      <trkpt lat="46.31201" lon="6.48907">
        <ele>649.59997558594</ele>
        <time>2021-03-24T11:07:00.000Z</time>
      </trkpt>
      <trkpt lat="46.31211" lon="6.48927">
        <ele>649.59997558594</ele>
        <time>2021-03-24T11:07:05.000Z</time>
      </trkpt>
      <trkpt lat="46.31221" lon="6.48946">
        <ele>649.59997558594</ele>
        <time>2021-03-24T11:07:10.000Z</time>
      </trkpt>
      <trkpt lat="46.31235" lon="6.48971">
        <ele>649.40002441406</ele>
        <time>2021-03-24T11:07:16.000Z</time>
      </trkpt>
      <trkpt lat="46.31245" lon="6.4899">
        <ele>649.40002441406</ele>
        <time>2021-03-24T11:07:21.000Z</time>
      </trkpt>
      <trkpt lat="46.31255" lon="6.49027">
        <ele>652.79998779297</ele>
        <time>2021-03-24T11:07:29.000Z</time>
      </trkpt>
      <trkpt lat="46.31265" lon="6.4906">
        <ele>654.59997558594</ele>
        <time>2021-03-24T11:07:36.000Z</time>
      </trkpt>
      <trkpt lat="46.31273" lon="6.49085">
        <ele>655</ele>
        <time>2021-03-24T11:07:41.000Z</time>
      </trkpt>
      <trkpt lat="46.31273" lon="6.49085">
        <ele>655</ele>
        <time>2021-03-24T11:07:42.000Z</time>
      </trkpt>
      <trkpt lat="46.31274" lon="6.49086">
        <ele>654.79998779297</ele>
        <time>2021-03-24T11:07:43.000Z</time>
      </trkpt>
      <trkpt lat="46.3128" lon="6.4909">
        <ele>654.20001220703</ele>
        <time>2021-03-24T11:07:45.000Z</time>
      </trkpt>
      <trkpt lat="46.3129" lon="6.49097">
        <ele>653</ele>
        <time>2021-03-24T11:07:48.000Z</time>
      </trkpt>
      <trkpt lat="46.31293" lon="6.49101">
        <ele>652.59997558594</ele>
        <time>2021-03-24T11:07:49.000Z</time>
      </trkpt>
      <trkpt lat="46.31314" lon="6.4913">
        <ele>650.20001220703</ele>
        <time>2021-03-24T11:07:55.000Z</time>
      </trkpt>
      <trkpt lat="46.3132" lon="6.49144">
        <ele>650.20001220703</ele>
        <time>2021-03-24T11:07:57.000Z</time>
      </trkpt>
      <trkpt lat="46.31325" lon="6.49158">
        <ele>650.59997558594</ele>
        <time>2021-03-24T11:07:59.000Z</time>
      </trkpt>
      <trkpt lat="46.31328" lon="6.49167">
        <ele>651</ele>
        <time>2021-03-24T11:08:00.000Z</time>
      </trkpt>
      <trkpt lat="46.31337" lon="6.49191">
        <ele>649.40002441406</ele>
        <time>2021-03-24T11:08:03.000Z</time>
      </trkpt>
      <trkpt lat="46.31346" lon="6.49209">
        <ele>647.40002441406</ele>
        <time>2021-03-24T11:08:05.000Z</time>
      </trkpt>
      <trkpt lat="46.31361" lon="6.49255">
        <ele>647.20001220703</ele>
        <time>2021-03-24T11:08:10.000Z</time>
      </trkpt>
      <trkpt lat="46.31367" lon="6.49282">
        <ele>648.79998779297</ele>
        <time>2021-03-24T11:08:13.000Z</time>
      </trkpt>
      <trkpt lat="46.31374" lon="6.49304">
        <ele>649.40002441406</ele>
        <time>2021-03-24T11:08:15.000Z</time>
      </trkpt>
      <trkpt lat="46.31377" lon="6.49313">
        <ele>649.59997558594</ele>
        <time>2021-03-24T11:08:16.000Z</time>
      </trkpt>
      <trkpt lat="46.31384" lon="6.49332">
        <ele>649.79998779297</ele>
        <time>2021-03-24T11:08:18.000Z</time>
      </trkpt>
      <trkpt lat="46.31395" lon="6.49364">
        <ele>646.59997558594</ele>
        <time>2021-03-24T11:08:21.000Z</time>
      </trkpt>
      <trkpt lat="46.3141" lon="6.4944">
        <ele>646.20001220703</ele>
        <time>2021-03-24T11:08:28.000Z</time>
      </trkpt>
      <trkpt lat="46.31427" lon="6.49512">
        <ele>646.79998779297</ele>
        <time>2021-03-24T11:08:34.000Z</time>
      </trkpt>
      <trkpt lat="46.3145" lon="6.49566">
        <ele>643.40002441406</ele>
        <time>2021-03-24T11:08:39.000Z</time>
      </trkpt>
      <trkpt lat="46.31472" lon="6.49618">
        <ele>641.59997558594</ele>
        <time>2021-03-24T11:08:44.000Z</time>
      </trkpt>
      <trkpt lat="46.3149" lon="6.49652">
        <ele>641</ele>
        <time>2021-03-24T11:08:48.000Z</time>
      </trkpt>
      <trkpt lat="46.31495" lon="6.49659">
        <ele>640.40002441406</ele>
        <time>2021-03-24T11:08:49.000Z</time>
      </trkpt>
      <trkpt lat="46.31522" lon="6.49702">
        <ele>642.59997558594</ele>
        <time>2021-03-24T11:08:56.000Z</time>
      </trkpt>
      <trkpt lat="46.31548" lon="6.49743">
        <ele>644.40002441406</ele>
        <time>2021-03-24T11:09:03.000Z</time>
      </trkpt>
      <trkpt lat="46.31579" lon="6.49789">
        <ele>647.40002441406</ele>
        <time>2021-03-24T11:09:11.000Z</time>
      </trkpt>
      <trkpt lat="46.3161" lon="6.49824">
        <ele>646.59997558594</ele>
        <time>2021-03-24T11:09:18.000Z</time>
      </trkpt>
      <trkpt lat="46.31638" lon="6.49843">
        <ele>643.59997558594</ele>
        <time>2021-03-24T11:09:23.000Z</time>
      </trkpt>
      <trkpt lat="46.31674" lon="6.49868">
        <ele>641.59997558594</ele>
        <time>2021-03-24T11:09:29.000Z</time>
      </trkpt>
      <trkpt lat="46.31723" lon="6.49902">
        <ele>639</ele>
        <time>2021-03-24T11:09:38.000Z</time>
      </trkpt>
      <trkpt lat="46.31771" lon="6.49929">
        <ele>640</ele>
        <time>2021-03-24T11:09:46.000Z</time>
      </trkpt>
      <trkpt lat="46.31801" lon="6.4994">
        <ele>637.79998779297</ele>
        <time>2021-03-24T11:09:51.000Z</time>
      </trkpt>
      <trkpt lat="46.31807" lon="6.49942">
        <ele>637.59997558594</ele>
        <time>2021-03-24T11:09:52.000Z</time>
      </trkpt>
      <trkpt lat="46.3181" lon="6.4994">
        <ele>637.40002441406</ele>
        <time>2021-03-24T11:09:53.000Z</time>
      </trkpt>
      <trkpt lat="46.31823" lon="6.49933">
        <ele>636.79998779297</ele>
        <time>2021-03-24T11:09:55.000Z</time>
      </trkpt>
      <trkpt lat="46.31831" lon="6.49929">
        <ele>636.40002441406</ele>
        <time>2021-03-24T11:09:56.000Z</time>
      </trkpt>
      <trkpt lat="46.31875" lon="6.49899">
        <ele>631.40002441406</ele>
        <time>2021-03-24T11:10:02.000Z</time>
      </trkpt>
      <trkpt lat="46.31881" lon="6.49894">
        <ele>630.59997558594</ele>
        <time>2021-03-24T11:10:03.000Z</time>
      </trkpt>
      <trkpt lat="46.31897" lon="6.49884">
        <ele>629.40002441406</ele>
        <time>2021-03-24T11:10:06.000Z</time>
      </trkpt>
      <trkpt lat="46.31937" lon="6.49868">
        <ele>627.40002441406</ele>
        <time>2021-03-24T11:10:12.000Z</time>
      </trkpt>
      <trkpt lat="46.31969" lon="6.49856">
        <ele>626.79998779297</ele>
        <time>2021-03-24T11:10:16.000Z</time>
      </trkpt>
      <trkpt lat="46.31978" lon="6.49856">
        <ele>626.40002441406</ele>
        <time>2021-03-24T11:10:17.000Z</time>
      </trkpt>
      <trkpt lat="46.32005" lon="6.49857">
        <ele>624.40002441406</ele>
        <time>2021-03-24T11:10:21.000Z</time>
      </trkpt>
      <trkpt lat="46.32028" lon="6.49863">
        <ele>621.59997558594</ele>
        <time>2021-03-24T11:10:25.000Z</time>
      </trkpt>
      <trkpt lat="46.32033" lon="6.49865">
        <ele>621</ele>
        <time>2021-03-24T11:10:26.000Z</time>
      </trkpt>
      <trkpt lat="46.32072" lon="6.49891">
        <ele>620.79998779297</ele>
        <time>2021-03-24T11:10:32.000Z</time>
      </trkpt>
      <trkpt lat="46.32108" lon="6.49926">
        <ele>621</ele>
        <time>2021-03-24T11:10:38.000Z</time>
      </trkpt>
      <trkpt lat="46.32142" lon="6.49982">
        <ele>619.59997558594</ele>
        <time>2021-03-24T11:10:45.000Z</time>
      </trkpt>
      <trkpt lat="46.3218" lon="6.50045">
        <ele>618.40002441406</ele>
        <time>2021-03-24T11:10:52.000Z</time>
      </trkpt>
      <trkpt lat="46.32185" lon="6.50055">
        <ele>618.20001220703</ele>
        <time>2021-03-24T11:10:53.000Z</time>
      </trkpt>
      <trkpt lat="46.32224" lon="6.5012">
        <ele>615.59997558594</ele>
        <time>2021-03-24T11:11:00.000Z</time>
      </trkpt>
      <trkpt lat="46.32235" lon="6.50138">
        <ele>615.40002441406</ele>
        <time>2021-03-24T11:11:02.000Z</time>
      </trkpt>
      <trkpt lat="46.32272" lon="6.502">
        <ele>613.40002441406</ele>
        <time>2021-03-24T11:11:09.000Z</time>
      </trkpt>
      <trkpt lat="46.32277" lon="6.50209">
        <ele>613</ele>
        <time>2021-03-24T11:11:10.000Z</time>
      </trkpt>
      <trkpt lat="46.3231" lon="6.50264">
        <ele>613.79998779297</ele>
        <time>2021-03-24T11:11:17.000Z</time>
      </trkpt>
      <trkpt lat="46.32336" lon="6.50308">
        <ele>614.20001220703</ele>
        <time>2021-03-24T11:11:24.000Z</time>
      </trkpt>
      <trkpt lat="46.32368" lon="6.50358">
        <ele>613.40002441406</ele>
        <time>2021-03-24T11:11:34.000Z</time>
      </trkpt>
      <trkpt lat="46.32401" lon="6.50405">
        <ele>615.59997558594</ele>
        <time>2021-03-24T11:11:44.000Z</time>
      </trkpt>
      <trkpt lat="46.32426" lon="6.50438">
        <ele>617.20001220703</ele>
        <time>2021-03-24T11:11:52.000Z</time>
      </trkpt>
      <trkpt lat="46.32452" lon="6.50461">
        <ele>619</ele>
        <time>2021-03-24T11:12:00.000Z</time>
      </trkpt>
      <trkpt lat="46.32479" lon="6.50486">
        <ele>622</ele>
        <time>2021-03-24T11:12:09.000Z</time>
      </trkpt>
      <trkpt lat="46.32505" lon="6.50509">
        <ele>623.79998779297</ele>
        <time>2021-03-24T11:12:18.000Z</time>
      </trkpt>
      <trkpt lat="46.32528" lon="6.50529">
        <ele>623.59997558594</ele>
        <time>2021-03-24T11:12:26.000Z</time>
      </trkpt>
      <trkpt lat="46.32558" lon="6.50559">
        <ele>625.40002441406</ele>
        <time>2021-03-24T11:12:36.000Z</time>
      </trkpt>
      <trkpt lat="46.32584" lon="6.50589">
        <ele>628.40002441406</ele>
        <time>2021-03-24T11:12:45.000Z</time>
      </trkpt>
      <trkpt lat="46.3261" lon="6.50617">
        <ele>630</ele>
        <time>2021-03-24T11:12:53.000Z</time>
      </trkpt>
      <trkpt lat="46.32635" lon="6.50657">
        <ele>629.79998779297</ele>
        <time>2021-03-24T11:13:01.000Z</time>
      </trkpt>
      <trkpt lat="46.32654" lon="6.50688">
        <ele>629.40002441406</ele>
        <time>2021-03-24T11:13:07.000Z</time>
      </trkpt>
      <trkpt lat="46.32679" lon="6.50719">
        <ele>628.20001220703</ele>
        <time>2021-03-24T11:13:14.000Z</time>
      </trkpt>
      <trkpt lat="46.3271" lon="6.50755">
        <ele>628</ele>
        <time>2021-03-24T11:13:22.000Z</time>
      </trkpt>
      <trkpt lat="46.32738" lon="6.50788">
        <ele>630.59997558594</ele>
        <time>2021-03-24T11:13:30.000Z</time>
      </trkpt>
      <trkpt lat="46.3277" lon="6.50815">
        <ele>633.40002441406</ele>
        <time>2021-03-24T11:13:39.000Z</time>
      </trkpt>
      <trkpt lat="46.328" lon="6.50831">
        <ele>634.59997558594</ele>
        <time>2021-03-24T11:13:48.000Z</time>
      </trkpt>
      <trkpt lat="46.32833" lon="6.50848">
        <ele>636</ele>
        <time>2021-03-24T11:13:57.000Z</time>
      </trkpt>
      <trkpt lat="46.32874" lon="6.50863">
        <ele>639.20001220703</ele>
        <time>2021-03-24T11:14:07.000Z</time>
      </trkpt>
      <trkpt lat="46.32903" lon="6.50867">
        <ele>639.59997558594</ele>
        <time>2021-03-24T11:14:14.000Z</time>
      </trkpt>
      <trkpt lat="46.32927" lon="6.50871">
        <ele>639.79998779297</ele>
        <time>2021-03-24T11:14:20.000Z</time>
      </trkpt>
      <trkpt lat="46.3295" lon="6.50882">
        <ele>640.79998779297</ele>
        <time>2021-03-24T11:14:26.000Z</time>
      </trkpt>
      <trkpt lat="46.3298" lon="6.50906">
        <ele>643.40002441406</ele>
        <time>2021-03-24T11:14:34.000Z</time>
      </trkpt>
      <trkpt lat="46.33006" lon="6.50927">
        <ele>643.40002441406</ele>
        <time>2021-03-24T11:14:41.000Z</time>
      </trkpt>
      <trkpt lat="46.33035" lon="6.50949">
        <ele>638.59997558594</ele>
        <time>2021-03-24T11:14:47.000Z</time>
      </trkpt>
      <trkpt lat="46.3307" lon="6.50978">
        <ele>633.79998779297</ele>
        <time>2021-03-24T11:14:53.000Z</time>
      </trkpt>
      <trkpt lat="46.33123" lon="6.51019">
        <ele>634</ele>
        <time>2021-03-24T11:15:01.000Z</time>
      </trkpt>
      <trkpt lat="46.33168" lon="6.51042">
        <ele>634.79998779297</ele>
        <time>2021-03-24T11:15:07.000Z</time>
      </trkpt>
      <trkpt lat="46.33224" lon="6.5107">
        <ele>632</ele>
        <time>2021-03-24T11:15:14.000Z</time>
      </trkpt>
      <trkpt lat="46.33232" lon="6.51074">
        <ele>631.40002441406</ele>
        <time>2021-03-24T11:15:15.000Z</time>
      </trkpt>
      <trkpt lat="46.33284" lon="6.51102">
        <ele>627.20001220703</ele>
        <time>2021-03-24T11:15:21.000Z</time>
      </trkpt>
      <trkpt lat="46.33291" lon="6.51111">
        <ele>626.40002441406</ele>
        <time>2021-03-24T11:15:22.000Z</time>
      </trkpt>
      <trkpt lat="46.33298" lon="6.51119">
        <ele>625.79998779297</ele>
        <time>2021-03-24T11:15:23.000Z</time>
      </trkpt>
      <trkpt lat="46.33317" lon="6.51144">
        <ele>626</ele>
        <time>2021-03-24T11:15:26.000Z</time>
      </trkpt>
      <trkpt lat="46.33341" lon="6.51189">
        <ele>627.40002441406</ele>
        <time>2021-03-24T11:15:31.000Z</time>
      </trkpt>
      <trkpt lat="46.33352" lon="6.5121">
        <ele>629.20001220703</ele>
        <time>2021-03-24T11:15:34.000Z</time>
      </trkpt>
      <trkpt lat="46.33356" lon="6.51217">
        <ele>629.59997558594</ele>
        <time>2021-03-24T11:15:35.000Z</time>
      </trkpt>
      <trkpt lat="46.33357" lon="6.51251">
        <ele>632</ele>
        <time>2021-03-24T11:15:40.000Z</time>
      </trkpt>
      <trkpt lat="46.33359" lon="6.51296">
        <ele>636.20001220703</ele>
        <time>2021-03-24T11:15:47.000Z</time>
      </trkpt>
      <trkpt lat="46.33364" lon="6.51326">
        <ele>640.79998779297</ele>
        <time>2021-03-24T11:15:53.000Z</time>
      </trkpt>
      <trkpt lat="46.33366" lon="6.51331">
        <ele>641.40002441406</ele>
        <time>2021-03-24T11:15:54.000Z</time>
      </trkpt>
      <trkpt lat="46.3338" lon="6.51361">
        <ele>644.40002441406</ele>
        <time>2021-03-24T11:16:00.000Z</time>
      </trkpt>
      <trkpt lat="46.33383" lon="6.51368">
        <ele>644.20001220703</ele>
        <time>2021-03-24T11:16:01.000Z</time>
      </trkpt>
      <trkpt lat="46.33396" lon="6.51395">
        <ele>644.20001220703</ele>
        <time>2021-03-24T11:16:06.000Z</time>
      </trkpt>
      <trkpt lat="46.33417" lon="6.5144">
        <ele>641</ele>
        <time>2021-03-24T11:16:13.000Z</time>
      </trkpt>
      <trkpt lat="46.33439" lon="6.51488">
        <ele>638.79998779297</ele>
        <time>2021-03-24T11:16:20.000Z</time>
      </trkpt>
      <trkpt lat="46.33465" lon="6.51542">
        <ele>637.40002441406</ele>
        <time>2021-03-24T11:16:28.000Z</time>
      </trkpt>
      <trkpt lat="46.33503" lon="6.51593">
        <ele>637.40002441406</ele>
        <time>2021-03-24T11:16:37.000Z</time>
      </trkpt>
      <trkpt lat="46.33539" lon="6.5164">
        <ele>641</ele>
        <time>2021-03-24T11:16:46.000Z</time>
      </trkpt>
      <trkpt lat="46.33568" lon="6.51678">
        <ele>643.59997558594</ele>
        <time>2021-03-24T11:16:54.000Z</time>
      </trkpt>
      <trkpt lat="46.33591" lon="6.51705">
        <ele>644.79998779297</ele>
        <time>2021-03-24T11:17:00.000Z</time>
      </trkpt>
      <trkpt lat="46.33599" lon="6.51715">
        <ele>645</ele>
        <time>2021-03-24T11:17:02.000Z</time>
      </trkpt>
      <trkpt lat="46.33619" lon="6.51739">
        <ele>645.79998779297</ele>
        <time>2021-03-24T11:17:07.000Z</time>
      </trkpt>
      <trkpt lat="46.33649" lon="6.51775">
        <ele>647</ele>
        <time>2021-03-24T11:17:15.000Z</time>
      </trkpt>
      <trkpt lat="46.3368" lon="6.51812">
        <ele>646.40002441406</ele>
        <time>2021-03-24T11:17:23.000Z</time>
      </trkpt>
      <trkpt lat="46.33709" lon="6.51846">
        <ele>646</ele>
        <time>2021-03-24T11:17:30.000Z</time>
      </trkpt>
      <trkpt lat="46.33744" lon="6.51889">
        <ele>646.20001220703</ele>
        <time>2021-03-24T11:17:38.000Z</time>
      </trkpt>
      <trkpt lat="46.33775" lon="6.51943">
        <ele>648.79998779297</ele>
        <time>2021-03-24T11:17:47.000Z</time>
      </trkpt>
      <trkpt lat="46.33794" lon="6.51985">
        <ele>650</ele>
        <time>2021-03-24T11:17:54.000Z</time>
      </trkpt>
      <trkpt lat="46.33795" lon="6.5199">
        <ele>650</ele>
        <time>2021-03-24T11:17:55.000Z</time>
      </trkpt>
      <trkpt lat="46.33798" lon="6.51998">
        <ele>650.20001220703</ele>
        <time>2021-03-24T11:17:56.000Z</time>
      </trkpt>
      <trkpt lat="46.33799" lon="6.5201">
        <ele>650.59997558594</ele>
        <time>2021-03-24T11:17:58.000Z</time>
      </trkpt>
      <trkpt lat="46.338" lon="6.52024">
        <ele>651</ele>
        <time>2021-03-24T11:18:00.000Z</time>
      </trkpt>
      <trkpt lat="46.33801" lon="6.52039">
        <ele>651.40002441406</ele>
        <time>2021-03-24T11:18:02.000Z</time>
      </trkpt>
      <trkpt lat="46.33802" lon="6.52048">
        <ele>651.59997558594</ele>
        <time>2021-03-24T11:18:03.000Z</time>
      </trkpt>
      <trkpt lat="46.33803" lon="6.52059">
        <ele>651.79998779297</ele>
        <time>2021-03-24T11:18:05.000Z</time>
      </trkpt>
      <trkpt lat="46.33809" lon="6.52072">
        <ele>651.40002441406</ele>
        <time>2021-03-24T11:18:07.000Z</time>
      </trkpt>
      <trkpt lat="46.33813" lon="6.5208">
        <ele>651.20001220703</ele>
        <time>2021-03-24T11:18:08.000Z</time>
      </trkpt>
      <trkpt lat="46.33815" lon="6.52086">
        <ele>651</ele>
        <time>2021-03-24T11:18:09.000Z</time>
      </trkpt>
      <trkpt lat="46.3383" lon="6.52108">
        <ele>650.79998779297</ele>
        <time>2021-03-24T11:18:13.000Z</time>
      </trkpt>
      <trkpt lat="46.33837" lon="6.52114">
        <ele>650.59997558594</ele>
        <time>2021-03-24T11:18:15.000Z</time>
      </trkpt>
      <trkpt lat="46.33846" lon="6.52121">
        <ele>650.40002441406</ele>
        <time>2021-03-24T11:18:17.000Z</time>
      </trkpt>
      <trkpt lat="46.33863" lon="6.52136">
        <ele>650.59997558594</ele>
        <time>2021-03-24T11:18:21.000Z</time>
      </trkpt>
      <trkpt lat="46.33866" lon="6.52138">
        <ele>650.59997558594</ele>
        <time>2021-03-24T11:18:22.000Z</time>
      </trkpt>
      <trkpt lat="46.3387" lon="6.52143">
        <ele>650.59997558594</ele>
        <time>2021-03-24T11:18:23.000Z</time>
      </trkpt>
      <trkpt lat="46.33874" lon="6.52156">
        <ele>651</ele>
        <time>2021-03-24T11:18:25.000Z</time>
      </trkpt>
      <trkpt lat="46.33877" lon="6.52168">
        <ele>651.59997558594</ele>
        <time>2021-03-24T11:18:27.000Z</time>
      </trkpt>
      <trkpt lat="46.33881" lon="6.52173">
        <ele>651.40002441406</ele>
        <time>2021-03-24T11:18:28.000Z</time>
      </trkpt>
      <trkpt lat="46.33894" lon="6.52173">
        <ele>650.79998779297</ele>
        <time>2021-03-24T11:18:30.000Z</time>
      </trkpt>
      <trkpt lat="46.33903" lon="6.52182">
        <ele>650.79998779297</ele>
        <time>2021-03-24T11:18:32.000Z</time>
      </trkpt>
      <trkpt lat="46.33908" lon="6.52187">
        <ele>650.79998779297</ele>
        <time>2021-03-24T11:18:33.000Z</time>
      </trkpt>
      <trkpt lat="46.33926" lon="6.52207">
        <ele>651</ele>
        <time>2021-03-24T11:18:37.000Z</time>
      </trkpt>
      <trkpt lat="46.33935" lon="6.52214">
        <ele>650.79998779297</ele>
        <time>2021-03-24T11:18:39.000Z</time>
      </trkpt>
      <trkpt lat="46.3398" lon="6.5224">
        <ele>652</ele>
        <time>2021-03-24T11:18:48.000Z</time>
      </trkpt>
      <trkpt lat="46.34014" lon="6.52268">
        <ele>650.59997558594</ele>
        <time>2021-03-24T11:18:55.000Z</time>
      </trkpt>
      <trkpt lat="46.34037" lon="6.52287">
        <ele>650.40002441406</ele>
        <time>2021-03-24T11:19:00.000Z</time>
      </trkpt>
      <trkpt lat="46.3406" lon="6.52297">
        <ele>650.40002441406</ele>
        <time>2021-03-24T11:19:05.000Z</time>
      </trkpt>
      <trkpt lat="46.34099" lon="6.52312">
        <ele>652.20001220703</ele>
        <time>2021-03-24T11:19:12.000Z</time>
      </trkpt>
      <trkpt lat="46.3413" lon="6.52318">
        <ele>653.20001220703</ele>
        <time>2021-03-24T11:19:18.000Z</time>
      </trkpt>
      <trkpt lat="46.3417" lon="6.52323">
        <ele>653.59997558594</ele>
        <time>2021-03-24T11:19:25.000Z</time>
      </trkpt>
      <trkpt lat="46.3421" lon="6.52327">
        <ele>653.20001220703</ele>
        <time>2021-03-24T11:19:32.000Z</time>
      </trkpt>
      <trkpt lat="46.3425" lon="6.52333">
        <ele>652.59997558594</ele>
        <time>2021-03-24T11:19:39.000Z</time>
      </trkpt>
      <trkpt lat="46.34278" lon="6.52339">
        <ele>651.59997558594</ele>
        <time>2021-03-24T11:19:44.000Z</time>
      </trkpt>
      <trkpt lat="46.34313" lon="6.52346">
        <ele>649.20001220703</ele>
        <time>2021-03-24T11:19:50.000Z</time>
      </trkpt>
      <trkpt lat="46.34353" lon="6.52354">
        <ele>650.59997558594</ele>
        <time>2021-03-24T11:19:58.000Z</time>
      </trkpt>
      <trkpt lat="46.34384" lon="6.5236">
        <ele>651.79998779297</ele>
        <time>2021-03-24T11:20:04.000Z</time>
      </trkpt>
      <trkpt lat="46.34392" lon="6.52362">
        <ele>652.40002441406</ele>
        <time>2021-03-24T11:20:06.000Z</time>
      </trkpt>
      <trkpt lat="46.34436" lon="6.52368">
        <ele>655.40002441406</ele>
        <time>2021-03-24T11:20:15.000Z</time>
      </trkpt>
      <trkpt lat="46.34477" lon="6.52369">
        <ele>654.40002441406</ele>
        <time>2021-03-24T11:20:23.000Z</time>
      </trkpt>
      <trkpt lat="46.34522" lon="6.52371">
        <ele>656.79998779297</ele>
        <time>2021-03-24T11:20:32.000Z</time>
      </trkpt>
      <trkpt lat="46.34532" lon="6.52371">
        <ele>657.59997558594</ele>
        <time>2021-03-24T11:20:34.000Z</time>
      </trkpt>
      <trkpt lat="46.34547" lon="6.52371">
        <ele>658.79998779297</ele>
        <time>2021-03-24T11:20:37.000Z</time>
      </trkpt>
      <trkpt lat="46.34584" lon="6.52372">
        <ele>659.40002441406</ele>
        <time>2021-03-24T11:20:45.000Z</time>
      </trkpt>
      <trkpt lat="46.34588" lon="6.52373">
        <ele>659</ele>
        <time>2021-03-24T11:20:46.000Z</time>
      </trkpt>
      <trkpt lat="46.34605" lon="6.52373">
        <ele>658</ele>
        <time>2021-03-24T11:20:50.000Z</time>
      </trkpt>
      <trkpt lat="46.34618" lon="6.52374">
        <ele>655.79998779297</ele>
        <time>2021-03-24T11:20:53.000Z</time>
      </trkpt>
      <trkpt lat="46.34625" lon="6.52374">
        <ele>654.79998779297</ele>
        <time>2021-03-24T11:20:55.000Z</time>
      </trkpt>
      <trkpt lat="46.34633" lon="6.52374">
        <ele>653.59997558594</ele>
        <time>2021-03-24T11:20:57.000Z</time>
      </trkpt>
      <trkpt lat="46.34643" lon="6.52393">
        <ele>652.40002441406</ele>
        <time>2021-03-24T11:20:59.000Z</time>
      </trkpt>
      <trkpt lat="46.34642" lon="6.52418">
        <ele>653.40002441406</ele>
        <time>2021-03-24T11:21:04.000Z</time>
      </trkpt>
      <trkpt lat="46.34641" lon="6.52443">
        <ele>655.40002441406</ele>
        <time>2021-03-24T11:21:10.000Z</time>
      </trkpt>
      <trkpt lat="46.34639" lon="6.52477">
        <ele>656.79998779297</ele>
        <time>2021-03-24T11:21:17.000Z</time>
      </trkpt>
      <trkpt lat="46.34638" lon="6.52516">
        <ele>658.59997558594</ele>
        <time>2021-03-24T11:21:25.000Z</time>
      </trkpt>
      <trkpt lat="46.34636" lon="6.52556">
        <ele>658.59997558594</ele>
        <time>2021-03-24T11:21:33.000Z</time>
      </trkpt>
      <trkpt lat="46.34628" lon="6.52585">
        <ele>661</ele>
        <time>2021-03-24T11:21:39.000Z</time>
      </trkpt>
      <trkpt lat="46.34618" lon="6.52604">
        <ele>663.79998779297</ele>
        <time>2021-03-24T11:21:44.000Z</time>
      </trkpt>
      <trkpt lat="46.34603" lon="6.52624">
        <ele>666.79998779297</ele>
        <time>2021-03-24T11:21:50.000Z</time>
      </trkpt>
      <trkpt lat="46.34584" lon="6.52651">
        <ele>667.59997558594</ele>
        <time>2021-03-24T11:21:59.000Z</time>
      </trkpt>
      <trkpt lat="46.34572" lon="6.52678">
        <ele>668.20001220703</ele>
        <time>2021-03-24T11:22:05.000Z</time>
      </trkpt>
      <trkpt lat="46.34563" lon="6.527">
        <ele>668</ele>
        <time>2021-03-24T11:22:10.000Z</time>
      </trkpt>
      <trkpt lat="46.34558" lon="6.52711">
        <ele>668</ele>
        <time>2021-03-24T11:22:12.000Z</time>
      </trkpt>
      <trkpt lat="46.34556" lon="6.52716">
        <ele>668.20001220703</ele>
        <time>2021-03-24T11:22:13.000Z</time>
      </trkpt>
      <trkpt lat="46.34548" lon="6.52735">
        <ele>668.40002441406</ele>
        <time>2021-03-24T11:22:17.000Z</time>
      </trkpt>
      <trkpt lat="46.34547" lon="6.52737">
        <ele>668.40002441406</ele>
        <time>2021-03-24T11:22:18.000Z</time>
      </trkpt>
      <trkpt lat="46.34533" lon="6.52757">
        <ele>668.59997558594</ele>
        <time>2021-03-24T11:22:23.000Z</time>
      </trkpt>
      <trkpt lat="46.34507" lon="6.52786">
        <ele>670.20001220703</ele>
        <time>2021-03-24T11:22:32.000Z</time>
      </trkpt>
      <trkpt lat="46.34482" lon="6.52809">
        <ele>672</ele>
        <time>2021-03-24T11:22:41.000Z</time>
      </trkpt>
      <trkpt lat="46.34461" lon="6.52827">
        <ele>674.79998779297</ele>
        <time>2021-03-24T11:22:49.000Z</time>
      </trkpt>
      <trkpt lat="46.34446" lon="6.52846">
        <ele>677.59997558594</ele>
        <time>2021-03-24T11:22:56.000Z</time>
      </trkpt>
      <trkpt lat="46.34436" lon="6.52864">
        <ele>678.40002441406</ele>
        <time>2021-03-24T11:23:02.000Z</time>
      </trkpt>
      <trkpt lat="46.34422" lon="6.5289">
        <ele>678.20001220703</ele>
        <time>2021-03-24T11:23:09.000Z</time>
      </trkpt>
      <trkpt lat="46.34412" lon="6.5291">
        <ele>678.59997558594</ele>
        <time>2021-03-24T11:23:15.000Z</time>
      </trkpt>
      <trkpt lat="46.34409" lon="6.52916">
        <ele>678.59997558594</ele>
        <time>2021-03-24T11:23:17.000Z</time>
      </trkpt>
      <trkpt lat="46.34404" lon="6.52926">
        <ele>678.59997558594</ele>
        <time>2021-03-24T11:23:20.000Z</time>
      </trkpt>
      <trkpt lat="46.34384" lon="6.52941">
        <ele>681.40002441406</ele>
        <time>2021-03-24T11:23:28.000Z</time>
      </trkpt>
      <trkpt lat="46.3436" lon="6.52956">
        <ele>682.40002441406</ele>
        <time>2021-03-24T11:23:38.000Z</time>
      </trkpt>
      <trkpt lat="46.34339" lon="6.52969">
        <ele>685.79998779297</ele>
        <time>2021-03-24T11:23:47.000Z</time>
      </trkpt>
      <trkpt lat="46.34318" lon="6.52982">
        <ele>688.59997558594</ele>
        <time>2021-03-24T11:23:55.000Z</time>
      </trkpt>
      <trkpt lat="46.34309" lon="6.52995">
        <ele>690.20001220703</ele>
        <time>2021-03-24T11:24:00.000Z</time>
      </trkpt>
      <trkpt lat="46.34304" lon="6.53016">
        <ele>691.59997558594</ele>
        <time>2021-03-24T11:24:06.000Z</time>
      </trkpt>
      <trkpt lat="46.34302" lon="6.53043">
        <ele>694</ele>
        <time>2021-03-24T11:24:13.000Z</time>
      </trkpt>
      <trkpt lat="46.34299" lon="6.53078">
        <ele>696</ele>
        <time>2021-03-24T11:24:22.000Z</time>
      </trkpt>
      <trkpt lat="46.34298" lon="6.53106">
        <ele>697</ele>
        <time>2021-03-24T11:24:29.000Z</time>
      </trkpt>
      <trkpt lat="46.34296" lon="6.53142">
        <ele>697</ele>
        <time>2021-03-24T11:24:37.000Z</time>
      </trkpt>
      <trkpt lat="46.34295" lon="6.53181">
        <ele>697</ele>
        <time>2021-03-24T11:24:44.000Z</time>
      </trkpt>
      <trkpt lat="46.34292" lon="6.53229">
        <ele>696.20001220703</ele>
        <time>2021-03-24T11:24:52.000Z</time>
      </trkpt>
      <trkpt lat="46.34289" lon="6.53244">
        <ele>695.59997558594</ele>
        <time>2021-03-24T11:24:55.000Z</time>
      </trkpt>
      <trkpt lat="46.34281" lon="6.53257">
        <ele>695.59997558594</ele>
        <time>2021-03-24T11:24:57.000Z</time>
      </trkpt>
      <trkpt lat="46.34275" lon="6.53264">
        <ele>696.20001220703</ele>
        <time>2021-03-24T11:24:59.000Z</time>
      </trkpt>
      <trkpt lat="46.34259" lon="6.53277">
        <ele>697.59997558594</ele>
        <time>2021-03-24T11:25:03.000Z</time>
      </trkpt>
      <trkpt lat="46.34255" lon="6.5328">
        <ele>697.79998779297</ele>
        <time>2021-03-24T11:25:04.000Z</time>
      </trkpt>
      <trkpt lat="46.34246" lon="6.53287">
        <ele>698.59997558594</ele>
        <time>2021-03-24T11:25:06.000Z</time>
      </trkpt>
      <trkpt lat="46.34238" lon="6.53293">
        <ele>699</ele>
        <time>2021-03-24T11:25:08.000Z</time>
      </trkpt>
      <trkpt lat="46.34208" lon="6.53315">
        <ele>700.40002441406</ele>
        <time>2021-03-24T11:25:15.000Z</time>
      </trkpt>
      <trkpt lat="46.34186" lon="6.53331">
        <ele>698.40002441406</ele>
        <time>2021-03-24T11:25:21.000Z</time>
      </trkpt>
      <trkpt lat="46.34173" lon="6.53341">
        <ele>700.40002441406</ele>
        <time>2021-03-24T11:25:24.000Z</time>
      </trkpt>
      <trkpt lat="46.3417" lon="6.53343">
        <ele>700.79998779297</ele>
        <time>2021-03-24T11:25:25.000Z</time>
      </trkpt>
      <trkpt lat="46.34168" lon="6.53344">
        <ele>700.79998779297</ele>
        <time>2021-03-24T11:25:26.000Z</time>
      </trkpt>
      <trkpt lat="46.34161" lon="6.53354">
        <ele>700.20001220703</ele>
        <time>2021-03-24T11:25:28.000Z</time>
      </trkpt>
      <trkpt lat="46.34158" lon="6.53357">
        <ele>700.40002441406</ele>
        <time>2021-03-24T11:25:29.000Z</time>
      </trkpt>
      <trkpt lat="46.34154" lon="6.53363">
        <ele>701.40002441406</ele>
        <time>2021-03-24T11:25:30.000Z</time>
      </trkpt>
      <trkpt lat="46.3415" lon="6.5337">
        <ele>702.59997558594</ele>
        <time>2021-03-24T11:25:32.000Z</time>
      </trkpt>
      <trkpt lat="46.34147" lon="6.5338">
        <ele>702.59997558594</ele>
        <time>2021-03-24T11:25:34.000Z</time>
      </trkpt>
      <trkpt lat="46.34144" lon="6.53392">
        <ele>702.40002441406</ele>
        <time>2021-03-24T11:25:36.000Z</time>
      </trkpt>
      <trkpt lat="46.34144" lon="6.53412">
        <ele>701.40002441406</ele>
        <time>2021-03-24T11:25:38.000Z</time>
      </trkpt>
      <trkpt lat="46.34144" lon="6.5342">
        <ele>701</ele>
        <time>2021-03-24T11:25:39.000Z</time>
      </trkpt>
      <trkpt lat="46.34155" lon="6.53454">
        <ele>700.59997558594</ele>
        <time>2021-03-24T11:25:43.000Z</time>
      </trkpt>
      <trkpt lat="46.3416" lon="6.53467">
        <ele>701</ele>
        <time>2021-03-24T11:25:45.000Z</time>
      </trkpt>
      <trkpt lat="46.3417" lon="6.53495">
        <ele>702.79998779297</ele>
        <time>2021-03-24T11:25:49.000Z</time>
      </trkpt>
      <trkpt lat="46.34174" lon="6.53505">
        <ele>703.20001220703</ele>
        <time>2021-03-24T11:25:51.000Z</time>
      </trkpt>
      <trkpt lat="46.34173" lon="6.53523">
        <ele>705</ele>
        <time>2021-03-24T11:25:53.000Z</time>
      </trkpt>
      <trkpt lat="46.3417" lon="6.53541">
        <ele>706.79998779297</ele>
        <time>2021-03-24T11:25:56.000Z</time>
      </trkpt>
      <trkpt lat="46.34167" lon="6.53552">
        <ele>707.79998779297</ele>
        <time>2021-03-24T11:25:58.000Z</time>
      </trkpt>
      <trkpt lat="46.34165" lon="6.53557">
        <ele>708.40002441406</ele>
        <time>2021-03-24T11:25:59.000Z</time>
      </trkpt>
      <trkpt lat="46.34161" lon="6.53568">
        <ele>708.79998779297</ele>
        <time>2021-03-24T11:26:01.000Z</time>
      </trkpt>
      <trkpt lat="46.34157" lon="6.53577">
        <ele>709.59997558594</ele>
        <time>2021-03-24T11:26:03.000Z</time>
      </trkpt>
      <trkpt lat="46.34137" lon="6.5362">
        <ele>711.20001220703</ele>
        <time>2021-03-24T11:26:10.000Z</time>
      </trkpt>
      <trkpt lat="46.34132" lon="6.53631">
        <ele>710.40002441406</ele>
        <time>2021-03-24T11:26:12.000Z</time>
      </trkpt>
      <trkpt lat="46.34126" lon="6.5365">
        <ele>710</ele>
        <time>2021-03-24T11:26:15.000Z</time>
      </trkpt>
      <trkpt lat="46.34125" lon="6.53655">
        <ele>709.79998779297</ele>
        <time>2021-03-24T11:26:16.000Z</time>
      </trkpt>
      <trkpt lat="46.34123" lon="6.53672">
        <ele>708.20001220703</ele>
        <time>2021-03-24T11:26:18.000Z</time>
      </trkpt>
      <trkpt lat="46.34122" lon="6.5368">
        <ele>708.20001220703</ele>
        <time>2021-03-24T11:26:19.000Z</time>
      </trkpt>
      <trkpt lat="46.34122" lon="6.53729">
        <ele>706.59997558594</ele>
        <time>2021-03-24T11:26:24.000Z</time>
      </trkpt>
      <trkpt lat="46.34122" lon="6.53771">
        <ele>703.20001220703</ele>
        <time>2021-03-24T11:26:29.000Z</time>
      </trkpt>
      <trkpt lat="46.34121" lon="6.53778">
        <ele>703</ele>
        <time>2021-03-24T11:26:30.000Z</time>
      </trkpt>
      <trkpt lat="46.3412" lon="6.53786">
        <ele>702.40002441406</ele>
        <time>2021-03-24T11:26:31.000Z</time>
      </trkpt>
      <trkpt lat="46.34117" lon="6.53813">
        <ele>701</ele>
        <time>2021-03-24T11:26:35.000Z</time>
      </trkpt>
      <trkpt lat="46.34114" lon="6.53842">
        <ele>700.59997558594</ele>
        <time>2021-03-24T11:26:39.000Z</time>
      </trkpt>
      <trkpt lat="46.34114" lon="6.53846">
        <ele>700.79998779297</ele>
        <time>2021-03-24T11:26:40.000Z</time>
      </trkpt>
      <trkpt lat="46.34113" lon="6.53853">
        <ele>701</ele>
        <time>2021-03-24T11:26:41.000Z</time>
      </trkpt>
      <trkpt lat="46.34112" lon="6.53863">
        <ele>701.59997558594</ele>
        <time>2021-03-24T11:26:44.000Z</time>
      </trkpt>
      <trkpt lat="46.34112" lon="6.53863">
        <ele>701.59997558594</ele>
        <time>2021-03-24T11:26:46.000Z</time>
      </trkpt>
      <trkpt lat="46.34112" lon="6.53862">
        <ele>701.59997558594</ele>
        <time>2021-03-24T11:27:23.000Z</time>
      </trkpt>
      <trkpt lat="46.34109" lon="6.53885">
        <ele>701.79998779297</ele>
        <time>2021-03-24T11:27:25.000Z</time>
      </trkpt>
      <trkpt lat="46.34108" lon="6.53895">
        <ele>702.20001220703</ele>
        <time>2021-03-24T11:27:27.000Z</time>
      </trkpt>
      <trkpt lat="46.34107" lon="6.53905">
        <ele>703.20001220703</ele>
        <time>2021-03-24T11:27:29.000Z</time>
      </trkpt>
      <trkpt lat="46.34105" lon="6.53929">
        <ele>705.20001220703</ele>
        <time>2021-03-24T11:27:33.000Z</time>
      </trkpt>
      <trkpt lat="46.34102" lon="6.53955">
        <ele>706.79998779297</ele>
        <time>2021-03-24T11:27:37.000Z</time>
      </trkpt>
      <trkpt lat="46.34101" lon="6.53968">
        <ele>707.79998779297</ele>
        <time>2021-03-24T11:27:39.000Z</time>
      </trkpt>
      <trkpt lat="46.34101" lon="6.53993">
        <ele>706.40002441406</ele>
        <time>2021-03-24T11:27:43.000Z</time>
      </trkpt>
      <trkpt lat="46.34112" lon="6.54042">
        <ele>701.40002441406</ele>
        <time>2021-03-24T11:27:50.000Z</time>
      </trkpt>
      <trkpt lat="46.34126" lon="6.54082">
        <ele>698.79998779297</ele>
        <time>2021-03-24T11:27:56.000Z</time>
      </trkpt>
      <trkpt lat="46.34128" lon="6.54088">
        <ele>698.59997558594</ele>
        <time>2021-03-24T11:27:57.000Z</time>
      </trkpt>
      <trkpt lat="46.34136" lon="6.54114">
        <ele>698.20001220703</ele>
        <time>2021-03-24T11:28:01.000Z</time>
      </trkpt>
      <trkpt lat="46.34136" lon="6.54114">
        <ele>698.20001220703</ele>
        <time>2021-03-24T11:28:02.000Z</time>
      </trkpt>
      <trkpt lat="46.34132" lon="6.5413">
        <ele>699.79998779297</ele>
        <time>2021-03-24T11:28:03.000Z</time>
      </trkpt>
      <trkpt lat="46.34128" lon="6.54142">
        <ele>700.59997558594</ele>
        <time>2021-03-24T11:28:05.000Z</time>
      </trkpt>
      <trkpt lat="46.34117" lon="6.54179">
        <ele>701.59997558594</ele>
        <time>2021-03-24T11:28:10.000Z</time>
      </trkpt>
      <trkpt lat="46.34115" lon="6.54186">
        <ele>702</ele>
        <time>2021-03-24T11:28:11.000Z</time>
      </trkpt>
      <trkpt lat="46.34109" lon="6.54208">
        <ele>702</ele>
        <time>2021-03-24T11:28:14.000Z</time>
      </trkpt>
      <trkpt lat="46.34104" lon="6.54225">
        <ele>702.59997558594</ele>
        <time>2021-03-24T11:28:16.000Z</time>
      </trkpt>
      <trkpt lat="46.34097" lon="6.54248">
        <ele>705</ele>
        <time>2021-03-24T11:28:19.000Z</time>
      </trkpt>
      <trkpt lat="46.3409" lon="6.54273">
        <ele>704.59997558594</ele>
        <time>2021-03-24T11:28:22.000Z</time>
      </trkpt>
      <trkpt lat="46.34083" lon="6.54295">
        <ele>702.59997558594</ele>
        <time>2021-03-24T11:28:25.000Z</time>
      </trkpt>
      <trkpt lat="46.34075" lon="6.54321">
        <ele>701.59997558594</ele>
        <time>2021-03-24T11:28:29.000Z</time>
      </trkpt>
      <trkpt lat="46.34072" lon="6.54329">
        <ele>702.20001220703</ele>
        <time>2021-03-24T11:28:30.000Z</time>
      </trkpt>
      <trkpt lat="46.34065" lon="6.5435">
        <ele>705.79998779297</ele>
        <time>2021-03-24T11:28:33.000Z</time>
      </trkpt>
      <trkpt lat="46.34059" lon="6.54369">
        <ele>706.40002441406</ele>
        <time>2021-03-24T11:28:36.000Z</time>
      </trkpt>
      <trkpt lat="46.34054" lon="6.54383">
        <ele>704.79998779297</ele>
        <time>2021-03-24T11:28:38.000Z</time>
      </trkpt>
      <trkpt lat="46.34046" lon="6.54406">
        <ele>703.59997558594</ele>
        <time>2021-03-24T11:28:41.000Z</time>
      </trkpt>
      <trkpt lat="46.34032" lon="6.54449">
        <ele>702.20001220703</ele>
        <time>2021-03-24T11:28:47.000Z</time>
      </trkpt>
      <trkpt lat="46.3403" lon="6.54456">
        <ele>702</ele>
        <time>2021-03-24T11:28:48.000Z</time>
      </trkpt>
      <trkpt lat="46.3402" lon="6.54484">
        <ele>703</ele>
        <time>2021-03-24T11:28:52.000Z</time>
      </trkpt>
      <trkpt lat="46.34013" lon="6.54506">
        <ele>705.79998779297</ele>
        <time>2021-03-24T11:28:55.000Z</time>
      </trkpt>
      <trkpt lat="46.34008" lon="6.54521">
        <ele>705.79998779297</ele>
        <time>2021-03-24T11:28:57.000Z</time>
      </trkpt>
      <trkpt lat="46.34004" lon="6.54534">
        <ele>704</ele>
        <time>2021-03-24T11:28:59.000Z</time>
      </trkpt>
      <trkpt lat="46.33999" lon="6.54551">
        <ele>702.20001220703</ele>
        <time>2021-03-24T11:29:01.000Z</time>
      </trkpt>
      <trkpt lat="46.33993" lon="6.54559">
        <ele>702.40002441406</ele>
        <time>2021-03-24T11:29:02.000Z</time>
      </trkpt>
      <trkpt lat="46.33974" lon="6.54582">
        <ele>702</ele>
        <time>2021-03-24T11:29:06.000Z</time>
      </trkpt>
      <trkpt lat="46.3396" lon="6.54598">
        <ele>702.40002441406</ele>
        <time>2021-03-24T11:29:09.000Z</time>
      </trkpt>
      <trkpt lat="46.33947" lon="6.54614">
        <ele>704.20001220703</ele>
        <time>2021-03-24T11:29:12.000Z</time>
      </trkpt>
      <trkpt lat="46.33923" lon="6.54643">
        <ele>712.59997558594</ele>
        <time>2021-03-24T11:29:18.000Z</time>
      </trkpt>
      <trkpt lat="46.3391" lon="6.5467">
        <ele>712.79998779297</ele>
        <time>2021-03-24T11:29:23.000Z</time>
      </trkpt>
      <trkpt lat="46.33909" lon="6.54675">
        <ele>712.59997558594</ele>
        <time>2021-03-24T11:29:24.000Z</time>
      </trkpt>
      <trkpt lat="46.33899" lon="6.54705">
        <ele>711.20001220703</ele>
        <time>2021-03-24T11:29:28.000Z</time>
      </trkpt>
      <trkpt lat="46.33897" lon="6.54717">
        <ele>709</ele>
        <time>2021-03-24T11:29:29.000Z</time>
      </trkpt>
      <trkpt lat="46.33896" lon="6.54728">
        <ele>707</ele>
        <time>2021-03-24T11:29:30.000Z</time>
      </trkpt>
      <trkpt lat="46.33894" lon="6.54747">
        <ele>705.79998779297</ele>
        <time>2021-03-24T11:29:32.000Z</time>
      </trkpt>
      <trkpt lat="46.33893" lon="6.54758">
        <ele>705.59997558594</ele>
        <time>2021-03-24T11:29:33.000Z</time>
      </trkpt>
      <trkpt lat="46.33892" lon="6.5477">
        <ele>705.59997558594</ele>
        <time>2021-03-24T11:29:34.000Z</time>
      </trkpt>
      <trkpt lat="46.33893" lon="6.54812">
        <ele>706</ele>
        <time>2021-03-24T11:29:38.000Z</time>
      </trkpt>
      <trkpt lat="46.33909" lon="6.54893">
        <ele>703.40002441406</ele>
        <time>2021-03-24T11:29:46.000Z</time>
      </trkpt>
      <trkpt lat="46.33915" lon="6.54936">
        <ele>696.20001220703</ele>
        <time>2021-03-24T11:29:52.000Z</time>
      </trkpt>
      <trkpt lat="46.33915" lon="6.54944">
        <ele>695</ele>
        <time>2021-03-24T11:29:53.000Z</time>
      </trkpt>
      <trkpt lat="46.33915" lon="6.54946">
        <ele>694.59997558594</ele>
        <time>2021-03-24T11:29:54.000Z</time>
      </trkpt>
      <trkpt lat="46.33909" lon="6.54958">
        <ele>694.20001220703</ele>
        <time>2021-03-24T11:29:56.000Z</time>
      </trkpt>
      <trkpt lat="46.33903" lon="6.54962">
        <ele>695.79998779297</ele>
        <time>2021-03-24T11:29:58.000Z</time>
      </trkpt>
      <trkpt lat="46.33897" lon="6.54963">
        <ele>696.79998779297</ele>
        <time>2021-03-24T11:29:59.000Z</time>
      </trkpt>
      <trkpt lat="46.33865" lon="6.5497">
        <ele>706.59997558594</ele>
        <time>2021-03-24T11:30:05.000Z</time>
      </trkpt>
      <trkpt lat="46.33854" lon="6.54975">
        <ele>710.40002441406</ele>
        <time>2021-03-24T11:30:07.000Z</time>
      </trkpt>
      <trkpt lat="46.3384" lon="6.54985">
        <ele>715.20001220703</ele>
        <time>2021-03-24T11:30:10.000Z</time>
      </trkpt>
      <trkpt lat="46.3382" lon="6.55002">
        <ele>716</ele>
        <time>2021-03-24T11:30:14.000Z</time>
      </trkpt>
      <trkpt lat="46.33813" lon="6.55013">
        <ele>714.79998779297</ele>
        <time>2021-03-24T11:30:16.000Z</time>
      </trkpt>
      <trkpt lat="46.33793" lon="6.55046">
        <ele>714.79998779297</ele>
        <time>2021-03-24T11:30:22.000Z</time>
      </trkpt>
      <trkpt lat="46.3378" lon="6.55072">
        <ele>713</ele>
        <time>2021-03-24T11:30:26.000Z</time>
      </trkpt>
      <trkpt lat="46.33771" lon="6.5509">
        <ele>712.59997558594</ele>
        <time>2021-03-24T11:30:29.000Z</time>
      </trkpt>
      <trkpt lat="46.33766" lon="6.55102">
        <ele>712.40002441406</ele>
        <time>2021-03-24T11:30:31.000Z</time>
      </trkpt>
      <trkpt lat="46.33752" lon="6.55123">
        <ele>710.40002441406</ele>
        <time>2021-03-24T11:30:34.000Z</time>
      </trkpt>
      <trkpt lat="46.33734" lon="6.55144">
        <ele>711.59997558594</ele>
        <time>2021-03-24T11:30:38.000Z</time>
      </trkpt>
      <trkpt lat="46.33729" lon="6.5515">
        <ele>712</ele>
        <time>2021-03-24T11:30:39.000Z</time>
      </trkpt>
      <trkpt lat="46.33724" lon="6.55154">
        <ele>712.40002441406</ele>
        <time>2021-03-24T11:30:40.000Z</time>
      </trkpt>
      <trkpt lat="46.33715" lon="6.55169">
        <ele>712.20001220703</ele>
        <time>2021-03-24T11:30:43.000Z</time>
      </trkpt>
      <trkpt lat="46.33713" lon="6.55175">
        <ele>711.59997558594</ele>
        <time>2021-03-24T11:30:44.000Z</time>
      </trkpt>
      <trkpt lat="46.33704" lon="6.55205">
        <ele>710</ele>
        <time>2021-03-24T11:30:48.000Z</time>
      </trkpt>
      <trkpt lat="46.33702" lon="6.55211">
        <ele>710.20001220703</ele>
        <time>2021-03-24T11:30:49.000Z</time>
      </trkpt>
      <trkpt lat="46.33701" lon="6.55217">
        <ele>710</ele>
        <time>2021-03-24T11:30:50.000Z</time>
      </trkpt>
      <trkpt lat="46.3369" lon="6.55239">
        <ele>711.20001220703</ele>
        <time>2021-03-24T11:30:53.000Z</time>
      </trkpt>
      <trkpt lat="46.33675" lon="6.55258">
        <ele>718</ele>
        <time>2021-03-24T11:30:57.000Z</time>
      </trkpt>
      <trkpt lat="46.33673" lon="6.55262">
        <ele>719</ele>
        <time>2021-03-24T11:30:58.000Z</time>
      </trkpt>
      <trkpt lat="46.33669" lon="6.55266">
        <ele>720.20001220703</ele>
        <time>2021-03-24T11:30:59.000Z</time>
      </trkpt>
      <trkpt lat="46.33663" lon="6.55274">
        <ele>722</ele>
        <time>2021-03-24T11:31:01.000Z</time>
      </trkpt>
      <trkpt lat="46.3366" lon="6.55281">
        <ele>722.20001220703</ele>
        <time>2021-03-24T11:31:02.000Z</time>
      </trkpt>
      <trkpt lat="46.33657" lon="6.55297">
        <ele>720</ele>
        <time>2021-03-24T11:31:04.000Z</time>
      </trkpt>
      <trkpt lat="46.33654" lon="6.55311">
        <ele>719.20001220703</ele>
        <time>2021-03-24T11:31:06.000Z</time>
      </trkpt>
      <trkpt lat="46.33652" lon="6.5532">
        <ele>719.40002441406</ele>
        <time>2021-03-24T11:31:08.000Z</time>
      </trkpt>
      <trkpt lat="46.33649" lon="6.55334">
        <ele>721.40002441406</ele>
        <time>2021-03-24T11:31:10.000Z</time>
      </trkpt>
      <trkpt lat="46.33645" lon="6.55351">
        <ele>723.79998779297</ele>
        <time>2021-03-24T11:31:13.000Z</time>
      </trkpt>
      <trkpt lat="46.33642" lon="6.55369">
        <ele>725.40002441406</ele>
        <time>2021-03-24T11:31:15.000Z</time>
      </trkpt>
      <trkpt lat="46.33639" lon="6.55382">
        <ele>727.20001220703</ele>
        <time>2021-03-24T11:31:17.000Z</time>
      </trkpt>
      <trkpt lat="46.33638" lon="6.55391">
        <ele>728</ele>
        <time>2021-03-24T11:31:19.000Z</time>
      </trkpt>
      <trkpt lat="46.33635" lon="6.55414">
        <ele>726.79998779297</ele>
        <time>2021-03-24T11:31:22.000Z</time>
      </trkpt>
      <trkpt lat="46.33634" lon="6.55428">
        <ele>727</ele>
        <time>2021-03-24T11:31:23.000Z</time>
      </trkpt>
      <trkpt lat="46.33633" lon="6.55433">
        <ele>727.20001220703</ele>
        <time>2021-03-24T11:31:24.000Z</time>
      </trkpt>
      <trkpt lat="46.33633" lon="6.55466">
        <ele>727.20001220703</ele>
        <time>2021-03-24T11:31:27.000Z</time>
      </trkpt>
      <trkpt lat="46.33637" lon="6.55528">
        <ele>723.20001220703</ele>
        <time>2021-03-24T11:31:33.000Z</time>
      </trkpt>
      <trkpt lat="46.33642" lon="6.55549">
        <ele>723.79998779297</ele>
        <time>2021-03-24T11:31:35.000Z</time>
      </trkpt>
      <trkpt lat="46.33655" lon="6.55597">
        <ele>719.20001220703</ele>
        <time>2021-03-24T11:31:39.000Z</time>
      </trkpt>
      <trkpt lat="46.33659" lon="6.55649">
        <ele>715.59997558594</ele>
        <time>2021-03-24T11:31:44.000Z</time>
      </trkpt>
      <trkpt lat="46.3366" lon="6.55685">
        <ele>708.20001220703</ele>
        <time>2021-03-24T11:31:49.000Z</time>
      </trkpt>
      <trkpt lat="46.3366" lon="6.55689">
        <ele>707.40002441406</ele>
        <time>2021-03-24T11:31:50.000Z</time>
      </trkpt>
      <trkpt lat="46.33658" lon="6.55695">
        <ele>707.79998779297</ele>
        <time>2021-03-24T11:31:51.000Z</time>
      </trkpt>
      <trkpt lat="46.33653" lon="6.55708">
        <ele>708.40002441406</ele>
        <time>2021-03-24T11:31:53.000Z</time>
      </trkpt>
      <trkpt lat="46.33637" lon="6.55732">
        <ele>712</ele>
        <time>2021-03-24T11:31:57.000Z</time>
      </trkpt>
      <trkpt lat="46.33633" lon="6.55738">
        <ele>713</ele>
        <time>2021-03-24T11:31:58.000Z</time>
      </trkpt>
      <trkpt lat="46.3362" lon="6.55758">
        <ele>721.20001220703</ele>
        <time>2021-03-24T11:32:01.000Z</time>
      </trkpt>
      <trkpt lat="46.33616" lon="6.55764">
        <ele>723.79998779297</ele>
        <time>2021-03-24T11:32:02.000Z</time>
      </trkpt>
      <trkpt lat="46.33612" lon="6.5577">
        <ele>726.20001220703</ele>
        <time>2021-03-24T11:32:03.000Z</time>
      </trkpt>
      <trkpt lat="46.3361" lon="6.55789">
        <ele>723.40002441406</ele>
        <time>2021-03-24T11:32:05.000Z</time>
      </trkpt>
      <trkpt lat="46.33607" lon="6.55827">
        <ele>713</ele>
        <time>2021-03-24T11:32:09.000Z</time>
      </trkpt>
      <trkpt lat="46.33606" lon="6.5585">
        <ele>708.20001220703</ele>
        <time>2021-03-24T11:32:11.000Z</time>
      </trkpt>
      <trkpt lat="46.33601" lon="6.55882">
        <ele>708.20001220703</ele>
        <time>2021-03-24T11:32:14.000Z</time>
      </trkpt>
      <trkpt lat="46.33592" lon="6.5593">
        <ele>706</ele>
        <time>2021-03-24T11:32:19.000Z</time>
      </trkpt>
      <trkpt lat="46.3359" lon="6.55938">
        <ele>706</ele>
        <time>2021-03-24T11:32:20.000Z</time>
      </trkpt>
      <trkpt lat="46.33581" lon="6.55962">
        <ele>706.79998779297</ele>
        <time>2021-03-24T11:32:23.000Z</time>
      </trkpt>
      <trkpt lat="46.33562" lon="6.56015">
        <ele>710.20001220703</ele>
        <time>2021-03-24T11:32:29.000Z</time>
      </trkpt>
      <trkpt lat="46.33552" lon="6.56064">
        <ele>709</ele>
        <time>2021-03-24T11:32:35.000Z</time>
      </trkpt>
      <trkpt lat="46.3355" lon="6.56074">
        <ele>709.40002441406</ele>
        <time>2021-03-24T11:32:36.000Z</time>
      </trkpt>
      <trkpt lat="46.33546" lon="6.56092">
        <ele>710.59997558594</ele>
        <time>2021-03-24T11:32:38.000Z</time>
      </trkpt>
      <trkpt lat="46.33541" lon="6.56105">
        <ele>712.40002441406</ele>
        <time>2021-03-24T11:32:40.000Z</time>
      </trkpt>
      <trkpt lat="46.33537" lon="6.56117">
        <ele>711</ele>
        <time>2021-03-24T11:32:42.000Z</time>
      </trkpt>
      <trkpt lat="46.33529" lon="6.56139">
        <ele>710</ele>
        <time>2021-03-24T11:32:45.000Z</time>
      </trkpt>
      <trkpt lat="46.33525" lon="6.5615">
        <ele>710</ele>
        <time>2021-03-24T11:32:47.000Z</time>
      </trkpt>
      <trkpt lat="46.33515" lon="6.56179">
        <ele>710.59997558594</ele>
        <time>2021-03-24T11:32:51.000Z</time>
      </trkpt>
      <trkpt lat="46.33513" lon="6.56186">
        <ele>710.20001220703</ele>
        <time>2021-03-24T11:32:52.000Z</time>
      </trkpt>
      <trkpt lat="46.33503" lon="6.56215">
        <ele>711</ele>
        <time>2021-03-24T11:32:56.000Z</time>
      </trkpt>
      <trkpt lat="46.33492" lon="6.56252">
        <ele>711.20001220703</ele>
        <time>2021-03-24T11:33:01.000Z</time>
      </trkpt>
      <trkpt lat="46.3349" lon="6.56258">
        <ele>711</ele>
        <time>2021-03-24T11:33:02.000Z</time>
      </trkpt>
      <trkpt lat="46.33479" lon="6.56309">
        <ele>710</ele>
        <time>2021-03-24T11:33:08.000Z</time>
      </trkpt>
      <trkpt lat="46.33477" lon="6.56317">
        <ele>710</ele>
        <time>2021-03-24T11:33:10.000Z</time>
      </trkpt>
      <trkpt lat="46.3347" lon="6.56328">
        <ele>714.20001220703</ele>
        <time>2021-03-24T11:33:12.000Z</time>
      </trkpt>
      <trkpt lat="46.33464" lon="6.56336">
        <ele>716.59997558594</ele>
        <time>2021-03-24T11:33:14.000Z</time>
      </trkpt>
      <trkpt lat="46.33457" lon="6.56345">
        <ele>718</ele>
        <time>2021-03-24T11:33:16.000Z</time>
      </trkpt>
      <trkpt lat="46.33446" lon="6.56361">
        <ele>719.40002441406</ele>
        <time>2021-03-24T11:33:21.000Z</time>
      </trkpt>
      <trkpt lat="46.33437" lon="6.56373">
        <ele>720.40002441406</ele>
        <time>2021-03-24T11:33:26.000Z</time>
      </trkpt>
      <trkpt lat="46.33423" lon="6.56392">
        <ele>719.79998779297</ele>
        <time>2021-03-24T11:33:33.000Z</time>
      </trkpt>
      <trkpt lat="46.33422" lon="6.56394">
        <ele>719.79998779297</ele>
        <time>2021-03-24T11:33:34.000Z</time>
      </trkpt>
      <trkpt lat="46.33417" lon="6.56401">
        <ele>719.79998779297</ele>
        <time>2021-03-24T11:33:37.000Z</time>
      </trkpt>
      <trkpt lat="46.33404" lon="6.56421">
        <ele>721</ele>
        <time>2021-03-24T11:33:45.000Z</time>
      </trkpt>
      <trkpt lat="46.3339" lon="6.56446">
        <ele>720.40002441406</ele>
        <time>2021-03-24T11:33:52.000Z</time>
      </trkpt>
      <trkpt lat="46.33373" lon="6.56461">
        <ele>721.40002441406</ele>
        <time>2021-03-24T11:33:58.000Z</time>
      </trkpt>
      <trkpt lat="46.33356" lon="6.56476">
        <ele>720.59997558594</ele>
        <time>2021-03-24T11:34:05.000Z</time>
      </trkpt>
      <trkpt lat="46.33343" lon="6.56493">
        <ele>718</ele>
        <time>2021-03-24T11:34:11.000Z</time>
      </trkpt>
      <trkpt lat="46.33329" lon="6.56511">
        <ele>716</ele>
        <time>2021-03-24T11:34:18.000Z</time>
      </trkpt>
      <trkpt lat="46.33314" lon="6.56532">
        <ele>717.20001220703</ele>
        <time>2021-03-24T11:34:24.000Z</time>
      </trkpt>
      <trkpt lat="46.33303" lon="6.56546">
        <ele>717.40002441406</ele>
        <time>2021-03-24T11:34:29.000Z</time>
      </trkpt>
      <trkpt lat="46.3329" lon="6.56559">
        <ele>718.59997558594</ele>
        <time>2021-03-24T11:34:35.000Z</time>
      </trkpt>
      <trkpt lat="46.33271" lon="6.56579">
        <ele>721.79998779297</ele>
        <time>2021-03-24T11:34:43.000Z</time>
      </trkpt>
      <trkpt lat="46.33257" lon="6.56591">
        <ele>724.59997558594</ele>
        <time>2021-03-24T11:34:50.000Z</time>
      </trkpt>
      <trkpt lat="46.33241" lon="6.56597">
        <ele>727.20001220703</ele>
        <time>2021-03-24T11:34:57.000Z</time>
      </trkpt>
      <trkpt lat="46.33223" lon="6.56596">
        <ele>729.79998779297</ele>
        <time>2021-03-24T11:35:06.000Z</time>
      </trkpt>
      <trkpt lat="46.33196" lon="6.5659">
        <ele>732.40002441406</ele>
        <time>2021-03-24T11:35:15.000Z</time>
      </trkpt>
      <trkpt lat="46.33173" lon="6.56577">
        <ele>735.59997558594</ele>
        <time>2021-03-24T11:35:23.000Z</time>
      </trkpt>
      <trkpt lat="46.33162" lon="6.5657">
        <ele>737.20001220703</ele>
        <time>2021-03-24T11:35:28.000Z</time>
      </trkpt>
      <trkpt lat="46.33146" lon="6.56563">
        <ele>739.20001220703</ele>
        <time>2021-03-24T11:35:33.000Z</time>
      </trkpt>
      <trkpt lat="46.33127" lon="6.5656">
        <ele>739</ele>
        <time>2021-03-24T11:35:40.000Z</time>
      </trkpt>
      <trkpt lat="46.33105" lon="6.56557">
        <ele>738.40002441406</ele>
        <time>2021-03-24T11:35:48.000Z</time>
      </trkpt>
      <trkpt lat="46.33084" lon="6.56544">
        <ele>746.20001220703</ele>
        <time>2021-03-24T11:35:56.000Z</time>
      </trkpt>
      <trkpt lat="46.33063" lon="6.56531">
        <ele>751.59997558594</ele>
        <time>2021-03-24T11:36:04.000Z</time>
      </trkpt>
      <trkpt lat="46.33047" lon="6.5652">
        <ele>755</ele>
        <time>2021-03-24T11:36:10.000Z</time>
      </trkpt>
      <trkpt lat="46.33033" lon="6.56515">
        <ele>755.79998779297</ele>
        <time>2021-03-24T11:36:16.000Z</time>
      </trkpt>
      <trkpt lat="46.33018" lon="6.5651">
        <ele>756.40002441406</ele>
        <time>2021-03-24T11:36:21.000Z</time>
      </trkpt>
      <trkpt lat="46.33004" lon="6.56505">
        <ele>756.20001220703</ele>
        <time>2021-03-24T11:36:26.000Z</time>
      </trkpt>
      <trkpt lat="46.32987" lon="6.56499">
        <ele>757.59997558594</ele>
        <time>2021-03-24T11:36:33.000Z</time>
      </trkpt>
      <trkpt lat="46.32968" lon="6.56492">
        <ele>761</ele>
        <time>2021-03-24T11:36:40.000Z</time>
      </trkpt>
      <trkpt lat="46.32947" lon="6.56485">
        <ele>758.59997558594</ele>
        <time>2021-03-24T11:36:48.000Z</time>
      </trkpt>
      <trkpt lat="46.32926" lon="6.56477">
        <ele>756.20001220703</ele>
        <time>2021-03-24T11:36:56.000Z</time>
      </trkpt>
      <trkpt lat="46.32899" lon="6.56465">
        <ele>754.20001220703</ele>
        <time>2021-03-24T11:37:05.000Z</time>
      </trkpt>
      <trkpt lat="46.32883" lon="6.56456">
        <ele>754.20001220703</ele>
        <time>2021-03-24T11:37:11.000Z</time>
      </trkpt>
      <trkpt lat="46.32869" lon="6.56448">
        <ele>755.40002441406</ele>
        <time>2021-03-24T11:37:17.000Z</time>
      </trkpt>
      <trkpt lat="46.32847" lon="6.56435">
        <ele>756.40002441406</ele>
        <time>2021-03-24T11:37:26.000Z</time>
      </trkpt>
      <trkpt lat="46.32831" lon="6.56426">
        <ele>757</ele>
        <time>2021-03-24T11:37:33.000Z</time>
      </trkpt>
      <trkpt lat="46.32814" lon="6.56415">
        <ele>757</ele>
        <time>2021-03-24T11:37:41.000Z</time>
      </trkpt>
      <trkpt lat="46.32799" lon="6.56407">
        <ele>756.79998779297</ele>
        <time>2021-03-24T11:37:48.000Z</time>
      </trkpt>
      <trkpt lat="46.32784" lon="6.56404">
        <ele>756.20001220703</ele>
        <time>2021-03-24T11:37:54.000Z</time>
      </trkpt>
      <trkpt lat="46.32763" lon="6.564">
        <ele>757</ele>
        <time>2021-03-24T11:38:02.000Z</time>
      </trkpt>
      <trkpt lat="46.32738" lon="6.56397">
        <ele>757.79998779297</ele>
        <time>2021-03-24T11:38:12.000Z</time>
      </trkpt>
      <trkpt lat="46.3272" lon="6.56394">
        <ele>757.59997558594</ele>
        <time>2021-03-24T11:38:19.000Z</time>
      </trkpt>
      <trkpt lat="46.32702" lon="6.56392">
        <ele>759.59997558594</ele>
        <time>2021-03-24T11:38:26.000Z</time>
      </trkpt>
      <trkpt lat="46.32682" lon="6.56389">
        <ele>762</ele>
        <time>2021-03-24T11:38:34.000Z</time>
      </trkpt>
      <trkpt lat="46.32655" lon="6.56387">
        <ele>764.59997558594</ele>
        <time>2021-03-24T11:38:44.000Z</time>
      </trkpt>
      <trkpt lat="46.32635" lon="6.5639">
        <ele>764</ele>
        <time>2021-03-24T11:38:52.000Z</time>
      </trkpt>
      <trkpt lat="46.32616" lon="6.56393">
        <ele>765</ele>
        <time>2021-03-24T11:38:59.000Z</time>
      </trkpt>
      <trkpt lat="46.32591" lon="6.56404">
        <ele>767.79998779297</ele>
        <time>2021-03-24T11:39:09.000Z</time>
      </trkpt>
      <trkpt lat="46.32574" lon="6.56413">
        <ele>768.40002441406</ele>
        <time>2021-03-24T11:39:16.000Z</time>
      </trkpt>
      <trkpt lat="46.32551" lon="6.56428">
        <ele>768.20001220703</ele>
        <time>2021-03-24T11:39:25.000Z</time>
      </trkpt>
      <trkpt lat="46.32527" lon="6.5645">
        <ele>766</ele>
        <time>2021-03-24T11:39:36.000Z</time>
      </trkpt>
      <trkpt lat="46.32513" lon="6.56462">
        <ele>766.59997558594</ele>
        <time>2021-03-24T11:39:42.000Z</time>
      </trkpt>
      <trkpt lat="46.32498" lon="6.56475">
        <ele>768.20001220703</ele>
        <time>2021-03-24T11:39:49.000Z</time>
      </trkpt>
      <trkpt lat="46.32485" lon="6.56486">
        <ele>770.20001220703</ele>
        <time>2021-03-24T11:39:55.000Z</time>
      </trkpt>
      <trkpt lat="46.32482" lon="6.56489">
        <ele>770.79998779297</ele>
        <time>2021-03-24T11:39:58.000Z</time>
      </trkpt>
      <trkpt lat="46.32477" lon="6.56492">
        <ele>772.20001220703</ele>
        <time>2021-03-24T11:40:00.000Z</time>
      </trkpt>
      <trkpt lat="46.32469" lon="6.56498">
        <ele>774.40002441406</ele>
        <time>2021-03-24T11:40:06.000Z</time>
      </trkpt>
      <trkpt lat="46.32463" lon="6.56502">
        <ele>775.40002441406</ele>
        <time>2021-03-24T11:40:10.000Z</time>
      </trkpt>
      <trkpt lat="46.32461" lon="6.56503">
        <ele>775.40002441406</ele>
        <time>2021-03-24T11:40:11.000Z</time>
      </trkpt>
      <trkpt lat="46.32456" lon="6.56506">
        <ele>775.59997558594</ele>
        <time>2021-03-24T11:40:15.000Z</time>
      </trkpt>
      <trkpt lat="46.32453" lon="6.56508">
        <ele>775.59997558594</ele>
        <time>2021-03-24T11:40:17.000Z</time>
      </trkpt>
      <trkpt lat="46.3245" lon="6.56493">
        <ele>777.20001220703</ele>
        <time>2021-03-24T11:40:21.000Z</time>
      </trkpt>
      <trkpt lat="46.3245" lon="6.56492">
        <ele>777.20001220703</ele>
        <time>2021-03-24T11:40:24.000Z</time>
      </trkpt>
      <trkpt lat="46.32447" lon="6.56493">
        <ele>777.40002441406</ele>
        <time>2021-03-24T11:40:25.000Z</time>
      </trkpt>
      <trkpt lat="46.32446" lon="6.56504">
        <ele>776.40002441406</ele>
        <time>2021-03-24T11:40:31.000Z</time>
      </trkpt>
      <trkpt lat="46.32434" lon="6.56515">
        <ele>776.59997558594</ele>
        <time>2021-03-24T11:40:36.000Z</time>
      </trkpt>
      <trkpt lat="46.32418" lon="6.56513">
        <ele>776.20001220703</ele>
        <time>2021-03-24T11:40:41.000Z</time>
      </trkpt>
      <trkpt lat="46.32402" lon="6.56504">
        <ele>776.79998779297</ele>
        <time>2021-03-24T11:40:47.000Z</time>
      </trkpt>
      <trkpt lat="46.3239" lon="6.56497">
        <ele>777.59997558594</ele>
        <time>2021-03-24T11:40:52.000Z</time>
      </trkpt>
      <trkpt lat="46.32365" lon="6.56478">
        <ele>779.59997558594</ele>
        <time>2021-03-24T11:41:00.000Z</time>
      </trkpt>
      <trkpt lat="46.32343" lon="6.56457">
        <ele>781</ele>
        <time>2021-03-24T11:41:09.000Z</time>
      </trkpt>
      <trkpt lat="46.32326" lon="6.5644">
        <ele>783</ele>
        <time>2021-03-24T11:41:16.000Z</time>
      </trkpt>
      <trkpt lat="46.32308" lon="6.56421">
        <ele>789</ele>
        <time>2021-03-24T11:41:24.000Z</time>
      </trkpt>
      <trkpt lat="46.3229" lon="6.56404">
        <ele>795</ele>
        <time>2021-03-24T11:41:31.000Z</time>
      </trkpt>
      <trkpt lat="46.3227" lon="6.56384">
        <ele>801.59997558594</ele>
        <time>2021-03-24T11:41:39.000Z</time>
      </trkpt>
      <trkpt lat="46.32254" lon="6.56376">
        <ele>803.79998779297</ele>
        <time>2021-03-24T11:41:45.000Z</time>
      </trkpt>
      <trkpt lat="46.32233" lon="6.56369">
        <ele>805.20001220703</ele>
        <time>2021-03-24T11:41:51.000Z</time>
      </trkpt>
      <trkpt lat="46.32206" lon="6.5636">
        <ele>806.20001220703</ele>
        <time>2021-03-24T11:41:58.000Z</time>
      </trkpt>
      <trkpt lat="46.32178" lon="6.56351">
        <ele>805.59997558594</ele>
        <time>2021-03-24T11:42:05.000Z</time>
      </trkpt>
      <trkpt lat="46.32164" lon="6.56347">
        <ele>805</ele>
        <time>2021-03-24T11:42:09.000Z</time>
      </trkpt>
      <trkpt lat="46.32151" lon="6.56343">
        <ele>804.20001220703</ele>
        <time>2021-03-24T11:42:12.000Z</time>
      </trkpt>
      <trkpt lat="46.32125" lon="6.56334">
        <ele>802.59997558594</ele>
        <time>2021-03-24T11:42:18.000Z</time>
      </trkpt>
      <trkpt lat="46.3212" lon="6.56332">
        <ele>802.40002441406</ele>
        <time>2021-03-24T11:42:19.000Z</time>
      </trkpt>
      <trkpt lat="46.32089" lon="6.56322">
        <ele>802.79998779297</ele>
        <time>2021-03-24T11:42:26.000Z</time>
      </trkpt>
      <trkpt lat="46.32061" lon="6.56313">
        <ele>804.40002441406</ele>
        <time>2021-03-24T11:42:32.000Z</time>
      </trkpt>
      <trkpt lat="46.32053" lon="6.56307">
        <ele>806.20001220703</ele>
        <time>2021-03-24T11:42:34.000Z</time>
      </trkpt>
      <trkpt lat="46.32044" lon="6.56302">
        <ele>806.59997558594</ele>
        <time>2021-03-24T11:42:36.000Z</time>
      </trkpt>
      <trkpt lat="46.3204" lon="6.563">
        <ele>806.79998779297</ele>
        <time>2021-03-24T11:42:37.000Z</time>
      </trkpt>
      <trkpt lat="46.32015" lon="6.56272">
        <ele>811.59997558594</ele>
        <time>2021-03-24T11:42:44.000Z</time>
      </trkpt>
      <trkpt lat="46.32001" lon="6.56253">
        <ele>813.20001220703</ele>
        <time>2021-03-24T11:42:49.000Z</time>
      </trkpt>
      <trkpt lat="46.31996" lon="6.56248">
        <ele>813.40002441406</ele>
        <time>2021-03-24T11:42:50.000Z</time>
      </trkpt>
      <trkpt lat="46.31991" lon="6.5624">
        <ele>813</ele>
        <time>2021-03-24T11:42:52.000Z</time>
      </trkpt>
      <trkpt lat="46.31987" lon="6.56235">
        <ele>812.59997558594</ele>
        <time>2021-03-24T11:42:53.000Z</time>
      </trkpt>
      <trkpt lat="46.31983" lon="6.56231">
        <ele>812.20001220703</ele>
        <time>2021-03-24T11:42:54.000Z</time>
      </trkpt>
      <trkpt lat="46.3197" lon="6.56214">
        <ele>811.59997558594</ele>
        <time>2021-03-24T11:42:58.000Z</time>
      </trkpt>
      <trkpt lat="46.3195" lon="6.56187">
        <ele>811.59997558594</ele>
        <time>2021-03-24T11:43:04.000Z</time>
      </trkpt>
      <trkpt lat="46.31925" lon="6.56155">
        <ele>810.59997558594</ele>
        <time>2021-03-24T11:43:11.000Z</time>
      </trkpt>
      <trkpt lat="46.31911" lon="6.56136">
        <ele>811.20001220703</ele>
        <time>2021-03-24T11:43:15.000Z</time>
      </trkpt>
      <trkpt lat="46.31901" lon="6.56124">
        <ele>811</ele>
        <time>2021-03-24T11:43:17.000Z</time>
      </trkpt>
      <trkpt lat="46.31876" lon="6.56091">
        <ele>812</ele>
        <time>2021-03-24T11:43:24.000Z</time>
      </trkpt>
      <trkpt lat="46.31858" lon="6.56068">
        <ele>815.79998779297</ele>
        <time>2021-03-24T11:43:29.000Z</time>
      </trkpt>
      <trkpt lat="46.31846" lon="6.56059">
        <ele>815.79998779297</ele>
        <time>2021-03-24T11:43:32.000Z</time>
      </trkpt>
      <trkpt lat="46.31837" lon="6.56053">
        <ele>815.59997558594</ele>
        <time>2021-03-24T11:43:34.000Z</time>
      </trkpt>
      <trkpt lat="46.31803" lon="6.56028">
        <ele>815.59997558594</ele>
        <time>2021-03-24T11:43:42.000Z</time>
      </trkpt>
      <trkpt lat="46.31779" lon="6.56011">
        <ele>816.20001220703</ele>
        <time>2021-03-24T11:43:47.000Z</time>
      </trkpt>
      <trkpt lat="46.31768" lon="6.56003">
        <ele>815.79998779297</ele>
        <time>2021-03-24T11:43:49.000Z</time>
      </trkpt>
      <trkpt lat="46.31759" lon="6.55997">
        <ele>814.79998779297</ele>
        <time>2021-03-24T11:43:51.000Z</time>
      </trkpt>
      <trkpt lat="46.31748" lon="6.55989">
        <ele>813.59997558594</ele>
        <time>2021-03-24T11:43:53.000Z</time>
      </trkpt>
      <trkpt lat="46.31721" lon="6.55962">
        <ele>812</ele>
        <time>2021-03-24T11:44:00.000Z</time>
      </trkpt>
      <trkpt lat="46.31694" lon="6.55926">
        <ele>812.40002441406</ele>
        <time>2021-03-24T11:44:08.000Z</time>
      </trkpt>
      <trkpt lat="46.3168" lon="6.55907">
        <ele>811.79998779297</ele>
        <time>2021-03-24T11:44:12.000Z</time>
      </trkpt>
      <trkpt lat="46.31676" lon="6.55903">
        <ele>811.59997558594</ele>
        <time>2021-03-24T11:44:13.000Z</time>
      </trkpt>
      <trkpt lat="46.31651" lon="6.55865">
        <ele>809.79998779297</ele>
        <time>2021-03-24T11:44:20.000Z</time>
      </trkpt>
      <trkpt lat="46.31635" lon="6.55838">
        <ele>806</ele>
        <time>2021-03-24T11:44:25.000Z</time>
      </trkpt>
      <trkpt lat="46.31619" lon="6.55809">
        <ele>805.40002441406</ele>
        <time>2021-03-24T11:44:30.000Z</time>
      </trkpt>
      <trkpt lat="46.31614" lon="6.55798">
        <ele>806.59997558594</ele>
        <time>2021-03-24T11:44:32.000Z</time>
      </trkpt>
      <trkpt lat="46.31598" lon="6.55762">
        <ele>808.79998779297</ele>
        <time>2021-03-24T11:44:38.000Z</time>
      </trkpt>
      <trkpt lat="46.31587" lon="6.55737">
        <ele>808.79998779297</ele>
        <time>2021-03-24T11:44:42.000Z</time>
      </trkpt>
      <trkpt lat="46.31585" lon="6.55733">
        <ele>808.79998779297</ele>
        <time>2021-03-24T11:44:43.000Z</time>
      </trkpt>
      <trkpt lat="46.3157" lon="6.55706">
        <ele>806.40002441406</ele>
        <time>2021-03-24T11:44:48.000Z</time>
      </trkpt>
      <trkpt lat="46.31542" lon="6.55662">
        <ele>804</ele>
        <time>2021-03-24T11:44:56.000Z</time>
      </trkpt>
      <trkpt lat="46.31525" lon="6.55635">
        <ele>804.79998779297</ele>
        <time>2021-03-24T11:45:01.000Z</time>
      </trkpt>
      <trkpt lat="46.31514" lon="6.55619">
        <ele>805</ele>
        <time>2021-03-24T11:45:04.000Z</time>
      </trkpt>
      <trkpt lat="46.31506" lon="6.5561">
        <ele>804.59997558594</ele>
        <time>2021-03-24T11:45:06.000Z</time>
      </trkpt>
      <trkpt lat="46.31486" lon="6.55586">
        <ele>804.40002441406</ele>
        <time>2021-03-24T11:45:11.000Z</time>
      </trkpt>
      <trkpt lat="46.31461" lon="6.55556">
        <ele>809.20001220703</ele>
        <time>2021-03-24T11:45:18.000Z</time>
      </trkpt>
      <trkpt lat="46.31448" lon="6.55541">
        <ele>811</ele>
        <time>2021-03-24T11:45:21.000Z</time>
      </trkpt>
      <trkpt lat="46.31438" lon="6.55531">
        <ele>811.40002441406</ele>
        <time>2021-03-24T11:45:24.000Z</time>
      </trkpt>
      <trkpt lat="46.31411" lon="6.5551">
        <ele>806.79998779297</ele>
        <time>2021-03-24T11:45:30.000Z</time>
      </trkpt>
      <trkpt lat="46.31396" lon="6.55498">
        <ele>806.59997558594</ele>
        <time>2021-03-24T11:45:33.000Z</time>
      </trkpt>
      <trkpt lat="46.31382" lon="6.55484">
        <ele>809</ele>
        <time>2021-03-24T11:45:36.000Z</time>
      </trkpt>
      <trkpt lat="46.31359" lon="6.55451">
        <ele>814.40002441406</ele>
        <time>2021-03-24T11:45:42.000Z</time>
      </trkpt>
      <trkpt lat="46.31335" lon="6.55422">
        <ele>810.79998779297</ele>
        <time>2021-03-24T11:45:48.000Z</time>
      </trkpt>
      <trkpt lat="46.31305" lon="6.55389">
        <ele>803</ele>
        <time>2021-03-24T11:45:55.000Z</time>
      </trkpt>
      <trkpt lat="46.3128" lon="6.55349">
        <ele>805.40002441406</ele>
        <time>2021-03-24T11:46:02.000Z</time>
      </trkpt>
      <trkpt lat="46.31251" lon="6.55295">
        <ele>809.59997558594</ele>
        <time>2021-03-24T11:46:11.000Z</time>
      </trkpt>
      <trkpt lat="46.31234" lon="6.55263">
        <ele>810.20001220703</ele>
        <time>2021-03-24T11:46:17.000Z</time>
      </trkpt>
      <trkpt lat="46.31215" lon="6.55238">
        <ele>809.59997558594</ele>
        <time>2021-03-24T11:46:22.000Z</time>
      </trkpt>
      <trkpt lat="46.31188" lon="6.55212">
        <ele>808.79998779297</ele>
        <time>2021-03-24T11:46:28.000Z</time>
      </trkpt>
      <trkpt lat="46.3115" lon="6.55176">
        <ele>807</ele>
        <time>2021-03-24T11:46:36.000Z</time>
      </trkpt>
      <trkpt lat="46.31114" lon="6.55141">
        <ele>807.20001220703</ele>
        <time>2021-03-24T11:46:44.000Z</time>
      </trkpt>
      <trkpt lat="46.31094" lon="6.55122">
        <ele>807</ele>
        <time>2021-03-24T11:46:48.000Z</time>
      </trkpt>
      <trkpt lat="46.31081" lon="6.55109">
        <ele>807</ele>
        <time>2021-03-24T11:46:51.000Z</time>
      </trkpt>
      <trkpt lat="46.31053" lon="6.55062">
        <ele>804.59997558594</ele>
        <time>2021-03-24T11:46:58.000Z</time>
      </trkpt>
      <trkpt lat="46.31045" lon="6.55032">
        <ele>804.59997558594</ele>
        <time>2021-03-24T11:47:02.000Z</time>
      </trkpt>
      <trkpt lat="46.31041" lon="6.55013">
        <ele>804.59997558594</ele>
        <time>2021-03-24T11:47:04.000Z</time>
      </trkpt>
      <trkpt lat="46.31032" lon="6.54964">
        <ele>804.20001220703</ele>
        <time>2021-03-24T11:47:10.000Z</time>
      </trkpt>
      <trkpt lat="46.31021" lon="6.5491">
        <ele>806.59997558594</ele>
        <time>2021-03-24T11:47:16.000Z</time>
      </trkpt>
      <trkpt lat="46.31011" lon="6.54884">
        <ele>807.79998779297</ele>
        <time>2021-03-24T11:47:19.000Z</time>
      </trkpt>
      <trkpt lat="46.31002" lon="6.54868">
        <ele>806.79998779297</ele>
        <time>2021-03-24T11:47:21.000Z</time>
      </trkpt>
      <trkpt lat="46.30992" lon="6.54855">
        <ele>805.59997558594</ele>
        <time>2021-03-24T11:47:23.000Z</time>
      </trkpt>
      <trkpt lat="46.30972" lon="6.54843">
        <ele>801.40002441406</ele>
        <time>2021-03-24T11:47:26.000Z</time>
      </trkpt>
      <trkpt lat="46.30931" lon="6.54819">
        <ele>801.79998779297</ele>
        <time>2021-03-24T11:47:32.000Z</time>
      </trkpt>
      <trkpt lat="46.30918" lon="6.5482">
        <ele>802.59997558594</ele>
        <time>2021-03-24T11:47:34.000Z</time>
      </trkpt>
      <trkpt lat="46.30911" lon="6.54822">
        <ele>802.20001220703</ele>
        <time>2021-03-24T11:47:35.000Z</time>
      </trkpt>
      <trkpt lat="46.30904" lon="6.54825">
        <ele>802.20001220703</ele>
        <time>2021-03-24T11:47:36.000Z</time>
      </trkpt>
      <trkpt lat="46.30895" lon="6.54837">
        <ele>799.59997558594</ele>
        <time>2021-03-24T11:47:38.000Z</time>
      </trkpt>
      <trkpt lat="46.30876" lon="6.54865">
        <ele>793.79998779297</ele>
        <time>2021-03-24T11:47:42.000Z</time>
      </trkpt>
      <trkpt lat="46.30869" lon="6.54869">
        <ele>794</ele>
        <time>2021-03-24T11:47:43.000Z</time>
      </trkpt>
      <trkpt lat="46.30864" lon="6.54872">
        <ele>794</ele>
        <time>2021-03-24T11:47:44.000Z</time>
      </trkpt>
      <trkpt lat="46.3085" lon="6.54869">
        <ele>794.79998779297</ele>
        <time>2021-03-24T11:47:46.000Z</time>
      </trkpt>
      <trkpt lat="46.30814" lon="6.54861">
        <ele>794</ele>
        <time>2021-03-24T11:47:51.000Z</time>
      </trkpt>
      <trkpt lat="46.30759" lon="6.54845">
        <ele>795</ele>
        <time>2021-03-24T11:47:59.000Z</time>
      </trkpt>
      <trkpt lat="46.30728" lon="6.54821">
        <ele>799.79998779297</ele>
        <time>2021-03-24T11:48:04.000Z</time>
      </trkpt>
      <trkpt lat="46.30686" lon="6.54779">
        <ele>801.20001220703</ele>
        <time>2021-03-24T11:48:11.000Z</time>
      </trkpt>
      <trkpt lat="46.30642" lon="6.54734">
        <ele>797.79998779297</ele>
        <time>2021-03-24T11:48:18.000Z</time>
      </trkpt>
      <trkpt lat="46.30636" lon="6.54728">
        <ele>796.79998779297</ele>
        <time>2021-03-24T11:48:19.000Z</time>
      </trkpt>
      <trkpt lat="46.30616" lon="6.54708">
        <ele>792.79998779297</ele>
        <time>2021-03-24T11:48:22.000Z</time>
      </trkpt>
      <trkpt lat="46.30605" lon="6.54689">
        <ele>792.40002441406</ele>
        <time>2021-03-24T11:48:24.000Z</time>
      </trkpt>
      <trkpt lat="46.30594" lon="6.54642">
        <ele>796.79998779297</ele>
        <time>2021-03-24T11:48:28.000Z</time>
      </trkpt>
      <trkpt lat="46.30587" lon="6.54609">
        <ele>795.59997558594</ele>
        <time>2021-03-24T11:48:31.000Z</time>
      </trkpt>
      <trkpt lat="46.30584" lon="6.54601">
        <ele>794</ele>
        <time>2021-03-24T11:48:32.000Z</time>
      </trkpt>
      <trkpt lat="46.3058" lon="6.54593">
        <ele>791</ele>
        <time>2021-03-24T11:48:33.000Z</time>
      </trkpt>
      <trkpt lat="46.30563" lon="6.5457">
        <ele>787.40002441406</ele>
        <time>2021-03-24T11:48:36.000Z</time>
      </trkpt>
      <trkpt lat="46.30518" lon="6.54511">
        <ele>785.59997558594</ele>
        <time>2021-03-24T11:48:44.000Z</time>
      </trkpt>
      <trkpt lat="46.30514" lon="6.54505">
        <ele>786</ele>
        <time>2021-03-24T11:48:45.000Z</time>
      </trkpt>
      <trkpt lat="46.30494" lon="6.54481">
        <ele>786.40002441406</ele>
        <time>2021-03-24T11:48:50.000Z</time>
      </trkpt>
      <trkpt lat="46.30474" lon="6.54459">
        <ele>787.40002441406</ele>
        <time>2021-03-24T11:48:56.000Z</time>
      </trkpt>
      <trkpt lat="46.30453" lon="6.54434">
        <ele>788.40002441406</ele>
        <time>2021-03-24T11:49:03.000Z</time>
      </trkpt>
      <trkpt lat="46.30443" lon="6.54421">
        <ele>789</ele>
        <time>2021-03-24T11:49:08.000Z</time>
      </trkpt>
      <trkpt lat="46.30439" lon="6.54417">
        <ele>789.20001220703</ele>
        <time>2021-03-24T11:49:11.000Z</time>
      </trkpt>
      <trkpt lat="46.30439" lon="6.54417">
        <ele>789.20001220703</ele>
        <time>2021-03-24T11:49:18.000Z</time>
      </trkpt>
      <trkpt lat="46.30438" lon="6.54415">
        <ele>789.20001220703</ele>
        <time>2021-03-24T11:49:19.000Z</time>
      </trkpt>
      <trkpt lat="46.30438" lon="6.54415">
        <ele>789.20001220703</ele>
        <time>2021-03-24T11:49:21.000Z</time>
      </trkpt>
      <trkpt lat="46.30438" lon="6.54415">
        <ele>789.20001220703</ele>
        <time>2021-03-24T11:58:11.000Z</time>
      </trkpt>
      <trkpt lat="46.30424" lon="6.54396">
        <ele>790.79998779297</ele>
        <time>2021-03-24T11:58:13.000Z</time>
      </trkpt>
      <trkpt lat="46.30411" lon="6.54374">
        <ele>792.59997558594</ele>
        <time>2021-03-24T11:58:20.000Z</time>
      </trkpt>
      <trkpt lat="46.30396" lon="6.54351">
        <ele>793.59997558594</ele>
        <time>2021-03-24T11:58:26.000Z</time>
      </trkpt>
      <trkpt lat="46.30383" lon="6.5432">
        <ele>794.40002441406</ele>
        <time>2021-03-24T11:58:32.000Z</time>
      </trkpt>
      <trkpt lat="46.30373" lon="6.54289">
        <ele>795</ele>
        <time>2021-03-24T11:58:37.000Z</time>
      </trkpt>
      <trkpt lat="46.3037" lon="6.54282">
        <ele>795.40002441406</ele>
        <time>2021-03-24T11:58:38.000Z</time>
      </trkpt>
      <trkpt lat="46.30354" lon="6.54242">
        <ele>794.40002441406</ele>
        <time>2021-03-24T11:58:44.000Z</time>
      </trkpt>
      <trkpt lat="46.30351" lon="6.54237">
        <ele>794</ele>
        <time>2021-03-24T11:58:45.000Z</time>
      </trkpt>
      <trkpt lat="46.30339" lon="6.54222">
        <ele>793.20001220703</ele>
        <time>2021-03-24T11:58:48.000Z</time>
      </trkpt>
      <trkpt lat="46.30313" lon="6.54211">
        <ele>791.40002441406</ele>
        <time>2021-03-24T11:58:53.000Z</time>
      </trkpt>
      <trkpt lat="46.30287" lon="6.54202">
        <ele>791</ele>
        <time>2021-03-24T11:58:58.000Z</time>
      </trkpt>
      <trkpt lat="46.30282" lon="6.54198">
        <ele>791.20001220703</ele>
        <time>2021-03-24T11:58:59.000Z</time>
      </trkpt>
      <trkpt lat="46.30277" lon="6.54194">
        <ele>791.40002441406</ele>
        <time>2021-03-24T11:59:00.000Z</time>
      </trkpt>
      <trkpt lat="46.30267" lon="6.54186">
        <ele>791.20001220703</ele>
        <time>2021-03-24T11:59:02.000Z</time>
      </trkpt>
      <trkpt lat="46.30263" lon="6.5418">
        <ele>791.40002441406</ele>
        <time>2021-03-24T11:59:03.000Z</time>
      </trkpt>
      <trkpt lat="46.30234" lon="6.54129">
        <ele>791.40002441406</ele>
        <time>2021-03-24T11:59:11.000Z</time>
      </trkpt>
      <trkpt lat="46.3023" lon="6.54116">
        <ele>792.40002441406</ele>
        <time>2021-03-24T11:59:13.000Z</time>
      </trkpt>
      <trkpt lat="46.30226" lon="6.54094">
        <ele>792.79998779297</ele>
        <time>2021-03-24T11:59:16.000Z</time>
      </trkpt>
      <trkpt lat="46.30224" lon="6.54079">
        <ele>792.79998779297</ele>
        <time>2021-03-24T11:59:18.000Z</time>
      </trkpt>
      <trkpt lat="46.30224" lon="6.54064">
        <ele>792.79998779297</ele>
        <time>2021-03-24T11:59:20.000Z</time>
      </trkpt>
      <trkpt lat="46.30225" lon="6.54007">
        <ele>794.79998779297</ele>
        <time>2021-03-24T11:59:27.000Z</time>
      </trkpt>
      <trkpt lat="46.30227" lon="6.53954">
        <ele>795.40002441406</ele>
        <time>2021-03-24T11:59:34.000Z</time>
      </trkpt>
      <trkpt lat="46.30228" lon="6.53904">
        <ele>794.20001220703</ele>
        <time>2021-03-24T11:59:41.000Z</time>
      </trkpt>
      <trkpt lat="46.3023" lon="6.53846">
        <ele>794</ele>
        <time>2021-03-24T11:59:48.000Z</time>
      </trkpt>
      <trkpt lat="46.30231" lon="6.53806">
        <ele>796.59997558594</ele>
        <time>2021-03-24T11:59:53.000Z</time>
      </trkpt>
      <trkpt lat="46.30229" lon="6.53791">
        <ele>796.40002441406</ele>
        <time>2021-03-24T11:59:55.000Z</time>
      </trkpt>
      <trkpt lat="46.30228" lon="6.53783">
        <ele>796.40002441406</ele>
        <time>2021-03-24T11:59:56.000Z</time>
      </trkpt>
      <trkpt lat="46.30222" lon="6.53763">
        <ele>795.20001220703</ele>
        <time>2021-03-24T11:59:59.000Z</time>
      </trkpt>
      <trkpt lat="46.30209" lon="6.53748">
        <ele>793.40002441406</ele>
        <time>2021-03-24T12:00:02.000Z</time>
      </trkpt>
      <trkpt lat="46.302" lon="6.53737">
        <ele>792.79998779297</ele>
        <time>2021-03-24T12:00:04.000Z</time>
      </trkpt>
      <trkpt lat="46.30181" lon="6.53718">
        <ele>791.79998779297</ele>
        <time>2021-03-24T12:00:08.000Z</time>
      </trkpt>
      <trkpt lat="46.30171" lon="6.5371">
        <ele>791.79998779297</ele>
        <time>2021-03-24T12:00:10.000Z</time>
      </trkpt>
      <trkpt lat="46.30133" lon="6.53682">
        <ele>792</ele>
        <time>2021-03-24T12:00:18.000Z</time>
      </trkpt>
      <trkpt lat="46.30122" lon="6.5368">
        <ele>791.59997558594</ele>
        <time>2021-03-24T12:00:20.000Z</time>
      </trkpt>
      <trkpt lat="46.30111" lon="6.53679">
        <ele>791.59997558594</ele>
        <time>2021-03-24T12:00:22.000Z</time>
      </trkpt>
      <trkpt lat="46.30105" lon="6.53678">
        <ele>791.59997558594</ele>
        <time>2021-03-24T12:00:23.000Z</time>
      </trkpt>
      <trkpt lat="46.30058" lon="6.53683">
        <ele>790.40002441406</ele>
        <time>2021-03-24T12:00:31.000Z</time>
      </trkpt>
      <trkpt lat="46.3001" lon="6.53689">
        <ele>788.20001220703</ele>
        <time>2021-03-24T12:00:39.000Z</time>
      </trkpt>
      <trkpt lat="46.29971" lon="6.53696">
        <ele>788.79998779297</ele>
        <time>2021-03-24T12:00:45.000Z</time>
      </trkpt>
      <trkpt lat="46.29964" lon="6.53697">
        <ele>788.79998779297</ele>
        <time>2021-03-24T12:00:46.000Z</time>
      </trkpt>
      <trkpt lat="46.29928" lon="6.53699">
        <ele>789.40002441406</ele>
        <time>2021-03-24T12:00:51.000Z</time>
      </trkpt>
      <trkpt lat="46.29873" lon="6.53696">
        <ele>792.79998779297</ele>
        <time>2021-03-24T12:00:59.000Z</time>
      </trkpt>
      <trkpt lat="46.29843" lon="6.53698">
        <ele>796.20001220703</ele>
        <time>2021-03-24T12:01:04.000Z</time>
      </trkpt>
      <trkpt lat="46.29836" lon="6.53708">
        <ele>796.40002441406</ele>
        <time>2021-03-24T12:01:06.000Z</time>
      </trkpt>
      <trkpt lat="46.29832" lon="6.53715">
        <ele>796.40002441406</ele>
        <time>2021-03-24T12:01:07.000Z</time>
      </trkpt>
      <trkpt lat="46.29828" lon="6.53721">
        <ele>796.20001220703</ele>
        <time>2021-03-24T12:01:08.000Z</time>
      </trkpt>
      <trkpt lat="46.2981" lon="6.53752">
        <ele>796.79998779297</ele>
        <time>2021-03-24T12:01:12.000Z</time>
      </trkpt>
      <trkpt lat="46.29779" lon="6.53806">
        <ele>797.40002441406</ele>
        <time>2021-03-24T12:01:19.000Z</time>
      </trkpt>
      <trkpt lat="46.29756" lon="6.53842">
        <ele>795.40002441406</ele>
        <time>2021-03-24T12:01:24.000Z</time>
      </trkpt>
      <trkpt lat="46.29751" lon="6.5385">
        <ele>794.59997558594</ele>
        <time>2021-03-24T12:01:25.000Z</time>
      </trkpt>
      <trkpt lat="46.29744" lon="6.53853">
        <ele>794</ele>
        <time>2021-03-24T12:01:26.000Z</time>
      </trkpt>
      <trkpt lat="46.29729" lon="6.53858">
        <ele>792.79998779297</ele>
        <time>2021-03-24T12:01:28.000Z</time>
      </trkpt>
      <trkpt lat="46.29713" lon="6.53854">
        <ele>792.40002441406</ele>
        <time>2021-03-24T12:01:30.000Z</time>
      </trkpt>
      <trkpt lat="46.29705" lon="6.5385">
        <ele>792</ele>
        <time>2021-03-24T12:01:31.000Z</time>
      </trkpt>
      <trkpt lat="46.29697" lon="6.53847">
        <ele>791.59997558594</ele>
        <time>2021-03-24T12:01:32.000Z</time>
      </trkpt>
      <trkpt lat="46.29682" lon="6.5384">
        <ele>791</ele>
        <time>2021-03-24T12:01:34.000Z</time>
      </trkpt>
      <trkpt lat="46.29675" lon="6.53838">
        <ele>790.79998779297</ele>
        <time>2021-03-24T12:01:35.000Z</time>
      </trkpt>
      <trkpt lat="46.29661" lon="6.53832">
        <ele>790.20001220703</ele>
        <time>2021-03-24T12:01:37.000Z</time>
      </trkpt>
      <trkpt lat="46.29647" lon="6.53826">
        <ele>789.40002441406</ele>
        <time>2021-03-24T12:01:39.000Z</time>
      </trkpt>
      <trkpt lat="46.29618" lon="6.53807">
        <ele>789.59997558594</ele>
        <time>2021-03-24T12:01:43.000Z</time>
      </trkpt>
      <trkpt lat="46.29596" lon="6.53783">
        <ele>790.79998779297</ele>
        <time>2021-03-24T12:01:47.000Z</time>
      </trkpt>
      <trkpt lat="46.29585" lon="6.53771">
        <ele>791</ele>
        <time>2021-03-24T12:01:49.000Z</time>
      </trkpt>
      <trkpt lat="46.29573" lon="6.53763">
        <ele>790.59997558594</ele>
        <time>2021-03-24T12:01:51.000Z</time>
      </trkpt>
      <trkpt lat="46.29545" lon="6.53756">
        <ele>788.40002441406</ele>
        <time>2021-03-24T12:01:55.000Z</time>
      </trkpt>
      <trkpt lat="46.29538" lon="6.53756">
        <ele>788</ele>
        <time>2021-03-24T12:01:56.000Z</time>
      </trkpt>
      <trkpt lat="46.29487" lon="6.5376">
        <ele>787.59997558594</ele>
        <time>2021-03-24T12:02:03.000Z</time>
      </trkpt>
      <trkpt lat="46.29458" lon="6.53761">
        <ele>786.59997558594</ele>
        <time>2021-03-24T12:02:07.000Z</time>
      </trkpt>
      <trkpt lat="46.29451" lon="6.53762">
        <ele>786.20001220703</ele>
        <time>2021-03-24T12:02:08.000Z</time>
      </trkpt>
      <trkpt lat="46.29419" lon="6.53764">
        <ele>786.20001220703</ele>
        <time>2021-03-24T12:02:13.000Z</time>
      </trkpt>
      <trkpt lat="46.29398" lon="6.53765">
        <ele>787</ele>
        <time>2021-03-24T12:02:17.000Z</time>
      </trkpt>
      <trkpt lat="46.29392" lon="6.53769">
        <ele>787</ele>
        <time>2021-03-24T12:02:18.000Z</time>
      </trkpt>
      <trkpt lat="46.29379" lon="6.53779">
        <ele>787.20001220703</ele>
        <time>2021-03-24T12:02:21.000Z</time>
      </trkpt>
      <trkpt lat="46.2937" lon="6.53786">
        <ele>787.20001220703</ele>
        <time>2021-03-24T12:02:23.000Z</time>
      </trkpt>
      <trkpt lat="46.29347" lon="6.53803">
        <ele>786.20001220703</ele>
        <time>2021-03-24T12:02:28.000Z</time>
      </trkpt>
      <trkpt lat="46.29336" lon="6.5381">
        <ele>784.79998779297</ele>
        <time>2021-03-24T12:02:30.000Z</time>
      </trkpt>
      <trkpt lat="46.2932" lon="6.53816">
        <ele>785</ele>
        <time>2021-03-24T12:02:33.000Z</time>
      </trkpt>
      <trkpt lat="46.29308" lon="6.53827">
        <ele>785.79998779297</ele>
        <time>2021-03-24T12:02:36.000Z</time>
      </trkpt>
      <trkpt lat="46.29302" lon="6.53834">
        <ele>785.59997558594</ele>
        <time>2021-03-24T12:02:38.000Z</time>
      </trkpt>
      <trkpt lat="46.29295" lon="6.53848">
        <ele>786.20001220703</ele>
        <time>2021-03-24T12:02:41.000Z</time>
      </trkpt>
      <trkpt lat="46.29295" lon="6.53854">
        <ele>785.79998779297</ele>
        <time>2021-03-24T12:02:42.000Z</time>
      </trkpt>
      <trkpt lat="46.29294" lon="6.53861">
        <ele>785.40002441406</ele>
        <time>2021-03-24T12:02:43.000Z</time>
      </trkpt>
      <trkpt lat="46.29292" lon="6.53891">
        <ele>784.40002441406</ele>
        <time>2021-03-24T12:02:47.000Z</time>
      </trkpt>
      <trkpt lat="46.29293" lon="6.53949">
        <ele>781.79998779297</ele>
        <time>2021-03-24T12:02:54.000Z</time>
      </trkpt>
      <trkpt lat="46.29294" lon="6.53967">
        <ele>781</ele>
        <time>2021-03-24T12:02:56.000Z</time>
      </trkpt>
      <trkpt lat="46.29292" lon="6.53994">
        <ele>780</ele>
        <time>2021-03-24T12:02:59.000Z</time>
      </trkpt>
      <trkpt lat="46.29282" lon="6.54024">
        <ele>780.20001220703</ele>
        <time>2021-03-24T12:03:03.000Z</time>
      </trkpt>
      <trkpt lat="46.29267" lon="6.54065">
        <ele>781.59997558594</ele>
        <time>2021-03-24T12:03:10.000Z</time>
      </trkpt>
      <trkpt lat="46.29254" lon="6.54116">
        <ele>782.20001220703</ele>
        <time>2021-03-24T12:03:18.000Z</time>
      </trkpt>
      <trkpt lat="46.29245" lon="6.54163">
        <ele>780.20001220703</ele>
        <time>2021-03-24T12:03:24.000Z</time>
      </trkpt>
      <trkpt lat="46.29231" lon="6.54211">
        <ele>782.40002441406</ele>
        <time>2021-03-24T12:03:30.000Z</time>
      </trkpt>
      <trkpt lat="46.29213" lon="6.54256">
        <ele>784.20001220703</ele>
        <time>2021-03-24T12:03:37.000Z</time>
      </trkpt>
      <trkpt lat="46.29196" lon="6.54299">
        <ele>785.79998779297</ele>
        <time>2021-03-24T12:03:44.000Z</time>
      </trkpt>
      <trkpt lat="46.29183" lon="6.54328">
        <ele>787.79998779297</ele>
        <time>2021-03-24T12:03:50.000Z</time>
      </trkpt>
      <trkpt lat="46.29171" lon="6.5436">
        <ele>788</ele>
        <time>2021-03-24T12:03:56.000Z</time>
      </trkpt>
      <trkpt lat="46.29152" lon="6.54408">
        <ele>788</ele>
        <time>2021-03-24T12:04:04.000Z</time>
      </trkpt>
      <trkpt lat="46.29149" lon="6.54414">
        <ele>788</ele>
        <time>2021-03-24T12:04:05.000Z</time>
      </trkpt>
      <trkpt lat="46.29133" lon="6.54439">
        <ele>787.40002441406</ele>
        <time>2021-03-24T12:04:09.000Z</time>
      </trkpt>
      <trkpt lat="46.29101" lon="6.5447">
        <ele>784.79998779297</ele>
        <time>2021-03-24T12:04:15.000Z</time>
      </trkpt>
      <trkpt lat="46.29065" lon="6.545">
        <ele>781</ele>
        <time>2021-03-24T12:04:21.000Z</time>
      </trkpt>
      <trkpt lat="46.29038" lon="6.5451">
        <ele>781.40002441406</ele>
        <time>2021-03-24T12:04:25.000Z</time>
      </trkpt>
      <trkpt lat="46.2903" lon="6.54511">
        <ele>781.59997558594</ele>
        <time>2021-03-24T12:04:26.000Z</time>
      </trkpt>
      <trkpt lat="46.28992" lon="6.54515">
        <ele>783</ele>
        <time>2021-03-24T12:04:31.000Z</time>
      </trkpt>
      <trkpt lat="46.28969" lon="6.54506">
        <ele>783.59997558594</ele>
        <time>2021-03-24T12:04:34.000Z</time>
      </trkpt>
      <trkpt lat="46.28961" lon="6.54504">
        <ele>783.59997558594</ele>
        <time>2021-03-24T12:04:35.000Z</time>
      </trkpt>
      <trkpt lat="46.28925" lon="6.54482">
        <ele>783.59997558594</ele>
        <time>2021-03-24T12:04:40.000Z</time>
      </trkpt>
      <trkpt lat="46.28911" lon="6.54474">
        <ele>784</ele>
        <time>2021-03-24T12:04:42.000Z</time>
      </trkpt>
      <trkpt lat="46.28896" lon="6.54473">
        <ele>783.40002441406</ele>
        <time>2021-03-24T12:04:44.000Z</time>
      </trkpt>
      <trkpt lat="46.28872" lon="6.5448">
        <ele>783</ele>
        <time>2021-03-24T12:04:47.000Z</time>
      </trkpt>
      <trkpt lat="46.28864" lon="6.54485">
        <ele>782.79998779297</ele>
        <time>2021-03-24T12:04:48.000Z</time>
      </trkpt>
      <trkpt lat="46.28827" lon="6.5451">
        <ele>781.40002441406</ele>
        <time>2021-03-24T12:04:53.000Z</time>
      </trkpt>
      <trkpt lat="46.28796" lon="6.5453">
        <ele>782.20001220703</ele>
        <time>2021-03-24T12:04:58.000Z</time>
      </trkpt>
      <trkpt lat="46.28789" lon="6.54541">
        <ele>782.40002441406</ele>
        <time>2021-03-24T12:05:00.000Z</time>
      </trkpt>
      <trkpt lat="46.28784" lon="6.54554">
        <ele>782.59997558594</ele>
        <time>2021-03-24T12:05:02.000Z</time>
      </trkpt>
      <trkpt lat="46.28764" lon="6.54599">
        <ele>782.79998779297</ele>
        <time>2021-03-24T12:05:09.000Z</time>
      </trkpt>
      <trkpt lat="46.28754" lon="6.54622">
        <ele>782.40002441406</ele>
        <time>2021-03-24T12:05:12.000Z</time>
      </trkpt>
      <trkpt lat="46.28745" lon="6.54637">
        <ele>782</ele>
        <time>2021-03-24T12:05:14.000Z</time>
      </trkpt>
      <trkpt lat="46.28731" lon="6.54643">
        <ele>781.40002441406</ele>
        <time>2021-03-24T12:05:16.000Z</time>
      </trkpt>
      <trkpt lat="46.28724" lon="6.54647">
        <ele>780.79998779297</ele>
        <time>2021-03-24T12:05:17.000Z</time>
      </trkpt>
      <trkpt lat="46.28716" lon="6.54645">
        <ele>780.40002441406</ele>
        <time>2021-03-24T12:05:18.000Z</time>
      </trkpt>
      <trkpt lat="46.28698" lon="6.54641">
        <ele>779.59997558594</ele>
        <time>2021-03-24T12:05:20.000Z</time>
      </trkpt>
      <trkpt lat="46.28689" lon="6.54639">
        <ele>779.20001220703</ele>
        <time>2021-03-24T12:05:21.000Z</time>
      </trkpt>
      <trkpt lat="46.28672" lon="6.54642">
        <ele>780.59997558594</ele>
        <time>2021-03-24T12:05:23.000Z</time>
      </trkpt>
      <trkpt lat="46.28657" lon="6.54649">
        <ele>781</ele>
        <time>2021-03-24T12:05:25.000Z</time>
      </trkpt>
      <trkpt lat="46.28651" lon="6.54654">
        <ele>782</ele>
        <time>2021-03-24T12:05:26.000Z</time>
      </trkpt>
      <trkpt lat="46.28644" lon="6.54659">
        <ele>782.40002441406</ele>
        <time>2021-03-24T12:05:27.000Z</time>
      </trkpt>
      <trkpt lat="46.28629" lon="6.54669">
        <ele>782.79998779297</ele>
        <time>2021-03-24T12:05:29.000Z</time>
      </trkpt>
      <trkpt lat="46.28601" lon="6.54689">
        <ele>785.59997558594</ele>
        <time>2021-03-24T12:05:33.000Z</time>
      </trkpt>
      <trkpt lat="46.28594" lon="6.54693">
        <ele>787</ele>
        <time>2021-03-24T12:05:34.000Z</time>
      </trkpt>
      <trkpt lat="46.28587" lon="6.54698">
        <ele>788.40002441406</ele>
        <time>2021-03-24T12:05:35.000Z</time>
      </trkpt>
      <trkpt lat="46.28568" lon="6.54719">
        <ele>790</ele>
        <time>2021-03-24T12:05:38.000Z</time>
      </trkpt>
      <trkpt lat="46.28528" lon="6.54772">
        <ele>783</ele>
        <time>2021-03-24T12:05:44.000Z</time>
      </trkpt>
      <trkpt lat="46.28522" lon="6.54781">
        <ele>780.59997558594</ele>
        <time>2021-03-24T12:05:45.000Z</time>
      </trkpt>
      <trkpt lat="46.28499" lon="6.54797">
        <ele>782.20001220703</ele>
        <time>2021-03-24T12:05:48.000Z</time>
      </trkpt>
      <trkpt lat="46.28492" lon="6.54801">
        <ele>782.20001220703</ele>
        <time>2021-03-24T12:05:49.000Z</time>
      </trkpt>
      <trkpt lat="46.28461" lon="6.5482">
        <ele>782.20001220703</ele>
        <time>2021-03-24T12:05:54.000Z</time>
      </trkpt>
      <trkpt lat="46.28457" lon="6.54822">
        <ele>782.59997558594</ele>
        <time>2021-03-24T12:05:55.000Z</time>
      </trkpt>
      <trkpt lat="46.28447" lon="6.5483">
        <ele>781.79998779297</ele>
        <time>2021-03-24T12:05:57.000Z</time>
      </trkpt>
      <trkpt lat="46.28443" lon="6.54834">
        <ele>781.20001220703</ele>
        <time>2021-03-24T12:05:58.000Z</time>
      </trkpt>
      <trkpt lat="46.28434" lon="6.54841">
        <ele>782.20001220703</ele>
        <time>2021-03-24T12:06:00.000Z</time>
      </trkpt>
      <trkpt lat="46.28427" lon="6.54847">
        <ele>784.20001220703</ele>
        <time>2021-03-24T12:06:02.000Z</time>
      </trkpt>
      <trkpt lat="46.2842" lon="6.54853">
        <ele>784.79998779297</ele>
        <time>2021-03-24T12:06:04.000Z</time>
      </trkpt>
      <trkpt lat="46.28415" lon="6.54868">
        <ele>781.20001220703</ele>
        <time>2021-03-24T12:06:07.000Z</time>
      </trkpt>
      <trkpt lat="46.28408" lon="6.54908">
        <ele>774</ele>
        <time>2021-03-24T12:06:13.000Z</time>
      </trkpt>
      <trkpt lat="46.28406" lon="6.54914">
        <ele>773.59997558594</ele>
        <time>2021-03-24T12:06:14.000Z</time>
      </trkpt>
      <trkpt lat="46.284" lon="6.5495">
        <ele>774.40002441406</ele>
        <time>2021-03-24T12:06:20.000Z</time>
      </trkpt>
      <trkpt lat="46.28394" lon="6.54991">
        <ele>774.79998779297</ele>
        <time>2021-03-24T12:06:28.000Z</time>
      </trkpt>
      <trkpt lat="46.2839" lon="6.55021">
        <ele>776.79998779297</ele>
        <time>2021-03-24T12:06:35.000Z</time>
      </trkpt>
      <trkpt lat="46.28387" lon="6.55045">
        <ele>779.40002441406</ele>
        <time>2021-03-24T12:06:41.000Z</time>
      </trkpt>
      <trkpt lat="46.28382" lon="6.55074">
        <ele>783.40002441406</ele>
        <time>2021-03-24T12:06:49.000Z</time>
      </trkpt>
      <trkpt lat="46.28378" lon="6.55095">
        <ele>786</ele>
        <time>2021-03-24T12:06:55.000Z</time>
      </trkpt>
      <trkpt lat="46.28375" lon="6.55115">
        <ele>787.79998779297</ele>
        <time>2021-03-24T12:07:00.000Z</time>
      </trkpt>
      <trkpt lat="46.28369" lon="6.5513">
        <ele>788.59997558594</ele>
        <time>2021-03-24T12:07:05.000Z</time>
      </trkpt>
      <trkpt lat="46.28358" lon="6.55147">
        <ele>790.20001220703</ele>
        <time>2021-03-24T12:07:11.000Z</time>
      </trkpt>
      <trkpt lat="46.28344" lon="6.55171">
        <ele>790.59997558594</ele>
        <time>2021-03-24T12:07:18.000Z</time>
      </trkpt>
      <trkpt lat="46.2833" lon="6.55195">
        <ele>790.79998779297</ele>
        <time>2021-03-24T12:07:24.000Z</time>
      </trkpt>
      <trkpt lat="46.28311" lon="6.5521">
        <ele>794.79998779297</ele>
        <time>2021-03-24T12:07:31.000Z</time>
      </trkpt>
      <trkpt lat="46.28307" lon="6.55212">
        <ele>794.40002441406</ele>
        <time>2021-03-24T12:07:33.000Z</time>
      </trkpt>
      <trkpt lat="46.28303" lon="6.55214">
        <ele>794.20001220703</ele>
        <time>2021-03-24T12:07:35.000Z</time>
      </trkpt>
      <trkpt lat="46.28292" lon="6.55217">
        <ele>795.79998779297</ele>
        <time>2021-03-24T12:07:40.000Z</time>
      </trkpt>
      <trkpt lat="46.2828" lon="6.55218">
        <ele>796.20001220703</ele>
        <time>2021-03-24T12:07:45.000Z</time>
      </trkpt>
      <trkpt lat="46.2827" lon="6.55219">
        <ele>796.79998779297</ele>
        <time>2021-03-24T12:07:50.000Z</time>
      </trkpt>
      <trkpt lat="46.28247" lon="6.55221">
        <ele>800.59997558594</ele>
        <time>2021-03-24T12:07:56.000Z</time>
      </trkpt>
      <trkpt lat="46.28229" lon="6.55223">
        <ele>801.59997558594</ele>
        <time>2021-03-24T12:08:00.000Z</time>
      </trkpt>
      <trkpt lat="46.28222" lon="6.55224">
        <ele>801.59997558594</ele>
        <time>2021-03-24T12:08:02.000Z</time>
      </trkpt>
      <trkpt lat="46.28208" lon="6.55226">
        <ele>802.20001220703</ele>
        <time>2021-03-24T12:08:06.000Z</time>
      </trkpt>
      <trkpt lat="46.28191" lon="6.55228">
        <ele>803</ele>
        <time>2021-03-24T12:08:11.000Z</time>
      </trkpt>
      <trkpt lat="46.28172" lon="6.55233">
        <ele>800.40002441406</ele>
        <time>2021-03-24T12:08:17.000Z</time>
      </trkpt>
      <trkpt lat="46.28159" lon="6.55237">
        <ele>800.20001220703</ele>
        <time>2021-03-24T12:08:22.000Z</time>
      </trkpt>
      <trkpt lat="46.28148" lon="6.55241">
        <ele>800.20001220703</ele>
        <time>2021-03-24T12:08:28.000Z</time>
      </trkpt>
      <trkpt lat="46.28134" lon="6.55246">
        <ele>802.59997558594</ele>
        <time>2021-03-24T12:08:34.000Z</time>
      </trkpt>
      <trkpt lat="46.28108" lon="6.55251">
        <ele>805.59997558594</ele>
        <time>2021-03-24T12:08:43.000Z</time>
      </trkpt>
      <trkpt lat="46.28092" lon="6.55251">
        <ele>807</ele>
        <time>2021-03-24T12:08:49.000Z</time>
      </trkpt>
      <trkpt lat="46.28074" lon="6.55252">
        <ele>808</ele>
        <time>2021-03-24T12:08:56.000Z</time>
      </trkpt>
      <trkpt lat="46.28058" lon="6.55252">
        <ele>808</ele>
        <time>2021-03-24T12:09:02.000Z</time>
      </trkpt>
      <trkpt lat="46.2805" lon="6.55252">
        <ele>808</ele>
        <time>2021-03-24T12:09:07.000Z</time>
      </trkpt>
      <trkpt lat="46.28041" lon="6.55252">
        <ele>808.20001220703</ele>
        <time>2021-03-24T12:09:13.000Z</time>
      </trkpt>
      <trkpt lat="46.28033" lon="6.55196">
        <ele>820.79998779297</ele>
        <time>2021-03-24T12:09:18.000Z</time>
      </trkpt>
      <trkpt lat="46.2801" lon="6.55198">
        <ele>819.79998779297</ele>
        <time>2021-03-24T12:09:22.000Z</time>
      </trkpt>
      <trkpt lat="46.27975" lon="6.55194">
        <ele>818.20001220703</ele>
        <time>2021-03-24T12:09:28.000Z</time>
      </trkpt>
      <trkpt lat="46.27953" lon="6.55182">
        <ele>820.20001220703</ele>
        <time>2021-03-24T12:09:34.000Z</time>
      </trkpt>
      <trkpt lat="46.27939" lon="6.55163">
        <ele>824.20001220703</ele>
        <time>2021-03-24T12:09:40.000Z</time>
      </trkpt>
      <trkpt lat="46.27926" lon="6.55147">
        <ele>828.40002441406</ele>
        <time>2021-03-24T12:09:45.000Z</time>
      </trkpt>
      <trkpt lat="46.27912" lon="6.55139">
        <ele>831</ele>
        <time>2021-03-24T12:09:49.000Z</time>
      </trkpt>
      <trkpt lat="46.27908" lon="6.55132">
        <ele>831.79998779297</ele>
        <time>2021-03-24T12:09:51.000Z</time>
      </trkpt>
      <trkpt lat="46.27902" lon="6.55127">
        <ele>832.20001220703</ele>
        <time>2021-03-24T12:09:53.000Z</time>
      </trkpt>
      <trkpt lat="46.27888" lon="6.55123">
        <ele>832</ele>
        <time>2021-03-24T12:09:56.000Z</time>
      </trkpt>
      <trkpt lat="46.27881" lon="6.55122">
        <ele>831.79998779297</ele>
        <time>2021-03-24T12:09:57.000Z</time>
      </trkpt>
      <trkpt lat="46.27874" lon="6.55122">
        <ele>831</ele>
        <time>2021-03-24T12:09:58.000Z</time>
      </trkpt>
      <trkpt lat="46.27865" lon="6.55115">
        <ele>830.79998779297</ele>
        <time>2021-03-24T12:10:00.000Z</time>
      </trkpt>
      <trkpt lat="46.27859" lon="6.55115">
        <ele>830.20001220703</ele>
        <time>2021-03-24T12:10:01.000Z</time>
      </trkpt>
      <trkpt lat="46.27856" lon="6.55111">
        <ele>830.20001220703</ele>
        <time>2021-03-24T12:10:02.000Z</time>
      </trkpt>
      <trkpt lat="46.27849" lon="6.55103">
        <ele>830.40002441406</ele>
        <time>2021-03-24T12:10:04.000Z</time>
      </trkpt>
      <trkpt lat="46.27848" lon="6.55098">
        <ele>830.79998779297</ele>
        <time>2021-03-24T12:10:05.000Z</time>
      </trkpt>
      <trkpt lat="46.27845" lon="6.55093">
        <ele>831</ele>
        <time>2021-03-24T12:10:06.000Z</time>
      </trkpt>
      <trkpt lat="46.27838" lon="6.55086">
        <ele>830.79998779297</ele>
        <time>2021-03-24T12:10:08.000Z</time>
      </trkpt>
      <trkpt lat="46.27835" lon="6.55082">
        <ele>830.79998779297</ele>
        <time>2021-03-24T12:10:09.000Z</time>
      </trkpt>
      <trkpt lat="46.2783" lon="6.55073">
        <ele>831.59997558594</ele>
        <time>2021-03-24T12:10:11.000Z</time>
      </trkpt>
      <trkpt lat="46.27823" lon="6.55067">
        <ele>831.20001220703</ele>
        <time>2021-03-24T12:10:13.000Z</time>
      </trkpt>
      <trkpt lat="46.27816" lon="6.55055">
        <ele>831.79998779297</ele>
        <time>2021-03-24T12:10:16.000Z</time>
      </trkpt>
      <trkpt lat="46.27809" lon="6.55048">
        <ele>832</ele>
        <time>2021-03-24T12:10:18.000Z</time>
      </trkpt>
      <trkpt lat="46.27799" lon="6.55035">
        <ele>833.40002441406</ele>
        <time>2021-03-24T12:10:21.000Z</time>
      </trkpt>
      <trkpt lat="46.27792" lon="6.55025">
        <ele>834</ele>
        <time>2021-03-24T12:10:23.000Z</time>
      </trkpt>
      <trkpt lat="46.27758" lon="6.54988">
        <ele>833.59997558594</ele>
        <time>2021-03-24T12:10:31.000Z</time>
      </trkpt>
      <trkpt lat="46.27754" lon="6.54983">
        <ele>833.40002441406</ele>
        <time>2021-03-24T12:10:32.000Z</time>
      </trkpt>
      <trkpt lat="46.2774" lon="6.54962">
        <ele>835.40002441406</ele>
        <time>2021-03-24T12:10:36.000Z</time>
      </trkpt>
      <trkpt lat="46.27738" lon="6.54956">
        <ele>836.59997558594</ele>
        <time>2021-03-24T12:10:37.000Z</time>
      </trkpt>
      <trkpt lat="46.27734" lon="6.54945">
        <ele>838.79998779297</ele>
        <time>2021-03-24T12:10:39.000Z</time>
      </trkpt>
      <trkpt lat="46.2773" lon="6.54929">
        <ele>843.79998779297</ele>
        <time>2021-03-24T12:10:42.000Z</time>
      </trkpt>
      <trkpt lat="46.27726" lon="6.54917">
        <ele>847.79998779297</ele>
        <time>2021-03-24T12:10:44.000Z</time>
      </trkpt>
      <trkpt lat="46.27718" lon="6.54901">
        <ele>852.79998779297</ele>
        <time>2021-03-24T12:10:47.000Z</time>
      </trkpt>
      <trkpt lat="46.27715" lon="6.54896">
        <ele>854.20001220703</ele>
        <time>2021-03-24T12:10:48.000Z</time>
      </trkpt>
      <trkpt lat="46.27712" lon="6.54891">
        <ele>855.20001220703</ele>
        <time>2021-03-24T12:10:49.000Z</time>
      </trkpt>
      <trkpt lat="46.27706" lon="6.54884">
        <ele>856.40002441406</ele>
        <time>2021-03-24T12:10:51.000Z</time>
      </trkpt>
      <trkpt lat="46.27703" lon="6.54881">
        <ele>856.59997558594</ele>
        <time>2021-03-24T12:10:52.000Z</time>
      </trkpt>
      <trkpt lat="46.277" lon="6.54878">
        <ele>857.40002441406</ele>
        <time>2021-03-24T12:10:53.000Z</time>
      </trkpt>
      <trkpt lat="46.27686" lon="6.54864">
        <ele>859</ele>
        <time>2021-03-24T12:10:57.000Z</time>
      </trkpt>
      <trkpt lat="46.27668" lon="6.54844">
        <ele>863.79998779297</ele>
        <time>2021-03-24T12:11:03.000Z</time>
      </trkpt>
      <trkpt lat="46.27649" lon="6.54824">
        <ele>868.79998779297</ele>
        <time>2021-03-24T12:11:09.000Z</time>
      </trkpt>
      <trkpt lat="46.27631" lon="6.54803">
        <ele>873</ele>
        <time>2021-03-24T12:11:15.000Z</time>
      </trkpt>
      <trkpt lat="46.27617" lon="6.54786">
        <ele>874</ele>
        <time>2021-03-24T12:11:20.000Z</time>
      </trkpt>
      <trkpt lat="46.27595" lon="6.54769">
        <ele>871</ele>
        <time>2021-03-24T12:11:26.000Z</time>
      </trkpt>
      <trkpt lat="46.27567" lon="6.54744">
        <ele>869.79998779297</ele>
        <time>2021-03-24T12:11:34.000Z</time>
      </trkpt>
      <trkpt lat="46.27554" lon="6.54728">
        <ele>871.20001220703</ele>
        <time>2021-03-24T12:11:39.000Z</time>
      </trkpt>
      <trkpt lat="46.2754" lon="6.54712">
        <ele>871</ele>
        <time>2021-03-24T12:11:44.000Z</time>
      </trkpt>
      <trkpt lat="46.27527" lon="6.54697">
        <ele>870.79998779297</ele>
        <time>2021-03-24T12:11:49.000Z</time>
      </trkpt>
      <trkpt lat="46.2752" lon="6.54693">
        <ele>868.40002441406</ele>
        <time>2021-03-24T12:11:51.000Z</time>
      </trkpt>
      <trkpt lat="46.27514" lon="6.54687">
        <ele>867.79998779297</ele>
        <time>2021-03-24T12:11:53.000Z</time>
      </trkpt>
      <trkpt lat="46.275" lon="6.54679">
        <ele>863.40002441406</ele>
        <time>2021-03-24T12:11:57.000Z</time>
      </trkpt>
      <trkpt lat="46.27491" lon="6.5467">
        <ele>862.20001220703</ele>
        <time>2021-03-24T12:12:00.000Z</time>
      </trkpt>
      <trkpt lat="46.27486" lon="6.54665">
        <ele>861</ele>
        <time>2021-03-24T12:12:02.000Z</time>
      </trkpt>
      <trkpt lat="46.27468" lon="6.54653">
        <ele>855.40002441406</ele>
        <time>2021-03-24T12:12:07.000Z</time>
      </trkpt>
      <trkpt lat="46.27459" lon="6.54647">
        <ele>853.40002441406</ele>
        <time>2021-03-24T12:12:10.000Z</time>
      </trkpt>
      <trkpt lat="46.27455" lon="6.54645">
        <ele>852.59997558594</ele>
        <time>2021-03-24T12:12:11.000Z</time>
      </trkpt>
      <trkpt lat="46.27421" lon="6.54645">
        <ele>839.20001220703</ele>
        <time>2021-03-24T12:12:17.000Z</time>
      </trkpt>
      <trkpt lat="46.27391" lon="6.54615">
        <ele>833.40002441406</ele>
        <time>2021-03-24T12:12:27.000Z</time>
      </trkpt>
      <trkpt lat="46.27361" lon="6.5457">
        <ele>833.59997558594</ele>
        <time>2021-03-24T12:12:39.000Z</time>
      </trkpt>
      <trkpt lat="46.27338" lon="6.54535">
        <ele>834.79998779297</ele>
        <time>2021-03-24T12:12:48.000Z</time>
      </trkpt>
      <trkpt lat="46.27321" lon="6.54519">
        <ele>833.40002441406</ele>
        <time>2021-03-24T12:12:54.000Z</time>
      </trkpt>
      <trkpt lat="46.27296" lon="6.54516">
        <ele>828.59997558594</ele>
        <time>2021-03-24T12:13:01.000Z</time>
      </trkpt>
      <trkpt lat="46.27267" lon="6.54512">
        <ele>830.20001220703</ele>
        <time>2021-03-24T12:13:09.000Z</time>
      </trkpt>
      <trkpt lat="46.27238" lon="6.54506">
        <ele>832</ele>
        <time>2021-03-24T12:13:17.000Z</time>
      </trkpt>
      <trkpt lat="46.27203" lon="6.54486">
        <ele>832.40002441406</ele>
        <time>2021-03-24T12:13:27.000Z</time>
      </trkpt>
      <trkpt lat="46.27183" lon="6.54474">
        <ele>832.79998779297</ele>
        <time>2021-03-24T12:13:33.000Z</time>
      </trkpt>
      <trkpt lat="46.27156" lon="6.54458">
        <ele>834.40002441406</ele>
        <time>2021-03-24T12:13:41.000Z</time>
      </trkpt>
      <trkpt lat="46.27137" lon="6.54441">
        <ele>836</ele>
        <time>2021-03-24T12:13:47.000Z</time>
      </trkpt>
      <trkpt lat="46.27122" lon="6.54413">
        <ele>837.59997558594</ele>
        <time>2021-03-24T12:13:53.000Z</time>
      </trkpt>
      <trkpt lat="46.27106" lon="6.54368">
        <ele>838</ele>
        <time>2021-03-24T12:14:02.000Z</time>
      </trkpt>
      <trkpt lat="46.27087" lon="6.54313">
        <ele>838.40002441406</ele>
        <time>2021-03-24T12:14:13.000Z</time>
      </trkpt>
      <trkpt lat="46.27084" lon="6.54279">
        <ele>841.40002441406</ele>
        <time>2021-03-24T12:14:20.000Z</time>
      </trkpt>
      <trkpt lat="46.27083" lon="6.54249">
        <ele>842.20001220703</ele>
        <time>2021-03-24T12:14:25.000Z</time>
      </trkpt>
      <trkpt lat="46.27081" lon="6.54217">
        <ele>845.20001220703</ele>
        <time>2021-03-24T12:14:31.000Z</time>
      </trkpt>
      <trkpt lat="46.27074" lon="6.54194">
        <ele>849.59997558594</ele>
        <time>2021-03-24T12:14:36.000Z</time>
      </trkpt>
      <trkpt lat="46.27064" lon="6.54179">
        <ele>854</ele>
        <time>2021-03-24T12:14:40.000Z</time>
      </trkpt>
      <trkpt lat="46.2705" lon="6.54157">
        <ele>859.59997558594</ele>
        <time>2021-03-24T12:14:46.000Z</time>
      </trkpt>
      <trkpt lat="46.27034" lon="6.54141">
        <ele>859</ele>
        <time>2021-03-24T12:14:52.000Z</time>
      </trkpt>
      <trkpt lat="46.27015" lon="6.54122">
        <ele>856.59997558594</ele>
        <time>2021-03-24T12:14:58.000Z</time>
      </trkpt>
      <trkpt lat="46.26997" lon="6.54105">
        <ele>853.40002441406</ele>
        <time>2021-03-24T12:15:04.000Z</time>
      </trkpt>
      <trkpt lat="46.26977" lon="6.54081">
        <ele>850.20001220703</ele>
        <time>2021-03-24T12:15:11.000Z</time>
      </trkpt>
      <trkpt lat="46.26963" lon="6.54054">
        <ele>854.79998779297</ele>
        <time>2021-03-24T12:15:18.000Z</time>
      </trkpt>
      <trkpt lat="46.26947" lon="6.54024">
        <ele>863.20001220703</ele>
        <time>2021-03-24T12:15:25.000Z</time>
      </trkpt>
      <trkpt lat="46.26934" lon="6.54001">
        <ele>866.40002441406</ele>
        <time>2021-03-24T12:15:31.000Z</time>
      </trkpt>
      <trkpt lat="46.26918" lon="6.53984">
        <ele>863.59997558594</ele>
        <time>2021-03-24T12:15:37.000Z</time>
      </trkpt>
      <trkpt lat="46.26897" lon="6.53964">
        <ele>863.20001220703</ele>
        <time>2021-03-24T12:15:44.000Z</time>
      </trkpt>
      <trkpt lat="46.26883" lon="6.53948">
        <ele>864</ele>
        <time>2021-03-24T12:15:49.000Z</time>
      </trkpt>
      <trkpt lat="46.26864" lon="6.53929">
        <ele>863</ele>
        <time>2021-03-24T12:15:56.000Z</time>
      </trkpt>
      <trkpt lat="46.26845" lon="6.5391">
        <ele>863.40002441406</ele>
        <time>2021-03-24T12:16:03.000Z</time>
      </trkpt>
      <trkpt lat="46.26828" lon="6.53893">
        <ele>865.40002441406</ele>
        <time>2021-03-24T12:16:09.000Z</time>
      </trkpt>
      <trkpt lat="46.26811" lon="6.53875">
        <ele>867.79998779297</ele>
        <time>2021-03-24T12:16:15.000Z</time>
      </trkpt>
      <trkpt lat="46.26797" lon="6.53861">
        <ele>869.79998779297</ele>
        <time>2021-03-24T12:16:20.000Z</time>
      </trkpt>
      <trkpt lat="46.26772" lon="6.53845">
        <ele>868.40002441406</ele>
        <time>2021-03-24T12:16:27.000Z</time>
      </trkpt>
      <trkpt lat="46.26754" lon="6.53833">
        <ele>869</ele>
        <time>2021-03-24T12:16:32.000Z</time>
      </trkpt>
      <trkpt lat="46.26736" lon="6.53821">
        <ele>870</ele>
        <time>2021-03-24T12:16:37.000Z</time>
      </trkpt>
      <trkpt lat="46.26732" lon="6.53819">
        <ele>870</ele>
        <time>2021-03-24T12:16:38.000Z</time>
      </trkpt>
      <trkpt lat="46.26722" lon="6.53812">
        <ele>870.20001220703</ele>
        <time>2021-03-24T12:16:41.000Z</time>
      </trkpt>
      <trkpt lat="46.26704" lon="6.53801">
        <ele>870.40002441406</ele>
        <time>2021-03-24T12:16:46.000Z</time>
      </trkpt>
      <trkpt lat="46.26688" lon="6.53787">
        <ele>871.59997558594</ele>
        <time>2021-03-24T12:16:51.000Z</time>
      </trkpt>
      <trkpt lat="46.26674" lon="6.5377">
        <ele>871</ele>
        <time>2021-03-24T12:16:56.000Z</time>
      </trkpt>
      <trkpt lat="46.26657" lon="6.53751">
        <ele>869.20001220703</ele>
        <time>2021-03-24T12:17:02.000Z</time>
      </trkpt>
      <trkpt lat="46.2664" lon="6.53731">
        <ele>867.79998779297</ele>
        <time>2021-03-24T12:17:08.000Z</time>
      </trkpt>
      <trkpt lat="46.26623" lon="6.53711">
        <ele>867</ele>
        <time>2021-03-24T12:17:14.000Z</time>
      </trkpt>
      <trkpt lat="46.26605" lon="6.5369">
        <ele>867</ele>
        <time>2021-03-24T12:17:21.000Z</time>
      </trkpt>
      <trkpt lat="46.26586" lon="6.53666">
        <ele>870.79998779297</ele>
        <time>2021-03-24T12:17:28.000Z</time>
      </trkpt>
      <trkpt lat="46.26573" lon="6.5365">
        <ele>874.20001220703</ele>
        <time>2021-03-24T12:17:33.000Z</time>
      </trkpt>
      <trkpt lat="46.26557" lon="6.5363">
        <ele>876.79998779297</ele>
        <time>2021-03-24T12:17:39.000Z</time>
      </trkpt>
      <trkpt lat="46.26538" lon="6.53615">
        <ele>877.20001220703</ele>
        <time>2021-03-24T12:17:45.000Z</time>
      </trkpt>
      <trkpt lat="46.26523" lon="6.53602">
        <ele>876.59997558594</ele>
        <time>2021-03-24T12:17:50.000Z</time>
      </trkpt>
      <trkpt lat="46.26492" lon="6.53586">
        <ele>875.20001220703</ele>
        <time>2021-03-24T12:17:59.000Z</time>
      </trkpt>
      <trkpt lat="46.26461" lon="6.53571">
        <ele>873.40002441406</ele>
        <time>2021-03-24T12:18:09.000Z</time>
      </trkpt>
      <trkpt lat="46.26433" lon="6.53565">
        <ele>872.20001220703</ele>
        <time>2021-03-24T12:18:18.000Z</time>
      </trkpt>
      <trkpt lat="46.26405" lon="6.53566">
        <ele>872.40002441406</ele>
        <time>2021-03-24T12:18:26.000Z</time>
      </trkpt>
      <trkpt lat="46.26388" lon="6.53567">
        <ele>874.59997558594</ele>
        <time>2021-03-24T12:18:31.000Z</time>
      </trkpt>
      <trkpt lat="46.26354" lon="6.5357">
        <ele>874.59997558594</ele>
        <time>2021-03-24T12:18:41.000Z</time>
      </trkpt>
      <trkpt lat="46.26319" lon="6.53573">
        <ele>875</ele>
        <time>2021-03-24T12:18:51.000Z</time>
      </trkpt>
      <trkpt lat="46.26291" lon="6.53572">
        <ele>876.40002441406</ele>
        <time>2021-03-24T12:18:59.000Z</time>
      </trkpt>
      <trkpt lat="46.26268" lon="6.53557">
        <ele>878</ele>
        <time>2021-03-24T12:19:06.000Z</time>
      </trkpt>
      <trkpt lat="46.26232" lon="6.53533">
        <ele>882.79998779297</ele>
        <time>2021-03-24T12:19:17.000Z</time>
      </trkpt>
      <trkpt lat="46.26197" lon="6.5351">
        <ele>888</ele>
        <time>2021-03-24T12:19:28.000Z</time>
      </trkpt>
      <trkpt lat="46.26169" lon="6.53498">
        <ele>887.59997558594</ele>
        <time>2021-03-24T12:19:36.000Z</time>
      </trkpt>
      <trkpt lat="46.26136" lon="6.5348">
        <ele>886</ele>
        <time>2021-03-24T12:19:46.000Z</time>
      </trkpt>
      <trkpt lat="46.26112" lon="6.53463">
        <ele>888.79998779297</ele>
        <time>2021-03-24T12:19:53.000Z</time>
      </trkpt>
      <trkpt lat="46.26084" lon="6.53443">
        <ele>890.40002441406</ele>
        <time>2021-03-24T12:20:01.000Z</time>
      </trkpt>
      <trkpt lat="46.26057" lon="6.53424">
        <ele>890.79998779297</ele>
        <time>2021-03-24T12:20:09.000Z</time>
      </trkpt>
      <trkpt lat="46.26037" lon="6.53408">
        <ele>892</ele>
        <time>2021-03-24T12:20:16.000Z</time>
      </trkpt>
      <trkpt lat="46.26004" lon="6.5338">
        <ele>894.40002441406</ele>
        <time>2021-03-24T12:20:25.000Z</time>
      </trkpt>
      <trkpt lat="46.25978" lon="6.53358">
        <ele>895.40002441406</ele>
        <time>2021-03-24T12:20:33.000Z</time>
      </trkpt>
      <trkpt lat="46.25949" lon="6.53334">
        <ele>904</ele>
        <time>2021-03-24T12:20:42.000Z</time>
      </trkpt>
      <trkpt lat="46.25926" lon="6.53315">
        <ele>907</ele>
        <time>2021-03-24T12:20:49.000Z</time>
      </trkpt>
      <trkpt lat="46.25897" lon="6.53291">
        <ele>905</ele>
        <time>2021-03-24T12:20:58.000Z</time>
      </trkpt>
      <trkpt lat="46.25877" lon="6.53274">
        <ele>902.79998779297</ele>
        <time>2021-03-24T12:21:05.000Z</time>
      </trkpt>
      <trkpt lat="46.2585" lon="6.53251">
        <ele>904.79998779297</ele>
        <time>2021-03-24T12:21:14.000Z</time>
      </trkpt>
      <trkpt lat="46.25827" lon="6.53232">
        <ele>905.20001220703</ele>
        <time>2021-03-24T12:21:22.000Z</time>
      </trkpt>
      <trkpt lat="46.25802" lon="6.53213">
        <ele>904.79998779297</ele>
        <time>2021-03-24T12:21:30.000Z</time>
      </trkpt>
      <trkpt lat="46.2578" lon="6.53197">
        <ele>903.79998779297</ele>
        <time>2021-03-24T12:21:37.000Z</time>
      </trkpt>
      <trkpt lat="46.25754" lon="6.53176">
        <ele>902.79998779297</ele>
        <time>2021-03-24T12:21:46.000Z</time>
      </trkpt>
      <trkpt lat="46.25737" lon="6.53155">
        <ele>904.59997558594</ele>
        <time>2021-03-24T12:21:52.000Z</time>
      </trkpt>
      <trkpt lat="46.2572" lon="6.53132">
        <ele>906.40002441406</ele>
        <time>2021-03-24T12:21:59.000Z</time>
      </trkpt>
      <trkpt lat="46.25707" lon="6.53115">
        <ele>906.59997558594</ele>
        <time>2021-03-24T12:22:04.000Z</time>
      </trkpt>
      <trkpt lat="46.25689" lon="6.53091">
        <ele>906</ele>
        <time>2021-03-24T12:22:12.000Z</time>
      </trkpt>
      <trkpt lat="46.25672" lon="6.53068">
        <ele>906.59997558594</ele>
        <time>2021-03-24T12:22:20.000Z</time>
      </trkpt>
      <trkpt lat="46.25652" lon="6.53041">
        <ele>909.79998779297</ele>
        <time>2021-03-24T12:22:29.000Z</time>
      </trkpt>
      <trkpt lat="46.2563" lon="6.53013">
        <ele>914.40002441406</ele>
        <time>2021-03-24T12:22:39.000Z</time>
      </trkpt>
      <trkpt lat="46.25617" lon="6.52996">
        <ele>916.20001220703</ele>
        <time>2021-03-24T12:22:45.000Z</time>
      </trkpt>
      <trkpt lat="46.25598" lon="6.52971">
        <ele>917.40002441406</ele>
        <time>2021-03-24T12:22:54.000Z</time>
      </trkpt>
      <trkpt lat="46.25582" lon="6.52959">
        <ele>918.79998779297</ele>
        <time>2021-03-24T12:23:01.000Z</time>
      </trkpt>
      <trkpt lat="46.25563" lon="6.52948">
        <ele>920.79998779297</ele>
        <time>2021-03-24T12:23:08.000Z</time>
      </trkpt>
      <trkpt lat="46.25545" lon="6.52938">
        <ele>923.20001220703</ele>
        <time>2021-03-24T12:23:15.000Z</time>
      </trkpt>
      <trkpt lat="46.25522" lon="6.52925">
        <ele>925.40002441406</ele>
        <time>2021-03-24T12:23:24.000Z</time>
      </trkpt>
      <trkpt lat="46.25501" lon="6.52913">
        <ele>922.79998779297</ele>
        <time>2021-03-24T12:23:32.000Z</time>
      </trkpt>
      <trkpt lat="46.25488" lon="6.52892">
        <ele>923.40002441406</ele>
        <time>2021-03-24T12:23:39.000Z</time>
      </trkpt>
      <trkpt lat="46.25473" lon="6.52868">
        <ele>925.40002441406</ele>
        <time>2021-03-24T12:23:47.000Z</time>
      </trkpt>
      <trkpt lat="46.25461" lon="6.52847">
        <ele>928</ele>
        <time>2021-03-24T12:23:54.000Z</time>
      </trkpt>
      <trkpt lat="46.25444" lon="6.52821">
        <ele>931.20001220703</ele>
        <time>2021-03-24T12:24:03.000Z</time>
      </trkpt>
      <trkpt lat="46.25434" lon="6.52807">
        <ele>932.20001220703</ele>
        <time>2021-03-24T12:24:08.000Z</time>
      </trkpt>
      <trkpt lat="46.25417" lon="6.52794">
        <ele>931.79998779297</ele>
        <time>2021-03-24T12:24:15.000Z</time>
      </trkpt>
      <trkpt lat="46.25395" lon="6.52779">
        <ele>931.79998779297</ele>
        <time>2021-03-24T12:24:24.000Z</time>
      </trkpt>
      <trkpt lat="46.25374" lon="6.52771">
        <ele>931.59997558594</ele>
        <time>2021-03-24T12:24:32.000Z</time>
      </trkpt>
      <trkpt lat="46.25352" lon="6.5276">
        <ele>932.79998779297</ele>
        <time>2021-03-24T12:24:40.000Z</time>
      </trkpt>
      <trkpt lat="46.25328" lon="6.52748">
        <ele>933</ele>
        <time>2021-03-24T12:24:49.000Z</time>
      </trkpt>
      <trkpt lat="46.25304" lon="6.52735">
        <ele>931.40002441406</ele>
        <time>2021-03-24T12:24:58.000Z</time>
      </trkpt>
      <trkpt lat="46.25281" lon="6.52724">
        <ele>932.79998779297</ele>
        <time>2021-03-24T12:25:07.000Z</time>
      </trkpt>
      <trkpt lat="46.25266" lon="6.52722">
        <ele>934</ele>
        <time>2021-03-24T12:25:13.000Z</time>
      </trkpt>
      <trkpt lat="46.25243" lon="6.5272">
        <ele>938.40002441406</ele>
        <time>2021-03-24T12:25:21.000Z</time>
      </trkpt>
      <trkpt lat="46.25223" lon="6.52717">
        <ele>937.59997558594</ele>
        <time>2021-03-24T12:25:28.000Z</time>
      </trkpt>
      <trkpt lat="46.25206" lon="6.52704">
        <ele>938.40002441406</ele>
        <time>2021-03-24T12:25:35.000Z</time>
      </trkpt>
      <trkpt lat="46.2519" lon="6.52692">
        <ele>939</ele>
        <time>2021-03-24T12:25:41.000Z</time>
      </trkpt>
      <trkpt lat="46.25168" lon="6.52675">
        <ele>941</ele>
        <time>2021-03-24T12:25:50.000Z</time>
      </trkpt>
      <trkpt lat="46.25154" lon="6.52663">
        <ele>943</ele>
        <time>2021-03-24T12:25:56.000Z</time>
      </trkpt>
      <trkpt lat="46.25138" lon="6.5265">
        <ele>946</ele>
        <time>2021-03-24T12:26:03.000Z</time>
      </trkpt>
      <trkpt lat="46.25125" lon="6.52643">
        <ele>948</ele>
        <time>2021-03-24T12:26:08.000Z</time>
      </trkpt>
      <trkpt lat="46.25106" lon="6.52637">
        <ele>950.40002441406</ele>
        <time>2021-03-24T12:26:15.000Z</time>
      </trkpt>
      <trkpt lat="46.25082" lon="6.5263">
        <ele>953.40002441406</ele>
        <time>2021-03-24T12:26:24.000Z</time>
      </trkpt>
      <trkpt lat="46.25061" lon="6.52627">
        <ele>954.59997558594</ele>
        <time>2021-03-24T12:26:31.000Z</time>
      </trkpt>
      <trkpt lat="46.25041" lon="6.52625">
        <ele>954.40002441406</ele>
        <time>2021-03-24T12:26:38.000Z</time>
      </trkpt>
      <trkpt lat="46.25023" lon="6.52623">
        <ele>953.40002441406</ele>
        <time>2021-03-24T12:26:45.000Z</time>
      </trkpt>
      <trkpt lat="46.25007" lon="6.52613">
        <ele>955.79998779297</ele>
        <time>2021-03-24T12:26:51.000Z</time>
      </trkpt>
      <trkpt lat="46.24994" lon="6.52605">
        <ele>958</ele>
        <time>2021-03-24T12:26:57.000Z</time>
      </trkpt>
      <trkpt lat="46.24983" lon="6.52598">
        <ele>961.59997558594</ele>
        <time>2021-03-24T12:27:02.000Z</time>
      </trkpt>
      <trkpt lat="46.24971" lon="6.52592">
        <ele>965</ele>
        <time>2021-03-24T12:27:07.000Z</time>
      </trkpt>
      <trkpt lat="46.24955" lon="6.52592">
        <ele>966</ele>
        <time>2021-03-24T12:27:13.000Z</time>
      </trkpt>
      <trkpt lat="46.24937" lon="6.52592">
        <ele>967.20001220703</ele>
        <time>2021-03-24T12:27:19.000Z</time>
      </trkpt>
      <trkpt lat="46.24913" lon="6.526">
        <ele>962.79998779297</ele>
        <time>2021-03-24T12:27:27.000Z</time>
      </trkpt>
      <trkpt lat="46.2489" lon="6.52609">
        <ele>960.59997558594</ele>
        <time>2021-03-24T12:27:35.000Z</time>
      </trkpt>
      <trkpt lat="46.24866" lon="6.52619">
        <ele>959.40002441406</ele>
        <time>2021-03-24T12:27:44.000Z</time>
      </trkpt>
      <trkpt lat="46.24844" lon="6.52633">
        <ele>958.79998779297</ele>
        <time>2021-03-24T12:27:52.000Z</time>
      </trkpt>
      <trkpt lat="46.24819" lon="6.52648">
        <ele>961</ele>
        <time>2021-03-24T12:28:02.000Z</time>
      </trkpt>
      <trkpt lat="46.24793" lon="6.52664">
        <ele>967.40002441406</ele>
        <time>2021-03-24T12:28:12.000Z</time>
      </trkpt>
      <trkpt lat="46.24766" lon="6.52679">
        <ele>969.40002441406</ele>
        <time>2021-03-24T12:28:23.000Z</time>
      </trkpt>
      <trkpt lat="46.24746" lon="6.52687">
        <ele>970.20001220703</ele>
        <time>2021-03-24T12:28:31.000Z</time>
      </trkpt>
      <trkpt lat="46.24727" lon="6.52694">
        <ele>972.20001220703</ele>
        <time>2021-03-24T12:28:38.000Z</time>
      </trkpt>
      <trkpt lat="46.2471" lon="6.52701">
        <ele>974.59997558594</ele>
        <time>2021-03-24T12:28:44.000Z</time>
      </trkpt>
      <trkpt lat="46.24688" lon="6.52719">
        <ele>974.20001220703</ele>
        <time>2021-03-24T12:28:53.000Z</time>
      </trkpt>
      <trkpt lat="46.24672" lon="6.52735">
        <ele>972.79998779297</ele>
        <time>2021-03-24T12:29:00.000Z</time>
      </trkpt>
      <trkpt lat="46.24654" lon="6.52752">
        <ele>969.79998779297</ele>
        <time>2021-03-24T12:29:08.000Z</time>
      </trkpt>
      <trkpt lat="46.24631" lon="6.52764">
        <ele>971</ele>
        <time>2021-03-24T12:29:17.000Z</time>
      </trkpt>
      <trkpt lat="46.24606" lon="6.52773">
        <ele>971</ele>
        <time>2021-03-24T12:29:26.000Z</time>
      </trkpt>
      <trkpt lat="46.24585" lon="6.52767">
        <ele>978.59997558594</ele>
        <time>2021-03-24T12:29:34.000Z</time>
      </trkpt>
      <trkpt lat="46.24577" lon="6.52764">
        <ele>982.20001220703</ele>
        <time>2021-03-24T12:29:38.000Z</time>
      </trkpt>
      <trkpt lat="46.2457" lon="6.52762">
        <ele>984.59997558594</ele>
        <time>2021-03-24T12:29:42.000Z</time>
      </trkpt>
      <trkpt lat="46.24566" lon="6.52761">
        <ele>985.79998779297</ele>
        <time>2021-03-24T12:29:44.000Z</time>
      </trkpt>
      <trkpt lat="46.24557" lon="6.52758">
        <ele>988.59997558594</ele>
        <time>2021-03-24T12:29:49.000Z</time>
      </trkpt>
      <trkpt lat="46.24533" lon="6.52754">
        <ele>995.79998779297</ele>
        <time>2021-03-24T12:29:54.000Z</time>
      </trkpt>
      <trkpt lat="46.24518" lon="6.52766">
        <ele>996.59997558594</ele>
        <time>2021-03-24T12:30:00.000Z</time>
      </trkpt>
      <trkpt lat="46.24508" lon="6.52784">
        <ele>995</ele>
        <time>2021-03-24T12:30:06.000Z</time>
      </trkpt>
      <trkpt lat="46.24495" lon="6.52805">
        <ele>992.79998779297</ele>
        <time>2021-03-24T12:30:12.000Z</time>
      </trkpt>
      <trkpt lat="46.24481" lon="6.52813">
        <ele>991.40002441406</ele>
        <time>2021-03-24T12:30:17.000Z</time>
      </trkpt>
      <trkpt lat="46.2446" lon="6.52823">
        <ele>990.79998779297</ele>
        <time>2021-03-24T12:30:24.000Z</time>
      </trkpt>
      <trkpt lat="46.24446" lon="6.52829">
        <ele>990.40002441406</ele>
        <time>2021-03-24T12:30:29.000Z</time>
      </trkpt>
      <trkpt lat="46.24424" lon="6.52835">
        <ele>990.40002441406</ele>
        <time>2021-03-24T12:30:36.000Z</time>
      </trkpt>
      <trkpt lat="46.244" lon="6.52839">
        <ele>991.59997558594</ele>
        <time>2021-03-24T12:30:44.000Z</time>
      </trkpt>
      <trkpt lat="46.24382" lon="6.52842">
        <ele>992.20001220703</ele>
        <time>2021-03-24T12:30:50.000Z</time>
      </trkpt>
      <trkpt lat="46.24361" lon="6.52846">
        <ele>992.40002441406</ele>
        <time>2021-03-24T12:30:57.000Z</time>
      </trkpt>
      <trkpt lat="46.24343" lon="6.52845">
        <ele>992.40002441406</ele>
        <time>2021-03-24T12:31:03.000Z</time>
      </trkpt>
      <trkpt lat="46.24327" lon="6.52824">
        <ele>994.79998779297</ele>
        <time>2021-03-24T12:31:09.000Z</time>
      </trkpt>
      <trkpt lat="46.24307" lon="6.52791">
        <ele>996.59997558594</ele>
        <time>2021-03-24T12:31:17.000Z</time>
      </trkpt>
      <trkpt lat="46.2428" lon="6.52757">
        <ele>996</ele>
        <time>2021-03-24T12:31:26.000Z</time>
      </trkpt>
      <trkpt lat="46.24257" lon="6.52727">
        <ele>997.59997558594</ele>
        <time>2021-03-24T12:31:34.000Z</time>
      </trkpt>
      <trkpt lat="46.24237" lon="6.52702">
        <ele>1001.4000244141</ele>
        <time>2021-03-24T12:31:41.000Z</time>
      </trkpt>
      <trkpt lat="46.24218" lon="6.52695">
        <ele>1001.4000244141</ele>
        <time>2021-03-24T12:31:46.000Z</time>
      </trkpt>
      <trkpt lat="46.24187" lon="6.52685">
        <ele>998.40002441406</ele>
        <time>2021-03-24T12:31:54.000Z</time>
      </trkpt>
      <trkpt lat="46.24165" lon="6.52674">
        <ele>995.79998779297</ele>
        <time>2021-03-24T12:32:00.000Z</time>
      </trkpt>
      <trkpt lat="46.24154" lon="6.52653">
        <ele>1000.799987793</ele>
        <time>2021-03-24T12:32:05.000Z</time>
      </trkpt>
      <trkpt lat="46.2415" lon="6.52644">
        <ele>1003.5999755859</ele>
        <time>2021-03-24T12:32:07.000Z</time>
      </trkpt>
      <trkpt lat="46.24145" lon="6.52634">
        <ele>1006.200012207</ele>
        <time>2021-03-24T12:32:09.000Z</time>
      </trkpt>
      <trkpt lat="46.24143" lon="6.5263">
        <ele>1007.4000244141</ele>
        <time>2021-03-24T12:32:10.000Z</time>
      </trkpt>
      <trkpt lat="46.24132" lon="6.52608">
        <ele>1013.200012207</ele>
        <time>2021-03-24T12:32:15.000Z</time>
      </trkpt>
      <trkpt lat="46.24117" lon="6.52601">
        <ele>1014.4000244141</ele>
        <time>2021-03-24T12:32:19.000Z</time>
      </trkpt>
      <trkpt lat="46.24116" lon="6.526">
        <ele>1014.4000244141</ele>
        <time>2021-03-24T12:32:20.000Z</time>
      </trkpt>
      <trkpt lat="46.24108" lon="6.526">
        <ele>1014.200012207</ele>
        <time>2021-03-24T12:32:22.000Z</time>
      </trkpt>
      <trkpt lat="46.24088" lon="6.52601">
        <ele>1015.4000244141</ele>
        <time>2021-03-24T12:32:28.000Z</time>
      </trkpt>
      <trkpt lat="46.24069" lon="6.52608">
        <ele>1018.4000244141</ele>
        <time>2021-03-24T12:32:33.000Z</time>
      </trkpt>
      <trkpt lat="46.24058" lon="6.52635">
        <ele>1013.5999755859</ele>
        <time>2021-03-24T12:32:38.000Z</time>
      </trkpt>
      <trkpt lat="46.24056" lon="6.5264">
        <ele>1013</ele>
        <time>2021-03-24T12:32:39.000Z</time>
      </trkpt>
      <trkpt lat="46.24054" lon="6.5265">
        <ele>1011.5999755859</ele>
        <time>2021-03-24T12:32:41.000Z</time>
      </trkpt>
      <trkpt lat="46.24053" lon="6.52654">
        <ele>1010.799987793</ele>
        <time>2021-03-24T12:32:42.000Z</time>
      </trkpt>
      <trkpt lat="46.24046" lon="6.5268">
        <ele>1007</ele>
        <time>2021-03-24T12:32:47.000Z</time>
      </trkpt>
      <trkpt lat="46.24035" lon="6.52699">
        <ele>1006.200012207</ele>
        <time>2021-03-24T12:32:51.000Z</time>
      </trkpt>
      <trkpt lat="46.24013" lon="6.52705">
        <ele>1009.200012207</ele>
        <time>2021-03-24T12:32:56.000Z</time>
      </trkpt>
      <trkpt lat="46.23991" lon="6.52705">
        <ele>1011.4000244141</ele>
        <time>2021-03-24T12:33:02.000Z</time>
      </trkpt>
      <trkpt lat="46.2396" lon="6.52704">
        <ele>1011.799987793</ele>
        <time>2021-03-24T12:33:10.000Z</time>
      </trkpt>
      <trkpt lat="46.23932" lon="6.52701">
        <ele>1011.799987793</ele>
        <time>2021-03-24T12:33:17.000Z</time>
      </trkpt>
      <trkpt lat="46.23928" lon="6.527">
        <ele>1012.4000244141</ele>
        <time>2021-03-24T12:33:18.000Z</time>
      </trkpt>
      <trkpt lat="46.23916" lon="6.52697">
        <ele>1013.4000244141</ele>
        <time>2021-03-24T12:33:21.000Z</time>
      </trkpt>
      <trkpt lat="46.23885" lon="6.52689">
        <ele>1015.5999755859</ele>
        <time>2021-03-24T12:33:29.000Z</time>
      </trkpt>
      <trkpt lat="46.2385" lon="6.52681">
        <ele>1014.4000244141</ele>
        <time>2021-03-24T12:33:38.000Z</time>
      </trkpt>
      <trkpt lat="46.23822" lon="6.52674">
        <ele>1013.5999755859</ele>
        <time>2021-03-24T12:33:46.000Z</time>
      </trkpt>
      <trkpt lat="46.23801" lon="6.52671">
        <ele>1014.4000244141</ele>
        <time>2021-03-24T12:33:52.000Z</time>
      </trkpt>
      <trkpt lat="46.23781" lon="6.52671">
        <ele>1013.5999755859</ele>
        <time>2021-03-24T12:33:57.000Z</time>
      </trkpt>
      <trkpt lat="46.23761" lon="6.52671">
        <ele>1012.5999755859</ele>
        <time>2021-03-24T12:34:02.000Z</time>
      </trkpt>
      <trkpt lat="46.23738" lon="6.52667">
        <ele>1012.200012207</ele>
        <time>2021-03-24T12:34:08.000Z</time>
      </trkpt>
      <trkpt lat="46.23718" lon="6.52647">
        <ele>1015.5999755859</ele>
        <time>2021-03-24T12:34:14.000Z</time>
      </trkpt>
      <trkpt lat="46.23704" lon="6.52622">
        <ele>1019.4000244141</ele>
        <time>2021-03-24T12:34:20.000Z</time>
      </trkpt>
      <trkpt lat="46.23684" lon="6.52595">
        <ele>1022.5999755859</ele>
        <time>2021-03-24T12:34:27.000Z</time>
      </trkpt>
      <trkpt lat="46.23676" lon="6.52591">
        <ele>1021.799987793</ele>
        <time>2021-03-24T12:34:29.000Z</time>
      </trkpt>
      <trkpt lat="46.23664" lon="6.52587">
        <ele>1020.4000244141</ele>
        <time>2021-03-24T12:34:32.000Z</time>
      </trkpt>
      <trkpt lat="46.23647" lon="6.52579">
        <ele>1019</ele>
        <time>2021-03-24T12:34:37.000Z</time>
      </trkpt>
      <trkpt lat="46.23644" lon="6.52578">
        <ele>1018.799987793</ele>
        <time>2021-03-24T12:34:38.000Z</time>
      </trkpt>
      <trkpt lat="46.23624" lon="6.52564">
        <ele>1019</ele>
        <time>2021-03-24T12:34:44.000Z</time>
      </trkpt>
      <trkpt lat="46.23607" lon="6.52538">
        <ele>1021.200012207</ele>
        <time>2021-03-24T12:34:51.000Z</time>
      </trkpt>
      <trkpt lat="46.23591" lon="6.52504">
        <ele>1024.5999755859</ele>
        <time>2021-03-24T12:35:00.000Z</time>
      </trkpt>
      <trkpt lat="46.23575" lon="6.52469">
        <ele>1028.4000244141</ele>
        <time>2021-03-24T12:35:08.000Z</time>
      </trkpt>
      <trkpt lat="46.23564" lon="6.52443">
        <ele>1030.5999755859</ele>
        <time>2021-03-24T12:35:14.000Z</time>
      </trkpt>
      <trkpt lat="46.23553" lon="6.52417">
        <ele>1030.5999755859</ele>
        <time>2021-03-24T12:35:20.000Z</time>
      </trkpt>
      <trkpt lat="46.23539" lon="6.52381">
        <ele>1030</ele>
        <time>2021-03-24T12:35:28.000Z</time>
      </trkpt>
      <trkpt lat="46.23527" lon="6.52356">
        <ele>1031</ele>
        <time>2021-03-24T12:35:34.000Z</time>
      </trkpt>
      <trkpt lat="46.23516" lon="6.52326">
        <ele>1033.5999755859</ele>
        <time>2021-03-24T12:35:41.000Z</time>
      </trkpt>
      <trkpt lat="46.23507" lon="6.52297">
        <ele>1034.5999755859</ele>
        <time>2021-03-24T12:35:47.000Z</time>
      </trkpt>
      <trkpt lat="46.23501" lon="6.5226">
        <ele>1033.1999511719</ele>
        <time>2021-03-24T12:35:54.000Z</time>
      </trkpt>
      <trkpt lat="46.23503" lon="6.52212">
        <ele>1033.5999755859</ele>
        <time>2021-03-24T12:36:02.000Z</time>
      </trkpt>
      <trkpt lat="46.23506" lon="6.52161">
        <ele>1034.4000244141</ele>
        <time>2021-03-24T12:36:10.000Z</time>
      </trkpt>
      <trkpt lat="46.23508" lon="6.52108">
        <ele>1034.1999511719</ele>
        <time>2021-03-24T12:36:19.000Z</time>
      </trkpt>
      <trkpt lat="46.23509" lon="6.5209">
        <ele>1034.8000488281</ele>
        <time>2021-03-24T12:36:24.000Z</time>
      </trkpt>
      <trkpt lat="46.23509" lon="6.52085">
        <ele>1035</ele>
        <time>2021-03-24T12:36:27.000Z</time>
      </trkpt>
      <trkpt lat="46.23509" lon="6.52083">
        <ele>1035</ele>
        <time>2021-03-24T12:36:31.000Z</time>
      </trkpt>
      <trkpt lat="46.23509" lon="6.52082">
        <ele>1035</ele>
        <time>2021-03-24T12:36:32.000Z</time>
      </trkpt>
      <trkpt lat="46.23509" lon="6.5207">
        <ele>1035.4000244141</ele>
        <time>2021-03-24T12:36:37.000Z</time>
      </trkpt>
      <trkpt lat="46.23509" lon="6.52045">
        <ele>1035.4000244141</ele>
        <time>2021-03-24T12:36:43.000Z</time>
      </trkpt>
      <trkpt lat="46.23509" lon="6.52035">
        <ele>1035.4000244141</ele>
        <time>2021-03-24T12:36:48.000Z</time>
      </trkpt>
      <trkpt lat="46.23509" lon="6.52035">
        <ele>1035.4000244141</ele>
        <time>2021-03-24T12:36:49.000Z</time>
      </trkpt>
      <trkpt lat="46.23509" lon="6.52021">
        <ele>1035</ele>
        <time>2021-03-24T12:40:56.000Z</time>
      </trkpt>
      <trkpt lat="46.23509" lon="6.52016">
        <ele>1034.5999755859</ele>
        <time>2021-03-24T12:40:58.000Z</time>
      </trkpt>
      <trkpt lat="46.23526" lon="6.51997">
        <ele>1032.8000488281</ele>
        <time>2021-03-24T12:41:03.000Z</time>
      </trkpt>
      <trkpt lat="46.23545" lon="6.5199">
        <ele>1032.4000244141</ele>
        <time>2021-03-24T12:41:09.000Z</time>
      </trkpt>
      <trkpt lat="46.23569" lon="6.5198">
        <ele>1034.8000488281</ele>
        <time>2021-03-24T12:41:17.000Z</time>
      </trkpt>
      <trkpt lat="46.23588" lon="6.51972">
        <ele>1036.4000244141</ele>
        <time>2021-03-24T12:41:24.000Z</time>
      </trkpt>
      <trkpt lat="46.23609" lon="6.51963">
        <ele>1036.8000488281</ele>
        <time>2021-03-24T12:41:31.000Z</time>
      </trkpt>
      <trkpt lat="46.23624" lon="6.51957">
        <ele>1037</ele>
        <time>2021-03-24T12:41:36.000Z</time>
      </trkpt>
      <trkpt lat="46.23645" lon="6.51948">
        <ele>1038.5999755859</ele>
        <time>2021-03-24T12:41:43.000Z</time>
      </trkpt>
      <trkpt lat="46.23666" lon="6.51936">
        <ele>1040</ele>
        <time>2021-03-24T12:41:50.000Z</time>
      </trkpt>
      <trkpt lat="46.23683" lon="6.51917">
        <ele>1040</ele>
        <time>2021-03-24T12:41:57.000Z</time>
      </trkpt>
      <trkpt lat="46.23691" lon="6.51895">
        <ele>1042.1999511719</ele>
        <time>2021-03-24T12:42:03.000Z</time>
      </trkpt>
      <trkpt lat="46.23696" lon="6.51871">
        <ele>1041</ele>
        <time>2021-03-24T12:42:09.000Z</time>
      </trkpt>
      <trkpt lat="46.23699" lon="6.5184">
        <ele>1038.8000488281</ele>
        <time>2021-03-24T12:42:16.000Z</time>
      </trkpt>
      <trkpt lat="46.237" lon="6.51836">
        <ele>1038.4000244141</ele>
        <time>2021-03-24T12:42:17.000Z</time>
      </trkpt>
      <trkpt lat="46.23703" lon="6.51823">
        <ele>1037</ele>
        <time>2021-03-24T12:42:20.000Z</time>
      </trkpt>
      <trkpt lat="46.23724" lon="6.51792">
        <ele>1038.1999511719</ele>
        <time>2021-03-24T12:42:28.000Z</time>
      </trkpt>
      <trkpt lat="46.23748" lon="6.51763">
        <ele>1039.1999511719</ele>
        <time>2021-03-24T12:42:37.000Z</time>
      </trkpt>
      <trkpt lat="46.23771" lon="6.51743">
        <ele>1039.4000244141</ele>
        <time>2021-03-24T12:42:45.000Z</time>
      </trkpt>
      <trkpt lat="46.23802" lon="6.51721">
        <ele>1041.4000244141</ele>
        <time>2021-03-24T12:42:53.000Z</time>
      </trkpt>
      <trkpt lat="46.23835" lon="6.51692">
        <ele>1043.5999755859</ele>
        <time>2021-03-24T12:43:01.000Z</time>
      </trkpt>
      <trkpt lat="46.23864" lon="6.51656">
        <ele>1042.4000244141</ele>
        <time>2021-03-24T12:43:09.000Z</time>
      </trkpt>
      <trkpt lat="46.2387" lon="6.51648">
        <ele>1041.8000488281</ele>
        <time>2021-03-24T12:43:11.000Z</time>
      </trkpt>
      <trkpt lat="46.23884" lon="6.51638">
        <ele>1041</ele>
        <time>2021-03-24T12:43:15.000Z</time>
      </trkpt>
      <trkpt lat="46.23903" lon="6.51635">
        <ele>1042.1999511719</ele>
        <time>2021-03-24T12:43:20.000Z</time>
      </trkpt>
      <trkpt lat="46.2394" lon="6.51631">
        <ele>1044</ele>
        <time>2021-03-24T12:43:29.000Z</time>
      </trkpt>
      <trkpt lat="46.23972" lon="6.51626">
        <ele>1046.5999755859</ele>
        <time>2021-03-24T12:43:37.000Z</time>
      </trkpt>
      <trkpt lat="46.23997" lon="6.5161">
        <ele>1047.4000244141</ele>
        <time>2021-03-24T12:43:44.000Z</time>
      </trkpt>
      <trkpt lat="46.2402" lon="6.51599">
        <ele>1047.8000488281</ele>
        <time>2021-03-24T12:43:50.000Z</time>
      </trkpt>
      <trkpt lat="46.24024" lon="6.51599">
        <ele>1048</ele>
        <time>2021-03-24T12:43:51.000Z</time>
      </trkpt>
      <trkpt lat="46.24028" lon="6.51599">
        <ele>1048.1999511719</ele>
        <time>2021-03-24T12:43:52.000Z</time>
      </trkpt>
      <trkpt lat="46.24039" lon="6.51598">
        <ele>1048.5999755859</ele>
        <time>2021-03-24T12:43:55.000Z</time>
      </trkpt>
      <trkpt lat="46.24064" lon="6.51596">
        <ele>1048.5999755859</ele>
        <time>2021-03-24T12:44:01.000Z</time>
      </trkpt>
      <trkpt lat="46.24092" lon="6.51588">
        <ele>1048.1999511719</ele>
        <time>2021-03-24T12:44:07.000Z</time>
      </trkpt>
      <trkpt lat="46.2411" lon="6.51581">
        <ele>1048.8000488281</ele>
        <time>2021-03-24T12:44:11.000Z</time>
      </trkpt>
      <trkpt lat="46.24119" lon="6.51578">
        <ele>1050.1999511719</ele>
        <time>2021-03-24T12:44:13.000Z</time>
      </trkpt>
      <trkpt lat="46.24152" lon="6.51565">
        <ele>1053</ele>
        <time>2021-03-24T12:44:20.000Z</time>
      </trkpt>
      <trkpt lat="46.24196" lon="6.51544">
        <ele>1053.5999755859</ele>
        <time>2021-03-24T12:44:30.000Z</time>
      </trkpt>
      <trkpt lat="46.24234" lon="6.51525">
        <ele>1054.4000244141</ele>
        <time>2021-03-24T12:44:39.000Z</time>
      </trkpt>
      <trkpt lat="46.24269" lon="6.51508">
        <ele>1054.1999511719</ele>
        <time>2021-03-24T12:44:48.000Z</time>
      </trkpt>
      <trkpt lat="46.24299" lon="6.51494">
        <ele>1055.5999755859</ele>
        <time>2021-03-24T12:44:56.000Z</time>
      </trkpt>
      <trkpt lat="46.24318" lon="6.51484">
        <ele>1057.8000488281</ele>
        <time>2021-03-24T12:45:02.000Z</time>
      </trkpt>
      <trkpt lat="46.24338" lon="6.51475">
        <ele>1060</ele>
        <time>2021-03-24T12:45:09.000Z</time>
      </trkpt>
      <trkpt lat="46.24355" lon="6.51467">
        <ele>1062.1999511719</ele>
        <time>2021-03-24T12:45:17.000Z</time>
      </trkpt>
      <trkpt lat="46.2437" lon="6.51462">
        <ele>1064.4000244141</ele>
        <time>2021-03-24T12:45:24.000Z</time>
      </trkpt>
      <trkpt lat="46.24389" lon="6.51459">
        <ele>1066.4000244141</ele>
        <time>2021-03-24T12:45:32.000Z</time>
      </trkpt>
      <trkpt lat="46.24404" lon="6.51456">
        <ele>1068.8000488281</ele>
        <time>2021-03-24T12:45:39.000Z</time>
      </trkpt>
      <trkpt lat="46.24417" lon="6.51454">
        <ele>1070.8000488281</ele>
        <time>2021-03-24T12:45:45.000Z</time>
      </trkpt>
      <trkpt lat="46.2443" lon="6.51451">
        <ele>1072</ele>
        <time>2021-03-24T12:45:51.000Z</time>
      </trkpt>
      <trkpt lat="46.24442" lon="6.51449">
        <ele>1072.5999755859</ele>
        <time>2021-03-24T12:45:57.000Z</time>
      </trkpt>
      <trkpt lat="46.24458" lon="6.51446">
        <ele>1072.1999511719</ele>
        <time>2021-03-24T12:46:05.000Z</time>
      </trkpt>
      <trkpt lat="46.24476" lon="6.51443">
        <ele>1072</ele>
        <time>2021-03-24T12:46:14.000Z</time>
      </trkpt>
      <trkpt lat="46.2449" lon="6.5144">
        <ele>1072</ele>
        <time>2021-03-24T12:46:22.000Z</time>
      </trkpt>
      <trkpt lat="46.24506" lon="6.51437">
        <ele>1073</ele>
        <time>2021-03-24T12:46:30.000Z</time>
      </trkpt>
      <trkpt lat="46.24518" lon="6.51435">
        <ele>1074.4000244141</ele>
        <time>2021-03-24T12:46:37.000Z</time>
      </trkpt>
      <trkpt lat="46.24532" lon="6.51433">
        <ele>1076.4000244141</ele>
        <time>2021-03-24T12:46:45.000Z</time>
      </trkpt>
      <trkpt lat="46.24547" lon="6.51424">
        <ele>1077.4000244141</ele>
        <time>2021-03-24T12:46:54.000Z</time>
      </trkpt>
      <trkpt lat="46.24559" lon="6.51416">
        <ele>1079</ele>
        <time>2021-03-24T12:47:02.000Z</time>
      </trkpt>
      <trkpt lat="46.24571" lon="6.51408">
        <ele>1081</ele>
        <time>2021-03-24T12:47:10.000Z</time>
      </trkpt>
      <trkpt lat="46.24582" lon="6.514">
        <ele>1082.1999511719</ele>
        <time>2021-03-24T12:47:17.000Z</time>
      </trkpt>
      <trkpt lat="46.24593" lon="6.51397">
        <ele>1083.1999511719</ele>
        <time>2021-03-24T12:47:23.000Z</time>
      </trkpt>
      <trkpt lat="46.2461" lon="6.51395">
        <ele>1084.4000244141</ele>
        <time>2021-03-24T12:47:32.000Z</time>
      </trkpt>
      <trkpt lat="46.24625" lon="6.51393">
        <ele>1084.8000488281</ele>
        <time>2021-03-24T12:47:39.000Z</time>
      </trkpt>
      <trkpt lat="46.24641" lon="6.5139">
        <ele>1085.5999755859</ele>
        <time>2021-03-24T12:47:47.000Z</time>
      </trkpt>
      <trkpt lat="46.24656" lon="6.5138">
        <ele>1086.8000488281</ele>
        <time>2021-03-24T12:47:55.000Z</time>
      </trkpt>
      <trkpt lat="46.24671" lon="6.51371">
        <ele>1088.5999755859</ele>
        <time>2021-03-24T12:48:03.000Z</time>
      </trkpt>
      <trkpt lat="46.24685" lon="6.51362">
        <ele>1090.5999755859</ele>
        <time>2021-03-24T12:48:11.000Z</time>
      </trkpt>
      <trkpt lat="46.24699" lon="6.51352">
        <ele>1093</ele>
        <time>2021-03-24T12:48:20.000Z</time>
      </trkpt>
      <trkpt lat="46.24715" lon="6.51342">
        <ele>1095.1999511719</ele>
        <time>2021-03-24T12:48:28.000Z</time>
      </trkpt>
      <trkpt lat="46.24728" lon="6.51334">
        <ele>1096.8000488281</ele>
        <time>2021-03-24T12:48:35.000Z</time>
      </trkpt>
      <trkpt lat="46.2474" lon="6.51326">
        <ele>1098.5999755859</ele>
        <time>2021-03-24T12:48:41.000Z</time>
      </trkpt>
      <trkpt lat="46.24753" lon="6.51321">
        <ele>1099.8000488281</ele>
        <time>2021-03-24T12:48:48.000Z</time>
      </trkpt>
      <trkpt lat="46.24773" lon="6.51321">
        <ele>1101</ele>
        <time>2021-03-24T12:48:57.000Z</time>
      </trkpt>
      <trkpt lat="46.24802" lon="6.51321">
        <ele>1102.1999511719</ele>
        <time>2021-03-24T12:49:09.000Z</time>
      </trkpt>
      <trkpt lat="46.24809" lon="6.51321">
        <ele>1102.8000488281</ele>
        <time>2021-03-24T12:49:12.000Z</time>
      </trkpt>
      <trkpt lat="46.24815" lon="6.51322">
        <ele>1103.1999511719</ele>
        <time>2021-03-24T12:49:14.000Z</time>
      </trkpt>
      <trkpt lat="46.24833" lon="6.51322">
        <ele>1104.4000244141</ele>
        <time>2021-03-24T12:49:21.000Z</time>
      </trkpt>
      <trkpt lat="46.24836" lon="6.51322">
        <ele>1104.5999755859</ele>
        <time>2021-03-24T12:49:22.000Z</time>
      </trkpt>
      <trkpt lat="46.24844" lon="6.51322">
        <ele>1105.1999511719</ele>
        <time>2021-03-24T12:49:25.000Z</time>
      </trkpt>
      <trkpt lat="46.24861" lon="6.51319">
        <ele>1106</ele>
        <time>2021-03-24T12:49:31.000Z</time>
      </trkpt>
      <trkpt lat="46.24874" lon="6.51309">
        <ele>1106.5999755859</ele>
        <time>2021-03-24T12:49:37.000Z</time>
      </trkpt>
      <trkpt lat="46.24876" lon="6.51308">
        <ele>1106.8000488281</ele>
        <time>2021-03-24T12:49:38.000Z</time>
      </trkpt>
      <trkpt lat="46.24882" lon="6.51303">
        <ele>1107</ele>
        <time>2021-03-24T12:49:41.000Z</time>
      </trkpt>
      <trkpt lat="46.249" lon="6.51284">
        <ele>1107</ele>
        <time>2021-03-24T12:49:49.000Z</time>
      </trkpt>
      <trkpt lat="46.24908" lon="6.51274">
        <ele>1107.1999511719</ele>
        <time>2021-03-24T12:49:55.000Z</time>
      </trkpt>
      <trkpt lat="46.24929" lon="6.51253">
        <ele>1108.5999755859</ele>
        <time>2021-03-24T12:50:02.000Z</time>
      </trkpt>
      <trkpt lat="46.2495" lon="6.51249">
        <ele>1110</ele>
        <time>2021-03-24T12:50:09.000Z</time>
      </trkpt>
      <trkpt lat="46.24972" lon="6.51246">
        <ele>1112</ele>
        <time>2021-03-24T12:50:16.000Z</time>
      </trkpt>
      <trkpt lat="46.24997" lon="6.51249">
        <ele>1113</ele>
        <time>2021-03-24T12:50:23.000Z</time>
      </trkpt>
      <trkpt lat="46.25029" lon="6.51254">
        <ele>1112.5999755859</ele>
        <time>2021-03-24T12:50:31.000Z</time>
      </trkpt>
      <trkpt lat="46.25071" lon="6.51259">
        <ele>1111.5999755859</ele>
        <time>2021-03-24T12:50:41.000Z</time>
      </trkpt>
      <trkpt lat="46.25106" lon="6.51264">
        <ele>1113.1999511719</ele>
        <time>2021-03-24T12:50:49.000Z</time>
      </trkpt>
      <trkpt lat="46.25144" lon="6.51269">
        <ele>1113.5999755859</ele>
        <time>2021-03-24T12:50:57.000Z</time>
      </trkpt>
      <trkpt lat="46.25183" lon="6.51274">
        <ele>1113.4000244141</ele>
        <time>2021-03-24T12:51:05.000Z</time>
      </trkpt>
      <trkpt lat="46.25223" lon="6.51279">
        <ele>1111.5999755859</ele>
        <time>2021-03-24T12:51:13.000Z</time>
      </trkpt>
      <trkpt lat="46.25265" lon="6.51285">
        <ele>1110.4000244141</ele>
        <time>2021-03-24T12:51:21.000Z</time>
      </trkpt>
      <trkpt lat="46.25312" lon="6.51291">
        <ele>1109</ele>
        <time>2021-03-24T12:51:30.000Z</time>
      </trkpt>
      <trkpt lat="46.25352" lon="6.51296">
        <ele>1109.4000244141</ele>
        <time>2021-03-24T12:51:38.000Z</time>
      </trkpt>
      <trkpt lat="46.25365" lon="6.51294">
        <ele>1109.4000244141</ele>
        <time>2021-03-24T12:51:41.000Z</time>
      </trkpt>
      <trkpt lat="46.25371" lon="6.5129">
        <ele>1109.5999755859</ele>
        <time>2021-03-24T12:51:43.000Z</time>
      </trkpt>
      <trkpt lat="46.25376" lon="6.5128">
        <ele>1110</ele>
        <time>2021-03-24T12:51:45.000Z</time>
      </trkpt>
      <trkpt lat="46.2538" lon="6.51272">
        <ele>1110.1999511719</ele>
        <time>2021-03-24T12:51:47.000Z</time>
      </trkpt>
      <trkpt lat="46.25381" lon="6.5126">
        <ele>1110</ele>
        <time>2021-03-24T12:51:49.000Z</time>
      </trkpt>
      <trkpt lat="46.25384" lon="6.51232">
        <ele>1109.8000488281</ele>
        <time>2021-03-24T12:51:53.000Z</time>
      </trkpt>
      <trkpt lat="46.25388" lon="6.51165">
        <ele>1107.5999755859</ele>
        <time>2021-03-24T12:52:03.000Z</time>
      </trkpt>
      <trkpt lat="46.25392" lon="6.51083">
        <ele>1107</ele>
        <time>2021-03-24T12:52:15.000Z</time>
      </trkpt>
      <trkpt lat="46.25387" lon="6.51063">
        <ele>1107.1999511719</ele>
        <time>2021-03-24T12:52:18.000Z</time>
      </trkpt>
      <trkpt lat="46.25383" lon="6.51051">
        <ele>1107.1999511719</ele>
        <time>2021-03-24T12:52:20.000Z</time>
      </trkpt>
      <trkpt lat="46.25369" lon="6.51025">
        <ele>1107.1999511719</ele>
        <time>2021-03-24T12:52:25.000Z</time>
      </trkpt>
      <trkpt lat="46.25334" lon="6.50974">
        <ele>1108.1999511719</ele>
        <time>2021-03-24T12:52:35.000Z</time>
      </trkpt>
      <trkpt lat="46.25318" lon="6.50932">
        <ele>1110.1999511719</ele>
        <time>2021-03-24T12:52:42.000Z</time>
      </trkpt>
      <trkpt lat="46.25295" lon="6.5087">
        <ele>1112.8000488281</ele>
        <time>2021-03-24T12:52:52.000Z</time>
      </trkpt>
      <trkpt lat="46.25272" lon="6.50825">
        <ele>1116.4000244141</ele>
        <time>2021-03-24T12:53:00.000Z</time>
      </trkpt>
      <trkpt lat="46.25269" lon="6.5082">
        <ele>1116.5999755859</ele>
        <time>2021-03-24T12:53:01.000Z</time>
      </trkpt>
      <trkpt lat="46.25251" lon="6.50781">
        <ele>1117.5999755859</ele>
        <time>2021-03-24T12:53:08.000Z</time>
      </trkpt>
      <trkpt lat="46.25224" lon="6.50721">
        <ele>1112.1999511719</ele>
        <time>2021-03-24T12:53:18.000Z</time>
      </trkpt>
      <trkpt lat="46.25208" lon="6.5067">
        <ele>1111.4000244141</ele>
        <time>2021-03-24T12:53:26.000Z</time>
      </trkpt>
      <trkpt lat="46.25204" lon="6.50653">
        <ele>1111.8000488281</ele>
        <time>2021-03-24T12:53:29.000Z</time>
      </trkpt>
      <trkpt lat="46.25201" lon="6.50643">
        <ele>1112</ele>
        <time>2021-03-24T12:53:31.000Z</time>
      </trkpt>
      <trkpt lat="46.25189" lon="6.50601">
        <ele>1112.8000488281</ele>
        <time>2021-03-24T12:53:38.000Z</time>
      </trkpt>
      <trkpt lat="46.25181" lon="6.50565">
        <ele>1114.1999511719</ele>
        <time>2021-03-24T12:53:43.000Z</time>
      </trkpt>
      <trkpt lat="46.2518" lon="6.50557">
        <ele>1114.4000244141</ele>
        <time>2021-03-24T12:53:44.000Z</time>
      </trkpt>
      <trkpt lat="46.25181" lon="6.50549">
        <ele>1114.8000488281</ele>
        <time>2021-03-24T12:53:45.000Z</time>
      </trkpt>
      <trkpt lat="46.25185" lon="6.50536">
        <ele>1114.8000488281</ele>
        <time>2021-03-24T12:53:47.000Z</time>
      </trkpt>
      <trkpt lat="46.25193" lon="6.50522">
        <ele>1114.5999755859</ele>
        <time>2021-03-24T12:53:49.000Z</time>
      </trkpt>
      <trkpt lat="46.25204" lon="6.50513">
        <ele>1113.5999755859</ele>
        <time>2021-03-24T12:53:51.000Z</time>
      </trkpt>
      <trkpt lat="46.25225" lon="6.50495">
        <ele>1110.4000244141</ele>
        <time>2021-03-24T12:53:55.000Z</time>
      </trkpt>
      <trkpt lat="46.2523" lon="6.5049">
        <ele>1109.5999755859</ele>
        <time>2021-03-24T12:53:56.000Z</time>
      </trkpt>
      <trkpt lat="46.25233" lon="6.50482">
        <ele>1109</ele>
        <time>2021-03-24T12:53:57.000Z</time>
      </trkpt>
      <trkpt lat="46.25236" lon="6.50466">
        <ele>1107.4000244141</ele>
        <time>2021-03-24T12:53:59.000Z</time>
      </trkpt>
      <trkpt lat="46.25227" lon="6.50425">
        <ele>1103.4000244141</ele>
        <time>2021-03-24T12:54:03.000Z</time>
      </trkpt>
      <trkpt lat="46.25207" lon="6.50344">
        <ele>1095.4000244141</ele>
        <time>2021-03-24T12:54:11.000Z</time>
      </trkpt>
      <trkpt lat="46.25199" lon="6.50313">
        <ele>1098.1999511719</ele>
        <time>2021-03-24T12:54:14.000Z</time>
      </trkpt>
      <trkpt lat="46.25192" lon="6.50256">
        <ele>1094.5999755859</ele>
        <time>2021-03-24T12:54:19.000Z</time>
      </trkpt>
      <trkpt lat="46.25186" lon="6.50188">
        <ele>1092.5999755859</ele>
        <time>2021-03-24T12:54:25.000Z</time>
      </trkpt>
      <trkpt lat="46.25185" lon="6.50176">
        <ele>1091.5999755859</ele>
        <time>2021-03-24T12:54:26.000Z</time>
      </trkpt>
      <trkpt lat="46.25181" lon="6.50166">
        <ele>1091.4000244141</ele>
        <time>2021-03-24T12:54:27.000Z</time>
      </trkpt>
      <trkpt lat="46.25168" lon="6.50135">
        <ele>1089.8000488281</ele>
        <time>2021-03-24T12:54:30.000Z</time>
      </trkpt>
      <trkpt lat="46.25137" lon="6.50065">
        <ele>1088.4000244141</ele>
        <time>2021-03-24T12:54:37.000Z</time>
      </trkpt>
      <trkpt lat="46.25133" lon="6.50056">
        <ele>1087.8000488281</ele>
        <time>2021-03-24T12:54:38.000Z</time>
      </trkpt>
      <trkpt lat="46.25129" lon="6.50046">
        <ele>1087.5999755859</ele>
        <time>2021-03-24T12:54:39.000Z</time>
      </trkpt>
      <trkpt lat="46.25122" lon="6.50015">
        <ele>1084.8000488281</ele>
        <time>2021-03-24T12:54:42.000Z</time>
      </trkpt>
      <trkpt lat="46.25106" lon="6.49937">
        <ele>1081</ele>
        <time>2021-03-24T12:54:49.000Z</time>
      </trkpt>
      <trkpt lat="46.25102" lon="6.49917">
        <ele>1081</ele>
        <time>2021-03-24T12:54:51.000Z</time>
      </trkpt>
      <trkpt lat="46.25096" lon="6.499">
        <ele>1081.5999755859</ele>
        <time>2021-03-24T12:54:53.000Z</time>
      </trkpt>
      <trkpt lat="46.25091" lon="6.49885">
        <ele>1082</ele>
        <time>2021-03-24T12:54:55.000Z</time>
      </trkpt>
      <trkpt lat="46.25086" lon="6.49874">
        <ele>1082.1999511719</ele>
        <time>2021-03-24T12:54:57.000Z</time>
      </trkpt>
      <trkpt lat="46.25086" lon="6.49868">
        <ele>1082.4000244141</ele>
        <time>2021-03-24T12:54:58.000Z</time>
      </trkpt>
      <trkpt lat="46.25091" lon="6.49851">
        <ele>1082.8000488281</ele>
        <time>2021-03-24T12:55:03.000Z</time>
      </trkpt>
      <trkpt lat="46.2509" lon="6.49841">
        <ele>1083.4000244141</ele>
        <time>2021-03-24T12:55:05.000Z</time>
      </trkpt>
      <trkpt lat="46.25087" lon="6.49832">
        <ele>1084</ele>
        <time>2021-03-24T12:55:07.000Z</time>
      </trkpt>
      <trkpt lat="46.25075" lon="6.49798">
        <ele>1085.8000488281</ele>
        <time>2021-03-24T12:55:14.000Z</time>
      </trkpt>
      <trkpt lat="46.25058" lon="6.49766">
        <ele>1088.1999511719</ele>
        <time>2021-03-24T12:55:21.000Z</time>
      </trkpt>
      <trkpt lat="46.25033" lon="6.4973">
        <ele>1090.8000488281</ele>
        <time>2021-03-24T12:55:30.000Z</time>
      </trkpt>
      <trkpt lat="46.25018" lon="6.49695">
        <ele>1093.5999755859</ele>
        <time>2021-03-24T12:55:37.000Z</time>
      </trkpt>
      <trkpt lat="46.24994" lon="6.49648">
        <ele>1093</ele>
        <time>2021-03-24T12:55:46.000Z</time>
      </trkpt>
      <trkpt lat="46.24971" lon="6.49605">
        <ele>1088.4000244141</ele>
        <time>2021-03-24T12:55:54.000Z</time>
      </trkpt>
      <trkpt lat="46.24968" lon="6.496">
        <ele>1088</ele>
        <time>2021-03-24T12:55:55.000Z</time>
      </trkpt>
      <trkpt lat="46.24941" lon="6.49536">
        <ele>1090</ele>
        <time>2021-03-24T12:56:06.000Z</time>
      </trkpt>
      <trkpt lat="46.24918" lon="6.49482">
        <ele>1092.1999511719</ele>
        <time>2021-03-24T12:56:15.000Z</time>
      </trkpt>
      <trkpt lat="46.24895" lon="6.4943">
        <ele>1091.8000488281</ele>
        <time>2021-03-24T12:56:24.000Z</time>
      </trkpt>
      <trkpt lat="46.24866" lon="6.49371">
        <ele>1091.5999755859</ele>
        <time>2021-03-24T12:56:34.000Z</time>
      </trkpt>
      <trkpt lat="46.24844" lon="6.49326">
        <ele>1091.5999755859</ele>
        <time>2021-03-24T12:56:42.000Z</time>
      </trkpt>
      <trkpt lat="46.24811" lon="6.49258">
        <ele>1093.8000488281</ele>
        <time>2021-03-24T12:56:54.000Z</time>
      </trkpt>
      <trkpt lat="46.24782" lon="6.49199">
        <ele>1094.4000244141</ele>
        <time>2021-03-24T12:57:05.000Z</time>
      </trkpt>
      <trkpt lat="46.2475" lon="6.49147">
        <ele>1090.5999755859</ele>
        <time>2021-03-24T12:57:15.000Z</time>
      </trkpt>
      <trkpt lat="46.24722" lon="6.491">
        <ele>1091.8000488281</ele>
        <time>2021-03-24T12:57:25.000Z</time>
      </trkpt>
      <trkpt lat="46.24702" lon="6.49067">
        <ele>1093.1999511719</ele>
        <time>2021-03-24T12:57:32.000Z</time>
      </trkpt>
      <trkpt lat="46.24699" lon="6.49062">
        <ele>1093.5999755859</ele>
        <time>2021-03-24T12:57:33.000Z</time>
      </trkpt>
      <trkpt lat="46.24671" lon="6.49023">
        <ele>1095.5999755859</ele>
        <time>2021-03-24T12:57:41.000Z</time>
      </trkpt>
      <trkpt lat="46.2463" lon="6.48975">
        <ele>1093.4000244141</ele>
        <time>2021-03-24T12:57:51.000Z</time>
      </trkpt>
      <trkpt lat="46.24623" lon="6.48965">
        <ele>1093.1999511719</ele>
        <time>2021-03-24T12:57:53.000Z</time>
      </trkpt>
      <trkpt lat="46.24612" lon="6.4894">
        <ele>1092.5999755859</ele>
        <time>2021-03-24T12:57:57.000Z</time>
      </trkpt>
      <trkpt lat="46.24586" lon="6.48876">
        <ele>1093.5999755859</ele>
        <time>2021-03-24T12:58:07.000Z</time>
      </trkpt>
      <trkpt lat="46.24563" lon="6.4882">
        <ele>1092</ele>
        <time>2021-03-24T12:58:15.000Z</time>
      </trkpt>
      <trkpt lat="46.24532" lon="6.48747">
        <ele>1089.4000244141</ele>
        <time>2021-03-24T12:58:24.000Z</time>
      </trkpt>
      <trkpt lat="46.24495" lon="6.4868">
        <ele>1088.1999511719</ele>
        <time>2021-03-24T12:58:32.000Z</time>
      </trkpt>
      <trkpt lat="46.24455" lon="6.48621">
        <ele>1088.5999755859</ele>
        <time>2021-03-24T12:58:39.000Z</time>
      </trkpt>
      <trkpt lat="46.24414" lon="6.48561">
        <ele>1085</ele>
        <time>2021-03-24T12:58:46.000Z</time>
      </trkpt>
      <trkpt lat="46.24397" lon="6.48534">
        <ele>1083.5999755859</ele>
        <time>2021-03-24T12:58:49.000Z</time>
      </trkpt>
      <trkpt lat="46.24392" lon="6.48524">
        <ele>1082.8000488281</ele>
        <time>2021-03-24T12:58:50.000Z</time>
      </trkpt>
      <trkpt lat="46.2439" lon="6.48512">
        <ele>1082.4000244141</ele>
        <time>2021-03-24T12:58:51.000Z</time>
      </trkpt>
      <trkpt lat="46.24386" lon="6.48476">
        <ele>1082</ele>
        <time>2021-03-24T12:58:54.000Z</time>
      </trkpt>
      <trkpt lat="46.24377" lon="6.48396">
        <ele>1076.8000488281</ele>
        <time>2021-03-24T12:59:01.000Z</time>
      </trkpt>
      <trkpt lat="46.24367" lon="6.48352">
        <ele>1074.4000244141</ele>
        <time>2021-03-24T12:59:05.000Z</time>
      </trkpt>
      <trkpt lat="46.24364" lon="6.48342">
        <ele>1074</ele>
        <time>2021-03-24T12:59:06.000Z</time>
      </trkpt>
      <trkpt lat="46.24355" lon="6.48323">
        <ele>1072.8000488281</ele>
        <time>2021-03-24T12:59:08.000Z</time>
      </trkpt>
      <trkpt lat="46.24345" lon="6.48306">
        <ele>1072.5999755859</ele>
        <time>2021-03-24T12:59:10.000Z</time>
      </trkpt>
      <trkpt lat="46.24303" lon="6.48252">
        <ele>1068.1999511719</ele>
        <time>2021-03-24T12:59:17.000Z</time>
      </trkpt>
      <trkpt lat="46.24284" lon="6.4823">
        <ele>1063.1999511719</ele>
        <time>2021-03-24T12:59:20.000Z</time>
      </trkpt>
      <trkpt lat="46.24269" lon="6.4822">
        <ele>1060.8000488281</ele>
        <time>2021-03-24T12:59:22.000Z</time>
      </trkpt>
      <trkpt lat="46.24246" lon="6.48205">
        <ele>1061.1999511719</ele>
        <time>2021-03-24T12:59:25.000Z</time>
      </trkpt>
      <trkpt lat="46.2423" lon="6.48188">
        <ele>1063.1999511719</ele>
        <time>2021-03-24T12:59:27.000Z</time>
      </trkpt>
      <trkpt lat="46.2419" lon="6.48134">
        <ele>1065.8000488281</ele>
        <time>2021-03-24T12:59:33.000Z</time>
      </trkpt>
      <trkpt lat="46.24151" lon="6.48069">
        <ele>1061.8000488281</ele>
        <time>2021-03-24T12:59:40.000Z</time>
      </trkpt>
      <trkpt lat="46.24147" lon="6.48058">
        <ele>1060</ele>
        <time>2021-03-24T12:59:41.000Z</time>
      </trkpt>
      <trkpt lat="46.24137" lon="6.48024">
        <ele>1057.1999511719</ele>
        <time>2021-03-24T12:59:44.000Z</time>
      </trkpt>
      <trkpt lat="46.24138" lon="6.47998">
        <ele>1054</ele>
        <time>2021-03-24T12:59:46.000Z</time>
      </trkpt>
      <trkpt lat="46.24139" lon="6.47973">
        <ele>1051.4000244141</ele>
        <time>2021-03-24T12:59:48.000Z</time>
      </trkpt>
      <trkpt lat="46.2414" lon="6.47912">
        <ele>1051</ele>
        <time>2021-03-24T12:59:53.000Z</time>
      </trkpt>
      <trkpt lat="46.24143" lon="6.47829">
        <ele>1051.1999511719</ele>
        <time>2021-03-24T13:00:00.000Z</time>
      </trkpt>
      <trkpt lat="46.24142" lon="6.47792">
        <ele>1046.4000244141</ele>
        <time>2021-03-24T13:00:03.000Z</time>
      </trkpt>
      <trkpt lat="46.24139" lon="6.4778">
        <ele>1045.1999511719</ele>
        <time>2021-03-24T13:00:04.000Z</time>
      </trkpt>
      <trkpt lat="46.24126" lon="6.47713">
        <ele>1039.4000244141</ele>
        <time>2021-03-24T13:00:10.000Z</time>
      </trkpt>
      <trkpt lat="46.24124" lon="6.47704">
        <ele>1039</ele>
        <time>2021-03-24T13:00:11.000Z</time>
      </trkpt>
      <trkpt lat="46.24125" lon="6.47686">
        <ele>1038.8000488281</ele>
        <time>2021-03-24T13:00:13.000Z</time>
      </trkpt>
      <trkpt lat="46.24132" lon="6.47669">
        <ele>1040.5999755859</ele>
        <time>2021-03-24T13:00:15.000Z</time>
      </trkpt>
      <trkpt lat="46.24139" lon="6.47662">
        <ele>1040.4000244141</ele>
        <time>2021-03-24T13:00:16.000Z</time>
      </trkpt>
      <trkpt lat="46.24145" lon="6.47656">
        <ele>1039.8000488281</ele>
        <time>2021-03-24T13:00:17.000Z</time>
      </trkpt>
      <trkpt lat="46.24166" lon="6.4764">
        <ele>1038.4000244141</ele>
        <time>2021-03-24T13:00:20.000Z</time>
      </trkpt>
      <trkpt lat="46.24172" lon="6.47635">
        <ele>1036.1999511719</ele>
        <time>2021-03-24T13:00:21.000Z</time>
      </trkpt>
      <trkpt lat="46.24176" lon="6.47628">
        <ele>1035.5999755859</ele>
        <time>2021-03-24T13:00:22.000Z</time>
      </trkpt>
      <trkpt lat="46.24182" lon="6.47618">
        <ele>1033.8000488281</ele>
        <time>2021-03-24T13:00:24.000Z</time>
      </trkpt>
      <trkpt lat="46.24183" lon="6.47598">
        <ele>1034.5999755859</ele>
        <time>2021-03-24T13:00:26.000Z</time>
      </trkpt>
      <trkpt lat="46.24184" lon="6.47586">
        <ele>1033.4000244141</ele>
        <time>2021-03-24T13:00:27.000Z</time>
      </trkpt>
      <trkpt lat="46.24186" lon="6.47562">
        <ele>1033</ele>
        <time>2021-03-24T13:00:29.000Z</time>
      </trkpt>
      <trkpt lat="46.24193" lon="6.47537">
        <ele>1034.4000244141</ele>
        <time>2021-03-24T13:00:31.000Z</time>
      </trkpt>
      <trkpt lat="46.2422" lon="6.4746">
        <ele>1030.5999755859</ele>
        <time>2021-03-24T13:00:38.000Z</time>
      </trkpt>
      <trkpt lat="46.24223" lon="6.4745">
        <ele>1030.4000244141</ele>
        <time>2021-03-24T13:00:39.000Z</time>
      </trkpt>
      <trkpt lat="46.24228" lon="6.47432">
        <ele>1028.1999511719</ele>
        <time>2021-03-24T13:00:41.000Z</time>
      </trkpt>
      <trkpt lat="46.24227" lon="6.47423">
        <ele>1029.4000244141</ele>
        <time>2021-03-24T13:00:42.000Z</time>
      </trkpt>
      <trkpt lat="46.24223" lon="6.47388">
        <ele>1031.1999511719</ele>
        <time>2021-03-24T13:00:46.000Z</time>
      </trkpt>
      <trkpt lat="46.24218" lon="6.47341">
        <ele>1028.4000244141</ele>
        <time>2021-03-24T13:00:50.000Z</time>
      </trkpt>
      <trkpt lat="46.24213" lon="6.47274">
        <ele>1020</ele>
        <time>2021-03-24T13:00:56.000Z</time>
      </trkpt>
      <trkpt lat="46.24214" lon="6.47269">
        <ele>1019.200012207</ele>
        <time>2021-03-24T13:00:57.000Z</time>
      </trkpt>
      <trkpt lat="46.24219" lon="6.47254">
        <ele>1016.200012207</ele>
        <time>2021-03-24T13:00:59.000Z</time>
      </trkpt>
      <trkpt lat="46.24228" lon="6.47247">
        <ele>1013.200012207</ele>
        <time>2021-03-24T13:01:01.000Z</time>
      </trkpt>
      <trkpt lat="46.2424" lon="6.47258">
        <ele>1010.5999755859</ele>
        <time>2021-03-24T13:01:03.000Z</time>
      </trkpt>
      <trkpt lat="46.24243" lon="6.47279">
        <ele>1011.200012207</ele>
        <time>2021-03-24T13:01:05.000Z</time>
      </trkpt>
      <trkpt lat="46.24243" lon="6.47288">
        <ele>1011.5999755859</ele>
        <time>2021-03-24T13:01:06.000Z</time>
      </trkpt>
      <trkpt lat="46.24246" lon="6.47352">
        <ele>1016.5999755859</ele>
        <time>2021-03-24T13:01:12.000Z</time>
      </trkpt>
      <trkpt lat="46.24249" lon="6.47403">
        <ele>1016.200012207</ele>
        <time>2021-03-24T13:01:17.000Z</time>
      </trkpt>
      <trkpt lat="46.24251" lon="6.47413">
        <ele>1015.200012207</ele>
        <time>2021-03-24T13:01:18.000Z</time>
      </trkpt>
      <trkpt lat="46.24259" lon="6.47444">
        <ele>1010.5999755859</ele>
        <time>2021-03-24T13:01:21.000Z</time>
      </trkpt>
      <trkpt lat="46.24279" lon="6.47508">
        <ele>1005.200012207</ele>
        <time>2021-03-24T13:01:27.000Z</time>
      </trkpt>
      <trkpt lat="46.2429" lon="6.47538">
        <ele>1004</ele>
        <time>2021-03-24T13:01:30.000Z</time>
      </trkpt>
      <trkpt lat="46.24302" lon="6.47553">
        <ele>1002.4000244141</ele>
        <time>2021-03-24T13:01:32.000Z</time>
      </trkpt>
      <trkpt lat="46.24314" lon="6.47567">
        <ele>1000.200012207</ele>
        <time>2021-03-24T13:01:34.000Z</time>
      </trkpt>
      <trkpt lat="46.24328" lon="6.47574">
        <ele>997.79998779297</ele>
        <time>2021-03-24T13:01:36.000Z</time>
      </trkpt>
      <trkpt lat="46.24359" lon="6.47584">
        <ele>994.79998779297</ele>
        <time>2021-03-24T13:01:40.000Z</time>
      </trkpt>
      <trkpt lat="46.24367" lon="6.47587">
        <ele>994.59997558594</ele>
        <time>2021-03-24T13:01:41.000Z</time>
      </trkpt>
      <trkpt lat="46.24373" lon="6.47593">
        <ele>994.59997558594</ele>
        <time>2021-03-24T13:01:42.000Z</time>
      </trkpt>
      <trkpt lat="46.24384" lon="6.47608">
        <ele>994.59997558594</ele>
        <time>2021-03-24T13:01:44.000Z</time>
      </trkpt>
      <trkpt lat="46.24411" lon="6.47646">
        <ele>994</ele>
        <time>2021-03-24T13:01:49.000Z</time>
      </trkpt>
      <trkpt lat="46.24447" lon="6.47702">
        <ele>991.79998779297</ele>
        <time>2021-03-24T13:01:56.000Z</time>
      </trkpt>
      <trkpt lat="46.24474" lon="6.47744">
        <ele>989.79998779297</ele>
        <time>2021-03-24T13:02:01.000Z</time>
      </trkpt>
      <trkpt lat="46.24486" lon="6.47759">
        <ele>989.79998779297</ele>
        <time>2021-03-24T13:02:03.000Z</time>
      </trkpt>
      <trkpt lat="46.24498" lon="6.4777">
        <ele>990.40002441406</ele>
        <time>2021-03-24T13:02:05.000Z</time>
      </trkpt>
      <trkpt lat="46.24503" lon="6.47776">
        <ele>991.20001220703</ele>
        <time>2021-03-24T13:02:06.000Z</time>
      </trkpt>
      <trkpt lat="46.2451" lon="6.47775">
        <ele>991.40002441406</ele>
        <time>2021-03-24T13:02:07.000Z</time>
      </trkpt>
      <trkpt lat="46.24523" lon="6.47769">
        <ele>990.59997558594</ele>
        <time>2021-03-24T13:02:09.000Z</time>
      </trkpt>
      <trkpt lat="46.24532" lon="6.47752">
        <ele>987.59997558594</ele>
        <time>2021-03-24T13:02:11.000Z</time>
      </trkpt>
      <trkpt lat="46.24537" lon="6.47743">
        <ele>986.59997558594</ele>
        <time>2021-03-24T13:02:12.000Z</time>
      </trkpt>
      <trkpt lat="46.24565" lon="6.47694">
        <ele>983</ele>
        <time>2021-03-24T13:02:17.000Z</time>
      </trkpt>
      <trkpt lat="46.24604" lon="6.47627">
        <ele>978.20001220703</ele>
        <time>2021-03-24T13:02:24.000Z</time>
      </trkpt>
      <trkpt lat="46.24642" lon="6.47579">
        <ele>975.40002441406</ele>
        <time>2021-03-24T13:02:30.000Z</time>
      </trkpt>
      <trkpt lat="46.24649" lon="6.47573">
        <ele>975.59997558594</ele>
        <time>2021-03-24T13:02:31.000Z</time>
      </trkpt>
      <trkpt lat="46.24671" lon="6.47561">
        <ele>973.59997558594</ele>
        <time>2021-03-24T13:02:34.000Z</time>
      </trkpt>
      <trkpt lat="46.24725" lon="6.47545">
        <ele>971.40002441406</ele>
        <time>2021-03-24T13:02:41.000Z</time>
      </trkpt>
      <trkpt lat="46.24756" lon="6.47533">
        <ele>966.79998779297</ele>
        <time>2021-03-24T13:02:45.000Z</time>
      </trkpt>
      <trkpt lat="46.24763" lon="6.47528">
        <ele>965.79998779297</ele>
        <time>2021-03-24T13:02:46.000Z</time>
      </trkpt>
      <trkpt lat="46.24768" lon="6.47521">
        <ele>965.20001220703</ele>
        <time>2021-03-24T13:02:47.000Z</time>
      </trkpt>
      <trkpt lat="46.2478" lon="6.47505">
        <ele>963.20001220703</ele>
        <time>2021-03-24T13:02:49.000Z</time>
      </trkpt>
      <trkpt lat="46.24804" lon="6.47458">
        <ele>961.79998779297</ele>
        <time>2021-03-24T13:02:54.000Z</time>
      </trkpt>
      <trkpt lat="46.24832" lon="6.47396">
        <ele>962.79998779297</ele>
        <time>2021-03-24T13:03:01.000Z</time>
      </trkpt>
      <trkpt lat="46.24845" lon="6.47361">
        <ele>960.40002441406</ele>
        <time>2021-03-24T13:03:06.000Z</time>
      </trkpt>
      <trkpt lat="46.24849" lon="6.4735">
        <ele>959.59997558594</ele>
        <time>2021-03-24T13:03:08.000Z</time>
      </trkpt>
      <trkpt lat="46.24858" lon="6.47337">
        <ele>958.59997558594</ele>
        <time>2021-03-24T13:03:11.000Z</time>
      </trkpt>
      <trkpt lat="46.24862" lon="6.47334">
        <ele>958.59997558594</ele>
        <time>2021-03-24T13:03:13.000Z</time>
      </trkpt>
      <trkpt lat="46.24865" lon="6.47333">
        <ele>958.79998779297</ele>
        <time>2021-03-24T13:03:15.000Z</time>
      </trkpt>
      <trkpt lat="46.24865" lon="6.47333">
        <ele>958.79998779297</ele>
        <time>2021-03-24T13:03:16.000Z</time>
      </trkpt>
      <trkpt lat="46.24863" lon="6.47348">
        <ele>960</ele>
        <time>2021-03-24T13:03:38.000Z</time>
      </trkpt>
      <trkpt lat="46.24862" lon="6.47351">
        <ele>960.20001220703</ele>
        <time>2021-03-24T13:03:40.000Z</time>
      </trkpt>
      <trkpt lat="46.24861" lon="6.47352">
        <ele>960.40002441406</ele>
        <time>2021-03-24T13:03:43.000Z</time>
      </trkpt>
      <trkpt lat="46.24863" lon="6.47334">
        <ele>958.59997558594</ele>
        <time>2021-03-24T13:07:20.000Z</time>
      </trkpt>
      <trkpt lat="46.24852" lon="6.4734">
        <ele>958.79998779297</ele>
        <time>2021-03-24T13:07:21.000Z</time>
      </trkpt>
      <trkpt lat="46.24846" lon="6.47338">
        <ele>958.20001220703</ele>
        <time>2021-03-24T13:07:26.000Z</time>
      </trkpt>
      <trkpt lat="46.24826" lon="6.47326">
        <ele>956.59997558594</ele>
        <time>2021-03-24T13:07:33.000Z</time>
      </trkpt>
      <trkpt lat="46.24807" lon="6.47314">
        <ele>955.59997558594</ele>
        <time>2021-03-24T13:07:38.000Z</time>
      </trkpt>
      <trkpt lat="46.24802" lon="6.47311">
        <ele>955.40002441406</ele>
        <time>2021-03-24T13:07:39.000Z</time>
      </trkpt>
      <trkpt lat="46.24786" lon="6.47301">
        <ele>954</ele>
        <time>2021-03-24T13:07:42.000Z</time>
      </trkpt>
      <trkpt lat="46.24752" lon="6.47288">
        <ele>950.40002441406</ele>
        <time>2021-03-24T13:07:47.000Z</time>
      </trkpt>
      <trkpt lat="46.24706" lon="6.47276">
        <ele>947.40002441406</ele>
        <time>2021-03-24T13:07:54.000Z</time>
      </trkpt>
      <trkpt lat="46.24701" lon="6.4728">
        <ele>947</ele>
        <time>2021-03-24T13:07:55.000Z</time>
      </trkpt>
      <trkpt lat="46.24695" lon="6.47284">
        <ele>946.79998779297</ele>
        <time>2021-03-24T13:07:56.000Z</time>
      </trkpt>
      <trkpt lat="46.24675" lon="6.47293">
        <ele>946.40002441406</ele>
        <time>2021-03-24T13:07:59.000Z</time>
      </trkpt>
      <trkpt lat="46.24668" lon="6.47295">
        <ele>946.20001220703</ele>
        <time>2021-03-24T13:08:00.000Z</time>
      </trkpt>
      <trkpt lat="46.24654" lon="6.47299">
        <ele>946.40002441406</ele>
        <time>2021-03-24T13:08:02.000Z</time>
      </trkpt>
      <trkpt lat="46.24647" lon="6.47298">
        <ele>946.20001220703</ele>
        <time>2021-03-24T13:08:03.000Z</time>
      </trkpt>
      <trkpt lat="46.2464" lon="6.47293">
        <ele>945.79998779297</ele>
        <time>2021-03-24T13:08:04.000Z</time>
      </trkpt>
      <trkpt lat="46.24626" lon="6.47284">
        <ele>944.79998779297</ele>
        <time>2021-03-24T13:08:06.000Z</time>
      </trkpt>
      <trkpt lat="46.24614" lon="6.47272">
        <ele>943.40002441406</ele>
        <time>2021-03-24T13:08:08.000Z</time>
      </trkpt>
      <trkpt lat="46.24608" lon="6.47265">
        <ele>942.59997558594</ele>
        <time>2021-03-24T13:08:09.000Z</time>
      </trkpt>
      <trkpt lat="46.24602" lon="6.47257">
        <ele>941.79998779297</ele>
        <time>2021-03-24T13:08:10.000Z</time>
      </trkpt>
      <trkpt lat="46.24598" lon="6.47235">
        <ele>940.20001220703</ele>
        <time>2021-03-24T13:08:12.000Z</time>
      </trkpt>
      <trkpt lat="46.24596" lon="6.47224">
        <ele>939.40002441406</ele>
        <time>2021-03-24T13:08:13.000Z</time>
      </trkpt>
      <trkpt lat="46.24591" lon="6.47189">
        <ele>937</ele>
        <time>2021-03-24T13:08:16.000Z</time>
      </trkpt>
      <trkpt lat="46.246" lon="6.47135">
        <ele>934</ele>
        <time>2021-03-24T13:08:21.000Z</time>
      </trkpt>
      <trkpt lat="46.24608" lon="6.47081">
        <ele>932</ele>
        <time>2021-03-24T13:08:26.000Z</time>
      </trkpt>
      <trkpt lat="46.24617" lon="6.47017">
        <ele>931.59997558594</ele>
        <time>2021-03-24T13:08:32.000Z</time>
      </trkpt>
      <trkpt lat="46.24621" lon="6.46962">
        <ele>930</ele>
        <time>2021-03-24T13:08:37.000Z</time>
      </trkpt>
      <trkpt lat="46.24612" lon="6.46929">
        <ele>927.79998779297</ele>
        <time>2021-03-24T13:08:40.000Z</time>
      </trkpt>
      <trkpt lat="46.24609" lon="6.46917">
        <ele>926.59997558594</ele>
        <time>2021-03-24T13:08:41.000Z</time>
      </trkpt>
      <trkpt lat="46.24581" lon="6.46864">
        <ele>922.20001220703</ele>
        <time>2021-03-24T13:08:46.000Z</time>
      </trkpt>
      <trkpt lat="46.24547" lon="6.468">
        <ele>916.59997558594</ele>
        <time>2021-03-24T13:08:52.000Z</time>
      </trkpt>
      <trkpt lat="46.2453" lon="6.46767">
        <ele>915.20001220703</ele>
        <time>2021-03-24T13:08:55.000Z</time>
      </trkpt>
      <trkpt lat="46.24496" lon="6.467">
        <ele>912.40002441406</ele>
        <time>2021-03-24T13:09:01.000Z</time>
      </trkpt>
      <trkpt lat="46.24474" lon="6.46656">
        <ele>909.40002441406</ele>
        <time>2021-03-24T13:09:05.000Z</time>
      </trkpt>
      <trkpt lat="46.2444" lon="6.46612">
        <ele>907</ele>
        <time>2021-03-24T13:09:10.000Z</time>
      </trkpt>
      <trkpt lat="46.24395" lon="6.46568">
        <ele>906.59997558594</ele>
        <time>2021-03-24T13:09:16.000Z</time>
      </trkpt>
      <trkpt lat="46.24379" lon="6.46554">
        <ele>906</ele>
        <time>2021-03-24T13:09:18.000Z</time>
      </trkpt>
      <trkpt lat="46.24331" lon="6.46507">
        <ele>904.40002441406</ele>
        <time>2021-03-24T13:09:24.000Z</time>
      </trkpt>
      <trkpt lat="46.24306" lon="6.46483">
        <ele>903.59997558594</ele>
        <time>2021-03-24T13:09:27.000Z</time>
      </trkpt>
      <trkpt lat="46.24253" lon="6.46439">
        <ele>902.59997558594</ele>
        <time>2021-03-24T13:09:33.000Z</time>
      </trkpt>
      <trkpt lat="46.24217" lon="6.46411">
        <ele>899.40002441406</ele>
        <time>2021-03-24T13:09:37.000Z</time>
      </trkpt>
      <trkpt lat="46.24161" lon="6.46375">
        <ele>895.59997558594</ele>
        <time>2021-03-24T13:09:43.000Z</time>
      </trkpt>
      <trkpt lat="46.24112" lon="6.46357">
        <ele>894.20001220703</ele>
        <time>2021-03-24T13:09:48.000Z</time>
      </trkpt>
      <trkpt lat="46.24054" lon="6.46335">
        <ele>893.79998779297</ele>
        <time>2021-03-24T13:09:54.000Z</time>
      </trkpt>
      <trkpt lat="46.24045" lon="6.46329">
        <ele>894</ele>
        <time>2021-03-24T13:09:55.000Z</time>
      </trkpt>
      <trkpt lat="46.24037" lon="6.46322">
        <ele>894.40002441406</ele>
        <time>2021-03-24T13:09:56.000Z</time>
      </trkpt>
      <trkpt lat="46.24021" lon="6.4631">
        <ele>895.20001220703</ele>
        <time>2021-03-24T13:09:58.000Z</time>
      </trkpt>
      <trkpt lat="46.24008" lon="6.46292">
        <ele>894.59997558594</ele>
        <time>2021-03-24T13:10:00.000Z</time>
      </trkpt>
      <trkpt lat="46.23998" lon="6.4627">
        <ele>893</ele>
        <time>2021-03-24T13:10:02.000Z</time>
      </trkpt>
      <trkpt lat="46.23975" lon="6.46219">
        <ele>891.40002441406</ele>
        <time>2021-03-24T13:10:07.000Z</time>
      </trkpt>
      <trkpt lat="46.2394" lon="6.46155">
        <ele>887.59997558594</ele>
        <time>2021-03-24T13:10:14.000Z</time>
      </trkpt>
      <trkpt lat="46.23921" lon="6.4613">
        <ele>886.20001220703</ele>
        <time>2021-03-24T13:10:17.000Z</time>
      </trkpt>
      <trkpt lat="46.23915" lon="6.46122">
        <ele>885.79998779297</ele>
        <time>2021-03-24T13:10:18.000Z</time>
      </trkpt>
      <trkpt lat="46.23869" lon="6.46075">
        <ele>882.40002441406</ele>
        <time>2021-03-24T13:10:24.000Z</time>
      </trkpt>
      <trkpt lat="46.23823" lon="6.46029">
        <ele>879.40002441406</ele>
        <time>2021-03-24T13:10:30.000Z</time>
      </trkpt>
      <trkpt lat="46.23808" lon="6.46011">
        <ele>878</ele>
        <time>2021-03-24T13:10:32.000Z</time>
      </trkpt>
      <trkpt lat="46.23762" lon="6.45954">
        <ele>877</ele>
        <time>2021-03-24T13:10:39.000Z</time>
      </trkpt>
      <trkpt lat="46.23718" lon="6.45903">
        <ele>878</ele>
        <time>2021-03-24T13:10:46.000Z</time>
      </trkpt>
      <trkpt lat="46.23706" lon="6.45889">
        <ele>876.79998779297</ele>
        <time>2021-03-24T13:10:48.000Z</time>
      </trkpt>
      <trkpt lat="46.23678" lon="6.45861">
        <ele>874.59997558594</ele>
        <time>2021-03-24T13:10:53.000Z</time>
      </trkpt>
      <trkpt lat="46.23624" lon="6.45821">
        <ele>871.40002441406</ele>
        <time>2021-03-24T13:11:01.000Z</time>
      </trkpt>
      <trkpt lat="46.23612" lon="6.45808">
        <ele>871</ele>
        <time>2021-03-24T13:11:03.000Z</time>
      </trkpt>
      <trkpt lat="46.23607" lon="6.45802">
        <ele>870.59997558594</ele>
        <time>2021-03-24T13:11:04.000Z</time>
      </trkpt>
      <trkpt lat="46.23589" lon="6.45772">
        <ele>869</ele>
        <time>2021-03-24T13:11:09.000Z</time>
      </trkpt>
      <trkpt lat="46.23586" lon="6.45767">
        <ele>868.59997558594</ele>
        <time>2021-03-24T13:11:10.000Z</time>
      </trkpt>
      <trkpt lat="46.23579" lon="6.45757">
        <ele>867.79998779297</ele>
        <time>2021-03-24T13:11:12.000Z</time>
      </trkpt>
      <trkpt lat="46.23576" lon="6.45751">
        <ele>867.20001220703</ele>
        <time>2021-03-24T13:11:13.000Z</time>
      </trkpt>
      <trkpt lat="46.23562" lon="6.45728">
        <ele>867</ele>
        <time>2021-03-24T13:11:18.000Z</time>
      </trkpt>
      <trkpt lat="46.23544" lon="6.45699">
        <ele>866.20001220703</ele>
        <time>2021-03-24T13:11:23.000Z</time>
      </trkpt>
      <trkpt lat="46.23515" lon="6.45652">
        <ele>862.59997558594</ele>
        <time>2021-03-24T13:11:29.000Z</time>
      </trkpt>
      <trkpt lat="46.23498" lon="6.45625">
        <ele>859.59997558594</ele>
        <time>2021-03-24T13:11:33.000Z</time>
      </trkpt>
      <trkpt lat="46.23466" lon="6.45572">
        <ele>855.59997558594</ele>
        <time>2021-03-24T13:11:41.000Z</time>
      </trkpt>
      <trkpt lat="46.23432" lon="6.45523">
        <ele>853.59997558594</ele>
        <time>2021-03-24T13:11:48.000Z</time>
      </trkpt>
      <trkpt lat="46.23413" lon="6.45493">
        <ele>850.59997558594</ele>
        <time>2021-03-24T13:11:53.000Z</time>
      </trkpt>
      <trkpt lat="46.23388" lon="6.45457">
        <ele>847</ele>
        <time>2021-03-24T13:11:58.000Z</time>
      </trkpt>
      <trkpt lat="46.23348" lon="6.45396">
        <ele>842.59997558594</ele>
        <time>2021-03-24T13:12:05.000Z</time>
      </trkpt>
      <trkpt lat="46.23342" lon="6.45387">
        <ele>842</ele>
        <time>2021-03-24T13:12:06.000Z</time>
      </trkpt>
      <trkpt lat="46.23303" lon="6.45327">
        <ele>837.79998779297</ele>
        <time>2021-03-24T13:12:13.000Z</time>
      </trkpt>
      <trkpt lat="46.23292" lon="6.45307">
        <ele>836.40002441406</ele>
        <time>2021-03-24T13:12:15.000Z</time>
      </trkpt>
      <trkpt lat="46.23255" lon="6.45247">
        <ele>834.79998779297</ele>
        <time>2021-03-24T13:12:21.000Z</time>
      </trkpt>
      <trkpt lat="46.23244" lon="6.45228">
        <ele>833.40002441406</ele>
        <time>2021-03-24T13:12:23.000Z</time>
      </trkpt>
      <trkpt lat="46.23226" lon="6.45199">
        <ele>831.40002441406</ele>
        <time>2021-03-24T13:12:26.000Z</time>
      </trkpt>
      <trkpt lat="46.23215" lon="6.4518">
        <ele>830</ele>
        <time>2021-03-24T13:12:28.000Z</time>
      </trkpt>
      <trkpt lat="46.2318" lon="6.45131">
        <ele>827</ele>
        <time>2021-03-24T13:12:34.000Z</time>
      </trkpt>
      <trkpt lat="46.23156" lon="6.45102">
        <ele>827</ele>
        <time>2021-03-24T13:12:38.000Z</time>
      </trkpt>
      <trkpt lat="46.2315" lon="6.45095">
        <ele>827.40002441406</ele>
        <time>2021-03-24T13:12:39.000Z</time>
      </trkpt>
      <trkpt lat="46.23144" lon="6.45088">
        <ele>827.79998779297</ele>
        <time>2021-03-24T13:12:40.000Z</time>
      </trkpt>
      <trkpt lat="46.23133" lon="6.45074">
        <ele>828.20001220703</ele>
        <time>2021-03-24T13:12:42.000Z</time>
      </trkpt>
      <trkpt lat="46.23127" lon="6.45067">
        <ele>828.40002441406</ele>
        <time>2021-03-24T13:12:43.000Z</time>
      </trkpt>
      <trkpt lat="46.23121" lon="6.4506">
        <ele>828.59997558594</ele>
        <time>2021-03-24T13:12:44.000Z</time>
      </trkpt>
      <trkpt lat="46.23102" lon="6.4504">
        <ele>828.79998779297</ele>
        <time>2021-03-24T13:12:47.000Z</time>
      </trkpt>
      <trkpt lat="46.2306" lon="6.44992">
        <ele>823.59997558594</ele>
        <time>2021-03-24T13:12:54.000Z</time>
      </trkpt>
      <trkpt lat="46.23035" lon="6.44965">
        <ele>822.20001220703</ele>
        <time>2021-03-24T13:12:58.000Z</time>
      </trkpt>
      <trkpt lat="46.22987" lon="6.44914">
        <ele>821.20001220703</ele>
        <time>2021-03-24T13:13:06.000Z</time>
      </trkpt>
      <trkpt lat="46.2295" lon="6.44886">
        <ele>821.59997558594</ele>
        <time>2021-03-24T13:13:12.000Z</time>
      </trkpt>
      <trkpt lat="46.22904" lon="6.44868">
        <ele>823.20001220703</ele>
        <time>2021-03-24T13:13:19.000Z</time>
      </trkpt>
      <trkpt lat="46.22893" lon="6.44866">
        <ele>823.59997558594</ele>
        <time>2021-03-24T13:13:21.000Z</time>
      </trkpt>
      <trkpt lat="46.22879" lon="6.44862">
        <ele>824</ele>
        <time>2021-03-24T13:13:23.000Z</time>
      </trkpt>
      <trkpt lat="46.22834" lon="6.44846">
        <ele>824.20001220703</ele>
        <time>2021-03-24T13:13:30.000Z</time>
      </trkpt>
      <trkpt lat="46.22801" lon="6.44827">
        <ele>823.79998779297</ele>
        <time>2021-03-24T13:13:36.000Z</time>
      </trkpt>
      <trkpt lat="46.2276" lon="6.4479">
        <ele>826.20001220703</ele>
        <time>2021-03-24T13:13:45.000Z</time>
      </trkpt>
      <trkpt lat="46.22737" lon="6.4477">
        <ele>826.79998779297</ele>
        <time>2021-03-24T13:13:50.000Z</time>
      </trkpt>
      <trkpt lat="46.22702" lon="6.44735">
        <ele>826</ele>
        <time>2021-03-24T13:13:57.000Z</time>
      </trkpt>
      <trkpt lat="46.22665" lon="6.44694">
        <ele>823</ele>
        <time>2021-03-24T13:14:04.000Z</time>
      </trkpt>
      <trkpt lat="46.22623" lon="6.44642">
        <ele>818.40002441406</ele>
        <time>2021-03-24T13:14:11.000Z</time>
      </trkpt>
      <trkpt lat="46.22616" lon="6.44635">
        <ele>818.40002441406</ele>
        <time>2021-03-24T13:14:12.000Z</time>
      </trkpt>
      <trkpt lat="46.22574" lon="6.44584">
        <ele>818.40002441406</ele>
        <time>2021-03-24T13:14:19.000Z</time>
      </trkpt>
      <trkpt lat="46.22527" lon="6.44534">
        <ele>815.59997558594</ele>
        <time>2021-03-24T13:14:27.000Z</time>
      </trkpt>
      <trkpt lat="46.22515" lon="6.44522">
        <ele>815</ele>
        <time>2021-03-24T13:14:29.000Z</time>
      </trkpt>
      <trkpt lat="46.22465" lon="6.44476">
        <ele>814.59997558594</ele>
        <time>2021-03-24T13:14:37.000Z</time>
      </trkpt>
      <trkpt lat="46.22459" lon="6.44471">
        <ele>814.40002441406</ele>
        <time>2021-03-24T13:14:38.000Z</time>
      </trkpt>
      <trkpt lat="46.22406" lon="6.44433">
        <ele>813</ele>
        <time>2021-03-24T13:14:46.000Z</time>
      </trkpt>
      <trkpt lat="46.22354" lon="6.444">
        <ele>809.40002441406</ele>
        <time>2021-03-24T13:14:53.000Z</time>
      </trkpt>
      <trkpt lat="46.22303" lon="6.44368">
        <ele>806.59997558594</ele>
        <time>2021-03-24T13:14:59.000Z</time>
      </trkpt>
      <trkpt lat="46.22284" lon="6.44357">
        <ele>805.79998779297</ele>
        <time>2021-03-24T13:15:01.000Z</time>
      </trkpt>
      <trkpt lat="46.2223" lon="6.44323">
        <ele>803.40002441406</ele>
        <time>2021-03-24T13:15:07.000Z</time>
      </trkpt>
      <trkpt lat="46.22203" lon="6.44307">
        <ele>803</ele>
        <time>2021-03-24T13:15:10.000Z</time>
      </trkpt>
      <trkpt lat="46.22152" lon="6.44274">
        <ele>802</ele>
        <time>2021-03-24T13:15:16.000Z</time>
      </trkpt>
      <trkpt lat="46.22145" lon="6.44269">
        <ele>801.79998779297</ele>
        <time>2021-03-24T13:15:17.000Z</time>
      </trkpt>
      <trkpt lat="46.22094" lon="6.44235">
        <ele>803.79998779297</ele>
        <time>2021-03-24T13:15:24.000Z</time>
      </trkpt>
      <trkpt lat="46.22047" lon="6.44203">
        <ele>803.20001220703</ele>
        <time>2021-03-24T13:15:31.000Z</time>
      </trkpt>
      <trkpt lat="46.22007" lon="6.44185">
        <ele>802</ele>
        <time>2021-03-24T13:15:37.000Z</time>
      </trkpt>
      <trkpt lat="46.21954" lon="6.44168">
        <ele>803</ele>
        <time>2021-03-24T13:15:45.000Z</time>
      </trkpt>
      <trkpt lat="46.21942" lon="6.44164">
        <ele>803.59997558594</ele>
        <time>2021-03-24T13:15:47.000Z</time>
      </trkpt>
      <trkpt lat="46.21928" lon="6.44149">
        <ele>803.40002441406</ele>
        <time>2021-03-24T13:15:50.000Z</time>
      </trkpt>
      <trkpt lat="46.21924" lon="6.44143">
        <ele>803.40002441406</ele>
        <time>2021-03-24T13:15:51.000Z</time>
      </trkpt>
      <trkpt lat="46.21903" lon="6.44115">
        <ele>804</ele>
        <time>2021-03-24T13:15:56.000Z</time>
      </trkpt>
      <trkpt lat="46.21869" lon="6.44068">
        <ele>807.40002441406</ele>
        <time>2021-03-24T13:16:05.000Z</time>
      </trkpt>
      <trkpt lat="46.21841" lon="6.44024">
        <ele>807.79998779297</ele>
        <time>2021-03-24T13:16:13.000Z</time>
      </trkpt>
      <trkpt lat="46.2183" lon="6.44006">
        <ele>807.20001220703</ele>
        <time>2021-03-24T13:16:16.000Z</time>
      </trkpt>
      <trkpt lat="46.21818" lon="6.43988">
        <ele>806.79998779297</ele>
        <time>2021-03-24T13:16:19.000Z</time>
      </trkpt>
      <trkpt lat="46.21799" lon="6.43972">
        <ele>807</ele>
        <time>2021-03-24T13:16:23.000Z</time>
      </trkpt>
      <trkpt lat="46.21788" lon="6.43965">
        <ele>806.40002441406</ele>
        <time>2021-03-24T13:16:25.000Z</time>
      </trkpt>
      <trkpt lat="46.21746" lon="6.43941">
        <ele>803.79998779297</ele>
        <time>2021-03-24T13:16:32.000Z</time>
      </trkpt>
      <trkpt lat="46.21711" lon="6.43923">
        <ele>803.79998779297</ele>
        <time>2021-03-24T13:16:38.000Z</time>
      </trkpt>
      <trkpt lat="46.21683" lon="6.43909">
        <ele>803.40002441406</ele>
        <time>2021-03-24T13:16:43.000Z</time>
      </trkpt>
      <trkpt lat="46.21653" lon="6.43895">
        <ele>800.59997558594</ele>
        <time>2021-03-24T13:16:48.000Z</time>
      </trkpt>
      <trkpt lat="46.21647" lon="6.43892">
        <ele>800.40002441406</ele>
        <time>2021-03-24T13:16:49.000Z</time>
      </trkpt>
      <trkpt lat="46.21614" lon="6.43877">
        <ele>800.20001220703</ele>
        <time>2021-03-24T13:16:54.000Z</time>
      </trkpt>
      <trkpt lat="46.21602" lon="6.43871">
        <ele>800.59997558594</ele>
        <time>2021-03-24T13:16:56.000Z</time>
      </trkpt>
      <trkpt lat="46.2159" lon="6.43865">
        <ele>801.20001220703</ele>
        <time>2021-03-24T13:16:58.000Z</time>
      </trkpt>
      <trkpt lat="46.21558" lon="6.43846">
        <ele>800</ele>
        <time>2021-03-24T13:17:03.000Z</time>
      </trkpt>
      <trkpt lat="46.21552" lon="6.43842">
        <ele>799.20001220703</ele>
        <time>2021-03-24T13:17:04.000Z</time>
      </trkpt>
      <trkpt lat="46.21534" lon="6.43816">
        <ele>795.79998779297</ele>
        <time>2021-03-24T13:17:08.000Z</time>
      </trkpt>
      <trkpt lat="46.2153" lon="6.4381">
        <ele>795</ele>
        <time>2021-03-24T13:17:09.000Z</time>
      </trkpt>
      <trkpt lat="46.21521" lon="6.43795">
        <ele>793.79998779297</ele>
        <time>2021-03-24T13:17:11.000Z</time>
      </trkpt>
      <trkpt lat="46.21518" lon="6.43775">
        <ele>793</ele>
        <time>2021-03-24T13:17:13.000Z</time>
      </trkpt>
      <trkpt lat="46.21517" lon="6.43753">
        <ele>792.20001220703</ele>
        <time>2021-03-24T13:17:15.000Z</time>
      </trkpt>
      <trkpt lat="46.21516" lon="6.43742">
        <ele>791.79998779297</ele>
        <time>2021-03-24T13:17:16.000Z</time>
      </trkpt>
      <trkpt lat="46.21516" lon="6.43731">
        <ele>791.59997558594</ele>
        <time>2021-03-24T13:17:17.000Z</time>
      </trkpt>
      <trkpt lat="46.2151" lon="6.43706">
        <ele>790.79998779297</ele>
        <time>2021-03-24T13:17:20.000Z</time>
      </trkpt>
      <trkpt lat="46.215" lon="6.43659">
        <ele>789.59997558594</ele>
        <time>2021-03-24T13:17:25.000Z</time>
      </trkpt>
      <trkpt lat="46.21497" lon="6.43648">
        <ele>789.20001220703</ele>
        <time>2021-03-24T13:17:26.000Z</time>
      </trkpt>
      <trkpt lat="46.21489" lon="6.43629">
        <ele>788.79998779297</ele>
        <time>2021-03-24T13:17:28.000Z</time>
      </trkpt>
      <trkpt lat="46.21485" lon="6.4362">
        <ele>788.40002441406</ele>
        <time>2021-03-24T13:17:29.000Z</time>
      </trkpt>
      <trkpt lat="46.21454" lon="6.43551">
        <ele>784</ele>
        <time>2021-03-24T13:17:36.000Z</time>
      </trkpt>
      <trkpt lat="46.21425" lon="6.43487">
        <ele>783</ele>
        <time>2021-03-24T13:17:43.000Z</time>
      </trkpt>
      <trkpt lat="46.21402" lon="6.43439">
        <ele>782.20001220703</ele>
        <time>2021-03-24T13:17:49.000Z</time>
      </trkpt>
      <trkpt lat="46.21375" lon="6.43392">
        <ele>780.59997558594</ele>
        <time>2021-03-24T13:17:56.000Z</time>
      </trkpt>
      <trkpt lat="46.21339" lon="6.43341">
        <ele>780.40002441406</ele>
        <time>2021-03-24T13:18:04.000Z</time>
      </trkpt>
      <trkpt lat="46.21313" lon="6.43304">
        <ele>781.40002441406</ele>
        <time>2021-03-24T13:18:10.000Z</time>
      </trkpt>
      <trkpt lat="46.21297" lon="6.43263">
        <ele>783</ele>
        <time>2021-03-24T13:18:15.000Z</time>
      </trkpt>
      <trkpt lat="46.21272" lon="6.432">
        <ele>781.40002441406</ele>
        <time>2021-03-24T13:18:22.000Z</time>
      </trkpt>
      <trkpt lat="46.21248" lon="6.43135">
        <ele>776</ele>
        <time>2021-03-24T13:18:29.000Z</time>
      </trkpt>
      <trkpt lat="46.21236" lon="6.43077">
        <ele>774.59997558594</ele>
        <time>2021-03-24T13:18:35.000Z</time>
      </trkpt>
      <trkpt lat="46.21222" lon="6.43021">
        <ele>776.79998779297</ele>
        <time>2021-03-24T13:18:42.000Z</time>
      </trkpt>
      <trkpt lat="46.21199" lon="6.42984">
        <ele>778.20001220703</ele>
        <time>2021-03-24T13:18:48.000Z</time>
      </trkpt>
      <trkpt lat="46.21171" lon="6.42954">
        <ele>780.20001220703</ele>
        <time>2021-03-24T13:18:54.000Z</time>
      </trkpt>
      <trkpt lat="46.21161" lon="6.42944">
        <ele>780.79998779297</ele>
        <time>2021-03-24T13:18:56.000Z</time>
      </trkpt>
      <trkpt lat="46.21147" lon="6.4293">
        <ele>782.20001220703</ele>
        <time>2021-03-24T13:18:59.000Z</time>
      </trkpt>
      <trkpt lat="46.21117" lon="6.42892">
        <ele>782.79998779297</ele>
        <time>2021-03-24T13:19:06.000Z</time>
      </trkpt>
      <trkpt lat="46.21103" lon="6.42849">
        <ele>781.59997558594</ele>
        <time>2021-03-24T13:19:12.000Z</time>
      </trkpt>
      <trkpt lat="46.21101" lon="6.42842">
        <ele>781.59997558594</ele>
        <time>2021-03-24T13:19:13.000Z</time>
      </trkpt>
      <trkpt lat="46.21084" lon="6.42789">
        <ele>780.40002441406</ele>
        <time>2021-03-24T13:19:21.000Z</time>
      </trkpt>
      <trkpt lat="46.2107" lon="6.42729">
        <ele>781.59997558594</ele>
        <time>2021-03-24T13:19:29.000Z</time>
      </trkpt>
      <trkpt lat="46.2107" lon="6.42721">
        <ele>781.79998779297</ele>
        <time>2021-03-24T13:19:30.000Z</time>
      </trkpt>
      <trkpt lat="46.2107" lon="6.4269">
        <ele>783.79998779297</ele>
        <time>2021-03-24T13:19:34.000Z</time>
      </trkpt>
      <trkpt lat="46.21079" lon="6.42647">
        <ele>783.59997558594</ele>
        <time>2021-03-24T13:19:40.000Z</time>
      </trkpt>
      <trkpt lat="46.21086" lon="6.42607">
        <ele>782.20001220703</ele>
        <time>2021-03-24T13:19:45.000Z</time>
      </trkpt>
      <trkpt lat="46.21085" lon="6.42573">
        <ele>782.59997558594</ele>
        <time>2021-03-24T13:19:49.000Z</time>
      </trkpt>
      <trkpt lat="46.21085" lon="6.42564">
        <ele>783</ele>
        <time>2021-03-24T13:19:50.000Z</time>
      </trkpt>
      <trkpt lat="46.21085" lon="6.42556">
        <ele>783</ele>
        <time>2021-03-24T13:19:51.000Z</time>
      </trkpt>
      <trkpt lat="46.21074" lon="6.42521">
        <ele>782.79998779297</ele>
        <time>2021-03-24T13:19:55.000Z</time>
      </trkpt>
      <trkpt lat="46.21053" lon="6.42462">
        <ele>781.59997558594</ele>
        <time>2021-03-24T13:20:02.000Z</time>
      </trkpt>
      <trkpt lat="46.21031" lon="6.42399">
        <ele>782.40002441406</ele>
        <time>2021-03-24T13:20:10.000Z</time>
      </trkpt>
      <trkpt lat="46.21003" lon="6.42322">
        <ele>783</ele>
        <time>2021-03-24T13:20:20.000Z</time>
      </trkpt>
      <trkpt lat="46.21001" lon="6.42315">
        <ele>783.20001220703</ele>
        <time>2021-03-24T13:20:21.000Z</time>
      </trkpt>
      <trkpt lat="46.20982" lon="6.42262">
        <ele>784.40002441406</ele>
        <time>2021-03-24T13:20:28.000Z</time>
      </trkpt>
      <trkpt lat="46.20972" lon="6.42222">
        <ele>783.20001220703</ele>
        <time>2021-03-24T13:20:33.000Z</time>
      </trkpt>
      <trkpt lat="46.20968" lon="6.42169">
        <ele>785.59997558594</ele>
        <time>2021-03-24T13:20:39.000Z</time>
      </trkpt>
      <trkpt lat="46.20969" lon="6.42118">
        <ele>787</ele>
        <time>2021-03-24T13:20:45.000Z</time>
      </trkpt>
      <trkpt lat="46.20971" lon="6.421">
        <ele>786.20001220703</ele>
        <time>2021-03-24T13:20:47.000Z</time>
      </trkpt>
      <trkpt lat="46.20972" lon="6.42081">
        <ele>784.59997558594</ele>
        <time>2021-03-24T13:20:49.000Z</time>
      </trkpt>
      <trkpt lat="46.20978" lon="6.42004">
        <ele>780.79998779297</ele>
        <time>2021-03-24T13:20:58.000Z</time>
      </trkpt>
      <trkpt lat="46.20983" lon="6.41932">
        <ele>779</ele>
        <time>2021-03-24T13:21:07.000Z</time>
      </trkpt>
      <trkpt lat="46.20987" lon="6.41877">
        <ele>778.40002441406</ele>
        <time>2021-03-24T13:21:13.000Z</time>
      </trkpt>
      <trkpt lat="46.20992" lon="6.418">
        <ele>776.79998779297</ele>
        <time>2021-03-24T13:21:20.000Z</time>
      </trkpt>
      <trkpt lat="46.20997" lon="6.4172">
        <ele>774.59997558594</ele>
        <time>2021-03-24T13:21:27.000Z</time>
      </trkpt>
      <trkpt lat="46.20993" lon="6.41662">
        <ele>773</ele>
        <time>2021-03-24T13:21:32.000Z</time>
      </trkpt>
      <trkpt lat="46.2099" lon="6.4165">
        <ele>772.59997558594</ele>
        <time>2021-03-24T13:21:33.000Z</time>
      </trkpt>
      <trkpt lat="46.20981" lon="6.41599">
        <ele>770.20001220703</ele>
        <time>2021-03-24T13:21:37.000Z</time>
      </trkpt>
      <trkpt lat="46.20968" lon="6.41534">
        <ele>766.79998779297</ele>
        <time>2021-03-24T13:21:42.000Z</time>
      </trkpt>
      <trkpt lat="46.20965" lon="6.4152">
        <ele>766.40002441406</ele>
        <time>2021-03-24T13:21:43.000Z</time>
      </trkpt>
      <trkpt lat="46.20957" lon="6.41482">
        <ele>764</ele>
        <time>2021-03-24T13:21:46.000Z</time>
      </trkpt>
      <trkpt lat="46.2094" lon="6.41398">
        <ele>757.79998779297</ele>
        <time>2021-03-24T13:21:53.000Z</time>
      </trkpt>
      <trkpt lat="46.20938" lon="6.41387">
        <ele>757</ele>
        <time>2021-03-24T13:21:54.000Z</time>
      </trkpt>
      <trkpt lat="46.20917" lon="6.41309">
        <ele>752</ele>
        <time>2021-03-24T13:22:01.000Z</time>
      </trkpt>
      <trkpt lat="46.20884" lon="6.41238">
        <ele>749.79998779297</ele>
        <time>2021-03-24T13:22:08.000Z</time>
      </trkpt>
      <trkpt lat="46.20849" lon="6.41165">
        <ele>748.40002441406</ele>
        <time>2021-03-24T13:22:15.000Z</time>
      </trkpt>
      <trkpt lat="46.20839" lon="6.41144">
        <ele>748.79998779297</ele>
        <time>2021-03-24T13:22:17.000Z</time>
      </trkpt>
      <trkpt lat="46.20804" lon="6.41071">
        <ele>744.79998779297</ele>
        <time>2021-03-24T13:22:24.000Z</time>
      </trkpt>
      <trkpt lat="46.20784" lon="6.41028">
        <ele>741.79998779297</ele>
        <time>2021-03-24T13:22:28.000Z</time>
      </trkpt>
      <trkpt lat="46.20753" lon="6.40962">
        <ele>740.20001220703</ele>
        <time>2021-03-24T13:22:34.000Z</time>
      </trkpt>
      <trkpt lat="46.20737" lon="6.40933">
        <ele>738.59997558594</ele>
        <time>2021-03-24T13:22:37.000Z</time>
      </trkpt>
      <trkpt lat="46.20713" lon="6.40888">
        <ele>737.20001220703</ele>
        <time>2021-03-24T13:22:42.000Z</time>
      </trkpt>
      <trkpt lat="46.20704" lon="6.40873">
        <ele>737.40002441406</ele>
        <time>2021-03-24T13:22:44.000Z</time>
      </trkpt>
      <trkpt lat="46.20695" lon="6.40857">
        <ele>737.59997558594</ele>
        <time>2021-03-24T13:22:46.000Z</time>
      </trkpt>
      <trkpt lat="46.20686" lon="6.40842">
        <ele>737.40002441406</ele>
        <time>2021-03-24T13:22:48.000Z</time>
      </trkpt>
      <trkpt lat="46.20684" lon="6.40822">
        <ele>736.59997558594</ele>
        <time>2021-03-24T13:22:50.000Z</time>
      </trkpt>
      <trkpt lat="46.20683" lon="6.40804">
        <ele>735.40002441406</ele>
        <time>2021-03-24T13:22:52.000Z</time>
      </trkpt>
      <trkpt lat="46.20687" lon="6.40796">
        <ele>734.79998779297</ele>
        <time>2021-03-24T13:22:53.000Z</time>
      </trkpt>
      <trkpt lat="46.2069" lon="6.40788">
        <ele>734.40002441406</ele>
        <time>2021-03-24T13:22:54.000Z</time>
      </trkpt>
      <trkpt lat="46.20698" lon="6.40775">
        <ele>734.40002441406</ele>
        <time>2021-03-24T13:22:56.000Z</time>
      </trkpt>
      <trkpt lat="46.20721" lon="6.40741">
        <ele>735.59997558594</ele>
        <time>2021-03-24T13:23:01.000Z</time>
      </trkpt>
      <trkpt lat="46.20731" lon="6.40727">
        <ele>735.79998779297</ele>
        <time>2021-03-24T13:23:03.000Z</time>
      </trkpt>
      <trkpt lat="46.20749" lon="6.407">
        <ele>735.20001220703</ele>
        <time>2021-03-24T13:23:07.000Z</time>
      </trkpt>
      <trkpt lat="46.2076" lon="6.40684">
        <ele>735</ele>
        <time>2021-03-24T13:23:10.000Z</time>
      </trkpt>
      <trkpt lat="46.20773" lon="6.40666">
        <ele>735</ele>
        <time>2021-03-24T13:23:13.000Z</time>
      </trkpt>
      <trkpt lat="46.2078" lon="6.40656">
        <ele>735.40002441406</ele>
        <time>2021-03-24T13:23:15.000Z</time>
      </trkpt>
      <trkpt lat="46.20787" lon="6.40646">
        <ele>735.59997558594</ele>
        <time>2021-03-24T13:23:17.000Z</time>
      </trkpt>
      <trkpt lat="46.20807" lon="6.40611">
        <ele>737</ele>
        <time>2021-03-24T13:23:24.000Z</time>
      </trkpt>
      <trkpt lat="46.20817" lon="6.40598">
        <ele>737</ele>
        <time>2021-03-24T13:23:27.000Z</time>
      </trkpt>
      <trkpt lat="46.20826" lon="6.40586">
        <ele>737</ele>
        <time>2021-03-24T13:23:30.000Z</time>
      </trkpt>
      <trkpt lat="46.20838" lon="6.40564">
        <ele>737.79998779297</ele>
        <time>2021-03-24T13:23:35.000Z</time>
      </trkpt>
      <trkpt lat="46.20847" lon="6.40535">
        <ele>739.79998779297</ele>
        <time>2021-03-24T13:23:41.000Z</time>
      </trkpt>
      <trkpt lat="46.20853" lon="6.40515">
        <ele>741</ele>
        <time>2021-03-24T13:23:46.000Z</time>
      </trkpt>
      <trkpt lat="46.2086" lon="6.40497">
        <ele>741.20001220703</ele>
        <time>2021-03-24T13:23:50.000Z</time>
      </trkpt>
      <trkpt lat="46.20879" lon="6.40476">
        <ele>741.20001220703</ele>
        <time>2021-03-24T13:23:56.000Z</time>
      </trkpt>
      <trkpt lat="46.20894" lon="6.4046">
        <ele>741</ele>
        <time>2021-03-24T13:24:01.000Z</time>
      </trkpt>
      <trkpt lat="46.20897" lon="6.40455">
        <ele>741</ele>
        <time>2021-03-24T13:24:02.000Z</time>
      </trkpt>
      <trkpt lat="46.20903" lon="6.40446">
        <ele>740.40002441406</ele>
        <time>2021-03-24T13:24:04.000Z</time>
      </trkpt>
      <trkpt lat="46.20908" lon="6.40437">
        <ele>740</ele>
        <time>2021-03-24T13:24:06.000Z</time>
      </trkpt>
      <trkpt lat="46.20914" lon="6.40428">
        <ele>739.79998779297</ele>
        <time>2021-03-24T13:24:08.000Z</time>
      </trkpt>
      <trkpt lat="46.20921" lon="6.40417">
        <ele>739.79998779297</ele>
        <time>2021-03-24T13:24:10.000Z</time>
      </trkpt>
      <trkpt lat="46.20928" lon="6.40407">
        <ele>740</ele>
        <time>2021-03-24T13:24:12.000Z</time>
      </trkpt>
      <trkpt lat="46.20931" lon="6.40402">
        <ele>740.20001220703</ele>
        <time>2021-03-24T13:24:13.000Z</time>
      </trkpt>
      <trkpt lat="46.20936" lon="6.40391">
        <ele>740.79998779297</ele>
        <time>2021-03-24T13:24:15.000Z</time>
      </trkpt>
      <trkpt lat="46.20941" lon="6.40379">
        <ele>741.20001220703</ele>
        <time>2021-03-24T13:24:17.000Z</time>
      </trkpt>
      <trkpt lat="46.20944" lon="6.40373">
        <ele>741.40002441406</ele>
        <time>2021-03-24T13:24:18.000Z</time>
      </trkpt>
      <trkpt lat="46.20946" lon="6.40367">
        <ele>741.59997558594</ele>
        <time>2021-03-24T13:24:19.000Z</time>
      </trkpt>
      <trkpt lat="46.20952" lon="6.40356">
        <ele>742</ele>
        <time>2021-03-24T13:24:21.000Z</time>
      </trkpt>
      <trkpt lat="46.20957" lon="6.40343">
        <ele>742</ele>
        <time>2021-03-24T13:24:23.000Z</time>
      </trkpt>
      <trkpt lat="46.20971" lon="6.40311">
        <ele>742</ele>
        <time>2021-03-24T13:24:28.000Z</time>
      </trkpt>
      <trkpt lat="46.20975" lon="6.403">
        <ele>741.79998779297</ele>
        <time>2021-03-24T13:24:30.000Z</time>
      </trkpt>
      <trkpt lat="46.20978" lon="6.40294">
        <ele>741.59997558594</ele>
        <time>2021-03-24T13:24:31.000Z</time>
      </trkpt>
      <trkpt lat="46.20984" lon="6.40283">
        <ele>741.79998779297</ele>
        <time>2021-03-24T13:24:33.000Z</time>
      </trkpt>
      <trkpt lat="46.20987" lon="6.40279">
        <ele>741.79998779297</ele>
        <time>2021-03-24T13:24:34.000Z</time>
      </trkpt>
      <trkpt lat="46.2099" lon="6.40274">
        <ele>741.79998779297</ele>
        <time>2021-03-24T13:24:35.000Z</time>
      </trkpt>
      <trkpt lat="46.21" lon="6.40259">
        <ele>740.79998779297</ele>
        <time>2021-03-24T13:24:38.000Z</time>
      </trkpt>
      <trkpt lat="46.21033" lon="6.40211">
        <ele>739.59997558594</ele>
        <time>2021-03-24T13:24:47.000Z</time>
      </trkpt>
      <trkpt lat="46.21037" lon="6.40205">
        <ele>739.40002441406</ele>
        <time>2021-03-24T13:24:48.000Z</time>
      </trkpt>
      <trkpt lat="46.21051" lon="6.40185">
        <ele>738</ele>
        <time>2021-03-24T13:24:52.000Z</time>
      </trkpt>
      <trkpt lat="46.21062" lon="6.40169">
        <ele>737.59997558594</ele>
        <time>2021-03-24T13:24:55.000Z</time>
      </trkpt>
      <trkpt lat="46.21074" lon="6.40153">
        <ele>737</ele>
        <time>2021-03-24T13:24:58.000Z</time>
      </trkpt>
      <trkpt lat="46.21108" lon="6.40101">
        <ele>739.59997558594</ele>
        <time>2021-03-24T13:25:07.000Z</time>
      </trkpt>
      <trkpt lat="46.2113" lon="6.4007">
        <ele>743</ele>
        <time>2021-03-24T13:25:13.000Z</time>
      </trkpt>
      <trkpt lat="46.21133" lon="6.40065">
        <ele>743</ele>
        <time>2021-03-24T13:25:14.000Z</time>
      </trkpt>
      <trkpt lat="46.21141" lon="6.40054">
        <ele>744</ele>
        <time>2021-03-24T13:25:16.000Z</time>
      </trkpt>
      <trkpt lat="46.21148" lon="6.40044">
        <ele>744.20001220703</ele>
        <time>2021-03-24T13:25:18.000Z</time>
      </trkpt>
      <trkpt lat="46.21154" lon="6.40035">
        <ele>744.59997558594</ele>
        <time>2021-03-24T13:25:20.000Z</time>
      </trkpt>
      <trkpt lat="46.21167" lon="6.40015">
        <ele>744.59997558594</ele>
        <time>2021-03-24T13:25:24.000Z</time>
      </trkpt>
      <trkpt lat="46.21186" lon="6.39988">
        <ele>743.40002441406</ele>
        <time>2021-03-24T13:25:30.000Z</time>
      </trkpt>
      <trkpt lat="46.21203" lon="6.39964">
        <ele>741.79998779297</ele>
        <time>2021-03-24T13:25:36.000Z</time>
      </trkpt>
      <trkpt lat="46.21216" lon="6.39945">
        <ele>742.79998779297</ele>
        <time>2021-03-24T13:25:41.000Z</time>
      </trkpt>
      <trkpt lat="46.2123" lon="6.39926">
        <ele>743.20001220703</ele>
        <time>2021-03-24T13:25:47.000Z</time>
      </trkpt>
      <trkpt lat="46.21245" lon="6.39903">
        <ele>744.59997558594</ele>
        <time>2021-03-24T13:25:53.000Z</time>
      </trkpt>
      <trkpt lat="46.21262" lon="6.3988">
        <ele>746.40002441406</ele>
        <time>2021-03-24T13:26:00.000Z</time>
      </trkpt>
      <trkpt lat="46.21272" lon="6.39865">
        <ele>748</ele>
        <time>2021-03-24T13:26:05.000Z</time>
      </trkpt>
      <trkpt lat="46.2128" lon="6.39854">
        <ele>749.59997558594</ele>
        <time>2021-03-24T13:26:09.000Z</time>
      </trkpt>
      <trkpt lat="46.21292" lon="6.39836">
        <ele>751.40002441406</ele>
        <time>2021-03-24T13:26:15.000Z</time>
      </trkpt>
      <trkpt lat="46.21303" lon="6.3982">
        <ele>752.40002441406</ele>
        <time>2021-03-24T13:26:20.000Z</time>
      </trkpt>
      <trkpt lat="46.21316" lon="6.39804">
        <ele>753.20001220703</ele>
        <time>2021-03-24T13:26:26.000Z</time>
      </trkpt>
      <trkpt lat="46.21329" lon="6.39787">
        <ele>753.79998779297</ele>
        <time>2021-03-24T13:26:31.000Z</time>
      </trkpt>
      <trkpt lat="46.21348" lon="6.39764">
        <ele>756</ele>
        <time>2021-03-24T13:26:38.000Z</time>
      </trkpt>
      <trkpt lat="46.21374" lon="6.39756">
        <ele>757</ele>
        <time>2021-03-24T13:26:45.000Z</time>
      </trkpt>
      <trkpt lat="46.21393" lon="6.39758">
        <ele>757</ele>
        <time>2021-03-24T13:26:51.000Z</time>
      </trkpt>
      <trkpt lat="46.21409" lon="6.39763">
        <ele>756.20001220703</ele>
        <time>2021-03-24T13:26:56.000Z</time>
      </trkpt>
      <trkpt lat="46.2143" lon="6.3977">
        <ele>755.79998779297</ele>
        <time>2021-03-24T13:27:03.000Z</time>
      </trkpt>
      <trkpt lat="46.21453" lon="6.39777">
        <ele>756.20001220703</ele>
        <time>2021-03-24T13:27:10.000Z</time>
      </trkpt>
      <trkpt lat="46.21481" lon="6.39787">
        <ele>756.79998779297</ele>
        <time>2021-03-24T13:27:19.000Z</time>
      </trkpt>
      <trkpt lat="46.21505" lon="6.39794">
        <ele>758.40002441406</ele>
        <time>2021-03-24T13:27:27.000Z</time>
      </trkpt>
      <trkpt lat="46.2153" lon="6.39803">
        <ele>761</ele>
        <time>2021-03-24T13:27:36.000Z</time>
      </trkpt>
      <trkpt lat="46.21551" lon="6.39806">
        <ele>763.59997558594</ele>
        <time>2021-03-24T13:27:43.000Z</time>
      </trkpt>
      <trkpt lat="46.21577" lon="6.39803">
        <ele>764.20001220703</ele>
        <time>2021-03-24T13:27:52.000Z</time>
      </trkpt>
      <trkpt lat="46.21604" lon="6.398">
        <ele>765.59997558594</ele>
        <time>2021-03-24T13:28:01.000Z</time>
      </trkpt>
      <trkpt lat="46.21626" lon="6.39797">
        <ele>766.79998779297</ele>
        <time>2021-03-24T13:28:08.000Z</time>
      </trkpt>
      <trkpt lat="46.21647" lon="6.39795">
        <ele>769.59997558594</ele>
        <time>2021-03-24T13:28:15.000Z</time>
      </trkpt>
      <trkpt lat="46.21668" lon="6.39792">
        <ele>773.40002441406</ele>
        <time>2021-03-24T13:28:22.000Z</time>
      </trkpt>
      <trkpt lat="46.21686" lon="6.39789">
        <ele>777.79998779297</ele>
        <time>2021-03-24T13:28:28.000Z</time>
      </trkpt>
      <trkpt lat="46.21703" lon="6.39778">
        <ele>782.40002441406</ele>
        <time>2021-03-24T13:28:34.000Z</time>
      </trkpt>
      <trkpt lat="46.21715" lon="6.3977">
        <ele>785.59997558594</ele>
        <time>2021-03-24T13:28:39.000Z</time>
      </trkpt>
      <trkpt lat="46.21728" lon="6.39758">
        <ele>786</ele>
        <time>2021-03-24T13:28:44.000Z</time>
      </trkpt>
      <trkpt lat="46.2174" lon="6.39746">
        <ele>786.79998779297</ele>
        <time>2021-03-24T13:28:49.000Z</time>
      </trkpt>
      <trkpt lat="46.21754" lon="6.39733">
        <ele>785.79998779297</ele>
        <time>2021-03-24T13:28:55.000Z</time>
      </trkpt>
      <trkpt lat="46.2177" lon="6.39718">
        <ele>788.40002441406</ele>
        <time>2021-03-24T13:29:02.000Z</time>
      </trkpt>
      <trkpt lat="46.2178" lon="6.39708">
        <ele>788.20001220703</ele>
        <time>2021-03-24T13:29:06.000Z</time>
      </trkpt>
      <trkpt lat="46.21793" lon="6.39696">
        <ele>790</ele>
        <time>2021-03-24T13:29:11.000Z</time>
      </trkpt>
      <trkpt lat="46.21805" lon="6.39684">
        <ele>791.20001220703</ele>
        <time>2021-03-24T13:29:16.000Z</time>
      </trkpt>
      <trkpt lat="46.21814" lon="6.39675">
        <ele>790.79998779297</ele>
        <time>2021-03-24T13:29:21.000Z</time>
      </trkpt>
      <trkpt lat="46.21824" lon="6.39666">
        <ele>788.59997558594</ele>
        <time>2021-03-24T13:29:25.000Z</time>
      </trkpt>
      <trkpt lat="46.21834" lon="6.39659">
        <ele>789.59997558594</ele>
        <time>2021-03-24T13:29:29.000Z</time>
      </trkpt>
      <trkpt lat="46.21853" lon="6.39646">
        <ele>790.79998779297</ele>
        <time>2021-03-24T13:29:36.000Z</time>
      </trkpt>
      <trkpt lat="46.21877" lon="6.39631">
        <ele>792.79998779297</ele>
        <time>2021-03-24T13:29:44.000Z</time>
      </trkpt>
      <trkpt lat="46.21896" lon="6.39618">
        <ele>792.40002441406</ele>
        <time>2021-03-24T13:29:51.000Z</time>
      </trkpt>
      <trkpt lat="46.21917" lon="6.39605">
        <ele>793.79998779297</ele>
        <time>2021-03-24T13:29:58.000Z</time>
      </trkpt>
      <trkpt lat="46.21929" lon="6.39597">
        <ele>794.59997558594</ele>
        <time>2021-03-24T13:30:03.000Z</time>
      </trkpt>
      <trkpt lat="46.21939" lon="6.39591">
        <ele>795.79998779297</ele>
        <time>2021-03-24T13:30:08.000Z</time>
      </trkpt>
      <trkpt lat="46.2195" lon="6.39583">
        <ele>796.40002441406</ele>
        <time>2021-03-24T13:30:11.000Z</time>
      </trkpt>
      <trkpt lat="46.21971" lon="6.3957">
        <ele>798.59997558594</ele>
        <time>2021-03-24T13:30:18.000Z</time>
      </trkpt>
      <trkpt lat="46.21988" lon="6.39559">
        <ele>800.40002441406</ele>
        <time>2021-03-24T13:30:24.000Z</time>
      </trkpt>
      <trkpt lat="46.22007" lon="6.39549">
        <ele>801.20001220703</ele>
        <time>2021-03-24T13:30:31.000Z</time>
      </trkpt>
      <trkpt lat="46.22031" lon="6.39542">
        <ele>800.40002441406</ele>
        <time>2021-03-24T13:30:39.000Z</time>
      </trkpt>
      <trkpt lat="46.22054" lon="6.39551">
        <ele>800.79998779297</ele>
        <time>2021-03-24T13:30:47.000Z</time>
      </trkpt>
      <trkpt lat="46.22077" lon="6.39561">
        <ele>800.59997558594</ele>
        <time>2021-03-24T13:30:55.000Z</time>
      </trkpt>
      <trkpt lat="46.22094" lon="6.39552">
        <ele>798.40002441406</ele>
        <time>2021-03-24T13:31:00.000Z</time>
      </trkpt>
      <trkpt lat="46.2211" lon="6.39544">
        <ele>797.40002441406</ele>
        <time>2021-03-24T13:31:06.000Z</time>
      </trkpt>
      <trkpt lat="46.2213" lon="6.39533">
        <ele>797.40002441406</ele>
        <time>2021-03-24T13:31:13.000Z</time>
      </trkpt>
      <trkpt lat="46.22157" lon="6.39533">
        <ele>800.59997558594</ele>
        <time>2021-03-24T13:31:21.000Z</time>
      </trkpt>
      <trkpt lat="46.2218" lon="6.39534">
        <ele>802.59997558594</ele>
        <time>2021-03-24T13:31:29.000Z</time>
      </trkpt>
      <trkpt lat="46.22211" lon="6.39536">
        <ele>804.40002441406</ele>
        <time>2021-03-24T13:31:39.000Z</time>
      </trkpt>
      <trkpt lat="46.22241" lon="6.39538">
        <ele>808.20001220703</ele>
        <time>2021-03-24T13:31:49.000Z</time>
      </trkpt>
      <trkpt lat="46.22259" lon="6.3954">
        <ele>808.20001220703</ele>
        <time>2021-03-24T13:31:55.000Z</time>
      </trkpt>
      <trkpt lat="46.22276" lon="6.39542">
        <ele>808.20001220703</ele>
        <time>2021-03-24T13:32:01.000Z</time>
      </trkpt>
      <trkpt lat="46.22294" lon="6.39543">
        <ele>807.79998779297</ele>
        <time>2021-03-24T13:32:08.000Z</time>
      </trkpt>
      <trkpt lat="46.2231" lon="6.39545">
        <ele>807.79998779297</ele>
        <time>2021-03-24T13:32:14.000Z</time>
      </trkpt>
      <trkpt lat="46.22331" lon="6.39545">
        <ele>808.59997558594</ele>
        <time>2021-03-24T13:32:22.000Z</time>
      </trkpt>
      <trkpt lat="46.22347" lon="6.39545">
        <ele>809.79998779297</ele>
        <time>2021-03-24T13:32:28.000Z</time>
      </trkpt>
      <trkpt lat="46.22365" lon="6.39542">
        <ele>811.40002441406</ele>
        <time>2021-03-24T13:32:34.000Z</time>
      </trkpt>
      <trkpt lat="46.22384" lon="6.39535">
        <ele>812.20001220703</ele>
        <time>2021-03-24T13:32:41.000Z</time>
      </trkpt>
      <trkpt lat="46.22406" lon="6.39527">
        <ele>813</ele>
        <time>2021-03-24T13:32:49.000Z</time>
      </trkpt>
      <trkpt lat="46.22429" lon="6.39519">
        <ele>815</ele>
        <time>2021-03-24T13:32:57.000Z</time>
      </trkpt>
      <trkpt lat="46.22452" lon="6.39511">
        <ele>817.20001220703</ele>
        <time>2021-03-24T13:33:05.000Z</time>
      </trkpt>
      <trkpt lat="46.22475" lon="6.39503">
        <ele>819.20001220703</ele>
        <time>2021-03-24T13:33:13.000Z</time>
      </trkpt>
      <trkpt lat="46.22492" lon="6.39496">
        <ele>820.79998779297</ele>
        <time>2021-03-24T13:33:19.000Z</time>
      </trkpt>
      <trkpt lat="46.2251" lon="6.3949">
        <ele>822.59997558594</ele>
        <time>2021-03-24T13:33:25.000Z</time>
      </trkpt>
      <trkpt lat="46.2253" lon="6.39486">
        <ele>826</ele>
        <time>2021-03-24T13:33:32.000Z</time>
      </trkpt>
      <trkpt lat="46.2255" lon="6.39487">
        <ele>830</ele>
        <time>2021-03-24T13:33:40.000Z</time>
      </trkpt>
      <trkpt lat="46.22563" lon="6.39491">
        <ele>831.20001220703</ele>
        <time>2021-03-24T13:33:45.000Z</time>
      </trkpt>
      <trkpt lat="46.22578" lon="6.39494">
        <ele>832.40002441406</ele>
        <time>2021-03-24T13:33:50.000Z</time>
      </trkpt>
      <trkpt lat="46.22593" lon="6.39489">
        <ele>830.79998779297</ele>
        <time>2021-03-24T13:33:55.000Z</time>
      </trkpt>
      <trkpt lat="46.22613" lon="6.39466">
        <ele>825.59997558594</ele>
        <time>2021-03-24T13:34:02.000Z</time>
      </trkpt>
      <trkpt lat="46.22632" lon="6.39456">
        <ele>824.59997558594</ele>
        <time>2021-03-24T13:34:09.000Z</time>
      </trkpt>
      <trkpt lat="46.22654" lon="6.39452">
        <ele>825.59997558594</ele>
        <time>2021-03-24T13:34:16.000Z</time>
      </trkpt>
      <trkpt lat="46.22684" lon="6.39452">
        <ele>827.79998779297</ele>
        <time>2021-03-24T13:34:26.000Z</time>
      </trkpt>
      <trkpt lat="46.22711" lon="6.39452">
        <ele>831.59997558594</ele>
        <time>2021-03-24T13:34:35.000Z</time>
      </trkpt>
      <trkpt lat="46.22735" lon="6.39452">
        <ele>834.59997558594</ele>
        <time>2021-03-24T13:34:43.000Z</time>
      </trkpt>
      <trkpt lat="46.22754" lon="6.39451">
        <ele>836.20001220703</ele>
        <time>2021-03-24T13:34:49.000Z</time>
      </trkpt>
      <trkpt lat="46.22782" lon="6.39451">
        <ele>838.20001220703</ele>
        <time>2021-03-24T13:34:58.000Z</time>
      </trkpt>
      <trkpt lat="46.22801" lon="6.39451">
        <ele>839.79998779297</ele>
        <time>2021-03-24T13:35:04.000Z</time>
      </trkpt>
      <trkpt lat="46.22821" lon="6.39451">
        <ele>841.59997558594</ele>
        <time>2021-03-24T13:35:11.000Z</time>
      </trkpt>
      <trkpt lat="46.22837" lon="6.39451">
        <ele>843</ele>
        <time>2021-03-24T13:35:17.000Z</time>
      </trkpt>
      <trkpt lat="46.22854" lon="6.39453">
        <ele>843.59997558594</ele>
        <time>2021-03-24T13:35:23.000Z</time>
      </trkpt>
      <trkpt lat="46.22875" lon="6.39459">
        <ele>844.79998779297</ele>
        <time>2021-03-24T13:35:30.000Z</time>
      </trkpt>
      <trkpt lat="46.22894" lon="6.39464">
        <ele>847</ele>
        <time>2021-03-24T13:35:36.000Z</time>
      </trkpt>
      <trkpt lat="46.22915" lon="6.39471">
        <ele>850.20001220703</ele>
        <time>2021-03-24T13:35:43.000Z</time>
      </trkpt>
      <trkpt lat="46.22927" lon="6.39478">
        <ele>853.20001220703</ele>
        <time>2021-03-24T13:35:48.000Z</time>
      </trkpt>
      <trkpt lat="46.22943" lon="6.39488">
        <ele>856.40002441406</ele>
        <time>2021-03-24T13:35:54.000Z</time>
      </trkpt>
      <trkpt lat="46.22958" lon="6.39497">
        <ele>858</ele>
        <time>2021-03-24T13:35:59.000Z</time>
      </trkpt>
      <trkpt lat="46.22973" lon="6.395">
        <ele>857.79998779297</ele>
        <time>2021-03-24T13:36:04.000Z</time>
      </trkpt>
      <trkpt lat="46.22984" lon="6.39501">
        <ele>857</ele>
        <time>2021-03-24T13:36:07.000Z</time>
      </trkpt>
      <trkpt lat="46.23" lon="6.39502">
        <ele>855.59997558594</ele>
        <time>2021-03-24T13:36:12.000Z</time>
      </trkpt>
      <trkpt lat="46.23011" lon="6.39502">
        <ele>854.20001220703</ele>
        <time>2021-03-24T13:36:16.000Z</time>
      </trkpt>
      <trkpt lat="46.23025" lon="6.39503">
        <ele>852.59997558594</ele>
        <time>2021-03-24T13:36:22.000Z</time>
      </trkpt>
      <trkpt lat="46.23037" lon="6.39508">
        <ele>853</ele>
        <time>2021-03-24T13:36:27.000Z</time>
      </trkpt>
      <trkpt lat="46.23054" lon="6.39517">
        <ele>854.59997558594</ele>
        <time>2021-03-24T13:36:34.000Z</time>
      </trkpt>
      <trkpt lat="46.23066" lon="6.39524">
        <ele>857.59997558594</ele>
        <time>2021-03-24T13:36:39.000Z</time>
      </trkpt>
      <trkpt lat="46.23082" lon="6.39531">
        <ele>861.20001220703</ele>
        <time>2021-03-24T13:36:44.000Z</time>
      </trkpt>
      <trkpt lat="46.23096" lon="6.3952">
        <ele>861.40002441406</ele>
        <time>2021-03-24T13:36:48.000Z</time>
      </trkpt>
      <trkpt lat="46.23113" lon="6.39506">
        <ele>860.79998779297</ele>
        <time>2021-03-24T13:36:54.000Z</time>
      </trkpt>
      <trkpt lat="46.23132" lon="6.39491">
        <ele>858.59997558594</ele>
        <time>2021-03-24T13:37:02.000Z</time>
      </trkpt>
      <trkpt lat="46.23148" lon="6.39477">
        <ele>856</ele>
        <time>2021-03-24T13:37:09.000Z</time>
      </trkpt>
      <trkpt lat="46.23169" lon="6.39461">
        <ele>854.79998779297</ele>
        <time>2021-03-24T13:37:17.000Z</time>
      </trkpt>
      <trkpt lat="46.23189" lon="6.39445">
        <ele>855.40002441406</ele>
        <time>2021-03-24T13:37:24.000Z</time>
      </trkpt>
      <trkpt lat="46.23207" lon="6.39431">
        <ele>855.79998779297</ele>
        <time>2021-03-24T13:37:31.000Z</time>
      </trkpt>
      <trkpt lat="46.23223" lon="6.39431">
        <ele>855.20001220703</ele>
        <time>2021-03-24T13:37:37.000Z</time>
      </trkpt>
      <trkpt lat="46.2325" lon="6.39438">
        <ele>855</ele>
        <time>2021-03-24T13:37:46.000Z</time>
      </trkpt>
      <trkpt lat="46.23274" lon="6.39444">
        <ele>856.59997558594</ele>
        <time>2021-03-24T13:37:54.000Z</time>
      </trkpt>
      <trkpt lat="46.23293" lon="6.39455">
        <ele>859.79998779297</ele>
        <time>2021-03-24T13:38:02.000Z</time>
      </trkpt>
      <trkpt lat="46.23309" lon="6.39474">
        <ele>862.79998779297</ele>
        <time>2021-03-24T13:38:09.000Z</time>
      </trkpt>
      <trkpt lat="46.23323" lon="6.3949">
        <ele>864.40002441406</ele>
        <time>2021-03-24T13:38:15.000Z</time>
      </trkpt>
      <trkpt lat="46.23337" lon="6.39506">
        <ele>865.20001220703</ele>
        <time>2021-03-24T13:38:21.000Z</time>
      </trkpt>
      <trkpt lat="46.23353" lon="6.39514">
        <ele>865.20001220703</ele>
        <time>2021-03-24T13:38:27.000Z</time>
      </trkpt>
      <trkpt lat="46.23372" lon="6.39521">
        <ele>865</ele>
        <time>2021-03-24T13:38:34.000Z</time>
      </trkpt>
      <trkpt lat="46.23393" lon="6.39528">
        <ele>866</ele>
        <time>2021-03-24T13:38:41.000Z</time>
      </trkpt>
      <trkpt lat="46.23418" lon="6.39531">
        <ele>867.59997558594</ele>
        <time>2021-03-24T13:38:49.000Z</time>
      </trkpt>
      <trkpt lat="46.23443" lon="6.3953">
        <ele>871.20001220703</ele>
        <time>2021-03-24T13:38:57.000Z</time>
      </trkpt>
      <trkpt lat="46.23469" lon="6.39529">
        <ele>876</ele>
        <time>2021-03-24T13:39:05.000Z</time>
      </trkpt>
      <trkpt lat="46.23488" lon="6.39529">
        <ele>879.40002441406</ele>
        <time>2021-03-24T13:39:11.000Z</time>
      </trkpt>
      <trkpt lat="46.23507" lon="6.39521">
        <ele>882</ele>
        <time>2021-03-24T13:39:18.000Z</time>
      </trkpt>
      <trkpt lat="46.23516" lon="6.39513">
        <ele>882.40002441406</ele>
        <time>2021-03-24T13:39:22.000Z</time>
      </trkpt>
      <trkpt lat="46.23523" lon="6.39496">
        <ele>881.20001220703</ele>
        <time>2021-03-24T13:39:27.000Z</time>
      </trkpt>
      <trkpt lat="46.23527" lon="6.39486">
        <ele>880.40002441406</ele>
        <time>2021-03-24T13:39:30.000Z</time>
      </trkpt>
      <trkpt lat="46.2353" lon="6.39478">
        <ele>879.79998779297</ele>
        <time>2021-03-24T13:39:32.000Z</time>
      </trkpt>
      <trkpt lat="46.23546" lon="6.39462">
        <ele>879.40002441406</ele>
        <time>2021-03-24T13:39:39.000Z</time>
      </trkpt>
      <trkpt lat="46.23566" lon="6.39459">
        <ele>881</ele>
        <time>2021-03-24T13:39:47.000Z</time>
      </trkpt>
      <trkpt lat="46.23584" lon="6.39465">
        <ele>882.79998779297</ele>
        <time>2021-03-24T13:39:53.000Z</time>
      </trkpt>
      <trkpt lat="46.23607" lon="6.39472">
        <ele>884.40002441406</ele>
        <time>2021-03-24T13:40:01.000Z</time>
      </trkpt>
      <trkpt lat="46.23632" lon="6.3948">
        <ele>884.79998779297</ele>
        <time>2021-03-24T13:40:10.000Z</time>
      </trkpt>
      <trkpt lat="46.23646" lon="6.39484">
        <ele>885.20001220703</ele>
        <time>2021-03-24T13:40:15.000Z</time>
      </trkpt>
      <trkpt lat="46.23664" lon="6.39482">
        <ele>884.40002441406</ele>
        <time>2021-03-24T13:40:21.000Z</time>
      </trkpt>
      <trkpt lat="46.23685" lon="6.39477">
        <ele>884.59997558594</ele>
        <time>2021-03-24T13:40:28.000Z</time>
      </trkpt>
      <trkpt lat="46.23709" lon="6.3947">
        <ele>886.40002441406</ele>
        <time>2021-03-24T13:40:37.000Z</time>
      </trkpt>
      <trkpt lat="46.23737" lon="6.39462">
        <ele>890</ele>
        <time>2021-03-24T13:40:47.000Z</time>
      </trkpt>
      <trkpt lat="46.23758" lon="6.39457">
        <ele>890.79998779297</ele>
        <time>2021-03-24T13:40:55.000Z</time>
      </trkpt>
      <trkpt lat="46.23781" lon="6.3945">
        <ele>893</ele>
        <time>2021-03-24T13:41:03.000Z</time>
      </trkpt>
      <trkpt lat="46.23805" lon="6.39444">
        <ele>895.20001220703</ele>
        <time>2021-03-24T13:41:11.000Z</time>
      </trkpt>
      <trkpt lat="46.23821" lon="6.39439">
        <ele>897</ele>
        <time>2021-03-24T13:41:17.000Z</time>
      </trkpt>
      <trkpt lat="46.23842" lon="6.3944">
        <ele>897.20001220703</ele>
        <time>2021-03-24T13:41:25.000Z</time>
      </trkpt>
      <trkpt lat="46.23862" lon="6.39445">
        <ele>896.59997558594</ele>
        <time>2021-03-24T13:41:32.000Z</time>
      </trkpt>
      <trkpt lat="46.23882" lon="6.39461">
        <ele>896.59997558594</ele>
        <time>2021-03-24T13:41:40.000Z</time>
      </trkpt>
      <trkpt lat="46.23905" lon="6.39481">
        <ele>897</ele>
        <time>2021-03-24T13:41:49.000Z</time>
      </trkpt>
      <trkpt lat="46.23921" lon="6.39495">
        <ele>897.79998779297</ele>
        <time>2021-03-24T13:41:56.000Z</time>
      </trkpt>
      <trkpt lat="46.23936" lon="6.39517">
        <ele>899.20001220703</ele>
        <time>2021-03-24T13:42:04.000Z</time>
      </trkpt>
      <trkpt lat="46.23943" lon="6.39539">
        <ele>901.79998779297</ele>
        <time>2021-03-24T13:42:10.000Z</time>
      </trkpt>
      <trkpt lat="46.23952" lon="6.39567">
        <ele>906.40002441406</ele>
        <time>2021-03-24T13:42:17.000Z</time>
      </trkpt>
      <trkpt lat="46.23959" lon="6.39583">
        <ele>910.20001220703</ele>
        <time>2021-03-24T13:42:22.000Z</time>
      </trkpt>
      <trkpt lat="46.23971" lon="6.39599">
        <ele>912.79998779297</ele>
        <time>2021-03-24T13:42:28.000Z</time>
      </trkpt>
      <trkpt lat="46.2399" lon="6.39606">
        <ele>909.20001220703</ele>
        <time>2021-03-24T13:42:34.000Z</time>
      </trkpt>
      <trkpt lat="46.24012" lon="6.39613">
        <ele>906.59997558594</ele>
        <time>2021-03-24T13:42:42.000Z</time>
      </trkpt>
      <trkpt lat="46.24032" lon="6.39621">
        <ele>905.79998779297</ele>
        <time>2021-03-24T13:42:49.000Z</time>
      </trkpt>
      <trkpt lat="46.24056" lon="6.39629">
        <ele>907.79998779297</ele>
        <time>2021-03-24T13:42:57.000Z</time>
      </trkpt>
      <trkpt lat="46.24078" lon="6.39636">
        <ele>910.20001220703</ele>
        <time>2021-03-24T13:43:04.000Z</time>
      </trkpt>
      <trkpt lat="46.24099" lon="6.39643">
        <ele>912.79998779297</ele>
        <time>2021-03-24T13:43:11.000Z</time>
      </trkpt>
      <trkpt lat="46.24121" lon="6.39651">
        <ele>913</ele>
        <time>2021-03-24T13:43:18.000Z</time>
      </trkpt>
      <trkpt lat="46.24132" lon="6.39655">
        <ele>913</ele>
        <time>2021-03-24T13:43:22.000Z</time>
      </trkpt>
      <trkpt lat="46.24155" lon="6.39662">
        <ele>912.20001220703</ele>
        <time>2021-03-24T13:43:30.000Z</time>
      </trkpt>
      <trkpt lat="46.24176" lon="6.39671">
        <ele>913.20001220703</ele>
        <time>2021-03-24T13:43:37.000Z</time>
      </trkpt>
      <trkpt lat="46.24198" lon="6.39684">
        <ele>916</ele>
        <time>2021-03-24T13:43:45.000Z</time>
      </trkpt>
      <trkpt lat="46.24219" lon="6.39696">
        <ele>918.79998779297</ele>
        <time>2021-03-24T13:43:52.000Z</time>
      </trkpt>
      <trkpt lat="46.24236" lon="6.39703">
        <ele>920</ele>
        <time>2021-03-24T13:43:58.000Z</time>
      </trkpt>
      <trkpt lat="46.24252" lon="6.39698">
        <ele>920</ele>
        <time>2021-03-24T13:44:03.000Z</time>
      </trkpt>
      <trkpt lat="46.24262" lon="6.39689">
        <ele>919.59997558594</ele>
        <time>2021-03-24T13:44:07.000Z</time>
      </trkpt>
      <trkpt lat="46.24279" lon="6.39671">
        <ele>920.59997558594</ele>
        <time>2021-03-24T13:44:14.000Z</time>
      </trkpt>
      <trkpt lat="46.24293" lon="6.39662">
        <ele>922.40002441406</ele>
        <time>2021-03-24T13:44:19.000Z</time>
      </trkpt>
      <trkpt lat="46.24308" lon="6.39659">
        <ele>925</ele>
        <time>2021-03-24T13:44:24.000Z</time>
      </trkpt>
      <trkpt lat="46.24323" lon="6.3966">
        <ele>927.20001220703</ele>
        <time>2021-03-24T13:44:29.000Z</time>
      </trkpt>
      <trkpt lat="46.24333" lon="6.39662">
        <ele>928.59997558594</ele>
        <time>2021-03-24T13:44:32.000Z</time>
      </trkpt>
      <trkpt lat="46.24341" lon="6.39663">
        <ele>929.59997558594</ele>
        <time>2021-03-24T13:44:35.000Z</time>
      </trkpt>
      <trkpt lat="46.24355" lon="6.39666">
        <ele>931.20001220703</ele>
        <time>2021-03-24T13:44:39.000Z</time>
      </trkpt>
      <trkpt lat="46.24367" lon="6.39669">
        <ele>932.20001220703</ele>
        <time>2021-03-24T13:44:44.000Z</time>
      </trkpt>
      <trkpt lat="46.2438" lon="6.39672">
        <ele>933.40002441406</ele>
        <time>2021-03-24T13:44:49.000Z</time>
      </trkpt>
      <trkpt lat="46.24398" lon="6.39675">
        <ele>933.20001220703</ele>
        <time>2021-03-24T13:44:57.000Z</time>
      </trkpt>
      <trkpt lat="46.24411" lon="6.39678">
        <ele>933</ele>
        <time>2021-03-24T13:45:02.000Z</time>
      </trkpt>
      <trkpt lat="46.24438" lon="6.39684">
        <ele>932.79998779297</ele>
        <time>2021-03-24T13:45:09.000Z</time>
      </trkpt>
      <trkpt lat="46.24472" lon="6.39691">
        <ele>933.20001220703</ele>
        <time>2021-03-24T13:45:18.000Z</time>
      </trkpt>
      <trkpt lat="46.24495" lon="6.39696">
        <ele>934.20001220703</ele>
        <time>2021-03-24T13:45:25.000Z</time>
      </trkpt>
      <trkpt lat="46.24517" lon="6.39702">
        <ele>934.40002441406</ele>
        <time>2021-03-24T13:45:32.000Z</time>
      </trkpt>
      <trkpt lat="46.24538" lon="6.39709">
        <ele>935.20001220703</ele>
        <time>2021-03-24T13:45:39.000Z</time>
      </trkpt>
      <trkpt lat="46.24558" lon="6.39715">
        <ele>937</ele>
        <time>2021-03-24T13:45:46.000Z</time>
      </trkpt>
      <trkpt lat="46.24573" lon="6.39719">
        <ele>938.59997558594</ele>
        <time>2021-03-24T13:45:51.000Z</time>
      </trkpt>
      <trkpt lat="46.24598" lon="6.39726">
        <ele>941.59997558594</ele>
        <time>2021-03-24T13:45:59.000Z</time>
      </trkpt>
      <trkpt lat="46.24616" lon="6.39731">
        <ele>943.20001220703</ele>
        <time>2021-03-24T13:46:05.000Z</time>
      </trkpt>
      <trkpt lat="46.24633" lon="6.39736">
        <ele>944.59997558594</ele>
        <time>2021-03-24T13:46:11.000Z</time>
      </trkpt>
      <trkpt lat="46.24657" lon="6.39742">
        <ele>944.79998779297</ele>
        <time>2021-03-24T13:46:18.000Z</time>
      </trkpt>
      <trkpt lat="46.24681" lon="6.39749">
        <ele>944.20001220703</ele>
        <time>2021-03-24T13:46:25.000Z</time>
      </trkpt>
      <trkpt lat="46.24706" lon="6.39756">
        <ele>944.40002441406</ele>
        <time>2021-03-24T13:46:32.000Z</time>
      </trkpt>
      <trkpt lat="46.24728" lon="6.39762">
        <ele>945</ele>
        <time>2021-03-24T13:46:38.000Z</time>
      </trkpt>
      <trkpt lat="46.24747" lon="6.39767">
        <ele>945.79998779297</ele>
        <time>2021-03-24T13:46:43.000Z</time>
      </trkpt>
      <trkpt lat="46.24768" lon="6.39773">
        <ele>946.79998779297</ele>
        <time>2021-03-24T13:46:49.000Z</time>
      </trkpt>
      <trkpt lat="46.24785" lon="6.39783">
        <ele>946.59997558594</ele>
        <time>2021-03-24T13:46:54.000Z</time>
      </trkpt>
      <trkpt lat="46.2481" lon="6.398">
        <ele>945.40002441406</ele>
        <time>2021-03-24T13:47:01.000Z</time>
      </trkpt>
      <trkpt lat="46.24831" lon="6.39814">
        <ele>943.59997558594</ele>
        <time>2021-03-24T13:47:07.000Z</time>
      </trkpt>
      <trkpt lat="46.24855" lon="6.39831">
        <ele>942</ele>
        <time>2021-03-24T13:47:13.000Z</time>
      </trkpt>
      <trkpt lat="46.2488" lon="6.39848">
        <ele>943.20001220703</ele>
        <time>2021-03-24T13:47:19.000Z</time>
      </trkpt>
      <trkpt lat="46.24902" lon="6.39863">
        <ele>943</ele>
        <time>2021-03-24T13:47:24.000Z</time>
      </trkpt>
      <trkpt lat="46.24914" lon="6.39875">
        <ele>943.20001220703</ele>
        <time>2021-03-24T13:47:28.000Z</time>
      </trkpt>
      <trkpt lat="46.24921" lon="6.39888">
        <ele>943.40002441406</ele>
        <time>2021-03-24T13:47:31.000Z</time>
      </trkpt>
      <trkpt lat="46.24927" lon="6.39899">
        <ele>943</ele>
        <time>2021-03-24T13:47:33.000Z</time>
      </trkpt>
      <trkpt lat="46.24941" lon="6.39922">
        <ele>942.40002441406</ele>
        <time>2021-03-24T13:47:37.000Z</time>
      </trkpt>
      <trkpt lat="46.24944" lon="6.39928">
        <ele>942.59997558594</ele>
        <time>2021-03-24T13:47:38.000Z</time>
      </trkpt>
      <trkpt lat="46.24951" lon="6.3994">
        <ele>942.79998779297</ele>
        <time>2021-03-24T13:47:40.000Z</time>
      </trkpt>
      <trkpt lat="46.24959" lon="6.39954">
        <ele>942.59997558594</ele>
        <time>2021-03-24T13:47:42.000Z</time>
      </trkpt>
      <trkpt lat="46.24975" lon="6.39975">
        <ele>942.20001220703</ele>
        <time>2021-03-24T13:47:46.000Z</time>
      </trkpt>
      <trkpt lat="46.24997" lon="6.39996">
        <ele>941.20001220703</ele>
        <time>2021-03-24T13:47:50.000Z</time>
      </trkpt>
      <trkpt lat="46.2502" lon="6.40015">
        <ele>940.59997558594</ele>
        <time>2021-03-24T13:47:54.000Z</time>
      </trkpt>
      <trkpt lat="46.25051" lon="6.40041">
        <ele>938.79998779297</ele>
        <time>2021-03-24T13:47:58.000Z</time>
      </trkpt>
      <trkpt lat="46.25111" lon="6.40076">
        <ele>931.59997558594</ele>
        <time>2021-03-24T13:48:06.000Z</time>
      </trkpt>
      <trkpt lat="46.25126" lon="6.40085">
        <ele>930.40002441406</ele>
        <time>2021-03-24T13:48:08.000Z</time>
      </trkpt>
      <trkpt lat="46.25165" lon="6.40121">
        <ele>928.40002441406</ele>
        <time>2021-03-24T13:48:14.000Z</time>
      </trkpt>
      <trkpt lat="46.25195" lon="6.40156">
        <ele>928.20001220703</ele>
        <time>2021-03-24T13:48:19.000Z</time>
      </trkpt>
      <trkpt lat="46.25232" lon="6.40215">
        <ele>927.20001220703</ele>
        <time>2021-03-24T13:48:26.000Z</time>
      </trkpt>
      <trkpt lat="46.25263" lon="6.40264">
        <ele>926.40002441406</ele>
        <time>2021-03-24T13:48:32.000Z</time>
      </trkpt>
      <trkpt lat="46.25303" lon="6.40317">
        <ele>925</ele>
        <time>2021-03-24T13:48:39.000Z</time>
      </trkpt>
      <trkpt lat="46.25327" lon="6.40348">
        <ele>924.79998779297</ele>
        <time>2021-03-24T13:48:43.000Z</time>
      </trkpt>
      <trkpt lat="46.25344" lon="6.40371">
        <ele>924.79998779297</ele>
        <time>2021-03-24T13:48:46.000Z</time>
      </trkpt>
      <trkpt lat="46.25353" lon="6.40387">
        <ele>925.20001220703</ele>
        <time>2021-03-24T13:48:48.000Z</time>
      </trkpt>
      <trkpt lat="46.25372" lon="6.40438">
        <ele>921.59997558594</ele>
        <time>2021-03-24T13:48:53.000Z</time>
      </trkpt>
      <trkpt lat="46.25384" lon="6.4047">
        <ele>919.79998779297</ele>
        <time>2021-03-24T13:48:57.000Z</time>
      </trkpt>
      <trkpt lat="46.25391" lon="6.40491">
        <ele>918.40002441406</ele>
        <time>2021-03-24T13:49:00.000Z</time>
      </trkpt>
      <trkpt lat="46.25395" lon="6.40498">
        <ele>917.79998779297</ele>
        <time>2021-03-24T13:49:01.000Z</time>
      </trkpt>
      <trkpt lat="46.25402" lon="6.40507">
        <ele>917.20001220703</ele>
        <time>2021-03-24T13:49:03.000Z</time>
      </trkpt>
      <trkpt lat="46.25407" lon="6.40507">
        <ele>916.20001220703</ele>
        <time>2021-03-24T13:49:04.000Z</time>
      </trkpt>
      <trkpt lat="46.25412" lon="6.40507">
        <ele>915.79998779297</ele>
        <time>2021-03-24T13:49:05.000Z</time>
      </trkpt>
      <trkpt lat="46.25423" lon="6.40506">
        <ele>916.20001220703</ele>
        <time>2021-03-24T13:49:07.000Z</time>
      </trkpt>
      <trkpt lat="46.25432" lon="6.40492">
        <ele>914.20001220703</ele>
        <time>2021-03-24T13:49:09.000Z</time>
      </trkpt>
      <trkpt lat="46.25433" lon="6.40484">
        <ele>913.59997558594</ele>
        <time>2021-03-24T13:49:10.000Z</time>
      </trkpt>
      <trkpt lat="46.25433" lon="6.40476">
        <ele>913</ele>
        <time>2021-03-24T13:49:11.000Z</time>
      </trkpt>
      <trkpt lat="46.25428" lon="6.40465">
        <ele>912.79998779297</ele>
        <time>2021-03-24T13:49:13.000Z</time>
      </trkpt>
      <trkpt lat="46.25409" lon="6.40426">
        <ele>912.59997558594</ele>
        <time>2021-03-24T13:49:18.000Z</time>
      </trkpt>
      <trkpt lat="46.25389" lon="6.40384">
        <ele>915.59997558594</ele>
        <time>2021-03-24T13:49:23.000Z</time>
      </trkpt>
      <trkpt lat="46.25385" lon="6.40375">
        <ele>916</ele>
        <time>2021-03-24T13:49:24.000Z</time>
      </trkpt>
      <trkpt lat="46.25383" lon="6.40365">
        <ele>916</ele>
        <time>2021-03-24T13:49:25.000Z</time>
      </trkpt>
      <trkpt lat="46.25379" lon="6.40345">
        <ele>915.40002441406</ele>
        <time>2021-03-24T13:49:27.000Z</time>
      </trkpt>
      <trkpt lat="46.25378" lon="6.40294">
        <ele>910.79998779297</ele>
        <time>2021-03-24T13:49:32.000Z</time>
      </trkpt>
      <trkpt lat="46.25378" lon="6.40285">
        <ele>910.20001220703</ele>
        <time>2021-03-24T13:49:33.000Z</time>
      </trkpt>
      <trkpt lat="46.25372" lon="6.40272">
        <ele>910</ele>
        <time>2021-03-24T13:49:35.000Z</time>
      </trkpt>
      <trkpt lat="46.25363" lon="6.40255">
        <ele>909.59997558594</ele>
        <time>2021-03-24T13:49:37.000Z</time>
      </trkpt>
      <trkpt lat="46.25355" lon="6.40239">
        <ele>908.59997558594</ele>
        <time>2021-03-24T13:49:39.000Z</time>
      </trkpt>
      <trkpt lat="46.25348" lon="6.40222">
        <ele>908</ele>
        <time>2021-03-24T13:49:41.000Z</time>
      </trkpt>
      <trkpt lat="46.25345" lon="6.40212">
        <ele>907</ele>
        <time>2021-03-24T13:49:42.000Z</time>
      </trkpt>
      <trkpt lat="46.25336" lon="6.40184">
        <ele>903.79998779297</ele>
        <time>2021-03-24T13:49:45.000Z</time>
      </trkpt>
      <trkpt lat="46.25333" lon="6.40174">
        <ele>902.40002441406</ele>
        <time>2021-03-24T13:49:46.000Z</time>
      </trkpt>
      <trkpt lat="46.25327" lon="6.40153">
        <ele>900</ele>
        <time>2021-03-24T13:49:48.000Z</time>
      </trkpt>
      <trkpt lat="46.25324" lon="6.40144">
        <ele>899.79998779297</ele>
        <time>2021-03-24T13:49:49.000Z</time>
      </trkpt>
      <trkpt lat="46.25318" lon="6.40114">
        <ele>902</ele>
        <time>2021-03-24T13:49:52.000Z</time>
      </trkpt>
      <trkpt lat="46.25317" lon="6.40104">
        <ele>903.59997558594</ele>
        <time>2021-03-24T13:49:53.000Z</time>
      </trkpt>
      <trkpt lat="46.25321" lon="6.40091">
        <ele>903.40002441406</ele>
        <time>2021-03-24T13:49:54.000Z</time>
      </trkpt>
      <trkpt lat="46.25329" lon="6.40078">
        <ele>898.59997558594</ele>
        <time>2021-03-24T13:49:56.000Z</time>
      </trkpt>
      <trkpt lat="46.25339" lon="6.40062">
        <ele>893.79998779297</ele>
        <time>2021-03-24T13:49:58.000Z</time>
      </trkpt>
      <trkpt lat="46.25343" lon="6.40045">
        <ele>888.40002441406</ele>
        <time>2021-03-24T13:50:00.000Z</time>
      </trkpt>
      <trkpt lat="46.25338" lon="6.40024">
        <ele>889.79998779297</ele>
        <time>2021-03-24T13:50:02.000Z</time>
      </trkpt>
      <trkpt lat="46.25336" lon="6.40015">
        <ele>890.40002441406</ele>
        <time>2021-03-24T13:50:03.000Z</time>
      </trkpt>
      <trkpt lat="46.25333" lon="6.39995">
        <ele>890.20001220703</ele>
        <time>2021-03-24T13:50:05.000Z</time>
      </trkpt>
      <trkpt lat="46.25333" lon="6.39974">
        <ele>888.40002441406</ele>
        <time>2021-03-24T13:50:07.000Z</time>
      </trkpt>
      <trkpt lat="46.25332" lon="6.39944">
        <ele>891.59997558594</ele>
        <time>2021-03-24T13:50:10.000Z</time>
      </trkpt>
      <trkpt lat="46.25336" lon="6.39923">
        <ele>892</ele>
        <time>2021-03-24T13:50:12.000Z</time>
      </trkpt>
      <trkpt lat="46.25346" lon="6.39874">
        <ele>887.20001220703</ele>
        <time>2021-03-24T13:50:17.000Z</time>
      </trkpt>
      <trkpt lat="46.25347" lon="6.39856">
        <ele>885.79998779297</ele>
        <time>2021-03-24T13:50:19.000Z</time>
      </trkpt>
      <trkpt lat="46.25347" lon="6.39856">
        <ele>885.79998779297</ele>
        <time>2021-03-24T13:50:20.000Z</time>
      </trkpt>
      <trkpt lat="46.25344" lon="6.39842">
        <ele>888</ele>
        <time>2021-03-24T13:50:21.000Z</time>
      </trkpt>
      <trkpt lat="46.25342" lon="6.39831">
        <ele>889.40002441406</ele>
        <time>2021-03-24T13:50:22.000Z</time>
      </trkpt>
      <trkpt lat="46.25333" lon="6.39781">
        <ele>892.79998779297</ele>
        <time>2021-03-24T13:50:27.000Z</time>
      </trkpt>
      <trkpt lat="46.25329" lon="6.3976">
        <ele>891.20001220703</ele>
        <time>2021-03-24T13:50:29.000Z</time>
      </trkpt>
      <trkpt lat="46.25322" lon="6.39735">
        <ele>890</ele>
        <time>2021-03-24T13:50:32.000Z</time>
      </trkpt>
      <trkpt lat="46.25317" lon="6.3972">
        <ele>890.40002441406</ele>
        <time>2021-03-24T13:50:35.000Z</time>
      </trkpt>
      <trkpt lat="46.25308" lon="6.39703">
        <ele>894.40002441406</ele>
        <time>2021-03-24T13:50:37.000Z</time>
      </trkpt>
      <trkpt lat="46.25299" lon="6.39686">
        <ele>897.59997558594</ele>
        <time>2021-03-24T13:50:39.000Z</time>
      </trkpt>
      <trkpt lat="46.25294" lon="6.39676">
        <ele>897.79998779297</ele>
        <time>2021-03-24T13:50:40.000Z</time>
      </trkpt>
      <trkpt lat="46.25274" lon="6.39641">
        <ele>894.79998779297</ele>
        <time>2021-03-24T13:50:44.000Z</time>
      </trkpt>
      <trkpt lat="46.25256" lon="6.39617">
        <ele>894</ele>
        <time>2021-03-24T13:50:47.000Z</time>
      </trkpt>
      <trkpt lat="46.2525" lon="6.39609">
        <ele>893.79998779297</ele>
        <time>2021-03-24T13:50:48.000Z</time>
      </trkpt>
      <trkpt lat="46.25245" lon="6.39602">
        <ele>893.40002441406</ele>
        <time>2021-03-24T13:50:49.000Z</time>
      </trkpt>
      <trkpt lat="46.25233" lon="6.39576">
        <ele>891.40002441406</ele>
        <time>2021-03-24T13:50:51.000Z</time>
      </trkpt>
      <trkpt lat="46.2523" lon="6.39566">
        <ele>891.59997558594</ele>
        <time>2021-03-24T13:50:52.000Z</time>
      </trkpt>
      <trkpt lat="46.2523" lon="6.39525">
        <ele>889.20001220703</ele>
        <time>2021-03-24T13:50:54.000Z</time>
      </trkpt>
      <trkpt lat="46.25232" lon="6.39501">
        <ele>886.59997558594</ele>
        <time>2021-03-24T13:50:56.000Z</time>
      </trkpt>
      <trkpt lat="46.25235" lon="6.39466">
        <ele>882.59997558594</ele>
        <time>2021-03-24T13:50:59.000Z</time>
      </trkpt>
      <trkpt lat="46.2523" lon="6.39423">
        <ele>883.20001220703</ele>
        <time>2021-03-24T13:51:03.000Z</time>
      </trkpt>
      <trkpt lat="46.25229" lon="6.39412">
        <ele>884.20001220703</ele>
        <time>2021-03-24T13:51:04.000Z</time>
      </trkpt>
      <trkpt lat="46.25226" lon="6.39389">
        <ele>885.79998779297</ele>
        <time>2021-03-24T13:51:06.000Z</time>
      </trkpt>
      <trkpt lat="46.25224" lon="6.39378">
        <ele>886.59997558594</ele>
        <time>2021-03-24T13:51:07.000Z</time>
      </trkpt>
      <trkpt lat="46.25226" lon="6.39364">
        <ele>885.79998779297</ele>
        <time>2021-03-24T13:51:08.000Z</time>
      </trkpt>
      <trkpt lat="46.2523" lon="6.39342">
        <ele>883.79998779297</ele>
        <time>2021-03-24T13:51:10.000Z</time>
      </trkpt>
      <trkpt lat="46.25232" lon="6.39331">
        <ele>883.40002441406</ele>
        <time>2021-03-24T13:51:11.000Z</time>
      </trkpt>
      <trkpt lat="46.25236" lon="6.39309">
        <ele>882.40002441406</ele>
        <time>2021-03-24T13:51:13.000Z</time>
      </trkpt>
      <trkpt lat="46.25237" lon="6.39287">
        <ele>882.79998779297</ele>
        <time>2021-03-24T13:51:15.000Z</time>
      </trkpt>
      <trkpt lat="46.2524" lon="6.39247">
        <ele>882</ele>
        <time>2021-03-24T13:51:19.000Z</time>
      </trkpt>
      <trkpt lat="46.25239" lon="6.39236">
        <ele>881.40002441406</ele>
        <time>2021-03-24T13:51:20.000Z</time>
      </trkpt>
      <trkpt lat="46.25237" lon="6.39226">
        <ele>880.59997558594</ele>
        <time>2021-03-24T13:51:21.000Z</time>
      </trkpt>
      <trkpt lat="46.25236" lon="6.39215">
        <ele>880</ele>
        <time>2021-03-24T13:51:22.000Z</time>
      </trkpt>
      <trkpt lat="46.25235" lon="6.39204">
        <ele>879.40002441406</ele>
        <time>2021-03-24T13:51:23.000Z</time>
      </trkpt>
      <trkpt lat="46.25232" lon="6.39181">
        <ele>878.40002441406</ele>
        <time>2021-03-24T13:51:25.000Z</time>
      </trkpt>
      <trkpt lat="46.25229" lon="6.39158">
        <ele>877.79998779297</ele>
        <time>2021-03-24T13:51:27.000Z</time>
      </trkpt>
      <trkpt lat="46.25238" lon="6.39116">
        <ele>874.59997558594</ele>
        <time>2021-03-24T13:51:30.000Z</time>
      </trkpt>
      <trkpt lat="46.25247" lon="6.39082">
        <ele>872.20001220703</ele>
        <time>2021-03-24T13:51:33.000Z</time>
      </trkpt>
      <trkpt lat="46.2525" lon="6.39056">
        <ele>870.40002441406</ele>
        <time>2021-03-24T13:51:35.000Z</time>
      </trkpt>
      <trkpt lat="46.25238" lon="6.38997">
        <ele>868</ele>
        <time>2021-03-24T13:51:39.000Z</time>
      </trkpt>
      <trkpt lat="46.25215" lon="6.38931">
        <ele>868.20001220703</ele>
        <time>2021-03-24T13:51:44.000Z</time>
      </trkpt>
      <trkpt lat="46.25211" lon="6.38923">
        <ele>868.20001220703</ele>
        <time>2021-03-24T13:51:45.000Z</time>
      </trkpt>
      <trkpt lat="46.25196" lon="6.38885">
        <ele>865</ele>
        <time>2021-03-24T13:51:49.000Z</time>
      </trkpt>
      <trkpt lat="46.25176" lon="6.3883">
        <ele>852</ele>
        <time>2021-03-24T13:51:54.000Z</time>
      </trkpt>
      <trkpt lat="46.25149" lon="6.38782">
        <ele>848.20001220703</ele>
        <time>2021-03-24T13:52:00.000Z</time>
      </trkpt>
      <trkpt lat="46.25144" lon="6.38774">
        <ele>848.20001220703</ele>
        <time>2021-03-24T13:52:01.000Z</time>
      </trkpt>
      <trkpt lat="46.2513" lon="6.3875">
        <ele>848.20001220703</ele>
        <time>2021-03-24T13:52:04.000Z</time>
      </trkpt>
      <trkpt lat="46.25113" lon="6.38719">
        <ele>849.20001220703</ele>
        <time>2021-03-24T13:52:08.000Z</time>
      </trkpt>
      <trkpt lat="46.25108" lon="6.3871">
        <ele>849</ele>
        <time>2021-03-24T13:52:09.000Z</time>
      </trkpt>
      <trkpt lat="46.25091" lon="6.38679">
        <ele>849.40002441406</ele>
        <time>2021-03-24T13:52:12.000Z</time>
      </trkpt>
      <trkpt lat="46.25064" lon="6.38619">
        <ele>847.79998779297</ele>
        <time>2021-03-24T13:52:17.000Z</time>
      </trkpt>
      <trkpt lat="46.25034" lon="6.38539">
        <ele>842.59997558594</ele>
        <time>2021-03-24T13:52:24.000Z</time>
      </trkpt>
      <trkpt lat="46.25029" lon="6.38527">
        <ele>843.59997558594</ele>
        <time>2021-03-24T13:52:25.000Z</time>
      </trkpt>
      <trkpt lat="46.25019" lon="6.38506">
        <ele>845.40002441406</ele>
        <time>2021-03-24T13:52:27.000Z</time>
      </trkpt>
      <trkpt lat="46.24991" lon="6.38481">
        <ele>849</ele>
        <time>2021-03-24T13:52:30.000Z</time>
      </trkpt>
      <trkpt lat="46.24977" lon="6.38471">
        <ele>847.40002441406</ele>
        <time>2021-03-24T13:52:32.000Z</time>
      </trkpt>
      <trkpt lat="46.24963" lon="6.38459">
        <ele>846.40002441406</ele>
        <time>2021-03-24T13:52:34.000Z</time>
      </trkpt>
      <trkpt lat="46.24951" lon="6.38443">
        <ele>846</ele>
        <time>2021-03-24T13:52:36.000Z</time>
      </trkpt>
      <trkpt lat="46.24948" lon="6.38434">
        <ele>845.20001220703</ele>
        <time>2021-03-24T13:52:37.000Z</time>
      </trkpt>
      <trkpt lat="46.24941" lon="6.38402">
        <ele>840.40002441406</ele>
        <time>2021-03-24T13:52:40.000Z</time>
      </trkpt>
      <trkpt lat="46.24936" lon="6.38383">
        <ele>838</ele>
        <time>2021-03-24T13:52:42.000Z</time>
      </trkpt>
      <trkpt lat="46.24918" lon="6.3833">
        <ele>840.59997558594</ele>
        <time>2021-03-24T13:52:47.000Z</time>
      </trkpt>
      <trkpt lat="46.24902" lon="6.38283">
        <ele>835.59997558594</ele>
        <time>2021-03-24T13:52:51.000Z</time>
      </trkpt>
      <trkpt lat="46.24884" lon="6.38238">
        <ele>836.79998779297</ele>
        <time>2021-03-24T13:52:56.000Z</time>
      </trkpt>
      <trkpt lat="46.2488" lon="6.38232">
        <ele>837.59997558594</ele>
        <time>2021-03-24T13:52:57.000Z</time>
      </trkpt>
      <trkpt lat="46.24872" lon="6.3822">
        <ele>838</ele>
        <time>2021-03-24T13:52:59.000Z</time>
      </trkpt>
      <trkpt lat="46.24868" lon="6.38215">
        <ele>838.40002441406</ele>
        <time>2021-03-24T13:53:00.000Z</time>
      </trkpt>
      <trkpt lat="46.24865" lon="6.38209">
        <ele>838.59997558594</ele>
        <time>2021-03-24T13:53:01.000Z</time>
      </trkpt>
      <trkpt lat="46.24853" lon="6.38175">
        <ele>837</ele>
        <time>2021-03-24T13:53:03.000Z</time>
      </trkpt>
      <trkpt lat="46.24861" lon="6.38135">
        <ele>831</ele>
        <time>2021-03-24T13:53:07.000Z</time>
      </trkpt>
      <trkpt lat="46.24862" lon="6.38126">
        <ele>830.40002441406</ele>
        <time>2021-03-24T13:53:08.000Z</time>
      </trkpt>
      <trkpt lat="46.24859" lon="6.38105">
        <ele>830</ele>
        <time>2021-03-24T13:53:10.000Z</time>
      </trkpt>
      <trkpt lat="46.24852" lon="6.38073">
        <ele>826.20001220703</ele>
        <time>2021-03-24T13:53:13.000Z</time>
      </trkpt>
      <trkpt lat="46.24843" lon="6.38056">
        <ele>823</ele>
        <time>2021-03-24T13:53:15.000Z</time>
      </trkpt>
      <trkpt lat="46.24835" lon="6.38042">
        <ele>820.40002441406</ele>
        <time>2021-03-24T13:53:17.000Z</time>
      </trkpt>
      <trkpt lat="46.24828" lon="6.38033">
        <ele>819.20001220703</ele>
        <time>2021-03-24T13:53:19.000Z</time>
      </trkpt>
      <trkpt lat="46.24825" lon="6.38029">
        <ele>819</ele>
        <time>2021-03-24T13:53:20.000Z</time>
      </trkpt>
      <trkpt lat="46.24822" lon="6.38026">
        <ele>819</ele>
        <time>2021-03-24T13:53:21.000Z</time>
      </trkpt>
      <trkpt lat="46.24867" lon="6.37981">
        <ele>802.20001220703</ele>
        <time>2021-03-24T13:53:23.000Z</time>
      </trkpt>
      <trkpt lat="46.24866" lon="6.37958">
        <ele>798.59997558594</ele>
        <time>2021-03-24T13:53:25.000Z</time>
      </trkpt>
      <trkpt lat="46.24864" lon="6.37946">
        <ele>796.79998779297</ele>
        <time>2021-03-24T13:53:26.000Z</time>
      </trkpt>
      <trkpt lat="46.24856" lon="6.37889">
        <ele>793.79998779297</ele>
        <time>2021-03-24T13:53:31.000Z</time>
      </trkpt>
      <trkpt lat="46.24856" lon="6.3787">
        <ele>790.79998779297</ele>
        <time>2021-03-24T13:53:33.000Z</time>
      </trkpt>
      <trkpt lat="46.24853" lon="6.37864">
        <ele>790.40002441406</ele>
        <time>2021-03-24T13:53:34.000Z</time>
      </trkpt>
      <trkpt lat="46.24851" lon="6.37858">
        <ele>789.79998779297</ele>
        <time>2021-03-24T13:53:35.000Z</time>
      </trkpt>
      <trkpt lat="46.24854" lon="6.37847">
        <ele>786.79998779297</ele>
        <time>2021-03-24T13:53:37.000Z</time>
      </trkpt>
      <trkpt lat="46.24847" lon="6.37828">
        <ele>784.40002441406</ele>
        <time>2021-03-24T13:53:39.000Z</time>
      </trkpt>
      <trkpt lat="46.24849" lon="6.37818">
        <ele>782.40002441406</ele>
        <time>2021-03-24T13:53:40.000Z</time>
      </trkpt>
      <trkpt lat="46.24841" lon="6.37787">
        <ele>781.20001220703</ele>
        <time>2021-03-24T13:53:43.000Z</time>
      </trkpt>
      <trkpt lat="46.24837" lon="6.37776">
        <ele>781.79998779297</ele>
        <time>2021-03-24T13:53:44.000Z</time>
      </trkpt>
      <trkpt lat="46.24835" lon="6.37766">
        <ele>783.40002441406</ele>
        <time>2021-03-24T13:53:45.000Z</time>
      </trkpt>
      <trkpt lat="46.24838" lon="6.37735">
        <ele>786.79998779297</ele>
        <time>2021-03-24T13:53:48.000Z</time>
      </trkpt>
      <trkpt lat="46.24836" lon="6.37727">
        <ele>789</ele>
        <time>2021-03-24T13:53:49.000Z</time>
      </trkpt>
      <trkpt lat="46.24847" lon="6.37714">
        <ele>787.40002441406</ele>
        <time>2021-03-24T13:53:51.000Z</time>
      </trkpt>
      <trkpt lat="46.24856" lon="6.37704">
        <ele>786.59997558594</ele>
        <time>2021-03-24T13:53:53.000Z</time>
      </trkpt>
      <trkpt lat="46.2486" lon="6.37697">
        <ele>786.20001220703</ele>
        <time>2021-03-24T13:53:54.000Z</time>
      </trkpt>
      <trkpt lat="46.24865" lon="6.37687">
        <ele>784.20001220703</ele>
        <time>2021-03-24T13:53:55.000Z</time>
      </trkpt>
      <trkpt lat="46.2487" lon="6.37672">
        <ele>781.59997558594</ele>
        <time>2021-03-24T13:53:57.000Z</time>
      </trkpt>
      <trkpt lat="46.24876" lon="6.37656">
        <ele>778.20001220703</ele>
        <time>2021-03-24T13:54:01.000Z</time>
      </trkpt>
      <trkpt lat="46.24879" lon="6.37647">
        <ele>776.79998779297</ele>
        <time>2021-03-24T13:54:04.000Z</time>
      </trkpt>
      <trkpt lat="46.24876" lon="6.37637">
        <ele>778.59997558594</ele>
        <time>2021-03-24T13:54:06.000Z</time>
      </trkpt>
      <trkpt lat="46.24869" lon="6.37627">
        <ele>781.59997558594</ele>
        <time>2021-03-24T13:54:08.000Z</time>
      </trkpt>
      <trkpt lat="46.24859" lon="6.37621">
        <ele>785.59997558594</ele>
        <time>2021-03-24T13:54:10.000Z</time>
      </trkpt>
      <trkpt lat="46.24854" lon="6.37618">
        <ele>788</ele>
        <time>2021-03-24T13:54:11.000Z</time>
      </trkpt>
      <trkpt lat="46.24848" lon="6.37618">
        <ele>791</ele>
        <time>2021-03-24T13:54:12.000Z</time>
      </trkpt>
      <trkpt lat="46.24848" lon="6.37614">
        <ele>790.59997558594</ele>
        <time>2021-03-24T13:54:14.000Z</time>
      </trkpt>
      <trkpt lat="46.24849" lon="6.37602">
        <ele>789.79998779297</ele>
        <time>2021-03-24T13:54:16.000Z</time>
      </trkpt>
      <trkpt lat="46.24854" lon="6.37556">
        <ele>791.59997558594</ele>
        <time>2021-03-24T13:54:17.000Z</time>
      </trkpt>
      <trkpt lat="46.24864" lon="6.37463">
        <ele>779.40002441406</ele>
        <time>2021-03-24T13:54:20.000Z</time>
      </trkpt>
      <trkpt lat="46.24867" lon="6.37443">
        <ele>775.40002441406</ele>
        <time>2021-03-24T13:54:21.000Z</time>
      </trkpt>
      <trkpt lat="46.24867" lon="6.37427">
        <ele>773.20001220703</ele>
        <time>2021-03-24T13:54:22.000Z</time>
      </trkpt>
      <trkpt lat="46.24874" lon="6.37391">
        <ele>769.79998779297</ele>
        <time>2021-03-24T13:54:25.000Z</time>
      </trkpt>
      <trkpt lat="46.2488" lon="6.37335">
        <ele>767.79998779297</ele>
        <time>2021-03-24T13:54:30.000Z</time>
      </trkpt>
      <trkpt lat="46.24884" lon="6.37303">
        <ele>769.59997558594</ele>
        <time>2021-03-24T13:54:33.000Z</time>
      </trkpt>
      <trkpt lat="46.24884" lon="6.37292">
        <ele>770.79998779297</ele>
        <time>2021-03-24T13:54:34.000Z</time>
      </trkpt>
      <trkpt lat="46.24883" lon="6.37282">
        <ele>772</ele>
        <time>2021-03-24T13:54:35.000Z</time>
      </trkpt>
      <trkpt lat="46.24879" lon="6.37237">
        <ele>776.40002441406</ele>
        <time>2021-03-24T13:54:39.000Z</time>
      </trkpt>
      <trkpt lat="46.24876" lon="6.37218">
        <ele>779</ele>
        <time>2021-03-24T13:54:41.000Z</time>
      </trkpt>
      <trkpt lat="46.24876" lon="6.37225">
        <ele>778.20001220703</ele>
        <time>2021-03-24T13:54:42.000Z</time>
      </trkpt>
      <trkpt lat="46.24881" lon="6.37227">
        <ele>777.20001220703</ele>
        <time>2021-03-24T13:54:43.000Z</time>
      </trkpt>
      <trkpt lat="46.24892" lon="6.37231">
        <ele>776</ele>
        <time>2021-03-24T13:54:44.000Z</time>
      </trkpt>
      <trkpt lat="46.24898" lon="6.37234">
        <ele>775.20001220703</ele>
        <time>2021-03-24T13:54:45.000Z</time>
      </trkpt>
      <trkpt lat="46.24909" lon="6.37238">
        <ele>773.79998779297</ele>
        <time>2021-03-24T13:54:47.000Z</time>
      </trkpt>
      <trkpt lat="46.24925" lon="6.37232">
        <ele>771.20001220703</ele>
        <time>2021-03-24T13:54:51.000Z</time>
      </trkpt>
      <trkpt lat="46.24931" lon="6.37229">
        <ele>770.20001220703</ele>
        <time>2021-03-24T13:54:52.000Z</time>
      </trkpt>
      <trkpt lat="46.24935" lon="6.37226">
        <ele>769.20001220703</ele>
        <time>2021-03-24T13:54:53.000Z</time>
      </trkpt>
      <trkpt lat="46.24946" lon="6.3722">
        <ele>767.20001220703</ele>
        <time>2021-03-24T13:54:55.000Z</time>
      </trkpt>
      <trkpt lat="46.24954" lon="6.3721">
        <ele>766.59997558594</ele>
        <time>2021-03-24T13:54:57.000Z</time>
      </trkpt>
      <trkpt lat="46.24959" lon="6.37202">
        <ele>766.40002441406</ele>
        <time>2021-03-24T13:54:58.000Z</time>
      </trkpt>
      <trkpt lat="46.24964" lon="6.37192">
        <ele>766</ele>
        <time>2021-03-24T13:54:59.000Z</time>
      </trkpt>
      <trkpt lat="46.24977" lon="6.37163">
        <ele>765</ele>
        <time>2021-03-24T13:55:02.000Z</time>
      </trkpt>
      <trkpt lat="46.25004" lon="6.37086">
        <ele>762.40002441406</ele>
        <time>2021-03-24T13:55:09.000Z</time>
      </trkpt>
      <trkpt lat="46.25023" lon="6.37029">
        <ele>762</ele>
        <time>2021-03-24T13:55:14.000Z</time>
      </trkpt>
      <trkpt lat="46.25036" lon="6.36998">
        <ele>760.59997558594</ele>
        <time>2021-03-24T13:55:17.000Z</time>
      </trkpt>
      <trkpt lat="46.25041" lon="6.36989">
        <ele>759.40002441406</ele>
        <time>2021-03-24T13:55:18.000Z</time>
      </trkpt>
      <trkpt lat="46.25081" lon="6.36938">
        <ele>754.59997558594</ele>
        <time>2021-03-24T13:55:24.000Z</time>
      </trkpt>
      <trkpt lat="46.25125" lon="6.36883">
        <ele>750.59997558594</ele>
        <time>2021-03-24T13:55:31.000Z</time>
      </trkpt>
      <trkpt lat="46.25137" lon="6.36868">
        <ele>750.40002441406</ele>
        <time>2021-03-24T13:55:33.000Z</time>
      </trkpt>
      <trkpt lat="46.25143" lon="6.3686">
        <ele>749.79998779297</ele>
        <time>2021-03-24T13:55:34.000Z</time>
      </trkpt>
      <trkpt lat="46.25151" lon="6.3684">
        <ele>749.40002441406</ele>
        <time>2021-03-24T13:55:37.000Z</time>
      </trkpt>
      <trkpt lat="46.25154" lon="6.3683">
        <ele>749.40002441406</ele>
        <time>2021-03-24T13:55:38.000Z</time>
      </trkpt>
      <trkpt lat="46.25157" lon="6.36819">
        <ele>749.40002441406</ele>
        <time>2021-03-24T13:55:39.000Z</time>
      </trkpt>
      <trkpt lat="46.25158" lon="6.36794">
        <ele>750.59997558594</ele>
        <time>2021-03-24T13:55:41.000Z</time>
      </trkpt>
      <trkpt lat="46.25158" lon="6.36782">
        <ele>750.59997558594</ele>
        <time>2021-03-24T13:55:42.000Z</time>
      </trkpt>
      <trkpt lat="46.25161" lon="6.36718">
        <ele>750.40002441406</ele>
        <time>2021-03-24T13:55:48.000Z</time>
      </trkpt>
      <trkpt lat="46.25165" lon="6.36705">
        <ele>748.79998779297</ele>
        <time>2021-03-24T13:55:50.000Z</time>
      </trkpt>
      <trkpt lat="46.2517" lon="6.36701">
        <ele>747</ele>
        <time>2021-03-24T13:55:51.000Z</time>
      </trkpt>
      <trkpt lat="46.25175" lon="6.36697">
        <ele>745.20001220703</ele>
        <time>2021-03-24T13:55:52.000Z</time>
      </trkpt>
      <trkpt lat="46.25188" lon="6.36687">
        <ele>740</ele>
        <time>2021-03-24T13:55:54.000Z</time>
      </trkpt>
      <trkpt lat="46.25202" lon="6.36695">
        <ele>738.59997558594</ele>
        <time>2021-03-24T13:55:56.000Z</time>
      </trkpt>
      <trkpt lat="46.25209" lon="6.36699">
        <ele>738</ele>
        <time>2021-03-24T13:55:57.000Z</time>
      </trkpt>
      <trkpt lat="46.25215" lon="6.3671">
        <ele>737.79998779297</ele>
        <time>2021-03-24T13:55:58.000Z</time>
      </trkpt>
      <trkpt lat="46.25219" lon="6.3673">
        <ele>736.40002441406</ele>
        <time>2021-03-24T13:56:00.000Z</time>
      </trkpt>
      <trkpt lat="46.25223" lon="6.3677">
        <ele>734.20001220703</ele>
        <time>2021-03-24T13:56:04.000Z</time>
      </trkpt>
      <trkpt lat="46.25226" lon="6.36853">
        <ele>734.40002441406</ele>
        <time>2021-03-24T13:56:12.000Z</time>
      </trkpt>
      <trkpt lat="46.25226" lon="6.36864">
        <ele>734.59997558594</ele>
        <time>2021-03-24T13:56:13.000Z</time>
      </trkpt>
      <trkpt lat="46.25229" lon="6.36948">
        <ele>729.20001220703</ele>
        <time>2021-03-24T13:56:20.000Z</time>
      </trkpt>
      <trkpt lat="46.2523" lon="6.3696">
        <ele>729</ele>
        <time>2021-03-24T13:56:21.000Z</time>
      </trkpt>
      <trkpt lat="46.25231" lon="6.37045">
        <ele>723.79998779297</ele>
        <time>2021-03-24T13:56:28.000Z</time>
      </trkpt>
      <trkpt lat="46.25229" lon="6.37057">
        <ele>723.40002441406</ele>
        <time>2021-03-24T13:56:29.000Z</time>
      </trkpt>
      <trkpt lat="46.2522" lon="6.37115">
        <ele>721.59997558594</ele>
        <time>2021-03-24T13:56:34.000Z</time>
      </trkpt>
      <trkpt lat="46.25202" lon="6.37193">
        <ele>719.40002441406</ele>
        <time>2021-03-24T13:56:41.000Z</time>
      </trkpt>
      <trkpt lat="46.25194" lon="6.37229">
        <ele>717.40002441406</ele>
        <time>2021-03-24T13:56:44.000Z</time>
      </trkpt>
      <trkpt lat="46.25174" lon="6.37311">
        <ele>714.40002441406</ele>
        <time>2021-03-24T13:56:51.000Z</time>
      </trkpt>
      <trkpt lat="46.25168" lon="6.37335">
        <ele>714.59997558594</ele>
        <time>2021-03-24T13:56:53.000Z</time>
      </trkpt>
      <trkpt lat="46.25149" lon="6.37414">
        <ele>711</ele>
        <time>2021-03-24T13:57:00.000Z</time>
      </trkpt>
      <trkpt lat="46.25141" lon="6.37447">
        <ele>709.59997558594</ele>
        <time>2021-03-24T13:57:03.000Z</time>
      </trkpt>
      <trkpt lat="46.2513" lon="6.375">
        <ele>708.20001220703</ele>
        <time>2021-03-24T13:57:08.000Z</time>
      </trkpt>
      <trkpt lat="46.25128" lon="6.37509">
        <ele>708.20001220703</ele>
        <time>2021-03-24T13:57:09.000Z</time>
      </trkpt>
      <trkpt lat="46.2513" lon="6.3753">
        <ele>707</ele>
        <time>2021-03-24T13:57:11.000Z</time>
      </trkpt>
      <trkpt lat="46.25133" lon="6.37562">
        <ele>705.20001220703</ele>
        <time>2021-03-24T13:57:14.000Z</time>
      </trkpt>
      <trkpt lat="46.25134" lon="6.37572">
        <ele>704.20001220703</ele>
        <time>2021-03-24T13:57:15.000Z</time>
      </trkpt>
      <trkpt lat="46.25135" lon="6.37594">
        <ele>703.20001220703</ele>
        <time>2021-03-24T13:57:17.000Z</time>
      </trkpt>
      <trkpt lat="46.25137" lon="6.37619">
        <ele>702.40002441406</ele>
        <time>2021-03-24T13:57:19.000Z</time>
      </trkpt>
      <trkpt lat="46.25142" lon="6.3768">
        <ele>702.59997558594</ele>
        <time>2021-03-24T13:57:24.000Z</time>
      </trkpt>
      <trkpt lat="46.25149" lon="6.37755">
        <ele>702.40002441406</ele>
        <time>2021-03-24T13:57:30.000Z</time>
      </trkpt>
      <trkpt lat="46.25151" lon="6.37766">
        <ele>702.40002441406</ele>
        <time>2021-03-24T13:57:31.000Z</time>
      </trkpt>
      <trkpt lat="46.25157" lon="6.3779">
        <ele>702.20001220703</ele>
        <time>2021-03-24T13:57:33.000Z</time>
      </trkpt>
      <trkpt lat="46.25164" lon="6.37811">
        <ele>701.20001220703</ele>
        <time>2021-03-24T13:57:35.000Z</time>
      </trkpt>
      <trkpt lat="46.2519" lon="6.37891">
        <ele>694.59997558594</ele>
        <time>2021-03-24T13:57:42.000Z</time>
      </trkpt>
      <trkpt lat="46.25213" lon="6.37964">
        <ele>692.20001220703</ele>
        <time>2021-03-24T13:57:48.000Z</time>
      </trkpt>
      <trkpt lat="46.25229" lon="6.38012">
        <ele>693.20001220703</ele>
        <time>2021-03-24T13:57:52.000Z</time>
      </trkpt>
      <trkpt lat="46.2524" lon="6.38058">
        <ele>695.20001220703</ele>
        <time>2021-03-24T13:57:56.000Z</time>
      </trkpt>
      <trkpt lat="46.25239" lon="6.38105">
        <ele>694.79998779297</ele>
        <time>2021-03-24T13:58:00.000Z</time>
      </trkpt>
      <trkpt lat="46.25239" lon="6.38128">
        <ele>694</ele>
        <time>2021-03-24T13:58:02.000Z</time>
      </trkpt>
      <trkpt lat="46.25242" lon="6.38147">
        <ele>693.20001220703</ele>
        <time>2021-03-24T13:58:04.000Z</time>
      </trkpt>
      <trkpt lat="46.25245" lon="6.38157">
        <ele>692.40002441406</ele>
        <time>2021-03-24T13:58:05.000Z</time>
      </trkpt>
      <trkpt lat="46.25259" lon="6.38183">
        <ele>686.40002441406</ele>
        <time>2021-03-24T13:58:08.000Z</time>
      </trkpt>
      <trkpt lat="46.2527" lon="6.38198">
        <ele>682.40002441406</ele>
        <time>2021-03-24T13:58:10.000Z</time>
      </trkpt>
      <trkpt lat="46.25314" lon="6.38241">
        <ele>680</ele>
        <time>2021-03-24T13:58:16.000Z</time>
      </trkpt>
      <trkpt lat="46.25329" lon="6.38255">
        <ele>679.20001220703</ele>
        <time>2021-03-24T13:58:18.000Z</time>
      </trkpt>
      <trkpt lat="46.25334" lon="6.38263">
        <ele>679</ele>
        <time>2021-03-24T13:58:19.000Z</time>
      </trkpt>
      <trkpt lat="46.25337" lon="6.38274">
        <ele>679.20001220703</ele>
        <time>2021-03-24T13:58:20.000Z</time>
      </trkpt>
      <trkpt lat="46.25341" lon="6.38286">
        <ele>679.40002441406</ele>
        <time>2021-03-24T13:58:21.000Z</time>
      </trkpt>
      <trkpt lat="46.25348" lon="6.38309">
        <ele>679.79998779297</ele>
        <time>2021-03-24T13:58:23.000Z</time>
      </trkpt>
      <trkpt lat="46.25355" lon="6.38331">
        <ele>679.79998779297</ele>
        <time>2021-03-24T13:58:25.000Z</time>
      </trkpt>
      <trkpt lat="46.25373" lon="6.38371">
        <ele>676.59997558594</ele>
        <time>2021-03-24T13:58:29.000Z</time>
      </trkpt>
      <trkpt lat="46.25395" lon="6.38411">
        <ele>675.40002441406</ele>
        <time>2021-03-24T13:58:33.000Z</time>
      </trkpt>
      <trkpt lat="46.2541" lon="6.38439">
        <ele>678.40002441406</ele>
        <time>2021-03-24T13:58:36.000Z</time>
      </trkpt>
      <trkpt lat="46.25419" lon="6.38456">
        <ele>679.79998779297</ele>
        <time>2021-03-24T13:58:38.000Z</time>
      </trkpt>
      <trkpt lat="46.25427" lon="6.38471">
        <ele>681</ele>
        <time>2021-03-24T13:58:40.000Z</time>
      </trkpt>
      <trkpt lat="46.25431" lon="6.3848">
        <ele>681</ele>
        <time>2021-03-24T13:58:41.000Z</time>
      </trkpt>
      <trkpt lat="46.25434" lon="6.38489">
        <ele>681</ele>
        <time>2021-03-24T13:58:42.000Z</time>
      </trkpt>
      <trkpt lat="46.25441" lon="6.38506">
        <ele>681.40002441406</ele>
        <time>2021-03-24T13:58:44.000Z</time>
      </trkpt>
      <trkpt lat="46.2546" lon="6.3855">
        <ele>683.20001220703</ele>
        <time>2021-03-24T13:58:49.000Z</time>
      </trkpt>
      <trkpt lat="46.25464" lon="6.3856">
        <ele>681.79998779297</ele>
        <time>2021-03-24T13:58:50.000Z</time>
      </trkpt>
      <trkpt lat="46.2548" lon="6.38599">
        <ele>675.20001220703</ele>
        <time>2021-03-24T13:58:54.000Z</time>
      </trkpt>
      <trkpt lat="46.25486" lon="6.38608">
        <ele>673</ele>
        <time>2021-03-24T13:58:55.000Z</time>
      </trkpt>
      <trkpt lat="46.25495" lon="6.38618">
        <ele>670.59997558594</ele>
        <time>2021-03-24T13:58:57.000Z</time>
      </trkpt>
      <trkpt lat="46.25511" lon="6.3862">
        <ele>668</ele>
        <time>2021-03-24T13:58:59.000Z</time>
      </trkpt>
      <trkpt lat="46.25524" lon="6.38615">
        <ele>664.40002441406</ele>
        <time>2021-03-24T13:59:00.000Z</time>
      </trkpt>
      <trkpt lat="46.25533" lon="6.38601">
        <ele>661.20001220703</ele>
        <time>2021-03-24T13:59:02.000Z</time>
      </trkpt>
      <trkpt lat="46.25535" lon="6.38588">
        <ele>659.59997558594</ele>
        <time>2021-03-24T13:59:03.000Z</time>
      </trkpt>
      <trkpt lat="46.25536" lon="6.38579">
        <ele>658.79998779297</ele>
        <time>2021-03-24T13:59:04.000Z</time>
      </trkpt>
      <trkpt lat="46.25536" lon="6.38559">
        <ele>657</ele>
        <time>2021-03-24T13:59:06.000Z</time>
      </trkpt>
      <trkpt lat="46.25536" lon="6.38548">
        <ele>655.79998779297</ele>
        <time>2021-03-24T13:59:07.000Z</time>
      </trkpt>
      <trkpt lat="46.25534" lon="6.38514">
        <ele>653.40002441406</ele>
        <time>2021-03-24T13:59:10.000Z</time>
      </trkpt>
      <trkpt lat="46.25532" lon="6.3849">
        <ele>652.20001220703</ele>
        <time>2021-03-24T13:59:12.000Z</time>
      </trkpt>
      <trkpt lat="46.2553" lon="6.38454">
        <ele>651.20001220703</ele>
        <time>2021-03-24T13:59:15.000Z</time>
      </trkpt>
      <trkpt lat="46.25526" lon="6.38367">
        <ele>650.59997558594</ele>
        <time>2021-03-24T13:59:22.000Z</time>
      </trkpt>
      <trkpt lat="46.25523" lon="6.38317">
        <ele>648.59997558594</ele>
        <time>2021-03-24T13:59:26.000Z</time>
      </trkpt>
      <trkpt lat="46.2552" lon="6.38257">
        <ele>648.59997558594</ele>
        <time>2021-03-24T13:59:31.000Z</time>
      </trkpt>
      <trkpt lat="46.25516" lon="6.38184">
        <ele>646</ele>
        <time>2021-03-24T13:59:37.000Z</time>
      </trkpt>
      <trkpt lat="46.25518" lon="6.38148">
        <ele>643.20001220703</ele>
        <time>2021-03-24T13:59:40.000Z</time>
      </trkpt>
      <trkpt lat="46.25521" lon="6.38136">
        <ele>642</ele>
        <time>2021-03-24T13:59:41.000Z</time>
      </trkpt>
      <trkpt lat="46.25523" lon="6.38123">
        <ele>641.40002441406</ele>
        <time>2021-03-24T13:59:42.000Z</time>
      </trkpt>
      <trkpt lat="46.25531" lon="6.38102">
        <ele>640.20001220703</ele>
        <time>2021-03-24T13:59:44.000Z</time>
      </trkpt>
      <trkpt lat="46.25536" lon="6.38093">
        <ele>639.40002441406</ele>
        <time>2021-03-24T13:59:45.000Z</time>
      </trkpt>
      <trkpt lat="46.25541" lon="6.38083">
        <ele>639.20001220703</ele>
        <time>2021-03-24T13:59:46.000Z</time>
      </trkpt>
      <trkpt lat="46.25551" lon="6.38064">
        <ele>638.20001220703</ele>
        <time>2021-03-24T13:59:48.000Z</time>
      </trkpt>
      <trkpt lat="46.25584" lon="6.37996">
        <ele>635.79998779297</ele>
        <time>2021-03-24T13:59:55.000Z</time>
      </trkpt>
      <trkpt lat="46.25589" lon="6.37987">
        <ele>635.20001220703</ele>
        <time>2021-03-24T13:59:56.000Z</time>
      </trkpt>
      <trkpt lat="46.2562" lon="6.37924">
        <ele>630.40002441406</ele>
        <time>2021-03-24T14:00:02.000Z</time>
      </trkpt>
      <trkpt lat="46.25652" lon="6.37859">
        <ele>627</ele>
        <time>2021-03-24T14:00:08.000Z</time>
      </trkpt>
      <trkpt lat="46.25662" lon="6.37839">
        <ele>626.40002441406</ele>
        <time>2021-03-24T14:00:10.000Z</time>
      </trkpt>
      <trkpt lat="46.25686" lon="6.3779">
        <ele>624.20001220703</ele>
        <time>2021-03-24T14:00:15.000Z</time>
      </trkpt>
      <trkpt lat="46.25715" lon="6.37731">
        <ele>620</ele>
        <time>2021-03-24T14:00:21.000Z</time>
      </trkpt>
      <trkpt lat="46.25751" lon="6.3766">
        <ele>618.40002441406</ele>
        <time>2021-03-24T14:00:28.000Z</time>
      </trkpt>
      <trkpt lat="46.25787" lon="6.37588">
        <ele>616</ele>
        <time>2021-03-24T14:00:35.000Z</time>
      </trkpt>
      <trkpt lat="46.25792" lon="6.37578">
        <ele>615.79998779297</ele>
        <time>2021-03-24T14:00:36.000Z</time>
      </trkpt>
      <trkpt lat="46.25827" lon="6.37509">
        <ele>615</ele>
        <time>2021-03-24T14:00:43.000Z</time>
      </trkpt>
      <trkpt lat="46.25838" lon="6.37492">
        <ele>615</ele>
        <time>2021-03-24T14:00:45.000Z</time>
      </trkpt>
      <trkpt lat="46.25844" lon="6.37484">
        <ele>615</ele>
        <time>2021-03-24T14:00:46.000Z</time>
      </trkpt>
      <trkpt lat="46.25857" lon="6.37469">
        <ele>613.79998779297</ele>
        <time>2021-03-24T14:00:48.000Z</time>
      </trkpt>
      <trkpt lat="46.25874" lon="6.37467">
        <ele>612.59997558594</ele>
        <time>2021-03-24T14:00:50.000Z</time>
      </trkpt>
      <trkpt lat="46.25882" lon="6.37467">
        <ele>612</ele>
        <time>2021-03-24T14:00:51.000Z</time>
      </trkpt>
      <trkpt lat="46.25891" lon="6.37467">
        <ele>611.40002441406</ele>
        <time>2021-03-24T14:00:52.000Z</time>
      </trkpt>
      <trkpt lat="46.25916" lon="6.37466">
        <ele>609.79998779297</ele>
        <time>2021-03-24T14:00:55.000Z</time>
      </trkpt>
      <trkpt lat="46.25959" lon="6.37468">
        <ele>608.40002441406</ele>
        <time>2021-03-24T14:01:00.000Z</time>
      </trkpt>
      <trkpt lat="46.25967" lon="6.37469">
        <ele>608</ele>
        <time>2021-03-24T14:01:01.000Z</time>
      </trkpt>
      <trkpt lat="46.25997" lon="6.37452">
        <ele>605.20001220703</ele>
        <time>2021-03-24T14:01:05.000Z</time>
      </trkpt>
      <trkpt lat="46.26051" lon="6.37419">
        <ele>604</ele>
        <time>2021-03-24T14:01:12.000Z</time>
      </trkpt>
      <trkpt lat="46.26085" lon="6.37387">
        <ele>601.40002441406</ele>
        <time>2021-03-24T14:01:17.000Z</time>
      </trkpt>
      <trkpt lat="46.2611" lon="6.37352">
        <ele>597.40002441406</ele>
        <time>2021-03-24T14:01:21.000Z</time>
      </trkpt>
      <trkpt lat="46.26119" lon="6.3732">
        <ele>594.40002441406</ele>
        <time>2021-03-24T14:01:24.000Z</time>
      </trkpt>
      <trkpt lat="46.26122" lon="6.37309">
        <ele>593.79998779297</ele>
        <time>2021-03-24T14:01:25.000Z</time>
      </trkpt>
      <trkpt lat="46.26125" lon="6.37298">
        <ele>593.59997558594</ele>
        <time>2021-03-24T14:01:26.000Z</time>
      </trkpt>
      <trkpt lat="46.26123" lon="6.37274">
        <ele>592.59997558594</ele>
        <time>2021-03-24T14:01:28.000Z</time>
      </trkpt>
      <trkpt lat="46.26117" lon="6.37184">
        <ele>591.59997558594</ele>
        <time>2021-03-24T14:01:35.000Z</time>
      </trkpt>
      <trkpt lat="46.26111" lon="6.37098">
        <ele>589.40002441406</ele>
        <time>2021-03-24T14:01:42.000Z</time>
      </trkpt>
      <trkpt lat="46.2611" lon="6.37056">
        <ele>587.79998779297</ele>
        <time>2021-03-24T14:01:46.000Z</time>
      </trkpt>
      <trkpt lat="46.26112" lon="6.37046">
        <ele>587.20001220703</ele>
        <time>2021-03-24T14:01:47.000Z</time>
      </trkpt>
      <trkpt lat="46.26115" lon="6.37036">
        <ele>586.59997558594</ele>
        <time>2021-03-24T14:01:48.000Z</time>
      </trkpt>
      <trkpt lat="46.26125" lon="6.37022">
        <ele>585.40002441406</ele>
        <time>2021-03-24T14:01:50.000Z</time>
      </trkpt>
      <trkpt lat="46.26139" lon="6.37015">
        <ele>584.59997558594</ele>
        <time>2021-03-24T14:01:52.000Z</time>
      </trkpt>
      <trkpt lat="46.26146" lon="6.37014">
        <ele>584</ele>
        <time>2021-03-24T14:01:53.000Z</time>
      </trkpt>
      <trkpt lat="46.26154" lon="6.37018">
        <ele>583.40002441406</ele>
        <time>2021-03-24T14:01:54.000Z</time>
      </trkpt>
      <trkpt lat="46.26169" lon="6.37025">
        <ele>581.79998779297</ele>
        <time>2021-03-24T14:01:56.000Z</time>
      </trkpt>
      <trkpt lat="46.2618" lon="6.37041">
        <ele>580.59997558594</ele>
        <time>2021-03-24T14:01:58.000Z</time>
      </trkpt>
      <trkpt lat="46.26185" lon="6.3705">
        <ele>580.40002441406</ele>
        <time>2021-03-24T14:01:59.000Z</time>
      </trkpt>
      <trkpt lat="46.26206" lon="6.37093">
        <ele>578.20001220703</ele>
        <time>2021-03-24T14:02:04.000Z</time>
      </trkpt>
      <trkpt lat="46.26211" lon="6.37102">
        <ele>577.59997558594</ele>
        <time>2021-03-24T14:02:05.000Z</time>
      </trkpt>
      <trkpt lat="46.26217" lon="6.37107">
        <ele>576.79998779297</ele>
        <time>2021-03-24T14:02:06.000Z</time>
      </trkpt>
      <trkpt lat="46.2623" lon="6.37114">
        <ele>575</ele>
        <time>2021-03-24T14:02:08.000Z</time>
      </trkpt>
      <trkpt lat="46.26235" lon="6.37116">
        <ele>574.20001220703</ele>
        <time>2021-03-24T14:02:09.000Z</time>
      </trkpt>
      <trkpt lat="46.26241" lon="6.37115">
        <ele>573.20001220703</ele>
        <time>2021-03-24T14:02:10.000Z</time>
      </trkpt>
      <trkpt lat="46.2625" lon="6.37115">
        <ele>573</ele>
        <time>2021-03-24T14:02:12.000Z</time>
      </trkpt>
      <trkpt lat="46.26253" lon="6.37102">
        <ele>572.79998779297</ele>
        <time>2021-03-24T14:02:14.000Z</time>
      </trkpt>
      <trkpt lat="46.26252" lon="6.37095">
        <ele>573.20001220703</ele>
        <time>2021-03-24T14:02:15.000Z</time>
      </trkpt>
      <trkpt lat="46.26251" lon="6.37088">
        <ele>573.40002441406</ele>
        <time>2021-03-24T14:02:16.000Z</time>
      </trkpt>
      <trkpt lat="46.26245" lon="6.37057">
        <ele>573.79998779297</ele>
        <time>2021-03-24T14:02:20.000Z</time>
      </trkpt>
      <trkpt lat="46.2624" lon="6.3701">
        <ele>573.79998779297</ele>
        <time>2021-03-24T14:02:26.000Z</time>
      </trkpt>
      <trkpt lat="46.26241" lon="6.37002">
        <ele>573.40002441406</ele>
        <time>2021-03-24T14:02:27.000Z</time>
      </trkpt>
      <trkpt lat="46.26242" lon="6.36993">
        <ele>573</ele>
        <time>2021-03-24T14:02:28.000Z</time>
      </trkpt>
      <trkpt lat="46.26247" lon="6.36979">
        <ele>572.20001220703</ele>
        <time>2021-03-24T14:02:30.000Z</time>
      </trkpt>
      <trkpt lat="46.26249" lon="6.36972">
        <ele>571.79998779297</ele>
        <time>2021-03-24T14:02:31.000Z</time>
      </trkpt>
      <trkpt lat="46.26253" lon="6.3696">
        <ele>571.59997558594</ele>
        <time>2021-03-24T14:02:33.000Z</time>
      </trkpt>
      <trkpt lat="46.26257" lon="6.3695">
        <ele>571.40002441406</ele>
        <time>2021-03-24T14:02:35.000Z</time>
      </trkpt>
      <trkpt lat="46.26286" lon="6.36941">
        <ele>570</ele>
        <time>2021-03-24T14:02:40.000Z</time>
      </trkpt>
      <trkpt lat="46.26292" lon="6.36939">
        <ele>570</ele>
        <time>2021-03-24T14:02:41.000Z</time>
      </trkpt>
      <trkpt lat="46.26305" lon="6.36935">
        <ele>570</ele>
        <time>2021-03-24T14:02:43.000Z</time>
      </trkpt>
      <trkpt lat="46.26326" lon="6.36894">
        <ele>570</ele>
        <time>2021-03-24T14:02:49.000Z</time>
      </trkpt>
      <trkpt lat="46.26336" lon="6.36874">
        <ele>569.59997558594</ele>
        <time>2021-03-24T14:02:52.000Z</time>
      </trkpt>
      <trkpt lat="46.26347" lon="6.36853">
        <ele>569</ele>
        <time>2021-03-24T14:02:55.000Z</time>
      </trkpt>
      <trkpt lat="46.26361" lon="6.36825">
        <ele>568.40002441406</ele>
        <time>2021-03-24T14:03:00.000Z</time>
      </trkpt>
      <trkpt lat="46.26371" lon="6.36806">
        <ele>569.20001220703</ele>
        <time>2021-03-24T14:03:06.000Z</time>
      </trkpt>
      <trkpt lat="46.26371" lon="6.36806">
        <ele>569.20001220703</ele>
        <time>2021-03-24T14:03:07.000Z</time>
      </trkpt>
      <trkpt lat="46.26372" lon="6.36804">
        <ele>569.20001220703</ele>
        <time>2021-03-24T14:03:17.000Z</time>
      </trkpt>
      <trkpt lat="46.26372" lon="6.36804">
        <ele>569.20001220703</ele>
        <time>2021-03-24T14:03:18.000Z</time>
      </trkpt>
      <trkpt lat="46.26372" lon="6.36804">
        <ele>569.20001220703</ele>
        <time>2021-03-24T14:03:19.000Z</time>
      </trkpt>
      <trkpt lat="46.26377" lon="6.36795">
        <ele>569.59997558594</ele>
        <time>2021-03-24T14:03:23.000Z</time>
      </trkpt>
      <trkpt lat="46.26378" lon="6.36785">
        <ele>569.20001220703</ele>
        <time>2021-03-24T14:03:44.000Z</time>
      </trkpt>
      <trkpt lat="46.26368" lon="6.36754">
        <ele>568.20001220703</ele>
        <time>2021-03-24T14:03:49.000Z</time>
      </trkpt>
      <trkpt lat="46.26355" lon="6.36698">
        <ele>568</ele>
        <time>2021-03-24T14:03:56.000Z</time>
      </trkpt>
      <trkpt lat="46.26348" lon="6.36632">
        <ele>567.79998779297</ele>
        <time>2021-03-24T14:04:04.000Z</time>
      </trkpt>
      <trkpt lat="46.26342" lon="6.36573">
        <ele>567.20001220703</ele>
        <time>2021-03-24T14:04:11.000Z</time>
      </trkpt>
      <trkpt lat="46.26341" lon="6.36564">
        <ele>567</ele>
        <time>2021-03-24T14:04:12.000Z</time>
      </trkpt>
      <trkpt lat="46.26336" lon="6.3651">
        <ele>568.20001220703</ele>
        <time>2021-03-24T14:04:19.000Z</time>
      </trkpt>
      <trkpt lat="46.26334" lon="6.36497">
        <ele>568.79998779297</ele>
        <time>2021-03-24T14:04:21.000Z</time>
      </trkpt>
      <trkpt lat="46.26341" lon="6.36487">
        <ele>568.40002441406</ele>
        <time>2021-03-24T14:04:22.000Z</time>
      </trkpt>
      <trkpt lat="46.26345" lon="6.36486">
        <ele>568.40002441406</ele>
        <time>2021-03-24T14:04:23.000Z</time>
      </trkpt>
      <trkpt lat="46.26355" lon="6.36484">
        <ele>567.59997558594</ele>
        <time>2021-03-24T14:04:25.000Z</time>
      </trkpt>
      <trkpt lat="46.26367" lon="6.36476">
        <ele>566.40002441406</ele>
        <time>2021-03-24T14:04:27.000Z</time>
      </trkpt>
      <trkpt lat="46.26376" lon="6.36464">
        <ele>566.40002441406</ele>
        <time>2021-03-24T14:04:29.000Z</time>
      </trkpt>
      <trkpt lat="46.26387" lon="6.36455">
        <ele>565.59997558594</ele>
        <time>2021-03-24T14:04:31.000Z</time>
      </trkpt>
      <trkpt lat="46.26398" lon="6.36453">
        <ele>565</ele>
        <time>2021-03-24T14:04:33.000Z</time>
      </trkpt>
      <trkpt lat="46.26409" lon="6.36454">
        <ele>564.59997558594</ele>
        <time>2021-03-24T14:04:35.000Z</time>
      </trkpt>
      <trkpt lat="46.26417" lon="6.36447">
        <ele>564.59997558594</ele>
        <time>2021-03-24T14:04:37.000Z</time>
      </trkpt>
      <trkpt lat="46.26423" lon="6.36437">
        <ele>565.20001220703</ele>
        <time>2021-03-24T14:04:39.000Z</time>
      </trkpt>
      <trkpt lat="46.26425" lon="6.36432">
        <ele>565.20001220703</ele>
        <time>2021-03-24T14:04:40.000Z</time>
      </trkpt>
      <trkpt lat="46.26429" lon="6.36426">
        <ele>565.79998779297</ele>
        <time>2021-03-24T14:04:42.000Z</time>
      </trkpt>
      <trkpt lat="46.26433" lon="6.36418">
        <ele>566.40002441406</ele>
        <time>2021-03-24T14:04:44.000Z</time>
      </trkpt>
      <trkpt lat="46.26437" lon="6.36411">
        <ele>567</ele>
        <time>2021-03-24T14:04:45.000Z</time>
      </trkpt>
      <trkpt lat="46.26452" lon="6.36382">
        <ele>567</ele>
        <time>2021-03-24T14:04:51.000Z</time>
      </trkpt>
      <trkpt lat="46.26454" lon="6.36377">
        <ele>567</ele>
        <time>2021-03-24T14:04:52.000Z</time>
      </trkpt>
      <trkpt lat="46.26465" lon="6.36357">
        <ele>567</ele>
        <time>2021-03-24T14:04:56.000Z</time>
      </trkpt>
      <trkpt lat="46.26487" lon="6.36316">
        <ele>565.40002441406</ele>
        <time>2021-03-24T14:05:03.000Z</time>
      </trkpt>
      <trkpt lat="46.2651" lon="6.36261">
        <ele>567</ele>
        <time>2021-03-24T14:05:12.000Z</time>
      </trkpt>
      <trkpt lat="46.26527" lon="6.36218">
        <ele>567.79998779297</ele>
        <time>2021-03-24T14:05:19.000Z</time>
      </trkpt>
      <trkpt lat="46.26532" lon="6.36206">
        <ele>567.20001220703</ele>
        <time>2021-03-24T14:05:21.000Z</time>
      </trkpt>
      <trkpt lat="46.2654" lon="6.36187">
        <ele>567</ele>
        <time>2021-03-24T14:05:24.000Z</time>
      </trkpt>
      <trkpt lat="46.26559" lon="6.3614">
        <ele>567</ele>
        <time>2021-03-24T14:05:31.000Z</time>
      </trkpt>
      <trkpt lat="46.26572" lon="6.36089">
        <ele>568.20001220703</ele>
        <time>2021-03-24T14:05:38.000Z</time>
      </trkpt>
      <trkpt lat="46.26574" lon="6.36074">
        <ele>569</ele>
        <time>2021-03-24T14:05:40.000Z</time>
      </trkpt>
      <trkpt lat="46.26573" lon="6.36039">
        <ele>568</ele>
        <time>2021-03-24T14:05:45.000Z</time>
      </trkpt>
      <trkpt lat="46.26571" lon="6.35991">
        <ele>567.79998779297</ele>
        <time>2021-03-24T14:05:52.000Z</time>
      </trkpt>
      <trkpt lat="46.2657" lon="6.35979">
        <ele>567.79998779297</ele>
        <time>2021-03-24T14:05:54.000Z</time>
      </trkpt>
      <trkpt lat="46.2657" lon="6.35963">
        <ele>568</ele>
        <time>2021-03-24T14:05:57.000Z</time>
      </trkpt>
      <trkpt lat="46.26568" lon="6.35946">
        <ele>568.40002441406</ele>
        <time>2021-03-24T14:06:00.000Z</time>
      </trkpt>
      <trkpt lat="46.26566" lon="6.35934">
        <ele>568.79998779297</ele>
        <time>2021-03-24T14:06:02.000Z</time>
      </trkpt>
      <trkpt lat="46.26566" lon="6.35928">
        <ele>569</ele>
        <time>2021-03-24T14:06:03.000Z</time>
      </trkpt>
      <trkpt lat="46.26564" lon="6.35917">
        <ele>569</ele>
        <time>2021-03-24T14:06:05.000Z</time>
      </trkpt>
      <trkpt lat="46.26562" lon="6.35906">
        <ele>569.20001220703</ele>
        <time>2021-03-24T14:06:07.000Z</time>
      </trkpt>
      <trkpt lat="46.2655" lon="6.35866">
        <ele>570.59997558594</ele>
        <time>2021-03-24T14:06:14.000Z</time>
      </trkpt>
      <trkpt lat="46.26535" lon="6.35837">
        <ele>571.59997558594</ele>
        <time>2021-03-24T14:06:20.000Z</time>
      </trkpt>
      <trkpt lat="46.26523" lon="6.35814">
        <ele>573</ele>
        <time>2021-03-24T14:06:25.000Z</time>
      </trkpt>
      <trkpt lat="46.26506" lon="6.3578">
        <ele>576.40002441406</ele>
        <time>2021-03-24T14:06:32.000Z</time>
      </trkpt>
      <trkpt lat="46.26486" lon="6.35741">
        <ele>576.79998779297</ele>
        <time>2021-03-24T14:06:40.000Z</time>
      </trkpt>
      <trkpt lat="46.26484" lon="6.35736">
        <ele>577</ele>
        <time>2021-03-24T14:06:41.000Z</time>
      </trkpt>
      <trkpt lat="46.26468" lon="6.35718">
        <ele>577.20001220703</ele>
        <time>2021-03-24T14:06:46.000Z</time>
      </trkpt>
      <trkpt lat="46.26453" lon="6.35701">
        <ele>577.40002441406</ele>
        <time>2021-03-24T14:06:50.000Z</time>
      </trkpt>
      <trkpt lat="46.26444" lon="6.35695">
        <ele>577.20001220703</ele>
        <time>2021-03-24T14:06:52.000Z</time>
      </trkpt>
      <trkpt lat="46.26439" lon="6.35691">
        <ele>577</ele>
        <time>2021-03-24T14:06:53.000Z</time>
      </trkpt>
      <trkpt lat="46.26424" lon="6.35682">
        <ele>577</ele>
        <time>2021-03-24T14:06:56.000Z</time>
      </trkpt>
      <trkpt lat="46.26399" lon="6.35666">
        <ele>576.40002441406</ele>
        <time>2021-03-24T14:07:00.000Z</time>
      </trkpt>
      <trkpt lat="46.26372" lon="6.35659">
        <ele>573.79998779297</ele>
        <time>2021-03-24T14:07:04.000Z</time>
      </trkpt>
      <trkpt lat="46.26359" lon="6.35657">
        <ele>572</ele>
        <time>2021-03-24T14:07:06.000Z</time>
      </trkpt>
      <trkpt lat="46.26344" lon="6.3566">
        <ele>570.20001220703</ele>
        <time>2021-03-24T14:07:08.000Z</time>
      </trkpt>
      <trkpt lat="46.26328" lon="6.35663">
        <ele>569</ele>
        <time>2021-03-24T14:07:10.000Z</time>
      </trkpt>
      <trkpt lat="46.26313" lon="6.35668">
        <ele>568.59997558594</ele>
        <time>2021-03-24T14:07:12.000Z</time>
      </trkpt>
      <trkpt lat="46.263" lon="6.35674">
        <ele>568</ele>
        <time>2021-03-24T14:07:14.000Z</time>
      </trkpt>
      <trkpt lat="46.26293" lon="6.35673">
        <ele>568</ele>
        <time>2021-03-24T14:07:15.000Z</time>
      </trkpt>
      <trkpt lat="46.26287" lon="6.35672">
        <ele>568</ele>
        <time>2021-03-24T14:07:16.000Z</time>
      </trkpt>
      <trkpt lat="46.26276" lon="6.35666">
        <ele>568</ele>
        <time>2021-03-24T14:07:18.000Z</time>
      </trkpt>
      <trkpt lat="46.26255" lon="6.35639">
        <ele>569.40002441406</ele>
        <time>2021-03-24T14:07:23.000Z</time>
      </trkpt>
      <trkpt lat="46.26233" lon="6.3561">
        <ele>570.40002441406</ele>
        <time>2021-03-24T14:07:29.000Z</time>
      </trkpt>
      <trkpt lat="46.26225" lon="6.35604">
        <ele>570.79998779297</ele>
        <time>2021-03-24T14:07:31.000Z</time>
      </trkpt>
      <trkpt lat="46.26209" lon="6.35578">
        <ele>572.59997558594</ele>
        <time>2021-03-24T14:07:36.000Z</time>
      </trkpt>
      <trkpt lat="46.26211" lon="6.35569">
        <ele>572.20001220703</ele>
        <time>2021-03-24T14:07:38.000Z</time>
      </trkpt>
      <trkpt lat="46.26215" lon="6.35557">
        <ele>572</ele>
        <time>2021-03-24T14:07:40.000Z</time>
      </trkpt>
      <trkpt lat="46.26231" lon="6.35502">
        <ele>571.79998779297</ele>
        <time>2021-03-24T14:07:47.000Z</time>
      </trkpt>
      <trkpt lat="46.26247" lon="6.35447">
        <ele>573.20001220703</ele>
        <time>2021-03-24T14:07:53.000Z</time>
      </trkpt>
      <trkpt lat="46.26266" lon="6.35382">
        <ele>567</ele>
        <time>2021-03-24T14:07:59.000Z</time>
      </trkpt>
      <trkpt lat="46.26272" lon="6.35374">
        <ele>566.20001220703</ele>
        <time>2021-03-24T14:08:00.000Z</time>
      </trkpt>
      <trkpt lat="46.26285" lon="6.35356">
        <ele>564</ele>
        <time>2021-03-24T14:08:02.000Z</time>
      </trkpt>
      <trkpt lat="46.26321" lon="6.35307">
        <ele>562.20001220703</ele>
        <time>2021-03-24T14:08:07.000Z</time>
      </trkpt>
      <trkpt lat="46.26365" lon="6.35253">
        <ele>562.79998779297</ele>
        <time>2021-03-24T14:08:13.000Z</time>
      </trkpt>
      <trkpt lat="46.26394" lon="6.35225">
        <ele>559.59997558594</ele>
        <time>2021-03-24T14:08:17.000Z</time>
      </trkpt>
      <trkpt lat="46.26441" lon="6.35186">
        <ele>556.20001220703</ele>
        <time>2021-03-24T14:08:23.000Z</time>
      </trkpt>
      <trkpt lat="46.26448" lon="6.35178">
        <ele>556.59997558594</ele>
        <time>2021-03-24T14:08:24.000Z</time>
      </trkpt>
      <trkpt lat="46.26462" lon="6.3516">
        <ele>555</ele>
        <time>2021-03-24T14:08:26.000Z</time>
      </trkpt>
      <trkpt lat="46.26475" lon="6.35139">
        <ele>551.59997558594</ele>
        <time>2021-03-24T14:08:28.000Z</time>
      </trkpt>
      <trkpt lat="46.26479" lon="6.35126">
        <ele>551</ele>
        <time>2021-03-24T14:08:29.000Z</time>
      </trkpt>
      <trkpt lat="46.26492" lon="6.35087">
        <ele>549</ele>
        <time>2021-03-24T14:08:32.000Z</time>
      </trkpt>
      <trkpt lat="46.26517" lon="6.35008">
        <ele>544.59997558594</ele>
        <time>2021-03-24T14:08:38.000Z</time>
      </trkpt>
      <trkpt lat="46.26528" lon="6.34969">
        <ele>542.79998779297</ele>
        <time>2021-03-24T14:08:41.000Z</time>
      </trkpt>
      <trkpt lat="46.26551" lon="6.34893">
        <ele>541</ele>
        <time>2021-03-24T14:08:47.000Z</time>
      </trkpt>
      <trkpt lat="46.26556" lon="6.3487">
        <ele>541.59997558594</ele>
        <time>2021-03-24T14:08:49.000Z</time>
      </trkpt>
      <trkpt lat="46.26557" lon="6.34857">
        <ele>541.59997558594</ele>
        <time>2021-03-24T14:08:50.000Z</time>
      </trkpt>
      <trkpt lat="46.26558" lon="6.34833">
        <ele>542.40002441406</ele>
        <time>2021-03-24T14:08:52.000Z</time>
      </trkpt>
      <trkpt lat="46.2656" lon="6.34791">
        <ele>542.40002441406</ele>
        <time>2021-03-24T14:08:56.000Z</time>
      </trkpt>
      <trkpt lat="46.26561" lon="6.34782">
        <ele>542.20001220703</ele>
        <time>2021-03-24T14:08:57.000Z</time>
      </trkpt>
      <trkpt lat="46.26573" lon="6.34745">
        <ele>541.79998779297</ele>
        <time>2021-03-24T14:09:02.000Z</time>
      </trkpt>
      <trkpt lat="46.26585" lon="6.34715">
        <ele>542.59997558594</ele>
        <time>2021-03-24T14:09:07.000Z</time>
      </trkpt>
      <trkpt lat="46.26588" lon="6.3471">
        <ele>543</ele>
        <time>2021-03-24T14:09:08.000Z</time>
      </trkpt>
      <trkpt lat="46.26594" lon="6.34701">
        <ele>543.79998779297</ele>
        <time>2021-03-24T14:09:10.000Z</time>
      </trkpt>
      <trkpt lat="46.26598" lon="6.34698">
        <ele>544.20001220703</ele>
        <time>2021-03-24T14:09:11.000Z</time>
      </trkpt>
      <trkpt lat="46.26602" lon="6.34696">
        <ele>544.59997558594</ele>
        <time>2021-03-24T14:09:12.000Z</time>
      </trkpt>
      <trkpt lat="46.26618" lon="6.34693">
        <ele>546.40002441406</ele>
        <time>2021-03-24T14:09:16.000Z</time>
      </trkpt>
      <trkpt lat="46.26644" lon="6.34703">
        <ele>548.79998779297</ele>
        <time>2021-03-24T14:09:23.000Z</time>
      </trkpt>
      <trkpt lat="46.26663" lon="6.34711">
        <ele>550.40002441406</ele>
        <time>2021-03-24T14:09:29.000Z</time>
      </trkpt>
      <trkpt lat="46.2669" lon="6.34722">
        <ele>551.79998779297</ele>
        <time>2021-03-24T14:09:37.000Z</time>
      </trkpt>
      <trkpt lat="46.26711" lon="6.34722">
        <ele>551.79998779297</ele>
        <time>2021-03-24T14:09:43.000Z</time>
      </trkpt>
      <trkpt lat="46.26726" lon="6.34711">
        <ele>551.79998779297</ele>
        <time>2021-03-24T14:09:48.000Z</time>
      </trkpt>
      <trkpt lat="46.26745" lon="6.34684">
        <ele>553.20001220703</ele>
        <time>2021-03-24T14:09:56.000Z</time>
      </trkpt>
      <trkpt lat="46.26768" lon="6.34652">
        <ele>553.20001220703</ele>
        <time>2021-03-24T14:10:05.000Z</time>
      </trkpt>
      <trkpt lat="46.26787" lon="6.34621">
        <ele>553.40002441406</ele>
        <time>2021-03-24T14:10:13.000Z</time>
      </trkpt>
      <trkpt lat="46.26789" lon="6.34596">
        <ele>556</ele>
        <time>2021-03-24T14:10:18.000Z</time>
      </trkpt>
      <trkpt lat="46.26784" lon="6.34578">
        <ele>557.79998779297</ele>
        <time>2021-03-24T14:10:23.000Z</time>
      </trkpt>
      <trkpt lat="46.26771" lon="6.34558">
        <ele>560.59997558594</ele>
        <time>2021-03-24T14:10:29.000Z</time>
      </trkpt>
      <trkpt lat="46.26751" lon="6.34538">
        <ele>563</ele>
        <time>2021-03-24T14:10:37.000Z</time>
      </trkpt>
      <trkpt lat="46.26734" lon="6.34527">
        <ele>564.20001220703</ele>
        <time>2021-03-24T14:10:43.000Z</time>
      </trkpt>
      <trkpt lat="46.26716" lon="6.3452">
        <ele>565</ele>
        <time>2021-03-24T14:10:49.000Z</time>
      </trkpt>
      <trkpt lat="46.26695" lon="6.34516">
        <ele>565.79998779297</ele>
        <time>2021-03-24T14:10:56.000Z</time>
      </trkpt>
      <trkpt lat="46.26674" lon="6.34509">
        <ele>566</ele>
        <time>2021-03-24T14:11:03.000Z</time>
      </trkpt>
      <trkpt lat="46.26663" lon="6.34494">
        <ele>566</ele>
        <time>2021-03-24T14:11:08.000Z</time>
      </trkpt>
      <trkpt lat="46.26656" lon="6.34476">
        <ele>567.79998779297</ele>
        <time>2021-03-24T14:11:13.000Z</time>
      </trkpt>
      <trkpt lat="46.26648" lon="6.34456">
        <ele>569.20001220703</ele>
        <time>2021-03-24T14:11:18.000Z</time>
      </trkpt>
      <trkpt lat="46.26643" lon="6.34441">
        <ele>570.20001220703</ele>
        <time>2021-03-24T14:11:22.000Z</time>
      </trkpt>
      <trkpt lat="46.26632" lon="6.34416">
        <ele>571.79998779297</ele>
        <time>2021-03-24T14:11:28.000Z</time>
      </trkpt>
      <trkpt lat="46.26618" lon="6.34389">
        <ele>572.59997558594</ele>
        <time>2021-03-24T14:11:35.000Z</time>
      </trkpt>
      <trkpt lat="46.26603" lon="6.34365">
        <ele>573</ele>
        <time>2021-03-24T14:11:42.000Z</time>
      </trkpt>
      <trkpt lat="46.26583" lon="6.34342">
        <ele>573.79998779297</ele>
        <time>2021-03-24T14:11:49.000Z</time>
      </trkpt>
      <trkpt lat="46.26555" lon="6.34303">
        <ele>574</ele>
        <time>2021-03-24T14:11:58.000Z</time>
      </trkpt>
      <trkpt lat="46.26544" lon="6.34283">
        <ele>574</ele>
        <time>2021-03-24T14:12:02.000Z</time>
      </trkpt>
      <trkpt lat="46.2654" lon="6.34271">
        <ele>574</ele>
        <time>2021-03-24T14:12:04.000Z</time>
      </trkpt>
      <trkpt lat="46.26528" lon="6.34226">
        <ele>574.79998779297</ele>
        <time>2021-03-24T14:12:11.000Z</time>
      </trkpt>
      <trkpt lat="46.26524" lon="6.34206">
        <ele>574.59997558594</ele>
        <time>2021-03-24T14:12:14.000Z</time>
      </trkpt>
      <trkpt lat="46.26519" lon="6.34189">
        <ele>574</ele>
        <time>2021-03-24T14:12:17.000Z</time>
      </trkpt>
      <trkpt lat="46.265" lon="6.34151">
        <ele>575.20001220703</ele>
        <time>2021-03-24T14:12:24.000Z</time>
      </trkpt>
      <trkpt lat="46.26483" lon="6.34118">
        <ele>576</ele>
        <time>2021-03-24T14:12:30.000Z</time>
      </trkpt>
      <trkpt lat="46.26471" lon="6.34097">
        <ele>576</ele>
        <time>2021-03-24T14:12:34.000Z</time>
      </trkpt>
      <trkpt lat="46.26462" lon="6.34081">
        <ele>575.79998779297</ele>
        <time>2021-03-24T14:12:37.000Z</time>
      </trkpt>
      <trkpt lat="46.26433" lon="6.34036">
        <ele>574.40002441406</ele>
        <time>2021-03-24T14:12:45.000Z</time>
      </trkpt>
      <trkpt lat="46.264" lon="6.33987">
        <ele>574.20001220703</ele>
        <time>2021-03-24T14:12:53.000Z</time>
      </trkpt>
      <trkpt lat="46.26388" lon="6.33957">
        <ele>573.40002441406</ele>
        <time>2021-03-24T14:12:57.000Z</time>
      </trkpt>
      <trkpt lat="46.26385" lon="6.33948">
        <ele>573.20001220703</ele>
        <time>2021-03-24T14:12:58.000Z</time>
      </trkpt>
      <trkpt lat="46.26382" lon="6.33931">
        <ele>572.59997558594</ele>
        <time>2021-03-24T14:13:00.000Z</time>
      </trkpt>
      <trkpt lat="46.26383" lon="6.33914">
        <ele>572.20001220703</ele>
        <time>2021-03-24T14:13:02.000Z</time>
      </trkpt>
      <trkpt lat="46.26384" lon="6.33904">
        <ele>571.79998779297</ele>
        <time>2021-03-24T14:13:03.000Z</time>
      </trkpt>
      <trkpt lat="46.26392" lon="6.33846">
        <ele>571.79998779297</ele>
        <time>2021-03-24T14:13:10.000Z</time>
      </trkpt>
      <trkpt lat="46.26401" lon="6.33792">
        <ele>573.40002441406</ele>
        <time>2021-03-24T14:13:17.000Z</time>
      </trkpt>
      <trkpt lat="46.26413" lon="6.33722">
        <ele>571.20001220703</ele>
        <time>2021-03-24T14:13:26.000Z</time>
      </trkpt>
      <trkpt lat="46.26424" lon="6.33653">
        <ele>569.59997558594</ele>
        <time>2021-03-24T14:13:36.000Z</time>
      </trkpt>
      <trkpt lat="46.26427" lon="6.33636">
        <ele>569.20001220703</ele>
        <time>2021-03-24T14:13:37.000Z</time>
      </trkpt>
      <trkpt lat="46.2644" lon="6.33561">
        <ele>571</ele>
        <time>2021-03-24T14:13:47.000Z</time>
      </trkpt>
      <trkpt lat="46.26451" lon="6.33494">
        <ele>570.79998779297</ele>
        <time>2021-03-24T14:13:56.000Z</time>
      </trkpt>
      <trkpt lat="46.26464" lon="6.33417">
        <ele>569.79998779297</ele>
        <time>2021-03-24T14:14:06.000Z</time>
      </trkpt>
      <trkpt lat="46.26465" lon="6.33409">
        <ele>570</ele>
        <time>2021-03-24T14:14:07.000Z</time>
      </trkpt>
      <trkpt lat="46.2647" lon="6.33381">
        <ele>571.40002441406</ele>
        <time>2021-03-24T14:14:11.000Z</time>
      </trkpt>
      <trkpt lat="46.26466" lon="6.33367">
        <ele>571</ele>
        <time>2021-03-24T14:14:13.000Z</time>
      </trkpt>
      <trkpt lat="46.26447" lon="6.3332">
        <ele>569.20001220703</ele>
        <time>2021-03-24T14:14:20.000Z</time>
      </trkpt>
      <trkpt lat="46.26428" lon="6.33274">
        <ele>568</ele>
        <time>2021-03-24T14:14:27.000Z</time>
      </trkpt>
      <trkpt lat="46.26403" lon="6.3323">
        <ele>567.79998779297</ele>
        <time>2021-03-24T14:14:34.000Z</time>
      </trkpt>
      <trkpt lat="46.26369" lon="6.33185">
        <ele>565.20001220703</ele>
        <time>2021-03-24T14:14:42.000Z</time>
      </trkpt>
      <trkpt lat="46.26329" lon="6.33131">
        <ele>568</ele>
        <time>2021-03-24T14:14:51.000Z</time>
      </trkpt>
      <trkpt lat="46.26324" lon="6.33125">
        <ele>567.79998779297</ele>
        <time>2021-03-24T14:14:52.000Z</time>
      </trkpt>
      <trkpt lat="46.26292" lon="6.33082">
        <ele>567.40002441406</ele>
        <time>2021-03-24T14:14:59.000Z</time>
      </trkpt>
      <trkpt lat="46.26258" lon="6.33053">
        <ele>567</ele>
        <time>2021-03-24T14:15:05.000Z</time>
      </trkpt>
      <trkpt lat="46.26246" lon="6.33043">
        <ele>566.40002441406</ele>
        <time>2021-03-24T14:15:07.000Z</time>
      </trkpt>
      <trkpt lat="46.26223" lon="6.33031">
        <ele>565.20001220703</ele>
        <time>2021-03-24T14:15:10.000Z</time>
      </trkpt>
      <trkpt lat="46.26168" lon="6.33003">
        <ele>560</ele>
        <time>2021-03-24T14:15:17.000Z</time>
      </trkpt>
      <trkpt lat="46.26112" lon="6.32975">
        <ele>557.59997558594</ele>
        <time>2021-03-24T14:15:24.000Z</time>
      </trkpt>
      <trkpt lat="46.26097" lon="6.32968">
        <ele>558</ele>
        <time>2021-03-24T14:15:26.000Z</time>
      </trkpt>
      <trkpt lat="46.26055" lon="6.32936">
        <ele>557.40002441406</ele>
        <time>2021-03-24T14:15:32.000Z</time>
      </trkpt>
      <trkpt lat="46.26015" lon="6.329">
        <ele>556.59997558594</ele>
        <time>2021-03-24T14:15:38.000Z</time>
      </trkpt>
      <trkpt lat="46.26008" lon="6.32893">
        <ele>556</ele>
        <time>2021-03-24T14:15:39.000Z</time>
      </trkpt>
      <trkpt lat="46.25974" lon="6.32844">
        <ele>552.79998779297</ele>
        <time>2021-03-24T14:15:45.000Z</time>
      </trkpt>
      <trkpt lat="46.25956" lon="6.32806">
        <ele>551.59997558594</ele>
        <time>2021-03-24T14:15:49.000Z</time>
      </trkpt>
      <trkpt lat="46.25954" lon="6.32795">
        <ele>551.40002441406</ele>
        <time>2021-03-24T14:15:50.000Z</time>
      </trkpt>
      <trkpt lat="46.25945" lon="6.32755">
        <ele>551.20001220703</ele>
        <time>2021-03-24T14:15:54.000Z</time>
      </trkpt>
      <trkpt lat="46.25935" lon="6.32744">
        <ele>550.79998779297</ele>
        <time>2021-03-24T14:15:56.000Z</time>
      </trkpt>
      <trkpt lat="46.25929" lon="6.32739">
        <ele>550.59997558594</ele>
        <time>2021-03-24T14:15:57.000Z</time>
      </trkpt>
      <trkpt lat="46.2589" lon="6.32711">
        <ele>549.20001220703</ele>
        <time>2021-03-24T14:16:03.000Z</time>
      </trkpt>
      <trkpt lat="46.25851" lon="6.32682">
        <ele>550.20001220703</ele>
        <time>2021-03-24T14:16:09.000Z</time>
      </trkpt>
      <trkpt lat="46.25804" lon="6.32642">
        <ele>549.40002441406</ele>
        <time>2021-03-24T14:16:16.000Z</time>
      </trkpt>
      <trkpt lat="46.25765" lon="6.32602">
        <ele>543.79998779297</ele>
        <time>2021-03-24T14:16:22.000Z</time>
      </trkpt>
      <trkpt lat="46.2576" lon="6.32597">
        <ele>543.59997558594</ele>
        <time>2021-03-24T14:16:23.000Z</time>
      </trkpt>
      <trkpt lat="46.25753" lon="6.32581">
        <ele>543</ele>
        <time>2021-03-24T14:16:25.000Z</time>
      </trkpt>
      <trkpt lat="46.25752" lon="6.32572">
        <ele>543.40002441406</ele>
        <time>2021-03-24T14:16:26.000Z</time>
      </trkpt>
      <trkpt lat="46.25748" lon="6.32565">
        <ele>544</ele>
        <time>2021-03-24T14:16:27.000Z</time>
      </trkpt>
      <trkpt lat="46.25739" lon="6.32551">
        <ele>544.79998779297</ele>
        <time>2021-03-24T14:16:29.000Z</time>
      </trkpt>
      <trkpt lat="46.25735" lon="6.32544">
        <ele>544.79998779297</ele>
        <time>2021-03-24T14:16:30.000Z</time>
      </trkpt>
      <trkpt lat="46.25697" lon="6.32497">
        <ele>542.20001220703</ele>
        <time>2021-03-24T14:16:37.000Z</time>
      </trkpt>
      <trkpt lat="46.25656" lon="6.32463">
        <ele>540.59997558594</ele>
        <time>2021-03-24T14:16:43.000Z</time>
      </trkpt>
      <trkpt lat="46.25642" lon="6.32456">
        <ele>540.20001220703</ele>
        <time>2021-03-24T14:16:45.000Z</time>
      </trkpt>
      <trkpt lat="46.25627" lon="6.32451">
        <ele>540</ele>
        <time>2021-03-24T14:16:47.000Z</time>
      </trkpt>
      <trkpt lat="46.25582" lon="6.3245">
        <ele>539.59997558594</ele>
        <time>2021-03-24T14:16:53.000Z</time>
      </trkpt>
      <trkpt lat="46.25539" lon="6.32459">
        <ele>537.40002441406</ele>
        <time>2021-03-24T14:16:59.000Z</time>
      </trkpt>
      <trkpt lat="46.25486" lon="6.32478">
        <ele>537</ele>
        <time>2021-03-24T14:17:07.000Z</time>
      </trkpt>
      <trkpt lat="46.2548" lon="6.3248">
        <ele>536.59997558594</ele>
        <time>2021-03-24T14:17:08.000Z</time>
      </trkpt>
      <trkpt lat="46.25459" lon="6.32485">
        <ele>535.79998779297</ele>
        <time>2021-03-24T14:17:12.000Z</time>
      </trkpt>
      <trkpt lat="46.25447" lon="6.32488">
        <ele>535.59997558594</ele>
        <time>2021-03-24T14:17:15.000Z</time>
      </trkpt>
      <trkpt lat="46.2544" lon="6.32489">
        <ele>535.40002441406</ele>
        <time>2021-03-24T14:17:17.000Z</time>
      </trkpt>
      <trkpt lat="46.25433" lon="6.32493">
        <ele>535.20001220703</ele>
        <time>2021-03-24T14:17:19.000Z</time>
      </trkpt>
      <trkpt lat="46.25427" lon="6.32505">
        <ele>535</ele>
        <time>2021-03-24T14:17:21.000Z</time>
      </trkpt>
      <trkpt lat="46.25421" lon="6.32519">
        <ele>534.79998779297</ele>
        <time>2021-03-24T14:17:23.000Z</time>
      </trkpt>
      <trkpt lat="46.25412" lon="6.32542">
        <ele>534.79998779297</ele>
        <time>2021-03-24T14:17:26.000Z</time>
      </trkpt>
      <trkpt lat="46.2539" lon="6.32596">
        <ele>534.20001220703</ele>
        <time>2021-03-24T14:17:32.000Z</time>
      </trkpt>
      <trkpt lat="46.25386" lon="6.32606">
        <ele>533.79998779297</ele>
        <time>2021-03-24T14:17:33.000Z</time>
      </trkpt>
      <trkpt lat="46.25367" lon="6.32627">
        <ele>532.79998779297</ele>
        <time>2021-03-24T14:17:36.000Z</time>
      </trkpt>
      <trkpt lat="46.2536" lon="6.32633">
        <ele>532.79998779297</ele>
        <time>2021-03-24T14:17:37.000Z</time>
      </trkpt>
      <trkpt lat="46.25332" lon="6.32656">
        <ele>532.20001220703</ele>
        <time>2021-03-24T14:17:41.000Z</time>
      </trkpt>
      <trkpt lat="46.25282" lon="6.32696">
        <ele>530.59997558594</ele>
        <time>2021-03-24T14:17:48.000Z</time>
      </trkpt>
      <trkpt lat="46.25275" lon="6.32702">
        <ele>530.20001220703</ele>
        <time>2021-03-24T14:17:49.000Z</time>
      </trkpt>
      <trkpt lat="46.25268" lon="6.32708">
        <ele>530</ele>
        <time>2021-03-24T14:17:50.000Z</time>
      </trkpt>
      <trkpt lat="46.25249" lon="6.32723">
        <ele>530.40002441406</ele>
        <time>2021-03-24T14:17:53.000Z</time>
      </trkpt>
      <trkpt lat="46.25213" lon="6.32752">
        <ele>531.40002441406</ele>
        <time>2021-03-24T14:17:59.000Z</time>
      </trkpt>
      <trkpt lat="46.25181" lon="6.32769">
        <ele>529.59997558594</ele>
        <time>2021-03-24T14:18:04.000Z</time>
      </trkpt>
      <trkpt lat="46.25175" lon="6.32772">
        <ele>529.20001220703</ele>
        <time>2021-03-24T14:18:05.000Z</time>
      </trkpt>
      <trkpt lat="46.25154" lon="6.32783">
        <ele>527.79998779297</ele>
        <time>2021-03-24T14:18:09.000Z</time>
      </trkpt>
      <trkpt lat="46.25147" lon="6.32785">
        <ele>527.79998779297</ele>
        <time>2021-03-24T14:18:10.000Z</time>
      </trkpt>
      <trkpt lat="46.25134" lon="6.32782">
        <ele>528</ele>
        <time>2021-03-24T14:18:13.000Z</time>
      </trkpt>
      <trkpt lat="46.2513" lon="6.32781">
        <ele>528.20001220703</ele>
        <time>2021-03-24T14:18:14.000Z</time>
      </trkpt>
      <trkpt lat="46.25125" lon="6.3278">
        <ele>528.20001220703</ele>
        <time>2021-03-24T14:18:15.000Z</time>
      </trkpt>
      <trkpt lat="46.25105" lon="6.32772">
        <ele>529</ele>
        <time>2021-03-24T14:18:19.000Z</time>
      </trkpt>
      <trkpt lat="46.251" lon="6.3277">
        <ele>529.20001220703</ele>
        <time>2021-03-24T14:18:20.000Z</time>
      </trkpt>
      <trkpt lat="46.2507" lon="6.32758">
        <ele>529.59997558594</ele>
        <time>2021-03-24T14:18:26.000Z</time>
      </trkpt>
      <trkpt lat="46.25036" lon="6.32732">
        <ele>528.59997558594</ele>
        <time>2021-03-24T14:18:33.000Z</time>
      </trkpt>
      <trkpt lat="46.25006" lon="6.3271">
        <ele>526.59997558594</ele>
        <time>2021-03-24T14:18:39.000Z</time>
      </trkpt>
      <trkpt lat="46.24996" lon="6.32699">
        <ele>526</ele>
        <time>2021-03-24T14:18:41.000Z</time>
      </trkpt>
      <trkpt lat="46.24987" lon="6.32677">
        <ele>525.79998779297</ele>
        <time>2021-03-24T14:18:44.000Z</time>
      </trkpt>
      <trkpt lat="46.2498" lon="6.32661">
        <ele>525.59997558594</ele>
        <time>2021-03-24T14:18:46.000Z</time>
      </trkpt>
      <trkpt lat="46.24973" lon="6.32632">
        <ele>525.79998779297</ele>
        <time>2021-03-24T14:18:49.000Z</time>
      </trkpt>
      <trkpt lat="46.24974" lon="6.32594">
        <ele>525.40002441406</ele>
        <time>2021-03-24T14:18:53.000Z</time>
      </trkpt>
      <trkpt lat="46.24977" lon="6.32576">
        <ele>525.79998779297</ele>
        <time>2021-03-24T14:18:55.000Z</time>
      </trkpt>
      <trkpt lat="46.2498" lon="6.32559">
        <ele>526.79998779297</ele>
        <time>2021-03-24T14:18:57.000Z</time>
      </trkpt>
      <trkpt lat="46.24987" lon="6.32531">
        <ele>529</ele>
        <time>2021-03-24T14:19:02.000Z</time>
      </trkpt>
      <trkpt lat="46.24991" lon="6.32508">
        <ele>530.40002441406</ele>
        <time>2021-03-24T14:19:07.000Z</time>
      </trkpt>
      <trkpt lat="46.24991" lon="6.3249">
        <ele>531.20001220703</ele>
        <time>2021-03-24T14:19:11.000Z</time>
      </trkpt>
      <trkpt lat="46.24988" lon="6.32465">
        <ele>532.79998779297</ele>
        <time>2021-03-24T14:19:16.000Z</time>
      </trkpt>
      <trkpt lat="46.24982" lon="6.32432">
        <ele>534.20001220703</ele>
        <time>2021-03-24T14:19:22.000Z</time>
      </trkpt>
      <trkpt lat="46.24969" lon="6.32393">
        <ele>535.59997558594</ele>
        <time>2021-03-24T14:19:29.000Z</time>
      </trkpt>
      <trkpt lat="46.24954" lon="6.32348">
        <ele>534.79998779297</ele>
        <time>2021-03-24T14:19:36.000Z</time>
      </trkpt>
      <trkpt lat="46.24935" lon="6.32295">
        <ele>532.59997558594</ele>
        <time>2021-03-24T14:19:43.000Z</time>
      </trkpt>
      <trkpt lat="46.24926" lon="6.32269">
        <ele>531</ele>
        <time>2021-03-24T14:19:46.000Z</time>
      </trkpt>
      <trkpt lat="46.24924" lon="6.32248">
        <ele>530.59997558594</ele>
        <time>2021-03-24T14:19:48.000Z</time>
      </trkpt>
      <trkpt lat="46.24921" lon="6.32182">
        <ele>529.20001220703</ele>
        <time>2021-03-24T14:19:54.000Z</time>
      </trkpt>
      <trkpt lat="46.24918" lon="6.32126">
        <ele>529.20001220703</ele>
        <time>2021-03-24T14:20:00.000Z</time>
      </trkpt>
      <trkpt lat="46.24914" lon="6.3206">
        <ele>530.20001220703</ele>
        <time>2021-03-24T14:20:08.000Z</time>
      </trkpt>
      <trkpt lat="46.24897" lon="6.31999">
        <ele>529.40002441406</ele>
        <time>2021-03-24T14:20:16.000Z</time>
      </trkpt>
      <trkpt lat="46.24878" lon="6.31931">
        <ele>528</ele>
        <time>2021-03-24T14:20:25.000Z</time>
      </trkpt>
      <trkpt lat="46.24859" lon="6.31867">
        <ele>528.20001220703</ele>
        <time>2021-03-24T14:20:33.000Z</time>
      </trkpt>
      <trkpt lat="46.24838" lon="6.31798">
        <ele>527.79998779297</ele>
        <time>2021-03-24T14:20:41.000Z</time>
      </trkpt>
      <trkpt lat="46.24814" lon="6.3173">
        <ele>525.59997558594</ele>
        <time>2021-03-24T14:20:48.000Z</time>
      </trkpt>
      <trkpt lat="46.24788" lon="6.31655">
        <ele>523.40002441406</ele>
        <time>2021-03-24T14:20:55.000Z</time>
      </trkpt>
      <trkpt lat="46.24766" lon="6.31596">
        <ele>520.40002441406</ele>
        <time>2021-03-24T14:21:01.000Z</time>
      </trkpt>
      <trkpt lat="46.24744" lon="6.31543">
        <ele>519.40002441406</ele>
        <time>2021-03-24T14:21:06.000Z</time>
      </trkpt>
      <trkpt lat="46.24739" lon="6.31533">
        <ele>519.40002441406</ele>
        <time>2021-03-24T14:21:07.000Z</time>
      </trkpt>
      <trkpt lat="46.24701" lon="6.31471">
        <ele>519.40002441406</ele>
        <time>2021-03-24T14:21:14.000Z</time>
      </trkpt>
      <trkpt lat="46.24661" lon="6.31409">
        <ele>517.40002441406</ele>
        <time>2021-03-24T14:21:22.000Z</time>
      </trkpt>
      <trkpt lat="46.24624" lon="6.3135">
        <ele>516.79998779297</ele>
        <time>2021-03-24T14:21:30.000Z</time>
      </trkpt>
      <trkpt lat="46.24598" lon="6.31309">
        <ele>517.40002441406</ele>
        <time>2021-03-24T14:21:36.000Z</time>
      </trkpt>
      <trkpt lat="46.24593" lon="6.31302">
        <ele>517.59997558594</ele>
        <time>2021-03-24T14:21:37.000Z</time>
      </trkpt>
      <trkpt lat="46.24564" lon="6.31281">
        <ele>517.20001220703</ele>
        <time>2021-03-24T14:21:42.000Z</time>
      </trkpt>
      <trkpt lat="46.24535" lon="6.31259">
        <ele>516.59997558594</ele>
        <time>2021-03-24T14:21:47.000Z</time>
      </trkpt>
      <trkpt lat="46.24529" lon="6.31254">
        <ele>516.20001220703</ele>
        <time>2021-03-24T14:21:48.000Z</time>
      </trkpt>
      <trkpt lat="46.24518" lon="6.31245">
        <ele>515.79998779297</ele>
        <time>2021-03-24T14:21:50.000Z</time>
      </trkpt>
      <trkpt lat="46.24507" lon="6.31233">
        <ele>515.59997558594</ele>
        <time>2021-03-24T14:21:52.000Z</time>
      </trkpt>
      <trkpt lat="46.24477" lon="6.31185">
        <ele>515.20001220703</ele>
        <time>2021-03-24T14:21:58.000Z</time>
      </trkpt>
      <trkpt lat="46.24446" lon="6.31135">
        <ele>516.59997558594</ele>
        <time>2021-03-24T14:22:04.000Z</time>
      </trkpt>
      <trkpt lat="46.24441" lon="6.31127">
        <ele>516.59997558594</ele>
        <time>2021-03-24T14:22:05.000Z</time>
      </trkpt>
      <trkpt lat="46.24405" lon="6.31066">
        <ele>513.20001220703</ele>
        <time>2021-03-24T14:22:12.000Z</time>
      </trkpt>
      <trkpt lat="46.24383" lon="6.31033">
        <ele>511.20001220703</ele>
        <time>2021-03-24T14:22:16.000Z</time>
      </trkpt>
      <trkpt lat="46.24377" lon="6.31027">
        <ele>511</ele>
        <time>2021-03-24T14:22:17.000Z</time>
      </trkpt>
      <trkpt lat="46.24342" lon="6.30994">
        <ele>512.40002441406</ele>
        <time>2021-03-24T14:22:23.000Z</time>
      </trkpt>
      <trkpt lat="46.24304" lon="6.30969">
        <ele>515.40002441406</ele>
        <time>2021-03-24T14:22:30.000Z</time>
      </trkpt>
      <trkpt lat="46.24281" lon="6.30954">
        <ele>516.59997558594</ele>
        <time>2021-03-24T14:22:35.000Z</time>
      </trkpt>
      <trkpt lat="46.24273" lon="6.30948">
        <ele>517</ele>
        <time>2021-03-24T14:22:37.000Z</time>
      </trkpt>
      <trkpt lat="46.24268" lon="6.30945">
        <ele>517</ele>
        <time>2021-03-24T14:22:38.000Z</time>
      </trkpt>
      <trkpt lat="46.24243" lon="6.3092">
        <ele>517</ele>
        <time>2021-03-24T14:22:44.000Z</time>
      </trkpt>
      <trkpt lat="46.2421" lon="6.30893">
        <ele>517.20001220703</ele>
        <time>2021-03-24T14:22:51.000Z</time>
      </trkpt>
      <trkpt lat="46.24187" lon="6.30874">
        <ele>518</ele>
        <time>2021-03-24T14:22:56.000Z</time>
      </trkpt>
      <trkpt lat="46.24178" lon="6.30867">
        <ele>518.40002441406</ele>
        <time>2021-03-24T14:22:58.000Z</time>
      </trkpt>
      <trkpt lat="46.24165" lon="6.3085">
        <ele>518.59997558594</ele>
        <time>2021-03-24T14:23:01.000Z</time>
      </trkpt>
      <trkpt lat="46.24158" lon="6.3084">
        <ele>518.20001220703</ele>
        <time>2021-03-24T14:23:03.000Z</time>
      </trkpt>
      <trkpt lat="46.24142" lon="6.30819">
        <ele>516.79998779297</ele>
        <time>2021-03-24T14:23:07.000Z</time>
      </trkpt>
      <trkpt lat="46.24138" lon="6.30811">
        <ele>516.40002441406</ele>
        <time>2021-03-24T14:23:08.000Z</time>
      </trkpt>
      <trkpt lat="46.2414" lon="6.30803">
        <ele>516.20001220703</ele>
        <time>2021-03-24T14:23:09.000Z</time>
      </trkpt>
      <trkpt lat="46.24143" lon="6.30786">
        <ele>515.40002441406</ele>
        <time>2021-03-24T14:23:11.000Z</time>
      </trkpt>
      <trkpt lat="46.24146" lon="6.30777">
        <ele>515.20001220703</ele>
        <time>2021-03-24T14:23:12.000Z</time>
      </trkpt>
      <trkpt lat="46.24157" lon="6.30749">
        <ele>514.20001220703</ele>
        <time>2021-03-24T14:23:16.000Z</time>
      </trkpt>
      <trkpt lat="46.24182" lon="6.30681">
        <ele>512.79998779297</ele>
        <time>2021-03-24T14:23:24.000Z</time>
      </trkpt>
      <trkpt lat="46.24204" lon="6.30614">
        <ele>510.20001220703</ele>
        <time>2021-03-24T14:23:32.000Z</time>
      </trkpt>
      <trkpt lat="46.24207" lon="6.30596">
        <ele>509.60000610352</ele>
        <time>2021-03-24T14:23:34.000Z</time>
      </trkpt>
      <trkpt lat="46.24221" lon="6.30514">
        <ele>509.20001220703</ele>
        <time>2021-03-24T14:23:43.000Z</time>
      </trkpt>
      <trkpt lat="46.2423" lon="6.30454">
        <ele>509.60000610352</ele>
        <time>2021-03-24T14:23:50.000Z</time>
      </trkpt>
      <trkpt lat="46.24236" lon="6.30368">
        <ele>508</ele>
        <time>2021-03-24T14:23:58.000Z</time>
      </trkpt>
      <trkpt lat="46.24243" lon="6.30281">
        <ele>505.60000610352</ele>
        <time>2021-03-24T14:24:06.000Z</time>
      </trkpt>
      <trkpt lat="46.24245" lon="6.30248">
        <ele>504</ele>
        <time>2021-03-24T14:24:09.000Z</time>
      </trkpt>
      <trkpt lat="46.24251" lon="6.30169">
        <ele>504.20001220703</ele>
        <time>2021-03-24T14:24:16.000Z</time>
      </trkpt>
      <trkpt lat="46.24251" lon="6.30157">
        <ele>503.79998779297</ele>
        <time>2021-03-24T14:24:17.000Z</time>
      </trkpt>
      <trkpt lat="46.2425" lon="6.30067">
        <ele>498.79998779297</ele>
        <time>2021-03-24T14:24:24.000Z</time>
      </trkpt>
      <trkpt lat="46.2425" lon="6.30043">
        <ele>499</ele>
        <time>2021-03-24T14:24:26.000Z</time>
      </trkpt>
      <trkpt lat="46.2425" lon="6.29954">
        <ele>503.20001220703</ele>
        <time>2021-03-24T14:24:33.000Z</time>
      </trkpt>
      <trkpt lat="46.2425" lon="6.29904">
        <ele>502.60000610352</ele>
        <time>2021-03-24T14:24:37.000Z</time>
      </trkpt>
      <trkpt lat="46.24247" lon="6.29828">
        <ele>500.60000610352</ele>
        <time>2021-03-24T14:24:43.000Z</time>
      </trkpt>
      <trkpt lat="46.24244" lon="6.29794">
        <ele>502</ele>
        <time>2021-03-24T14:24:46.000Z</time>
      </trkpt>
      <trkpt lat="46.24241" lon="6.29783">
        <ele>502</ele>
        <time>2021-03-24T14:24:47.000Z</time>
      </trkpt>
      <trkpt lat="46.24237" lon="6.29761">
        <ele>501.60000610352</ele>
        <time>2021-03-24T14:24:49.000Z</time>
      </trkpt>
      <trkpt lat="46.24228" lon="6.29741">
        <ele>500.79998779297</ele>
        <time>2021-03-24T14:24:51.000Z</time>
      </trkpt>
      <trkpt lat="46.24223" lon="6.29733">
        <ele>499.79998779297</ele>
        <time>2021-03-24T14:24:52.000Z</time>
      </trkpt>
      <trkpt lat="46.24206" lon="6.29709">
        <ele>497</ele>
        <time>2021-03-24T14:24:55.000Z</time>
      </trkpt>
      <trkpt lat="46.24169" lon="6.29654">
        <ele>497.20001220703</ele>
        <time>2021-03-24T14:25:02.000Z</time>
      </trkpt>
      <trkpt lat="46.24129" lon="6.29588">
        <ele>502</ele>
        <time>2021-03-24T14:25:10.000Z</time>
      </trkpt>
      <trkpt lat="46.24098" lon="6.29528">
        <ele>501</ele>
        <time>2021-03-24T14:25:17.000Z</time>
      </trkpt>
      <trkpt lat="46.24089" lon="6.29511">
        <ele>500</ele>
        <time>2021-03-24T14:25:19.000Z</time>
      </trkpt>
      <trkpt lat="46.24083" lon="6.2948">
        <ele>499.20001220703</ele>
        <time>2021-03-24T14:25:22.000Z</time>
      </trkpt>
      <trkpt lat="46.2408" lon="6.29461">
        <ele>499.20001220703</ele>
        <time>2021-03-24T14:25:24.000Z</time>
      </trkpt>
      <trkpt lat="46.24077" lon="6.29441">
        <ele>500</ele>
        <time>2021-03-24T14:25:26.000Z</time>
      </trkpt>
      <trkpt lat="46.24071" lon="6.29397">
        <ele>500</ele>
        <time>2021-03-24T14:25:31.000Z</time>
      </trkpt>
      <trkpt lat="46.24068" lon="6.29379">
        <ele>499.79998779297</ele>
        <time>2021-03-24T14:25:33.000Z</time>
      </trkpt>
      <trkpt lat="46.24056" lon="6.29306">
        <ele>499.20001220703</ele>
        <time>2021-03-24T14:25:41.000Z</time>
      </trkpt>
      <trkpt lat="46.24041" lon="6.2924">
        <ele>497.60000610352</ele>
        <time>2021-03-24T14:25:49.000Z</time>
      </trkpt>
      <trkpt lat="46.24024" lon="6.29168">
        <ele>494</ele>
        <time>2021-03-24T14:25:58.000Z</time>
      </trkpt>
      <trkpt lat="46.24004" lon="6.291">
        <ele>494.60000610352</ele>
        <time>2021-03-24T14:26:07.000Z</time>
      </trkpt>
      <trkpt lat="46.23982" lon="6.29052">
        <ele>495.39999389648</ele>
        <time>2021-03-24T14:26:14.000Z</time>
      </trkpt>
      <trkpt lat="46.23964" lon="6.29011">
        <ele>497.39999389648</ele>
        <time>2021-03-24T14:26:20.000Z</time>
      </trkpt>
      <trkpt lat="46.23955" lon="6.28959">
        <ele>498.79998779297</ele>
        <time>2021-03-24T14:26:27.000Z</time>
      </trkpt>
      <trkpt lat="46.23954" lon="6.28945">
        <ele>499</ele>
        <time>2021-03-24T14:26:29.000Z</time>
      </trkpt>
      <trkpt lat="46.23953" lon="6.28938">
        <ele>499</ele>
        <time>2021-03-24T14:26:30.000Z</time>
      </trkpt>
      <trkpt lat="46.23952" lon="6.2893">
        <ele>499.39999389648</ele>
        <time>2021-03-24T14:26:31.000Z</time>
      </trkpt>
      <trkpt lat="46.23954" lon="6.28904">
        <ele>499.60000610352</ele>
        <time>2021-03-24T14:26:34.000Z</time>
      </trkpt>
      <trkpt lat="46.23955" lon="6.28898">
        <ele>499.79998779297</ele>
        <time>2021-03-24T14:26:35.000Z</time>
      </trkpt>
      <trkpt lat="46.23962" lon="6.28839">
        <ele>500.79998779297</ele>
        <time>2021-03-24T14:26:42.000Z</time>
      </trkpt>
      <trkpt lat="46.23964" lon="6.28825">
        <ele>501</ele>
        <time>2021-03-24T14:26:44.000Z</time>
      </trkpt>
      <trkpt lat="46.23967" lon="6.28806">
        <ele>500.20001220703</ele>
        <time>2021-03-24T14:26:46.000Z</time>
      </trkpt>
      <trkpt lat="46.23968" lon="6.28798">
        <ele>500</ele>
        <time>2021-03-24T14:26:47.000Z</time>
      </trkpt>
      <trkpt lat="46.2397" lon="6.28774">
        <ele>499.20001220703</ele>
        <time>2021-03-24T14:26:50.000Z</time>
      </trkpt>
      <trkpt lat="46.23972" lon="6.28757">
        <ele>497.39999389648</ele>
        <time>2021-03-24T14:26:52.000Z</time>
      </trkpt>
      <trkpt lat="46.23978" lon="6.28698">
        <ele>495.60000610352</ele>
        <time>2021-03-24T14:26:59.000Z</time>
      </trkpt>
      <trkpt lat="46.23981" lon="6.28616">
        <ele>494.60000610352</ele>
        <time>2021-03-24T14:27:08.000Z</time>
      </trkpt>
      <trkpt lat="46.23979" lon="6.28531">
        <ele>491.39999389648</ele>
        <time>2021-03-24T14:27:17.000Z</time>
      </trkpt>
      <trkpt lat="46.23977" lon="6.28462">
        <ele>487.79998779297</ele>
        <time>2021-03-24T14:27:25.000Z</time>
      </trkpt>
      <trkpt lat="46.23969" lon="6.28412">
        <ele>487</ele>
        <time>2021-03-24T14:27:31.000Z</time>
      </trkpt>
      <trkpt lat="46.23947" lon="6.28335">
        <ele>486.60000610352</ele>
        <time>2021-03-24T14:27:40.000Z</time>
      </trkpt>
      <trkpt lat="46.23927" lon="6.28262">
        <ele>487</ele>
        <time>2021-03-24T14:27:49.000Z</time>
      </trkpt>
      <trkpt lat="46.23905" lon="6.28183">
        <ele>486</ele>
        <time>2021-03-24T14:27:58.000Z</time>
      </trkpt>
      <trkpt lat="46.23902" lon="6.28175">
        <ele>485.79998779297</ele>
        <time>2021-03-24T14:27:59.000Z</time>
      </trkpt>
      <trkpt lat="46.2388" lon="6.28099">
        <ele>485.79998779297</ele>
        <time>2021-03-24T14:28:08.000Z</time>
      </trkpt>
      <trkpt lat="46.23877" lon="6.28089">
        <ele>485.60000610352</ele>
        <time>2021-03-24T14:28:09.000Z</time>
      </trkpt>
      <trkpt lat="46.23865" lon="6.28042">
        <ele>484.39999389648</ele>
        <time>2021-03-24T14:28:15.000Z</time>
      </trkpt>
      <trkpt lat="46.23842" lon="6.27974">
        <ele>483.20001220703</ele>
        <time>2021-03-24T14:28:23.000Z</time>
      </trkpt>
      <trkpt lat="46.23821" lon="6.27912">
        <ele>484</ele>
        <time>2021-03-24T14:28:31.000Z</time>
      </trkpt>
      <trkpt lat="46.238" lon="6.27845">
        <ele>484.39999389648</ele>
        <time>2021-03-24T14:28:39.000Z</time>
      </trkpt>
      <trkpt lat="46.23788" lon="6.27784">
        <ele>485.60000610352</ele>
        <time>2021-03-24T14:28:46.000Z</time>
      </trkpt>
      <trkpt lat="46.23778" lon="6.27706">
        <ele>483.60000610352</ele>
        <time>2021-03-24T14:28:55.000Z</time>
      </trkpt>
      <trkpt lat="46.23777" lon="6.27695">
        <ele>483.20001220703</ele>
        <time>2021-03-24T14:28:56.000Z</time>
      </trkpt>
      <trkpt lat="46.23772" lon="6.2762">
        <ele>483</ele>
        <time>2021-03-24T14:29:05.000Z</time>
      </trkpt>
      <trkpt lat="46.23778" lon="6.27555">
        <ele>483.79998779297</ele>
        <time>2021-03-24T14:29:12.000Z</time>
      </trkpt>
      <trkpt lat="46.23786" lon="6.27494">
        <ele>483.39999389648</ele>
        <time>2021-03-24T14:29:19.000Z</time>
      </trkpt>
      <trkpt lat="46.23783" lon="6.27434">
        <ele>482.60000610352</ele>
        <time>2021-03-24T14:29:26.000Z</time>
      </trkpt>
      <trkpt lat="46.23774" lon="6.27395">
        <ele>482.39999389648</ele>
        <time>2021-03-24T14:29:31.000Z</time>
      </trkpt>
      <trkpt lat="46.23771" lon="6.27379">
        <ele>482</ele>
        <time>2021-03-24T14:29:33.000Z</time>
      </trkpt>
      <trkpt lat="46.23764" lon="6.2737">
        <ele>482</ele>
        <time>2021-03-24T14:29:35.000Z</time>
      </trkpt>
      <trkpt lat="46.23757" lon="6.27365">
        <ele>482</ele>
        <time>2021-03-24T14:29:36.000Z</time>
      </trkpt>
      <trkpt lat="46.23722" lon="6.27337">
        <ele>479.79998779297</ele>
        <time>2021-03-24T14:29:42.000Z</time>
      </trkpt>
      <trkpt lat="46.23703" lon="6.27323">
        <ele>478.60000610352</ele>
        <time>2021-03-24T14:29:45.000Z</time>
      </trkpt>
      <trkpt lat="46.23691" lon="6.27306">
        <ele>478.20001220703</ele>
        <time>2021-03-24T14:29:47.000Z</time>
      </trkpt>
      <trkpt lat="46.23671" lon="6.2726">
        <ele>478</ele>
        <time>2021-03-24T14:29:52.000Z</time>
      </trkpt>
      <trkpt lat="46.23659" lon="6.27204">
        <ele>477.60000610352</ele>
        <time>2021-03-24T14:29:58.000Z</time>
      </trkpt>
      <trkpt lat="46.23658" lon="6.27185">
        <ele>476.79998779297</ele>
        <time>2021-03-24T14:30:00.000Z</time>
      </trkpt>
      <trkpt lat="46.23657" lon="6.27169">
        <ele>476.79998779297</ele>
        <time>2021-03-24T14:30:02.000Z</time>
      </trkpt>
      <trkpt lat="46.23662" lon="6.27152">
        <ele>477</ele>
        <time>2021-03-24T14:30:04.000Z</time>
      </trkpt>
      <trkpt lat="46.23666" lon="6.27145">
        <ele>477.20001220703</ele>
        <time>2021-03-24T14:30:05.000Z</time>
      </trkpt>
      <trkpt lat="46.23701" lon="6.27116">
        <ele>479.79998779297</ele>
        <time>2021-03-24T14:30:12.000Z</time>
      </trkpt>
      <trkpt lat="46.23727" lon="6.27097">
        <ele>480.60000610352</ele>
        <time>2021-03-24T14:30:18.000Z</time>
      </trkpt>
      <trkpt lat="46.23741" lon="6.27087">
        <ele>480.60000610352</ele>
        <time>2021-03-24T14:30:23.000Z</time>
      </trkpt>
      <trkpt lat="46.23745" lon="6.27083">
        <ele>480.39999389648</ele>
        <time>2021-03-24T14:30:25.000Z</time>
      </trkpt>
      <trkpt lat="46.23744" lon="6.27075">
        <ele>480</ele>
        <time>2021-03-24T14:30:26.000Z</time>
      </trkpt>
      <trkpt lat="46.23743" lon="6.27071">
        <ele>479.60000610352</ele>
        <time>2021-03-24T14:30:27.000Z</time>
      </trkpt>
      <trkpt lat="46.23734" lon="6.27046">
        <ele>477.79998779297</ele>
        <time>2021-03-24T14:30:31.000Z</time>
      </trkpt>
      <trkpt lat="46.23712" lon="6.26999">
        <ele>477</ele>
        <time>2021-03-24T14:30:38.000Z</time>
      </trkpt>
      <trkpt lat="46.23688" lon="6.26947">
        <ele>476.39999389648</ele>
        <time>2021-03-24T14:30:46.000Z</time>
      </trkpt>
      <trkpt lat="46.23676" lon="6.2692">
        <ele>475</ele>
        <time>2021-03-24T14:30:50.000Z</time>
      </trkpt>
      <trkpt lat="46.2367" lon="6.26905">
        <ele>474.20001220703</ele>
        <time>2021-03-24T14:30:52.000Z</time>
      </trkpt>
      <trkpt lat="46.23647" lon="6.26852">
        <ele>472</ele>
        <time>2021-03-24T14:30:59.000Z</time>
      </trkpt>
      <trkpt lat="46.23626" lon="6.26806">
        <ele>471.79998779297</ele>
        <time>2021-03-24T14:31:05.000Z</time>
      </trkpt>
      <trkpt lat="46.2362" lon="6.26792">
        <ele>472</ele>
        <time>2021-03-24T14:31:07.000Z</time>
      </trkpt>
      <trkpt lat="46.23609" lon="6.26773">
        <ele>472</ele>
        <time>2021-03-24T14:31:10.000Z</time>
      </trkpt>
      <trkpt lat="46.23575" lon="6.26719">
        <ele>474</ele>
        <time>2021-03-24T14:31:19.000Z</time>
      </trkpt>
      <trkpt lat="46.23564" lon="6.26701">
        <ele>474.60000610352</ele>
        <time>2021-03-24T14:31:22.000Z</time>
      </trkpt>
      <trkpt lat="46.23554" lon="6.26682">
        <ele>475.20001220703</ele>
        <time>2021-03-24T14:31:25.000Z</time>
      </trkpt>
      <trkpt lat="46.23543" lon="6.26656">
        <ele>474.39999389648</ele>
        <time>2021-03-24T14:31:29.000Z</time>
      </trkpt>
      <trkpt lat="46.23538" lon="6.26642">
        <ele>473.60000610352</ele>
        <time>2021-03-24T14:31:31.000Z</time>
      </trkpt>
      <trkpt lat="46.23532" lon="6.26626">
        <ele>473</ele>
        <time>2021-03-24T14:31:33.000Z</time>
      </trkpt>
      <trkpt lat="46.23527" lon="6.26613">
        <ele>473.20001220703</ele>
        <time>2021-03-24T14:31:35.000Z</time>
      </trkpt>
      <trkpt lat="46.23516" lon="6.26579">
        <ele>474</ele>
        <time>2021-03-24T14:31:40.000Z</time>
      </trkpt>
      <trkpt lat="46.23513" lon="6.26572">
        <ele>473.79998779297</ele>
        <time>2021-03-24T14:31:41.000Z</time>
      </trkpt>
      <trkpt lat="46.23489" lon="6.26545">
        <ele>473</ele>
        <time>2021-03-24T14:31:46.000Z</time>
      </trkpt>
      <trkpt lat="46.23486" lon="6.26542">
        <ele>473</ele>
        <time>2021-03-24T14:31:47.000Z</time>
      </trkpt>
      <trkpt lat="46.23476" lon="6.26532">
        <ele>473</ele>
        <time>2021-03-24T14:31:49.000Z</time>
      </trkpt>
      <trkpt lat="46.23472" lon="6.2653">
        <ele>473</ele>
        <time>2021-03-24T14:31:50.000Z</time>
      </trkpt>
      <trkpt lat="46.23467" lon="6.26527">
        <ele>473</ele>
        <time>2021-03-24T14:31:51.000Z</time>
      </trkpt>
      <trkpt lat="46.23458" lon="6.26523">
        <ele>472.60000610352</ele>
        <time>2021-03-24T14:31:53.000Z</time>
      </trkpt>
      <trkpt lat="46.2345" lon="6.26518">
        <ele>472</ele>
        <time>2021-03-24T14:31:54.000Z</time>
      </trkpt>
      <trkpt lat="46.2341" lon="6.26498">
        <ele>468.20001220703</ele>
        <time>2021-03-24T14:32:00.000Z</time>
      </trkpt>
      <trkpt lat="46.23367" lon="6.26472">
        <ele>467.60000610352</ele>
        <time>2021-03-24T14:32:07.000Z</time>
      </trkpt>
      <trkpt lat="46.23357" lon="6.26459">
        <ele>468.20001220703</ele>
        <time>2021-03-24T14:32:09.000Z</time>
      </trkpt>
      <trkpt lat="46.23348" lon="6.26445">
        <ele>468.79998779297</ele>
        <time>2021-03-24T14:32:11.000Z</time>
      </trkpt>
      <trkpt lat="46.23343" lon="6.26428">
        <ele>469</ele>
        <time>2021-03-24T14:32:13.000Z</time>
      </trkpt>
      <trkpt lat="46.23341" lon="6.26411">
        <ele>469</ele>
        <time>2021-03-24T14:32:15.000Z</time>
      </trkpt>
      <trkpt lat="46.23335" lon="6.26374">
        <ele>470</ele>
        <time>2021-03-24T14:32:20.000Z</time>
      </trkpt>
      <trkpt lat="46.23334" lon="6.26369">
        <ele>470</ele>
        <time>2021-03-24T14:32:21.000Z</time>
      </trkpt>
      <trkpt lat="46.23331" lon="6.26365">
        <ele>470</ele>
        <time>2021-03-24T14:32:22.000Z</time>
      </trkpt>
      <trkpt lat="46.23324" lon="6.26356">
        <ele>470</ele>
        <time>2021-03-24T14:32:24.000Z</time>
      </trkpt>
      <trkpt lat="46.23317" lon="6.26346">
        <ele>469.60000610352</ele>
        <time>2021-03-24T14:32:26.000Z</time>
      </trkpt>
      <trkpt lat="46.23289" lon="6.26314">
        <ele>468.60000610352</ele>
        <time>2021-03-24T14:32:33.000Z</time>
      </trkpt>
      <trkpt lat="46.2328" lon="6.26304">
        <ele>468.20001220703</ele>
        <time>2021-03-24T14:32:35.000Z</time>
      </trkpt>
      <trkpt lat="46.23246" lon="6.26285">
        <ele>468</ele>
        <time>2021-03-24T14:32:42.000Z</time>
      </trkpt>
      <trkpt lat="46.23233" lon="6.26274">
        <ele>468</ele>
        <time>2021-03-24T14:32:45.000Z</time>
      </trkpt>
      <trkpt lat="46.23228" lon="6.26268">
        <ele>467.79998779297</ele>
        <time>2021-03-24T14:32:47.000Z</time>
      </trkpt>
      <trkpt lat="46.23228" lon="6.26254">
        <ele>467.39999389648</ele>
        <time>2021-03-24T14:32:49.000Z</time>
      </trkpt>
      <trkpt lat="46.2323" lon="6.26246">
        <ele>467</ele>
        <time>2021-03-24T14:32:50.000Z</time>
      </trkpt>
      <trkpt lat="46.23241" lon="6.26203">
        <ele>465.20001220703</ele>
        <time>2021-03-24T14:32:55.000Z</time>
      </trkpt>
      <trkpt lat="46.23255" lon="6.26147">
        <ele>462.60000610352</ele>
        <time>2021-03-24T14:33:01.000Z</time>
      </trkpt>
      <trkpt lat="46.23275" lon="6.26068">
        <ele>462.39999389648</ele>
        <time>2021-03-24T14:33:10.000Z</time>
      </trkpt>
      <trkpt lat="46.23278" lon="6.26059">
        <ele>462.79998779297</ele>
        <time>2021-03-24T14:33:11.000Z</time>
      </trkpt>
      <trkpt lat="46.23297" lon="6.25984">
        <ele>463</ele>
        <time>2021-03-24T14:33:20.000Z</time>
      </trkpt>
      <trkpt lat="46.23299" lon="6.25977">
        <ele>463</ele>
        <time>2021-03-24T14:33:21.000Z</time>
      </trkpt>
      <trkpt lat="46.23315" lon="6.25915">
        <ele>461.60000610352</ele>
        <time>2021-03-24T14:33:29.000Z</time>
      </trkpt>
      <trkpt lat="46.23319" lon="6.259">
        <ele>461</ele>
        <time>2021-03-24T14:33:31.000Z</time>
      </trkpt>
      <trkpt lat="46.23322" lon="6.25887">
        <ele>461</ele>
        <time>2021-03-24T14:33:33.000Z</time>
      </trkpt>
      <trkpt lat="46.23311" lon="6.25878">
        <ele>461</ele>
        <time>2021-03-24T14:33:35.000Z</time>
      </trkpt>
      <trkpt lat="46.23304" lon="6.25874">
        <ele>461</ele>
        <time>2021-03-24T14:33:36.000Z</time>
      </trkpt>
      <trkpt lat="46.23267" lon="6.25854">
        <ele>460.20001220703</ele>
        <time>2021-03-24T14:33:43.000Z</time>
      </trkpt>
      <trkpt lat="46.23222" lon="6.2583">
        <ele>461</ele>
        <time>2021-03-24T14:33:51.000Z</time>
      </trkpt>
      <trkpt lat="46.23181" lon="6.25808">
        <ele>461.39999389648</ele>
        <time>2021-03-24T14:33:59.000Z</time>
      </trkpt>
      <trkpt lat="46.23133" lon="6.25782">
        <ele>464.39999389648</ele>
        <time>2021-03-24T14:34:09.000Z</time>
      </trkpt>
      <trkpt lat="46.23095" lon="6.25762">
        <ele>466</ele>
        <time>2021-03-24T14:34:17.000Z</time>
      </trkpt>
      <trkpt lat="46.23061" lon="6.25744">
        <ele>466</ele>
        <time>2021-03-24T14:34:24.000Z</time>
      </trkpt>
      <trkpt lat="46.23041" lon="6.25733">
        <ele>466.20001220703</ele>
        <time>2021-03-24T14:34:30.000Z</time>
      </trkpt>
      <trkpt lat="46.23039" lon="6.25718">
        <ele>466.39999389648</ele>
        <time>2021-03-24T14:34:33.000Z</time>
      </trkpt>
      <trkpt lat="46.2304" lon="6.25712">
        <ele>466.39999389648</ele>
        <time>2021-03-24T14:34:34.000Z</time>
      </trkpt>
      <trkpt lat="46.23043" lon="6.25685">
        <ele>465.39999389648</ele>
        <time>2021-03-24T14:34:38.000Z</time>
      </trkpt>
      <trkpt lat="46.23046" lon="6.25658">
        <ele>463</ele>
        <time>2021-03-24T14:34:41.000Z</time>
      </trkpt>
      <trkpt lat="46.23048" lon="6.25636">
        <ele>462.20001220703</ele>
        <time>2021-03-24T14:34:43.000Z</time>
      </trkpt>
      <trkpt lat="46.23052" lon="6.25608">
        <ele>460.79998779297</ele>
        <time>2021-03-24T14:34:46.000Z</time>
      </trkpt>
      <trkpt lat="46.23057" lon="6.25594">
        <ele>460</ele>
        <time>2021-03-24T14:34:48.000Z</time>
      </trkpt>
      <trkpt lat="46.2306" lon="6.25586">
        <ele>459.39999389648</ele>
        <time>2021-03-24T14:34:49.000Z</time>
      </trkpt>
      <trkpt lat="46.23065" lon="6.25572">
        <ele>458.60000610352</ele>
        <time>2021-03-24T14:34:51.000Z</time>
      </trkpt>
      <trkpt lat="46.23053" lon="6.25562">
        <ele>459.20001220703</ele>
        <time>2021-03-24T14:34:53.000Z</time>
      </trkpt>
      <trkpt lat="46.23048" lon="6.25559">
        <ele>459.39999389648</ele>
        <time>2021-03-24T14:34:54.000Z</time>
      </trkpt>
      <trkpt lat="46.23019" lon="6.25543">
        <ele>460.79998779297</ele>
        <time>2021-03-24T14:35:01.000Z</time>
      </trkpt>
      <trkpt lat="46.22981" lon="6.25521">
        <ele>460.60000610352</ele>
        <time>2021-03-24T14:35:09.000Z</time>
      </trkpt>
      <trkpt lat="46.22939" lon="6.25496">
        <ele>459</ele>
        <time>2021-03-24T14:35:17.000Z</time>
      </trkpt>
      <trkpt lat="46.22899" lon="6.25464">
        <ele>458.39999389648</ele>
        <time>2021-03-24T14:35:25.000Z</time>
      </trkpt>
      <trkpt lat="46.22851" lon="6.25426">
        <ele>459</ele>
        <time>2021-03-24T14:35:34.000Z</time>
      </trkpt>
      <trkpt lat="46.22827" lon="6.25406">
        <ele>458</ele>
        <time>2021-03-24T14:35:39.000Z</time>
      </trkpt>
      <trkpt lat="46.22815" lon="6.25396">
        <ele>456.60000610352</ele>
        <time>2021-03-24T14:35:43.000Z</time>
      </trkpt>
      <trkpt lat="46.22811" lon="6.25391">
        <ele>456.20001220703</ele>
        <time>2021-03-24T14:35:44.000Z</time>
      </trkpt>
      <trkpt lat="46.22805" lon="6.25383">
        <ele>455.39999389648</ele>
        <time>2021-03-24T14:35:46.000Z</time>
      </trkpt>
      <trkpt lat="46.22792" lon="6.25367">
        <ele>455</ele>
        <time>2021-03-24T14:35:49.000Z</time>
      </trkpt>
      <trkpt lat="46.22765" lon="6.25332">
        <ele>454.20001220703</ele>
        <time>2021-03-24T14:35:55.000Z</time>
      </trkpt>
      <trkpt lat="46.22738" lon="6.25292">
        <ele>453.79998779297</ele>
        <time>2021-03-24T14:36:01.000Z</time>
      </trkpt>
      <trkpt lat="46.22723" lon="6.25244">
        <ele>453</ele>
        <time>2021-03-24T14:36:07.000Z</time>
      </trkpt>
      <trkpt lat="46.22716" lon="6.25223">
        <ele>452.20001220703</ele>
        <time>2021-03-24T14:36:09.000Z</time>
      </trkpt>
      <trkpt lat="46.2271" lon="6.25198">
        <ele>451.60000610352</ele>
        <time>2021-03-24T14:36:12.000Z</time>
      </trkpt>
      <trkpt lat="46.22707" lon="6.25182">
        <ele>451.39999389648</ele>
        <time>2021-03-24T14:36:14.000Z</time>
      </trkpt>
      <trkpt lat="46.22701" lon="6.25167">
        <ele>450.79998779297</ele>
        <time>2021-03-24T14:36:16.000Z</time>
      </trkpt>
      <trkpt lat="46.22698" lon="6.2516">
        <ele>450.39999389648</ele>
        <time>2021-03-24T14:36:17.000Z</time>
      </trkpt>
      <trkpt lat="46.22667" lon="6.2509">
        <ele>451</ele>
        <time>2021-03-24T14:36:26.000Z</time>
      </trkpt>
      <trkpt lat="46.22644" lon="6.25034">
        <ele>450</ele>
        <time>2021-03-24T14:36:32.000Z</time>
      </trkpt>
      <trkpt lat="46.22615" lon="6.24968">
        <ele>447.20001220703</ele>
        <time>2021-03-24T14:36:39.000Z</time>
      </trkpt>
      <trkpt lat="46.22588" lon="6.24918">
        <ele>446.60000610352</ele>
        <time>2021-03-24T14:36:46.000Z</time>
      </trkpt>
      <trkpt lat="46.22581" lon="6.24912">
        <ele>446.79998779297</ele>
        <time>2021-03-24T14:36:49.000Z</time>
      </trkpt>
      <trkpt lat="46.22571" lon="6.24909">
        <ele>447</ele>
        <time>2021-03-24T14:36:52.000Z</time>
      </trkpt>
      <trkpt lat="46.22566" lon="6.24912">
        <ele>447</ele>
        <time>2021-03-24T14:36:53.000Z</time>
      </trkpt>
      <trkpt lat="46.22533" lon="6.24934">
        <ele>446.39999389648</ele>
        <time>2021-03-24T14:37:00.000Z</time>
      </trkpt>
      <trkpt lat="46.2248" lon="6.24968">
        <ele>445.20001220703</ele>
        <time>2021-03-24T14:37:10.000Z</time>
      </trkpt>
      <trkpt lat="46.2247" lon="6.24975">
        <ele>445.60000610352</ele>
        <time>2021-03-24T14:37:12.000Z</time>
      </trkpt>
      <trkpt lat="46.22421" lon="6.25008">
        <ele>449.39999389648</ele>
        <time>2021-03-24T14:37:22.000Z</time>
      </trkpt>
      <trkpt lat="46.22415" lon="6.25012">
        <ele>449.39999389648</ele>
        <time>2021-03-24T14:37:23.000Z</time>
      </trkpt>
      <trkpt lat="46.22365" lon="6.25046">
        <ele>447.20001220703</ele>
        <time>2021-03-24T14:37:32.000Z</time>
      </trkpt>
      <trkpt lat="46.22315" lon="6.25079">
        <ele>446.39999389648</ele>
        <time>2021-03-24T14:37:41.000Z</time>
      </trkpt>
      <trkpt lat="46.22266" lon="6.25112">
        <ele>447.79998779297</ele>
        <time>2021-03-24T14:37:50.000Z</time>
      </trkpt>
      <trkpt lat="46.22219" lon="6.25142">
        <ele>446.60000610352</ele>
        <time>2021-03-24T14:37:59.000Z</time>
      </trkpt>
      <trkpt lat="46.22195" lon="6.25158">
        <ele>447</ele>
        <time>2021-03-24T14:38:05.000Z</time>
      </trkpt>
      <trkpt lat="46.22171" lon="6.25175">
        <ele>448.20001220703</ele>
        <time>2021-03-24T14:38:12.000Z</time>
      </trkpt>
      <trkpt lat="46.22164" lon="6.2518">
        <ele>448.60000610352</ele>
        <time>2021-03-24T14:38:14.000Z</time>
      </trkpt>
      <trkpt lat="46.22151" lon="6.25189">
        <ele>449.39999389648</ele>
        <time>2021-03-24T14:38:17.000Z</time>
      </trkpt>
      <trkpt lat="46.22121" lon="6.25209">
        <ele>450.39999389648</ele>
        <time>2021-03-24T14:38:22.000Z</time>
      </trkpt>
      <trkpt lat="46.22081" lon="6.25237">
        <ele>450</ele>
        <time>2021-03-24T14:38:30.000Z</time>
      </trkpt>
      <trkpt lat="46.22059" lon="6.25252">
        <ele>450.39999389648</ele>
        <time>2021-03-24T14:38:35.000Z</time>
      </trkpt>
      <trkpt lat="46.2205" lon="6.25257">
        <ele>450.60000610352</ele>
        <time>2021-03-24T14:38:37.000Z</time>
      </trkpt>
      <trkpt lat="46.22015" lon="6.25281">
        <ele>449.60000610352</ele>
        <time>2021-03-24T14:38:46.000Z</time>
      </trkpt>
      <trkpt lat="46.21976" lon="6.25307">
        <ele>451.20001220703</ele>
        <time>2021-03-24T14:38:56.000Z</time>
      </trkpt>
      <trkpt lat="46.21944" lon="6.25329">
        <ele>452.79998779297</ele>
        <time>2021-03-24T14:39:05.000Z</time>
      </trkpt>
      <trkpt lat="46.21931" lon="6.25346">
        <ele>453</ele>
        <time>2021-03-24T14:39:10.000Z</time>
      </trkpt>
      <trkpt lat="46.21921" lon="6.25373">
        <ele>454.79998779297</ele>
        <time>2021-03-24T14:39:15.000Z</time>
      </trkpt>
      <trkpt lat="46.21919" lon="6.25378">
        <ele>455.20001220703</ele>
        <time>2021-03-24T14:39:16.000Z</time>
      </trkpt>
      <trkpt lat="46.21915" lon="6.25389">
        <ele>455.79998779297</ele>
        <time>2021-03-24T14:39:18.000Z</time>
      </trkpt>
      <trkpt lat="46.21916" lon="6.25409">
        <ele>455.79998779297</ele>
        <time>2021-03-24T14:39:21.000Z</time>
      </trkpt>
      <trkpt lat="46.21917" lon="6.25421">
        <ele>456.39999389648</ele>
        <time>2021-03-24T14:39:23.000Z</time>
      </trkpt>
      <trkpt lat="46.21919" lon="6.25446">
        <ele>458.20001220703</ele>
        <time>2021-03-24T14:39:27.000Z</time>
      </trkpt>
      <trkpt lat="46.21921" lon="6.25465">
        <ele>459.60000610352</ele>
        <time>2021-03-24T14:39:30.000Z</time>
      </trkpt>
      <trkpt lat="46.21925" lon="6.25483">
        <ele>461.20001220703</ele>
        <time>2021-03-24T14:39:33.000Z</time>
      </trkpt>
      <trkpt lat="46.21949" lon="6.2551">
        <ele>461.79998779297</ele>
        <time>2021-03-24T14:39:40.000Z</time>
      </trkpt>
      <trkpt lat="46.21971" lon="6.2554">
        <ele>462</ele>
        <time>2021-03-24T14:39:48.000Z</time>
      </trkpt>
      <trkpt lat="46.21978" lon="6.25561">
        <ele>462.79998779297</ele>
        <time>2021-03-24T14:39:53.000Z</time>
      </trkpt>
      <trkpt lat="46.21982" lon="6.25577">
        <ele>463.39999389648</ele>
        <time>2021-03-24T14:39:58.000Z</time>
      </trkpt>
      <trkpt lat="46.21981" lon="6.25603">
        <ele>464.20001220703</ele>
        <time>2021-03-24T14:40:03.000Z</time>
      </trkpt>
      <trkpt lat="46.21977" lon="6.25624">
        <ele>464.60000610352</ele>
        <time>2021-03-24T14:40:08.000Z</time>
      </trkpt>
      <trkpt lat="46.21971" lon="6.25652">
        <ele>465.39999389648</ele>
        <time>2021-03-24T14:40:15.000Z</time>
      </trkpt>
      <trkpt lat="46.21964" lon="6.25677">
        <ele>466</ele>
        <time>2021-03-24T14:40:21.000Z</time>
      </trkpt>
      <trkpt lat="46.21959" lon="6.25698">
        <ele>466.60000610352</ele>
        <time>2021-03-24T14:40:26.000Z</time>
      </trkpt>
      <trkpt lat="46.21952" lon="6.25722">
        <ele>467.39999389648</ele>
        <time>2021-03-24T14:40:32.000Z</time>
      </trkpt>
      <trkpt lat="46.21945" lon="6.25748">
        <ele>468.20001220703</ele>
        <time>2021-03-24T14:40:38.000Z</time>
      </trkpt>
      <trkpt lat="46.21936" lon="6.2578">
        <ele>469.39999389648</ele>
        <time>2021-03-24T14:40:45.000Z</time>
      </trkpt>
      <trkpt lat="46.21929" lon="6.25808">
        <ele>470.60000610352</ele>
        <time>2021-03-24T14:40:51.000Z</time>
      </trkpt>
      <trkpt lat="46.2192" lon="6.25837">
        <ele>471.60000610352</ele>
        <time>2021-03-24T14:40:58.000Z</time>
      </trkpt>
      <trkpt lat="46.21906" lon="6.25871">
        <ele>473.79998779297</ele>
        <time>2021-03-24T14:41:05.000Z</time>
      </trkpt>
      <trkpt lat="46.21896" lon="6.25896">
        <ele>475.79998779297</ele>
        <time>2021-03-24T14:41:11.000Z</time>
      </trkpt>
      <trkpt lat="46.21895" lon="6.259">
        <ele>476.20001220703</ele>
        <time>2021-03-24T14:41:12.000Z</time>
      </trkpt>
      <trkpt lat="46.21882" lon="6.25917">
        <ele>478</ele>
        <time>2021-03-24T14:41:17.000Z</time>
      </trkpt>
      <trkpt lat="46.21872" lon="6.25928">
        <ele>478.39999389648</ele>
        <time>2021-03-24T14:41:20.000Z</time>
      </trkpt>
      <trkpt lat="46.21863" lon="6.25935">
        <ele>478.20001220703</ele>
        <time>2021-03-24T14:41:23.000Z</time>
      </trkpt>
      <trkpt lat="46.21842" lon="6.25949">
        <ele>477.20001220703</ele>
        <time>2021-03-24T14:41:28.000Z</time>
      </trkpt>
      <trkpt lat="46.21829" lon="6.25969">
        <ele>476</ele>
        <time>2021-03-24T14:41:32.000Z</time>
      </trkpt>
      <trkpt lat="46.21819" lon="6.25997">
        <ele>475.20001220703</ele>
        <time>2021-03-24T14:41:37.000Z</time>
      </trkpt>
      <trkpt lat="46.21801" lon="6.26046">
        <ele>476.79998779297</ele>
        <time>2021-03-24T14:41:45.000Z</time>
      </trkpt>
      <trkpt lat="46.21799" lon="6.26052">
        <ele>477</ele>
        <time>2021-03-24T14:41:46.000Z</time>
      </trkpt>
      <trkpt lat="46.21797" lon="6.26062">
        <ele>477.39999389648</ele>
        <time>2021-03-24T14:41:48.000Z</time>
      </trkpt>
      <trkpt lat="46.21794" lon="6.26075">
        <ele>478</ele>
        <time>2021-03-24T14:41:50.000Z</time>
      </trkpt>
      <trkpt lat="46.21791" lon="6.26088">
        <ele>478</ele>
        <time>2021-03-24T14:41:52.000Z</time>
      </trkpt>
      <trkpt lat="46.21779" lon="6.26142">
        <ele>477.39999389648</ele>
        <time>2021-03-24T14:42:00.000Z</time>
      </trkpt>
      <trkpt lat="46.2176" lon="6.26209">
        <ele>476.79998779297</ele>
        <time>2021-03-24T14:42:10.000Z</time>
      </trkpt>
      <trkpt lat="46.21743" lon="6.26266">
        <ele>477</ele>
        <time>2021-03-24T14:42:18.000Z</time>
      </trkpt>
      <trkpt lat="46.21736" lon="6.26298">
        <ele>476.20001220703</ele>
        <time>2021-03-24T14:42:23.000Z</time>
      </trkpt>
      <trkpt lat="46.21731" lon="6.26321">
        <ele>477</ele>
        <time>2021-03-24T14:42:28.000Z</time>
      </trkpt>
      <trkpt lat="46.21722" lon="6.26368">
        <ele>477.79998779297</ele>
        <time>2021-03-24T14:42:35.000Z</time>
      </trkpt>
      <trkpt lat="46.21723" lon="6.26415">
        <ele>478.79998779297</ele>
        <time>2021-03-24T14:42:41.000Z</time>
      </trkpt>
      <trkpt lat="46.21726" lon="6.26496">
        <ele>477</ele>
        <time>2021-03-24T14:42:51.000Z</time>
      </trkpt>
      <trkpt lat="46.21735" lon="6.26565">
        <ele>476.79998779297</ele>
        <time>2021-03-24T14:43:00.000Z</time>
      </trkpt>
      <trkpt lat="46.21738" lon="6.26574">
        <ele>476.79998779297</ele>
        <time>2021-03-24T14:43:01.000Z</time>
      </trkpt>
      <trkpt lat="46.21744" lon="6.26592">
        <ele>477.39999389648</ele>
        <time>2021-03-24T14:43:04.000Z</time>
      </trkpt>
      <trkpt lat="46.21749" lon="6.26607">
        <ele>477.79998779297</ele>
        <time>2021-03-24T14:43:06.000Z</time>
      </trkpt>
      <trkpt lat="46.21753" lon="6.2662">
        <ele>478.20001220703</ele>
        <time>2021-03-24T14:43:08.000Z</time>
      </trkpt>
      <trkpt lat="46.21746" lon="6.26629">
        <ele>478.79998779297</ele>
        <time>2021-03-24T14:43:10.000Z</time>
      </trkpt>
      <trkpt lat="46.21742" lon="6.26635">
        <ele>479</ele>
        <time>2021-03-24T14:43:11.000Z</time>
      </trkpt>
      <trkpt lat="46.21737" lon="6.26641">
        <ele>479.39999389648</ele>
        <time>2021-03-24T14:43:12.000Z</time>
      </trkpt>
      <trkpt lat="46.21714" lon="6.26654">
        <ele>480.79998779297</ele>
        <time>2021-03-24T14:43:16.000Z</time>
      </trkpt>
      <trkpt lat="46.21686" lon="6.26666">
        <ele>481.20001220703</ele>
        <time>2021-03-24T14:43:21.000Z</time>
      </trkpt>
      <trkpt lat="46.21659" lon="6.26678">
        <ele>480.60000610352</ele>
        <time>2021-03-24T14:43:26.000Z</time>
      </trkpt>
      <trkpt lat="46.21653" lon="6.2668">
        <ele>480.39999389648</ele>
        <time>2021-03-24T14:43:27.000Z</time>
      </trkpt>
      <trkpt lat="46.21644" lon="6.26684">
        <ele>480.20001220703</ele>
        <time>2021-03-24T14:43:29.000Z</time>
      </trkpt>
      <trkpt lat="46.2164" lon="6.26689">
        <ele>480.39999389648</ele>
        <time>2021-03-24T14:43:30.000Z</time>
      </trkpt>
      <trkpt lat="46.2163" lon="6.26708">
        <ele>480.79998779297</ele>
        <time>2021-03-24T14:43:34.000Z</time>
      </trkpt>
      <trkpt lat="46.21629" lon="6.2671">
        <ele>480.79998779297</ele>
        <time>2021-03-24T14:43:35.000Z</time>
      </trkpt>
      <trkpt lat="46.2162" lon="6.26706">
        <ele>480.20001220703</ele>
        <time>2021-03-24T14:43:37.000Z</time>
      </trkpt>
      <trkpt lat="46.21603" lon="6.26689">
        <ele>479.20001220703</ele>
        <time>2021-03-24T14:43:42.000Z</time>
      </trkpt>
      <trkpt lat="46.21599" lon="6.26685">
        <ele>479.79998779297</ele>
        <time>2021-03-24T14:43:43.000Z</time>
      </trkpt>
      <trkpt lat="46.21586" lon="6.26672">
        <ele>481.39999389648</ele>
        <time>2021-03-24T14:43:47.000Z</time>
      </trkpt>
      <trkpt lat="46.21583" lon="6.26669">
        <ele>482</ele>
        <time>2021-03-24T14:43:48.000Z</time>
      </trkpt>
      <trkpt lat="46.21563" lon="6.26645">
        <ele>482.79998779297</ele>
        <time>2021-03-24T14:43:53.000Z</time>
      </trkpt>
      <trkpt lat="46.21559" lon="6.2664">
        <ele>482.79998779297</ele>
        <time>2021-03-24T14:43:54.000Z</time>
      </trkpt>
      <trkpt lat="46.21552" lon="6.26631">
        <ele>482.60000610352</ele>
        <time>2021-03-24T14:43:56.000Z</time>
      </trkpt>
      <trkpt lat="46.21549" lon="6.26626">
        <ele>482.60000610352</ele>
        <time>2021-03-24T14:43:57.000Z</time>
      </trkpt>
      <trkpt lat="46.21547" lon="6.26615">
        <ele>482.39999389648</ele>
        <time>2021-03-24T14:43:58.000Z</time>
      </trkpt>
      <trkpt lat="46.21545" lon="6.26602">
        <ele>482</ele>
        <time>2021-03-24T14:44:00.000Z</time>
      </trkpt>
      <trkpt lat="46.21545" lon="6.26598">
        <ele>481.60000610352</ele>
        <time>2021-03-24T14:44:01.000Z</time>
      </trkpt>
      <trkpt lat="46.21541" lon="6.26572">
        <ele>480.20001220703</ele>
        <time>2021-03-24T14:44:05.000Z</time>
      </trkpt>
      <trkpt lat="46.2154" lon="6.26558">
        <ele>480</ele>
        <time>2021-03-24T14:44:07.000Z</time>
      </trkpt>
      <trkpt lat="46.21538" lon="6.26545">
        <ele>479.60000610352</ele>
        <time>2021-03-24T14:44:09.000Z</time>
      </trkpt>
      <trkpt lat="46.21536" lon="6.26538">
        <ele>479.39999389648</ele>
        <time>2021-03-24T14:44:10.000Z</time>
      </trkpt>
      <trkpt lat="46.2153" lon="6.2652">
        <ele>479.60000610352</ele>
        <time>2021-03-24T14:44:13.000Z</time>
      </trkpt>
      <trkpt lat="46.21519" lon="6.26491">
        <ele>479</ele>
        <time>2021-03-24T14:44:18.000Z</time>
      </trkpt>
      <trkpt lat="46.21507" lon="6.26465">
        <ele>478.79998779297</ele>
        <time>2021-03-24T14:44:22.000Z</time>
      </trkpt>
      <trkpt lat="46.21497" lon="6.26449">
        <ele>479</ele>
        <time>2021-03-24T14:44:25.000Z</time>
      </trkpt>
      <trkpt lat="46.21494" lon="6.26445">
        <ele>479.20001220703</ele>
        <time>2021-03-24T14:44:26.000Z</time>
      </trkpt>
      <trkpt lat="46.21473" lon="6.26413">
        <ele>479</ele>
        <time>2021-03-24T14:44:32.000Z</time>
      </trkpt>
      <trkpt lat="46.21455" lon="6.26396">
        <ele>479.20001220703</ele>
        <time>2021-03-24T14:44:36.000Z</time>
      </trkpt>
      <trkpt lat="46.2145" lon="6.26394">
        <ele>479</ele>
        <time>2021-03-24T14:44:37.000Z</time>
      </trkpt>
      <trkpt lat="46.2141" lon="6.26373">
        <ele>479</ele>
        <time>2021-03-24T14:44:45.000Z</time>
      </trkpt>
      <trkpt lat="46.21376" lon="6.26356">
        <ele>478.79998779297</ele>
        <time>2021-03-24T14:44:53.000Z</time>
      </trkpt>
      <trkpt lat="46.2137" lon="6.26353">
        <ele>478.60000610352</ele>
        <time>2021-03-24T14:44:54.000Z</time>
      </trkpt>
      <trkpt lat="46.21337" lon="6.26341">
        <ele>479</ele>
        <time>2021-03-24T14:45:01.000Z</time>
      </trkpt>
      <trkpt lat="46.21295" lon="6.26326">
        <ele>480.20001220703</ele>
        <time>2021-03-24T14:45:10.000Z</time>
      </trkpt>
      <trkpt lat="46.21285" lon="6.26323">
        <ele>480.60000610352</ele>
        <time>2021-03-24T14:45:12.000Z</time>
      </trkpt>
      <trkpt lat="46.21277" lon="6.2632">
        <ele>481</ele>
        <time>2021-03-24T14:45:14.000Z</time>
      </trkpt>
      <trkpt lat="46.21278" lon="6.26308">
        <ele>481.39999389648</ele>
        <time>2021-03-24T14:45:16.000Z</time>
      </trkpt>
      <trkpt lat="46.21279" lon="6.26301">
        <ele>481.60000610352</ele>
        <time>2021-03-24T14:45:17.000Z</time>
      </trkpt>
      <trkpt lat="46.21285" lon="6.26266">
        <ele>482.39999389648</ele>
        <time>2021-03-24T14:45:23.000Z</time>
      </trkpt>
      <trkpt lat="46.21286" lon="6.26258">
        <ele>482.39999389648</ele>
        <time>2021-03-24T14:45:24.000Z</time>
      </trkpt>
      <trkpt lat="46.21289" lon="6.26211">
        <ele>483.20001220703</ele>
        <time>2021-03-24T14:45:31.000Z</time>
      </trkpt>
      <trkpt lat="46.21293" lon="6.26128">
        <ele>483</ele>
        <time>2021-03-24T14:45:42.000Z</time>
      </trkpt>
      <trkpt lat="46.21293" lon="6.26063">
        <ele>483.20001220703</ele>
        <time>2021-03-24T14:45:50.000Z</time>
      </trkpt>
      <trkpt lat="46.21285" lon="6.25997">
        <ele>482.20001220703</ele>
        <time>2021-03-24T14:45:58.000Z</time>
      </trkpt>
      <trkpt lat="46.21278" lon="6.25928">
        <ele>480</ele>
        <time>2021-03-24T14:46:06.000Z</time>
      </trkpt>
      <trkpt lat="46.21279" lon="6.25912">
        <ele>479.79998779297</ele>
        <time>2021-03-24T14:46:08.000Z</time>
      </trkpt>
      <trkpt lat="46.21282" lon="6.25896">
        <ele>479.60000610352</ele>
        <time>2021-03-24T14:46:10.000Z</time>
      </trkpt>
      <trkpt lat="46.21287" lon="6.25882">
        <ele>480</ele>
        <time>2021-03-24T14:46:12.000Z</time>
      </trkpt>
      <trkpt lat="46.21292" lon="6.25865">
        <ele>479.79998779297</ele>
        <time>2021-03-24T14:46:14.000Z</time>
      </trkpt>
      <trkpt lat="46.21294" lon="6.25858">
        <ele>479.39999389648</ele>
        <time>2021-03-24T14:46:15.000Z</time>
      </trkpt>
      <trkpt lat="46.21304" lon="6.25826">
        <ele>477.39999389648</ele>
        <time>2021-03-24T14:46:19.000Z</time>
      </trkpt>
      <trkpt lat="46.21316" lon="6.25791">
        <ele>475</ele>
        <time>2021-03-24T14:46:23.000Z</time>
      </trkpt>
      <trkpt lat="46.21328" lon="6.25754">
        <ele>473.79998779297</ele>
        <time>2021-03-24T14:46:27.000Z</time>
      </trkpt>
      <trkpt lat="46.2133" lon="6.25749">
        <ele>473.60000610352</ele>
        <time>2021-03-24T14:46:28.000Z</time>
      </trkpt>
      <trkpt lat="46.21334" lon="6.25737">
        <ele>473.39999389648</ele>
        <time>2021-03-24T14:46:30.000Z</time>
      </trkpt>
      <trkpt lat="46.21339" lon="6.2573">
        <ele>473</ele>
        <time>2021-03-24T14:46:32.000Z</time>
      </trkpt>
      <trkpt lat="46.21356" lon="6.25738">
        <ele>471.79998779297</ele>
        <time>2021-03-24T14:46:36.000Z</time>
      </trkpt>
      <trkpt lat="46.21393" lon="6.25757">
        <ele>471.39999389648</ele>
        <time>2021-03-24T14:46:45.000Z</time>
      </trkpt>
      <trkpt lat="46.21429" lon="6.2578">
        <ele>472.39999389648</ele>
        <time>2021-03-24T14:46:53.000Z</time>
      </trkpt>
      <trkpt lat="46.21468" lon="6.25807">
        <ele>472.20001220703</ele>
        <time>2021-03-24T14:47:01.000Z</time>
      </trkpt>
      <trkpt lat="46.21508" lon="6.25829">
        <ele>473</ele>
        <time>2021-03-24T14:47:09.000Z</time>
      </trkpt>
      <trkpt lat="46.21549" lon="6.25843">
        <ele>474</ele>
        <time>2021-03-24T14:47:16.000Z</time>
      </trkpt>
      <trkpt lat="46.21554" lon="6.25845">
        <ele>474.20001220703</ele>
        <time>2021-03-24T14:47:17.000Z</time>
      </trkpt>
      <trkpt lat="46.21592" lon="6.25858">
        <ele>474.39999389648</ele>
        <time>2021-03-24T14:47:23.000Z</time>
      </trkpt>
      <trkpt lat="46.21614" lon="6.25866">
        <ele>473.60000610352</ele>
        <time>2021-03-24T14:47:27.000Z</time>
      </trkpt>
      <trkpt lat="46.21633" lon="6.25872">
        <ele>473</ele>
        <time>2021-03-24T14:47:30.000Z</time>
      </trkpt>
      <trkpt lat="46.21642" lon="6.25875">
        <ele>473</ele>
        <time>2021-03-24T14:47:32.000Z</time>
      </trkpt>
      <trkpt lat="46.21664" lon="6.25882">
        <ele>473.39999389648</ele>
        <time>2021-03-24T14:47:36.000Z</time>
      </trkpt>
      <trkpt lat="46.21698" lon="6.25893">
        <ele>475.39999389648</ele>
        <time>2021-03-24T14:47:42.000Z</time>
      </trkpt>
      <trkpt lat="46.2172" lon="6.25902">
        <ele>476</ele>
        <time>2021-03-24T14:47:46.000Z</time>
      </trkpt>
      <trkpt lat="46.21732" lon="6.25907">
        <ele>476</ele>
        <time>2021-03-24T14:47:48.000Z</time>
      </trkpt>
      <trkpt lat="46.21763" lon="6.25921">
        <ele>476.39999389648</ele>
        <time>2021-03-24T14:47:54.000Z</time>
      </trkpt>
      <trkpt lat="46.21781" lon="6.25929">
        <ele>476.60000610352</ele>
        <time>2021-03-24T14:47:58.000Z</time>
      </trkpt>
      <trkpt lat="46.21787" lon="6.25932">
        <ele>476.79998779297</ele>
        <time>2021-03-24T14:47:59.000Z</time>
      </trkpt>
      <trkpt lat="46.2179" lon="6.25933">
        <ele>476.79998779297</ele>
        <time>2021-03-24T14:48:00.000Z</time>
      </trkpt>
      <trkpt lat="46.21811" lon="6.25943">
        <ele>476.79998779297</ele>
        <time>2021-03-24T14:48:05.000Z</time>
      </trkpt>
      <trkpt lat="46.21831" lon="6.25952">
        <ele>476.60000610352</ele>
        <time>2021-03-24T14:48:09.000Z</time>
      </trkpt>
      <trkpt lat="46.21841" lon="6.25949">
        <ele>477.20001220703</ele>
        <time>2021-03-24T14:48:11.000Z</time>
      </trkpt>
      <trkpt lat="46.21848" lon="6.25944">
        <ele>477.60000610352</ele>
        <time>2021-03-24T14:48:13.000Z</time>
      </trkpt>
      <trkpt lat="46.21852" lon="6.25942">
        <ele>477.79998779297</ele>
        <time>2021-03-24T14:48:14.000Z</time>
      </trkpt>
      <trkpt lat="46.21866" lon="6.25932">
        <ele>478.20001220703</ele>
        <time>2021-03-24T14:48:17.000Z</time>
      </trkpt>
      <trkpt lat="46.21882" lon="6.25917">
        <ele>478</ele>
        <time>2021-03-24T14:48:21.000Z</time>
      </trkpt>
      <trkpt lat="46.21885" lon="6.25913">
        <ele>477.60000610352</ele>
        <time>2021-03-24T14:48:22.000Z</time>
      </trkpt>
      <trkpt lat="46.21899" lon="6.25889">
        <ele>475.39999389648</ele>
        <time>2021-03-24T14:48:26.000Z</time>
      </trkpt>
      <trkpt lat="46.21918" lon="6.25843">
        <ele>472</ele>
        <time>2021-03-24T14:48:32.000Z</time>
      </trkpt>
      <trkpt lat="46.21927" lon="6.25817">
        <ele>471</ele>
        <time>2021-03-24T14:48:35.000Z</time>
      </trkpt>
      <trkpt lat="46.21931" lon="6.258">
        <ele>470.20001220703</ele>
        <time>2021-03-24T14:48:37.000Z</time>
      </trkpt>
      <trkpt lat="46.21946" lon="6.25744">
        <ele>468</ele>
        <time>2021-03-24T14:48:43.000Z</time>
      </trkpt>
      <trkpt lat="46.21949" lon="6.25735">
        <ele>467.79998779297</ele>
        <time>2021-03-24T14:48:44.000Z</time>
      </trkpt>
      <trkpt lat="46.21959" lon="6.25698">
        <ele>466.60000610352</ele>
        <time>2021-03-24T14:48:48.000Z</time>
      </trkpt>
      <trkpt lat="46.21968" lon="6.25662">
        <ele>465.60000610352</ele>
        <time>2021-03-24T14:48:52.000Z</time>
      </trkpt>
      <trkpt lat="46.21971" lon="6.25654">
        <ele>465.39999389648</ele>
        <time>2021-03-24T14:48:53.000Z</time>
      </trkpt>
      <trkpt lat="46.21973" lon="6.25646">
        <ele>465.20001220703</ele>
        <time>2021-03-24T14:48:54.000Z</time>
      </trkpt>
      <trkpt lat="46.21977" lon="6.25626">
        <ele>464.60000610352</ele>
        <time>2021-03-24T14:48:56.000Z</time>
      </trkpt>
      <trkpt lat="46.21983" lon="6.25594">
        <ele>463.39999389648</ele>
        <time>2021-03-24T14:48:59.000Z</time>
      </trkpt>
      <trkpt lat="46.21983" lon="6.25584">
        <ele>463.39999389648</ele>
        <time>2021-03-24T14:49:00.000Z</time>
      </trkpt>
      <trkpt lat="46.21981" lon="6.25573">
        <ele>463.20001220703</ele>
        <time>2021-03-24T14:49:01.000Z</time>
      </trkpt>
      <trkpt lat="46.21977" lon="6.25552">
        <ele>462.39999389648</ele>
        <time>2021-03-24T14:49:03.000Z</time>
      </trkpt>
      <trkpt lat="46.21973" lon="6.25544">
        <ele>462</ele>
        <time>2021-03-24T14:49:04.000Z</time>
      </trkpt>
      <trkpt lat="46.21968" lon="6.25536">
        <ele>461.79998779297</ele>
        <time>2021-03-24T14:49:05.000Z</time>
      </trkpt>
      <trkpt lat="46.21957" lon="6.25519">
        <ele>461.60000610352</ele>
        <time>2021-03-24T14:49:07.000Z</time>
      </trkpt>
      <trkpt lat="46.21932" lon="6.25487">
        <ele>461.60000610352</ele>
        <time>2021-03-24T14:49:11.000Z</time>
      </trkpt>
      <trkpt lat="46.21927" lon="6.2548">
        <ele>461</ele>
        <time>2021-03-24T14:49:12.000Z</time>
      </trkpt>
      <trkpt lat="46.21922" lon="6.25467">
        <ele>459.60000610352</ele>
        <time>2021-03-24T14:49:14.000Z</time>
      </trkpt>
      <trkpt lat="46.21917" lon="6.25428">
        <ele>457</ele>
        <time>2021-03-24T14:49:18.000Z</time>
      </trkpt>
      <trkpt lat="46.21917" lon="6.25384">
        <ele>455.39999389648</ele>
        <time>2021-03-24T14:49:23.000Z</time>
      </trkpt>
      <trkpt lat="46.2192" lon="6.25377">
        <ele>455</ele>
        <time>2021-03-24T14:49:24.000Z</time>
      </trkpt>
      <trkpt lat="46.21927" lon="6.25357">
        <ele>453.79998779297</ele>
        <time>2021-03-24T14:49:28.000Z</time>
      </trkpt>
      <trkpt lat="46.2193" lon="6.2535">
        <ele>453.20001220703</ele>
        <time>2021-03-24T14:49:30.000Z</time>
      </trkpt>
      <trkpt lat="46.21932" lon="6.25344">
        <ele>453</ele>
        <time>2021-03-24T14:49:32.000Z</time>
      </trkpt>
      <trkpt lat="46.21917" lon="6.25343">
        <ele>453.60000610352</ele>
        <time>2021-03-24T14:49:35.000Z</time>
      </trkpt>
      <trkpt lat="46.21885" lon="6.25353">
        <ele>456.60000610352</ele>
        <time>2021-03-24T14:49:42.000Z</time>
      </trkpt>
      <trkpt lat="46.21877" lon="6.25354">
        <ele>457.39999389648</ele>
        <time>2021-03-24T14:49:44.000Z</time>
      </trkpt>
      <trkpt lat="46.21859" lon="6.25352">
        <ele>458.39999389648</ele>
        <time>2021-03-24T14:49:47.000Z</time>
      </trkpt>
      <trkpt lat="46.21819" lon="6.25338">
        <ele>457</ele>
        <time>2021-03-24T14:49:54.000Z</time>
      </trkpt>
      <trkpt lat="46.21802" lon="6.25332">
        <ele>455.60000610352</ele>
        <time>2021-03-24T14:49:57.000Z</time>
      </trkpt>
      <trkpt lat="46.21783" lon="6.25323">
        <ele>454.79998779297</ele>
        <time>2021-03-24T14:50:00.000Z</time>
      </trkpt>
      <trkpt lat="46.21746" lon="6.25303">
        <ele>454.20001220703</ele>
        <time>2021-03-24T14:50:06.000Z</time>
      </trkpt>
      <trkpt lat="46.217" lon="6.25273">
        <ele>452.60000610352</ele>
        <time>2021-03-24T14:50:14.000Z</time>
      </trkpt>
      <trkpt lat="46.2169" lon="6.25262">
        <ele>451.79998779297</ele>
        <time>2021-03-24T14:50:16.000Z</time>
      </trkpt>
      <trkpt lat="46.21674" lon="6.25244">
        <ele>451</ele>
        <time>2021-03-24T14:50:19.000Z</time>
      </trkpt>
      <trkpt lat="46.21645" lon="6.2521">
        <ele>450.79998779297</ele>
        <time>2021-03-24T14:50:25.000Z</time>
      </trkpt>
      <trkpt lat="46.21621" lon="6.2518">
        <ele>449.60000610352</ele>
        <time>2021-03-24T14:50:29.000Z</time>
      </trkpt>
      <trkpt lat="46.21616" lon="6.25174">
        <ele>449.39999389648</ele>
        <time>2021-03-24T14:50:30.000Z</time>
      </trkpt>
      <trkpt lat="46.2159" lon="6.25143">
        <ele>448.39999389648</ele>
        <time>2021-03-24T14:50:35.000Z</time>
      </trkpt>
      <trkpt lat="46.21551" lon="6.25104">
        <ele>447.79998779297</ele>
        <time>2021-03-24T14:50:42.000Z</time>
      </trkpt>
      <trkpt lat="46.21517" lon="6.2507">
        <ele>448</ele>
        <time>2021-03-24T14:50:48.000Z</time>
      </trkpt>
      <trkpt lat="46.21501" lon="6.25055">
        <ele>448</ele>
        <time>2021-03-24T14:50:51.000Z</time>
      </trkpt>
      <trkpt lat="46.21491" lon="6.25045">
        <ele>448</ele>
        <time>2021-03-24T14:50:53.000Z</time>
      </trkpt>
      <trkpt lat="46.21489" lon="6.25027">
        <ele>448</ele>
        <time>2021-03-24T14:50:55.000Z</time>
      </trkpt>
      <trkpt lat="46.21488" lon="6.25016">
        <ele>447.79998779297</ele>
        <time>2021-03-24T14:50:56.000Z</time>
      </trkpt>
      <trkpt lat="46.2149" lon="6.25006">
        <ele>447.39999389648</ele>
        <time>2021-03-24T14:50:57.000Z</time>
      </trkpt>
      <trkpt lat="46.21502" lon="6.24963">
        <ele>446</ele>
        <time>2021-03-24T14:51:02.000Z</time>
      </trkpt>
      <trkpt lat="46.21525" lon="6.24909">
        <ele>443.79998779297</ele>
        <time>2021-03-24T14:51:08.000Z</time>
      </trkpt>
      <trkpt lat="46.21553" lon="6.24847">
        <ele>441.79998779297</ele>
        <time>2021-03-24T14:51:15.000Z</time>
      </trkpt>
      <trkpt lat="46.21564" lon="6.24822">
        <ele>441.39999389648</ele>
        <time>2021-03-24T14:51:18.000Z</time>
      </trkpt>
      <trkpt lat="46.2157" lon="6.24804">
        <ele>441</ele>
        <time>2021-03-24T14:51:20.000Z</time>
      </trkpt>
      <trkpt lat="46.21568" lon="6.24786">
        <ele>440.60000610352</ele>
        <time>2021-03-24T14:51:22.000Z</time>
      </trkpt>
      <trkpt lat="46.21568" lon="6.24781">
        <ele>440.39999389648</ele>
        <time>2021-03-24T14:51:23.000Z</time>
      </trkpt>
      <trkpt lat="46.21563" lon="6.24771">
        <ele>440</ele>
        <time>2021-03-24T14:51:24.000Z</time>
      </trkpt>
      <trkpt lat="46.21555" lon="6.24759">
        <ele>439.60000610352</ele>
        <time>2021-03-24T14:51:26.000Z</time>
      </trkpt>
      <trkpt lat="46.21517" lon="6.24732">
        <ele>440.60000610352</ele>
        <time>2021-03-24T14:51:33.000Z</time>
      </trkpt>
      <trkpt lat="46.21464" lon="6.24695">
        <ele>444</ele>
        <time>2021-03-24T14:51:43.000Z</time>
      </trkpt>
      <trkpt lat="46.21438" lon="6.24677">
        <ele>444.60000610352</ele>
        <time>2021-03-24T14:51:48.000Z</time>
      </trkpt>
      <trkpt lat="46.21409" lon="6.24656">
        <ele>443.60000610352</ele>
        <time>2021-03-24T14:51:53.000Z</time>
      </trkpt>
      <trkpt lat="46.21374" lon="6.24632">
        <ele>440.79998779297</ele>
        <time>2021-03-24T14:51:59.000Z</time>
      </trkpt>
      <trkpt lat="46.21324" lon="6.24595">
        <ele>439.79998779297</ele>
        <time>2021-03-24T14:52:08.000Z</time>
      </trkpt>
      <trkpt lat="46.21318" lon="6.24591">
        <ele>439.39999389648</ele>
        <time>2021-03-24T14:52:09.000Z</time>
      </trkpt>
      <trkpt lat="46.21314" lon="6.24588">
        <ele>439.20001220703</ele>
        <time>2021-03-24T14:52:10.000Z</time>
      </trkpt>
      <trkpt lat="46.21287" lon="6.24568">
        <ele>438.39999389648</ele>
        <time>2021-03-24T14:52:15.000Z</time>
      </trkpt>
      <trkpt lat="46.2125" lon="6.24535">
        <ele>440</ele>
        <time>2021-03-24T14:52:22.000Z</time>
      </trkpt>
      <trkpt lat="46.2122" lon="6.24489">
        <ele>440.79998779297</ele>
        <time>2021-03-24T14:52:29.000Z</time>
      </trkpt>
      <trkpt lat="46.21179" lon="6.24428">
        <ele>441</ele>
        <time>2021-03-24T14:52:38.000Z</time>
      </trkpt>
      <trkpt lat="46.21137" lon="6.24366">
        <ele>438.60000610352</ele>
        <time>2021-03-24T14:52:47.000Z</time>
      </trkpt>
      <trkpt lat="46.21109" lon="6.24324">
        <ele>437.60000610352</ele>
        <time>2021-03-24T14:52:53.000Z</time>
      </trkpt>
      <trkpt lat="46.21071" lon="6.24266">
        <ele>438.20001220703</ele>
        <time>2021-03-24T14:53:01.000Z</time>
      </trkpt>
      <trkpt lat="46.21067" lon="6.24259">
        <ele>438.20001220703</ele>
        <time>2021-03-24T14:53:02.000Z</time>
      </trkpt>
      <trkpt lat="46.2103" lon="6.24204">
        <ele>438.39999389648</ele>
        <time>2021-03-24T14:53:10.000Z</time>
      </trkpt>
      <trkpt lat="46.21024" lon="6.24195">
        <ele>438.20001220703</ele>
        <time>2021-03-24T14:53:11.000Z</time>
      </trkpt>
      <trkpt lat="46.20982" lon="6.24131">
        <ele>439.39999389648</ele>
        <time>2021-03-24T14:53:20.000Z</time>
      </trkpt>
      <trkpt lat="46.2097" lon="6.24123">
        <ele>438.79998779297</ele>
        <time>2021-03-24T14:53:22.000Z</time>
      </trkpt>
      <trkpt lat="46.2096" lon="6.24117">
        <ele>438.60000610352</ele>
        <time>2021-03-24T14:53:24.000Z</time>
      </trkpt>
      <trkpt lat="46.20928" lon="6.24112">
        <ele>438.60000610352</ele>
        <time>2021-03-24T14:53:29.000Z</time>
      </trkpt>
      <trkpt lat="46.20882" lon="6.24106">
        <ele>439</ele>
        <time>2021-03-24T14:53:37.000Z</time>
      </trkpt>
      <trkpt lat="46.20877" lon="6.24104">
        <ele>439</ele>
        <time>2021-03-24T14:53:38.000Z</time>
      </trkpt>
      <trkpt lat="46.20866" lon="6.241">
        <ele>439</ele>
        <time>2021-03-24T14:53:40.000Z</time>
      </trkpt>
      <trkpt lat="46.20862" lon="6.24096">
        <ele>439</ele>
        <time>2021-03-24T14:53:41.000Z</time>
      </trkpt>
      <trkpt lat="46.20853" lon="6.24083">
        <ele>439</ele>
        <time>2021-03-24T14:53:44.000Z</time>
      </trkpt>
      <trkpt lat="46.20843" lon="6.24069">
        <ele>439</ele>
        <time>2021-03-24T14:53:47.000Z</time>
      </trkpt>
      <trkpt lat="46.20839" lon="6.24063">
        <ele>439</ele>
        <time>2021-03-24T14:53:48.000Z</time>
      </trkpt>
      <trkpt lat="46.20827" lon="6.24056">
        <ele>438.79998779297</ele>
        <time>2021-03-24T14:53:51.000Z</time>
      </trkpt>
      <trkpt lat="46.20821" lon="6.24054">
        <ele>438.79998779297</ele>
        <time>2021-03-24T14:53:52.000Z</time>
      </trkpt>
      <trkpt lat="46.20815" lon="6.24052">
        <ele>438.79998779297</ele>
        <time>2021-03-24T14:53:53.000Z</time>
      </trkpt>
      <trkpt lat="46.208" lon="6.24049">
        <ele>439</ele>
        <time>2021-03-24T14:53:56.000Z</time>
      </trkpt>
      <trkpt lat="46.20796" lon="6.24048">
        <ele>439</ele>
        <time>2021-03-24T14:53:57.000Z</time>
      </trkpt>
      <trkpt lat="46.20785" lon="6.24046">
        <ele>439</ele>
        <time>2021-03-24T14:53:59.000Z</time>
      </trkpt>
      <trkpt lat="46.2076" lon="6.24034">
        <ele>438.39999389648</ele>
        <time>2021-03-24T14:54:04.000Z</time>
      </trkpt>
      <trkpt lat="46.20721" lon="6.24015">
        <ele>437.20001220703</ele>
        <time>2021-03-24T14:54:11.000Z</time>
      </trkpt>
      <trkpt lat="46.20682" lon="6.24007">
        <ele>436.39999389648</ele>
        <time>2021-03-24T14:54:17.000Z</time>
      </trkpt>
      <trkpt lat="46.20657" lon="6.24001">
        <ele>436</ele>
        <time>2021-03-24T14:54:21.000Z</time>
      </trkpt>
      <trkpt lat="46.20644" lon="6.23998">
        <ele>436.60000610352</ele>
        <time>2021-03-24T14:54:23.000Z</time>
      </trkpt>
      <trkpt lat="46.20594" lon="6.23983">
        <ele>436</ele>
        <time>2021-03-24T14:54:31.000Z</time>
      </trkpt>
      <trkpt lat="46.20548" lon="6.23961">
        <ele>437.79998779297</ele>
        <time>2021-03-24T14:54:39.000Z</time>
      </trkpt>
      <trkpt lat="46.20534" lon="6.23954">
        <ele>438.39999389648</ele>
        <time>2021-03-24T14:54:43.000Z</time>
      </trkpt>
      <trkpt lat="46.20522" lon="6.23947">
        <ele>439</ele>
        <time>2021-03-24T14:54:48.000Z</time>
      </trkpt>
      <trkpt lat="46.20506" lon="6.23941">
        <ele>438.60000610352</ele>
        <time>2021-03-24T14:54:53.000Z</time>
      </trkpt>
      <trkpt lat="46.20498" lon="6.23939">
        <ele>438.20001220703</ele>
        <time>2021-03-24T14:54:55.000Z</time>
      </trkpt>
      <trkpt lat="46.20483" lon="6.23934">
        <ele>437.79998779297</ele>
        <time>2021-03-24T14:54:58.000Z</time>
      </trkpt>
      <trkpt lat="46.20473" lon="6.2393">
        <ele>437.79998779297</ele>
        <time>2021-03-24T14:55:01.000Z</time>
      </trkpt>
      <trkpt lat="46.20466" lon="6.23928">
        <ele>437.60000610352</ele>
        <time>2021-03-24T14:55:05.000Z</time>
      </trkpt>
      <trkpt lat="46.20464" lon="6.2393">
        <ele>437.79998779297</ele>
        <time>2021-03-24T14:55:06.000Z</time>
      </trkpt>
      <trkpt lat="46.20462" lon="6.2394">
        <ele>438.20001220703</ele>
        <time>2021-03-24T14:55:08.000Z</time>
      </trkpt>
      <trkpt lat="46.20459" lon="6.23951">
        <ele>438.60000610352</ele>
        <time>2021-03-24T14:55:10.000Z</time>
      </trkpt>
      <trkpt lat="46.20441" lon="6.24013">
        <ele>438</ele>
        <time>2021-03-24T14:55:19.000Z</time>
      </trkpt>
      <trkpt lat="46.20429" lon="6.24047">
        <ele>438</ele>
        <time>2021-03-24T14:55:25.000Z</time>
      </trkpt>
      <trkpt lat="46.20427" lon="6.24052">
        <ele>438.20001220703</ele>
        <time>2021-03-24T14:55:26.000Z</time>
      </trkpt>
      <trkpt lat="46.20424" lon="6.24057">
        <ele>438.39999389648</ele>
        <time>2021-03-24T14:55:27.000Z</time>
      </trkpt>
      <trkpt lat="46.20416" lon="6.24055">
        <ele>438.20001220703</ele>
        <time>2021-03-24T14:55:29.000Z</time>
      </trkpt>
      <trkpt lat="46.20413" lon="6.24055">
        <ele>438.20001220703</ele>
        <time>2021-03-24T14:55:30.000Z</time>
      </trkpt>
      <trkpt lat="46.20404" lon="6.24067">
        <ele>438.39999389648</ele>
        <time>2021-03-24T14:55:32.000Z</time>
      </trkpt>
      <trkpt lat="46.20409" lon="6.24082">
        <ele>438.79998779297</ele>
        <time>2021-03-24T14:55:34.000Z</time>
      </trkpt>
      <trkpt lat="46.20411" lon="6.24086">
        <ele>438.79998779297</ele>
        <time>2021-03-24T14:55:35.000Z</time>
      </trkpt>
      <trkpt lat="46.20415" lon="6.24101">
        <ele>438.60000610352</ele>
        <time>2021-03-24T14:55:37.000Z</time>
      </trkpt>
      <trkpt lat="46.20419" lon="6.24114">
        <ele>438.79998779297</ele>
        <time>2021-03-24T14:55:39.000Z</time>
      </trkpt>
      <trkpt lat="46.20415" lon="6.24164">
        <ele>440.39999389648</ele>
        <time>2021-03-24T14:55:46.000Z</time>
      </trkpt>
      <trkpt lat="46.20411" lon="6.24221">
        <ele>440.20001220703</ele>
        <time>2021-03-24T14:55:54.000Z</time>
      </trkpt>
      <trkpt lat="46.20407" lon="6.24275">
        <ele>441</ele>
        <time>2021-03-24T14:56:02.000Z</time>
      </trkpt>
      <trkpt lat="46.20404" lon="6.24315">
        <ele>441.39999389648</ele>
        <time>2021-03-24T14:56:08.000Z</time>
      </trkpt>
      <trkpt lat="46.204" lon="6.24369">
        <ele>440.39999389648</ele>
        <time>2021-03-24T14:56:16.000Z</time>
      </trkpt>
      <trkpt lat="46.20398" lon="6.24404">
        <ele>439.79998779297</ele>
        <time>2021-03-24T14:56:21.000Z</time>
      </trkpt>
      <trkpt lat="46.20396" lon="6.24416">
        <ele>439.79998779297</ele>
        <time>2021-03-24T14:56:23.000Z</time>
      </trkpt>
      <trkpt lat="46.20375" lon="6.24451">
        <ele>439</ele>
        <time>2021-03-24T14:56:30.000Z</time>
      </trkpt>
      <trkpt lat="46.20366" lon="6.24446">
        <ele>439</ele>
        <time>2021-03-24T14:56:32.000Z</time>
      </trkpt>
      <trkpt lat="46.20359" lon="6.24445">
        <ele>439</ele>
        <time>2021-03-24T14:56:33.000Z</time>
      </trkpt>
      <trkpt lat="46.20356" lon="6.24442">
        <ele>439</ele>
        <time>2021-03-24T14:56:34.000Z</time>
      </trkpt>
      <trkpt lat="46.20347" lon="6.24418">
        <ele>439.60000610352</ele>
        <time>2021-03-24T14:56:37.000Z</time>
      </trkpt>
      <trkpt lat="46.20335" lon="6.24378">
        <ele>438.79998779297</ele>
        <time>2021-03-24T14:56:42.000Z</time>
      </trkpt>
      <trkpt lat="46.20316" lon="6.2431">
        <ele>438.79998779297</ele>
        <time>2021-03-24T14:56:49.000Z</time>
      </trkpt>
      <trkpt lat="46.20306" lon="6.24305">
        <ele>439</ele>
        <time>2021-03-24T14:56:50.000Z</time>
      </trkpt>
      <trkpt lat="46.20299" lon="6.24286">
        <ele>438</ele>
        <time>2021-03-24T14:56:52.000Z</time>
      </trkpt>
      <trkpt lat="46.20269" lon="6.24278">
        <ele>438.20001220703</ele>
        <time>2021-03-24T14:56:56.000Z</time>
      </trkpt>
      <trkpt lat="46.2023" lon="6.24261">
        <ele>437.60000610352</ele>
        <time>2021-03-24T14:57:02.000Z</time>
      </trkpt>
      <trkpt lat="46.20224" lon="6.24255">
        <ele>437.39999389648</ele>
        <time>2021-03-24T14:57:03.000Z</time>
      </trkpt>
      <trkpt lat="46.20219" lon="6.24249">
        <ele>437.20001220703</ele>
        <time>2021-03-24T14:57:04.000Z</time>
      </trkpt>
      <trkpt lat="46.20205" lon="6.2423">
        <ele>436.79998779297</ele>
        <time>2021-03-24T14:57:07.000Z</time>
      </trkpt>
      <trkpt lat="46.20171" lon="6.2417">
        <ele>437</ele>
        <time>2021-03-24T14:57:15.000Z</time>
      </trkpt>
      <trkpt lat="46.20141" lon="6.24116">
        <ele>437</ele>
        <time>2021-03-24T14:57:23.000Z</time>
      </trkpt>
      <trkpt lat="46.20119" lon="6.24075">
        <ele>436</ele>
        <time>2021-03-24T14:57:30.000Z</time>
      </trkpt>
      <trkpt lat="46.20096" lon="6.24034">
        <ele>436</ele>
        <time>2021-03-24T14:57:36.000Z</time>
      </trkpt>
      <trkpt lat="46.2007" lon="6.23988">
        <ele>436</ele>
        <time>2021-03-24T14:57:42.000Z</time>
      </trkpt>
      <trkpt lat="46.20038" lon="6.23933">
        <ele>435.20001220703</ele>
        <time>2021-03-24T14:57:50.000Z</time>
      </trkpt>
      <trkpt lat="46.20019" lon="6.23899">
        <ele>435</ele>
        <time>2021-03-24T14:57:55.000Z</time>
      </trkpt>
      <trkpt lat="46.20015" lon="6.23892">
        <ele>435</ele>
        <time>2021-03-24T14:57:56.000Z</time>
      </trkpt>
      <trkpt lat="46.20011" lon="6.2389">
        <ele>435</ele>
        <time>2021-03-24T14:57:57.000Z</time>
      </trkpt>
      <trkpt lat="46.20002" lon="6.23887">
        <ele>435</ele>
        <time>2021-03-24T14:57:59.000Z</time>
      </trkpt>
      <trkpt lat="46.20002" lon="6.23887">
        <ele>435</ele>
        <time>2021-03-24T14:58:01.000Z</time>
      </trkpt>
      <trkpt lat="46.20002" lon="6.23887">
        <ele>435</ele>
        <time>2021-03-24T14:58:03.000Z</time>
      </trkpt>
      <trkpt lat="46.20002" lon="6.23887">
        <ele>435</ele>
        <time>2021-03-24T14:58:04.000Z</time>
      </trkpt>
      <trkpt lat="46.20002" lon="6.23887">
        <ele>435</ele>
        <time>2021-03-24T14:58:05.000Z</time>
      </trkpt>
    </trkseg>
  </trk>
</gpx>